<?xml version="1.0" encoding="UTF-8" standalone="no" ?>
<gpx xmlns="http://www.topografix.com/GPX/1/1" xmlns:xsi="http://www.w3.org/2001/XMLSchema-instance" xsi:schemaLocation="http://www.topografix.com/GPX/1/1 http://www.topografix.com/GPX/1/1/gpx.xsd" version="1.1" creator="VisuGPX - https://www.visugpx.com">
  <metadata>
    <name>Cabrieres retoucher</name>
    <desc><![CDATA[belle rando assez technique]]></desc>
  </metadata>
  <trk>
    <name><![CDATA[visugpx_0RD5mXWSUz_1]]></name>
    <extensions>
      <line xmlns="http://www.topografix.com/GPX/gpx_style/0/2">
        <color>001eff</color>
        <opacity>0.8</opacity>
        <width>3</width>
          <extensions>
            <sens>1</sens>
          </extensions>
      </line>
    </extensions>
    <trkseg>
      <trkpt lat="43.57245" lon="3.36343">
        <ele>104.6</ele>
        <time>2023-10-12T11:53:20Z</time>
      </trkpt>
      <trkpt lat="43.57224" lon="3.36336">
        <ele>159.6</ele>
        <time>2023-10-12T11:53:23Z</time>
      </trkpt>
      <trkpt lat="43.57215" lon="3.36334">
        <ele>159.6</ele>
        <time>2023-10-12T11:53:26Z</time>
      </trkpt>
      <trkpt lat="43.57205" lon="3.36331">
        <ele>159.6</ele>
        <time>2023-10-12T11:53:30Z</time>
      </trkpt>
      <trkpt lat="43.57194" lon="3.36328">
        <ele>159.6</ele>
        <time>2023-10-12T11:53:35Z</time>
      </trkpt>
      <trkpt lat="43.57184" lon="3.36325">
        <ele>159.6</ele>
        <time>2023-10-12T11:53:39Z</time>
      </trkpt>
      <trkpt lat="43.57175" lon="3.36323">
        <ele>159.6</ele>
        <time>2023-10-12T11:53:43Z</time>
      </trkpt>
      <trkpt lat="43.57164" lon="3.36321">
        <ele>159.6</ele>
        <time>2023-10-12T11:53:47Z</time>
      </trkpt>
      <trkpt lat="43.57155" lon="3.36318">
        <ele>159.8</ele>
        <time>2023-10-12T11:53:51Z</time>
      </trkpt>
      <trkpt lat="43.57146" lon="3.36316">
        <ele>159.8</ele>
        <time>2023-10-12T11:53:55Z</time>
      </trkpt>
      <trkpt lat="43.57135" lon="3.36311">
        <ele>160</ele>
        <time>2023-10-12T11:53:59Z</time>
      </trkpt>
      <trkpt lat="43.57125" lon="3.36303">
        <ele>160</ele>
        <time>2023-10-12T11:54:03Z</time>
      </trkpt>
      <trkpt lat="43.57116" lon="3.36295">
        <ele>160.2</ele>
        <time>2023-10-12T11:54:08Z</time>
      </trkpt>
      <trkpt lat="43.57107" lon="3.36288">
        <ele>160.2</ele>
        <time>2023-10-12T11:54:12Z</time>
      </trkpt>
      <trkpt lat="43.57099" lon="3.36283">
        <ele>160.4</ele>
        <time>2023-10-12T11:54:16Z</time>
      </trkpt>
      <trkpt lat="43.57088" lon="3.36279">
        <ele>160.4</ele>
        <time>2023-10-12T11:54:21Z</time>
      </trkpt>
      <trkpt lat="43.57078" lon="3.36277">
        <ele>160.6</ele>
        <time>2023-10-12T11:54:26Z</time>
      </trkpt>
      <trkpt lat="43.57068" lon="3.36273">
        <ele>160.6</ele>
        <time>2023-10-12T11:54:31Z</time>
      </trkpt>
      <trkpt lat="43.57059" lon="3.36271">
        <ele>160.8</ele>
        <time>2023-10-12T11:54:35Z</time>
      </trkpt>
      <trkpt lat="43.57049" lon="3.36268">
        <ele>160.8</ele>
        <time>2023-10-12T11:54:39Z</time>
      </trkpt>
      <trkpt lat="43.57037" lon="3.36265">
        <ele>161</ele>
        <time>2023-10-12T11:54:43Z</time>
      </trkpt>
      <trkpt lat="43.57027" lon="3.36264">
        <ele>161</ele>
        <time>2023-10-12T11:54:46Z</time>
      </trkpt>
      <trkpt lat="43.57015" lon="3.36262">
        <ele>161.2</ele>
        <time>2023-10-12T11:54:49Z</time>
      </trkpt>
      <trkpt lat="43.57006" lon="3.3626">
        <ele>161.2</ele>
        <time>2023-10-12T11:54:51Z</time>
      </trkpt>
      <trkpt lat="43.56997" lon="3.36258">
        <ele>161.2</ele>
        <time>2023-10-12T11:54:53Z</time>
      </trkpt>
      <trkpt lat="43.56987" lon="3.36256">
        <ele>161.4</ele>
        <time>2023-10-12T11:54:55Z</time>
      </trkpt>
      <trkpt lat="43.56978" lon="3.36255">
        <ele>161.8</ele>
        <time>2023-10-12T11:54:57Z</time>
      </trkpt>
      <trkpt lat="43.56966" lon="3.36257">
        <ele>162.2</ele>
        <time>2023-10-12T11:55:00Z</time>
      </trkpt>
      <trkpt lat="43.56955" lon="3.36261">
        <ele>162.8</ele>
        <time>2023-10-12T11:55:03Z</time>
      </trkpt>
      <trkpt lat="43.56944" lon="3.36267">
        <ele>163.2</ele>
        <time>2023-10-12T11:55:06Z</time>
      </trkpt>
      <trkpt lat="43.56935" lon="3.36272">
        <ele>163.4</ele>
        <time>2023-10-12T11:55:09Z</time>
      </trkpt>
      <trkpt lat="43.56926" lon="3.36277">
        <ele>163.8</ele>
        <time>2023-10-12T11:55:12Z</time>
      </trkpt>
      <trkpt lat="43.56917" lon="3.3628">
        <ele>164.2</ele>
        <time>2023-10-12T11:55:15Z</time>
      </trkpt>
      <trkpt lat="43.56907" lon="3.36281">
        <ele>164.6</ele>
        <time>2023-10-12T11:55:18Z</time>
      </trkpt>
      <trkpt lat="43.56898" lon="3.3628">
        <ele>164.8</ele>
        <time>2023-10-12T11:55:21Z</time>
      </trkpt>
      <trkpt lat="43.56887" lon="3.36273">
        <ele>165.4</ele>
        <time>2023-10-12T11:55:25Z</time>
      </trkpt>
      <trkpt lat="43.56879" lon="3.36264">
        <ele>165.8</ele>
        <time>2023-10-12T11:55:29Z</time>
      </trkpt>
      <trkpt lat="43.56869" lon="3.36255">
        <ele>166.2</ele>
        <time>2023-10-12T11:55:33Z</time>
      </trkpt>
      <trkpt lat="43.5686" lon="3.36248">
        <ele>166.6</ele>
        <time>2023-10-12T11:55:37Z</time>
      </trkpt>
      <trkpt lat="43.5685" lon="3.36241">
        <ele>167</ele>
        <time>2023-10-12T11:55:41Z</time>
      </trkpt>
      <trkpt lat="43.5684" lon="3.36235">
        <ele>167.4</ele>
        <time>2023-10-12T11:55:45Z</time>
      </trkpt>
      <trkpt lat="43.5683" lon="3.36228">
        <ele>167.8</ele>
        <time>2023-10-12T11:55:49Z</time>
      </trkpt>
      <trkpt lat="43.56821" lon="3.36218">
        <ele>168</ele>
        <time>2023-10-12T11:55:53Z</time>
      </trkpt>
      <trkpt lat="43.56814" lon="3.36206">
        <ele>168</ele>
        <time>2023-10-12T11:55:57Z</time>
      </trkpt>
      <trkpt lat="43.56808" lon="3.36195">
        <ele>168</ele>
        <time>2023-10-12T11:56:01Z</time>
      </trkpt>
      <trkpt lat="43.56801" lon="3.36183">
        <ele>168</ele>
        <time>2023-10-12T11:56:05Z</time>
      </trkpt>
      <trkpt lat="43.56796" lon="3.36172">
        <ele>168</ele>
        <time>2023-10-12T11:56:08Z</time>
      </trkpt>
      <trkpt lat="43.56788" lon="3.3616">
        <ele>168</ele>
        <time>2023-10-12T11:56:11Z</time>
      </trkpt>
      <trkpt lat="43.5678" lon="3.36147">
        <ele>168.2</ele>
        <time>2023-10-12T11:56:14Z</time>
      </trkpt>
      <trkpt lat="43.56775" lon="3.36131">
        <ele>168.2</ele>
        <time>2023-10-12T11:56:17Z</time>
      </trkpt>
      <trkpt lat="43.56773" lon="3.36116">
        <ele>168.2</ele>
        <time>2023-10-12T11:56:20Z</time>
      </trkpt>
      <trkpt lat="43.56772" lon="3.36103">
        <ele>168.2</ele>
        <time>2023-10-12T11:56:23Z</time>
      </trkpt>
      <trkpt lat="43.56772" lon="3.36087">
        <ele>168.2</ele>
        <time>2023-10-12T11:56:28Z</time>
      </trkpt>
      <trkpt lat="43.56771" lon="3.36075">
        <ele>168.2</ele>
        <time>2023-10-12T11:56:32Z</time>
      </trkpt>
      <trkpt lat="43.56769" lon="3.3606">
        <ele>168.4</ele>
        <time>2023-10-12T11:56:35Z</time>
      </trkpt>
      <trkpt lat="43.56766" lon="3.36045">
        <ele>168.4</ele>
        <time>2023-10-12T11:56:38Z</time>
      </trkpt>
      <trkpt lat="43.56764" lon="3.3603">
        <ele>168.4</ele>
        <time>2023-10-12T11:56:41Z</time>
      </trkpt>
      <trkpt lat="43.56762" lon="3.36016">
        <ele>168.4</ele>
        <time>2023-10-12T11:56:44Z</time>
      </trkpt>
      <trkpt lat="43.56759" lon="3.36002">
        <ele>168.4</ele>
        <time>2023-10-12T11:56:47Z</time>
      </trkpt>
      <trkpt lat="43.56755" lon="3.35988">
        <ele>168.6</ele>
        <time>2023-10-12T11:56:50Z</time>
      </trkpt>
      <trkpt lat="43.56752" lon="3.35974">
        <ele>168.6</ele>
        <time>2023-10-12T11:56:53Z</time>
      </trkpt>
      <trkpt lat="43.5675" lon="3.3596">
        <ele>168.8</ele>
        <time>2023-10-12T11:56:56Z</time>
      </trkpt>
      <trkpt lat="43.56747" lon="3.35946">
        <ele>169</ele>
        <time>2023-10-12T11:56:59Z</time>
      </trkpt>
      <trkpt lat="43.56744" lon="3.35932">
        <ele>169</ele>
        <time>2023-10-12T11:57:02Z</time>
      </trkpt>
      <trkpt lat="43.56741" lon="3.35918">
        <ele>169.2</ele>
        <time>2023-10-12T11:57:05Z</time>
      </trkpt>
      <trkpt lat="43.56737" lon="3.35904">
        <ele>169.4</ele>
        <time>2023-10-12T11:57:08Z</time>
      </trkpt>
      <trkpt lat="43.56734" lon="3.35888">
        <ele>169.6</ele>
        <time>2023-10-12T11:57:11Z</time>
      </trkpt>
      <trkpt lat="43.56731" lon="3.35871">
        <ele>169.6</ele>
        <time>2023-10-12T11:57:14Z</time>
      </trkpt>
      <trkpt lat="43.56727" lon="3.35857">
        <ele>169.8</ele>
        <time>2023-10-12T11:57:17Z</time>
      </trkpt>
      <trkpt lat="43.56722" lon="3.35843">
        <ele>170</ele>
        <time>2023-10-12T11:57:20Z</time>
      </trkpt>
      <trkpt lat="43.56718" lon="3.35827">
        <ele>170</ele>
        <time>2023-10-12T11:57:23Z</time>
      </trkpt>
      <trkpt lat="43.56715" lon="3.3581">
        <ele>170.2</ele>
        <time>2023-10-12T11:57:26Z</time>
      </trkpt>
      <trkpt lat="43.56713" lon="3.35794">
        <ele>170.4</ele>
        <time>2023-10-12T11:57:29Z</time>
      </trkpt>
      <trkpt lat="43.56711" lon="3.35779">
        <ele>170.6</ele>
        <time>2023-10-12T11:57:32Z</time>
      </trkpt>
      <trkpt lat="43.56708" lon="3.35762">
        <ele>170.8</ele>
        <time>2023-10-12T11:57:35Z</time>
      </trkpt>
      <trkpt lat="43.56705" lon="3.35745">
        <ele>171.2</ele>
        <time>2023-10-12T11:57:38Z</time>
      </trkpt>
      <trkpt lat="43.56704" lon="3.35728">
        <ele>171.8</ele>
        <time>2023-10-12T11:57:41Z</time>
      </trkpt>
      <trkpt lat="43.56703" lon="3.35711">
        <ele>172.2</ele>
        <time>2023-10-12T11:57:44Z</time>
      </trkpt>
      <trkpt lat="43.56703" lon="3.35695">
        <ele>172.6</ele>
        <time>2023-10-12T11:57:47Z</time>
      </trkpt>
      <trkpt lat="43.56704" lon="3.35679">
        <ele>173.2</ele>
        <time>2023-10-12T11:57:50Z</time>
      </trkpt>
      <trkpt lat="43.56706" lon="3.35663">
        <ele>173.6</ele>
        <time>2023-10-12T11:57:53Z</time>
      </trkpt>
      <trkpt lat="43.56709" lon="3.35646">
        <ele>174.2</ele>
        <time>2023-10-12T11:57:56Z</time>
      </trkpt>
      <trkpt lat="43.56707" lon="3.35629">
        <ele>174.6</ele>
        <time>2023-10-12T11:57:59Z</time>
      </trkpt>
      <trkpt lat="43.56702" lon="3.35614">
        <ele>175.2</ele>
        <time>2023-10-12T11:58:02Z</time>
      </trkpt>
      <trkpt lat="43.56701" lon="3.35598">
        <ele>175.6</ele>
        <time>2023-10-12T11:58:05Z</time>
      </trkpt>
      <trkpt lat="43.567" lon="3.35582">
        <ele>176</ele>
        <time>2023-10-12T11:58:08Z</time>
      </trkpt>
      <trkpt lat="43.567" lon="3.35568">
        <ele>176.4</ele>
        <time>2023-10-12T11:58:11Z</time>
      </trkpt>
      <trkpt lat="43.567" lon="3.35555">
        <ele>176.8</ele>
        <time>2023-10-12T11:58:14Z</time>
      </trkpt>
      <trkpt lat="43.567" lon="3.35542">
        <ele>177.2</ele>
        <time>2023-10-12T11:58:17Z</time>
      </trkpt>
      <trkpt lat="43.56701" lon="3.35525">
        <ele>177.8</ele>
        <time>2023-10-12T11:58:21Z</time>
      </trkpt>
      <trkpt lat="43.56701" lon="3.35511">
        <ele>178.2</ele>
        <time>2023-10-12T11:58:25Z</time>
      </trkpt>
      <trkpt lat="43.56701" lon="3.35495">
        <ele>178.6</ele>
        <time>2023-10-12T11:58:29Z</time>
      </trkpt>
      <trkpt lat="43.567" lon="3.3548">
        <ele>179.2</ele>
        <time>2023-10-12T11:58:33Z</time>
      </trkpt>
      <trkpt lat="43.567" lon="3.35464">
        <ele>179.6</ele>
        <time>2023-10-12T11:58:37Z</time>
      </trkpt>
      <trkpt lat="43.56699" lon="3.35448">
        <ele>180</ele>
        <time>2023-10-12T11:58:41Z</time>
      </trkpt>
      <trkpt lat="43.56701" lon="3.35433">
        <ele>180.6</ele>
        <time>2023-10-12T11:58:45Z</time>
      </trkpt>
      <trkpt lat="43.56703" lon="3.3542">
        <ele>181</ele>
        <time>2023-10-12T11:58:49Z</time>
      </trkpt>
      <trkpt lat="43.56703" lon="3.35406">
        <ele>181.4</ele>
        <time>2023-10-12T11:58:53Z</time>
      </trkpt>
      <trkpt lat="43.56702" lon="3.35393">
        <ele>181.8</ele>
        <time>2023-10-12T11:58:57Z</time>
      </trkpt>
      <trkpt lat="43.56701" lon="3.35378">
        <ele>182.2</ele>
        <time>2023-10-12T11:59:01Z</time>
      </trkpt>
      <trkpt lat="43.56698" lon="3.35362">
        <ele>182.8</ele>
        <time>2023-10-12T11:59:05Z</time>
      </trkpt>
      <trkpt lat="43.56697" lon="3.35349">
        <ele>183.2</ele>
        <time>2023-10-12T11:59:08Z</time>
      </trkpt>
      <trkpt lat="43.56694" lon="3.35335">
        <ele>183.6</ele>
        <time>2023-10-12T11:59:11Z</time>
      </trkpt>
      <trkpt lat="43.56689" lon="3.35321">
        <ele>184.2</ele>
        <time>2023-10-12T11:59:14Z</time>
      </trkpt>
      <trkpt lat="43.56683" lon="3.35311">
        <ele>184.6</ele>
        <time>2023-10-12T11:59:17Z</time>
      </trkpt>
      <trkpt lat="43.56677" lon="3.353">
        <ele>185</ele>
        <time>2023-10-12T11:59:20Z</time>
      </trkpt>
      <trkpt lat="43.56672" lon="3.35288">
        <ele>185.4</ele>
        <time>2023-10-12T11:59:23Z</time>
      </trkpt>
      <trkpt lat="43.56667" lon="3.35276">
        <ele>185.4</ele>
        <time>2023-10-12T11:59:26Z</time>
      </trkpt>
      <trkpt lat="43.56663" lon="3.35265">
        <ele>185.2</ele>
        <time>2023-10-12T11:59:29Z</time>
      </trkpt>
      <trkpt lat="43.56658" lon="3.35254">
        <ele>184.8</ele>
        <time>2023-10-12T11:59:32Z</time>
      </trkpt>
      <trkpt lat="43.56653" lon="3.35243">
        <ele>184.6</ele>
        <time>2023-10-12T11:59:35Z</time>
      </trkpt>
      <trkpt lat="43.56647" lon="3.35229">
        <ele>184.2</ele>
        <time>2023-10-12T11:59:39Z</time>
      </trkpt>
      <trkpt lat="43.56639" lon="3.35221">
        <ele>184</ele>
        <time>2023-10-12T11:59:45Z</time>
      </trkpt>
      <trkpt lat="43.56631" lon="3.35215">
        <ele>183.8</ele>
        <time>2023-10-12T11:59:51Z</time>
      </trkpt>
      <trkpt lat="43.56621" lon="3.35212">
        <ele>183.4</ele>
        <time>2023-10-12T11:59:56Z</time>
      </trkpt>
      <trkpt lat="43.5661" lon="3.3521">
        <ele>183</ele>
        <time>2023-10-12T11:59:59Z</time>
      </trkpt>
      <trkpt lat="43.56599" lon="3.35209">
        <ele>182.8</ele>
        <time>2023-10-12T12:00:02Z</time>
      </trkpt>
      <trkpt lat="43.56589" lon="3.35207">
        <ele>182.4</ele>
        <time>2023-10-12T12:00:05Z</time>
      </trkpt>
      <trkpt lat="43.56579" lon="3.35205">
        <ele>182.2</ele>
        <time>2023-10-12T12:00:08Z</time>
      </trkpt>
      <trkpt lat="43.56567" lon="3.35206">
        <ele>181.8</ele>
        <time>2023-10-12T12:00:11Z</time>
      </trkpt>
      <trkpt lat="43.56556" lon="3.35213">
        <ele>181.4</ele>
        <time>2023-10-12T12:00:14Z</time>
      </trkpt>
      <trkpt lat="43.56549" lon="3.35223">
        <ele>181.2</ele>
        <time>2023-10-12T12:00:17Z</time>
      </trkpt>
      <trkpt lat="43.5654" lon="3.35226">
        <ele>181</ele>
        <time>2023-10-12T12:00:21Z</time>
      </trkpt>
      <trkpt lat="43.5653" lon="3.35221">
        <ele>180.6</ele>
        <time>2023-10-12T12:00:26Z</time>
      </trkpt>
      <trkpt lat="43.56519" lon="3.35229">
        <ele>180.2</ele>
        <time>2023-10-12T12:00:31Z</time>
      </trkpt>
      <trkpt lat="43.56512" lon="3.3524">
        <ele>179.6</ele>
        <time>2023-10-12T12:00:35Z</time>
      </trkpt>
      <trkpt lat="43.56505" lon="3.35252">
        <ele>179</ele>
        <time>2023-10-12T12:00:38Z</time>
      </trkpt>
      <trkpt lat="43.56495" lon="3.35261">
        <ele>178.6</ele>
        <time>2023-10-12T12:00:41Z</time>
      </trkpt>
      <trkpt lat="43.5649" lon="3.35271">
        <ele>178</ele>
        <time>2023-10-12T12:00:44Z</time>
      </trkpt>
      <trkpt lat="43.56487" lon="3.35287">
        <ele>177.4</ele>
        <time>2023-10-12T12:00:48Z</time>
      </trkpt>
      <trkpt lat="43.56483" lon="3.353">
        <ele>177</ele>
        <time>2023-10-12T12:00:51Z</time>
      </trkpt>
      <trkpt lat="43.56481" lon="3.35313">
        <ele>176.6</ele>
        <time>2023-10-12T12:00:55Z</time>
      </trkpt>
      <trkpt lat="43.56474" lon="3.35303">
        <ele>176</ele>
        <time>2023-10-12T12:01:02Z</time>
      </trkpt>
      <trkpt lat="43.56467" lon="3.3529">
        <ele>175.4</ele>
        <time>2023-10-12T12:01:06Z</time>
      </trkpt>
      <trkpt lat="43.56463" lon="3.35278">
        <ele>175</ele>
        <time>2023-10-12T12:01:09Z</time>
      </trkpt>
      <trkpt lat="43.56459" lon="3.35265">
        <ele>174.4</ele>
        <time>2023-10-12T12:01:13Z</time>
      </trkpt>
      <trkpt lat="43.56452" lon="3.35256">
        <ele>174</ele>
        <time>2023-10-12T12:01:18Z</time>
      </trkpt>
      <trkpt lat="43.56447" lon="3.35244">
        <ele>173.4</ele>
        <time>2023-10-12T12:01:23Z</time>
      </trkpt>
      <trkpt lat="43.56442" lon="3.35231">
        <ele>173</ele>
        <time>2023-10-12T12:01:27Z</time>
      </trkpt>
      <trkpt lat="43.56436" lon="3.35217">
        <ele>172.4</ele>
        <time>2023-10-12T12:01:31Z</time>
      </trkpt>
      <trkpt lat="43.56433" lon="3.35203">
        <ele>171.8</ele>
        <time>2023-10-12T12:01:34Z</time>
      </trkpt>
      <trkpt lat="43.56431" lon="3.35189">
        <ele>171.4</ele>
        <time>2023-10-12T12:01:37Z</time>
      </trkpt>
      <trkpt lat="43.56428" lon="3.35177">
        <ele>171.8</ele>
        <time>2023-10-12T12:01:40Z</time>
      </trkpt>
      <trkpt lat="43.56426" lon="3.35164">
        <ele>172</ele>
        <time>2023-10-12T12:01:43Z</time>
      </trkpt>
      <trkpt lat="43.56423" lon="3.35151">
        <ele>172.2</ele>
        <time>2023-10-12T12:01:46Z</time>
      </trkpt>
      <trkpt lat="43.56419" lon="3.35139">
        <ele>172.4</ele>
        <time>2023-10-12T12:01:49Z</time>
      </trkpt>
      <trkpt lat="43.56416" lon="3.35126">
        <ele>172.6</ele>
        <time>2023-10-12T12:01:52Z</time>
      </trkpt>
      <trkpt lat="43.56412" lon="3.35114">
        <ele>173</ele>
        <time>2023-10-12T12:01:55Z</time>
      </trkpt>
      <trkpt lat="43.56407" lon="3.35101">
        <ele>173.2</ele>
        <time>2023-10-12T12:01:58Z</time>
      </trkpt>
      <trkpt lat="43.56403" lon="3.35089">
        <ele>173.4</ele>
        <time>2023-10-12T12:02:01Z</time>
      </trkpt>
      <trkpt lat="43.56399" lon="3.35076">
        <ele>173.8</ele>
        <time>2023-10-12T12:02:04Z</time>
      </trkpt>
      <trkpt lat="43.56394" lon="3.35063">
        <ele>174</ele>
        <time>2023-10-12T12:02:07Z</time>
      </trkpt>
      <trkpt lat="43.56391" lon="3.35051">
        <ele>174.2</ele>
        <time>2023-10-12T12:02:10Z</time>
      </trkpt>
      <trkpt lat="43.5639" lon="3.35037">
        <ele>174.4</ele>
        <time>2023-10-12T12:02:14Z</time>
      </trkpt>
      <trkpt lat="43.56398" lon="3.35024">
        <ele>174.8</ele>
        <time>2023-10-12T12:02:18Z</time>
      </trkpt>
      <trkpt lat="43.56406" lon="3.35017">
        <ele>175</ele>
        <time>2023-10-12T12:02:21Z</time>
      </trkpt>
      <trkpt lat="43.56415" lon="3.3501">
        <ele>175.2</ele>
        <time>2023-10-12T12:02:24Z</time>
      </trkpt>
      <trkpt lat="43.56422" lon="3.34997">
        <ele>175.6</ele>
        <time>2023-10-12T12:02:28Z</time>
      </trkpt>
      <trkpt lat="43.56419" lon="3.34983">
        <ele>175.8</ele>
        <time>2023-10-12T12:02:31Z</time>
      </trkpt>
      <trkpt lat="43.56412" lon="3.34972">
        <ele>176</ele>
        <time>2023-10-12T12:02:34Z</time>
      </trkpt>
      <trkpt lat="43.56404" lon="3.3496">
        <ele>176.2</ele>
        <time>2023-10-12T12:02:37Z</time>
      </trkpt>
      <trkpt lat="43.56397" lon="3.34948">
        <ele>176.4</ele>
        <time>2023-10-12T12:02:40Z</time>
      </trkpt>
      <trkpt lat="43.56388" lon="3.34936">
        <ele>176.6</ele>
        <time>2023-10-12T12:02:43Z</time>
      </trkpt>
      <trkpt lat="43.5638" lon="3.34922">
        <ele>176.8</ele>
        <time>2023-10-12T12:02:46Z</time>
      </trkpt>
      <trkpt lat="43.56373" lon="3.34907">
        <ele>176.8</ele>
        <time>2023-10-12T12:02:49Z</time>
      </trkpt>
      <trkpt lat="43.56366" lon="3.34891">
        <ele>177</ele>
        <time>2023-10-12T12:02:52Z</time>
      </trkpt>
      <trkpt lat="43.56362" lon="3.3488">
        <ele>177.2</ele>
        <time>2023-10-12T12:02:54Z</time>
      </trkpt>
      <trkpt lat="43.56356" lon="3.34864">
        <ele>177.4</ele>
        <time>2023-10-12T12:02:57Z</time>
      </trkpt>
      <trkpt lat="43.56351" lon="3.34848">
        <ele>177.6</ele>
        <time>2023-10-12T12:03:00Z</time>
      </trkpt>
      <trkpt lat="43.56346" lon="3.34835">
        <ele>177.6</ele>
        <time>2023-10-12T12:03:03Z</time>
      </trkpt>
      <trkpt lat="43.5634" lon="3.34823">
        <ele>177.8</ele>
        <time>2023-10-12T12:03:06Z</time>
      </trkpt>
      <trkpt lat="43.5633" lon="3.34815">
        <ele>178</ele>
        <time>2023-10-12T12:03:09Z</time>
      </trkpt>
      <trkpt lat="43.56318" lon="3.34809">
        <ele>178.2</ele>
        <time>2023-10-12T12:03:12Z</time>
      </trkpt>
      <trkpt lat="43.56309" lon="3.34806">
        <ele>178.2</ele>
        <time>2023-10-12T12:03:14Z</time>
      </trkpt>
      <trkpt lat="43.56299" lon="3.34803">
        <ele>178.4</ele>
        <time>2023-10-12T12:03:16Z</time>
      </trkpt>
      <trkpt lat="43.56288" lon="3.34799">
        <ele>178.6</ele>
        <time>2023-10-12T12:03:18Z</time>
      </trkpt>
      <trkpt lat="43.56277" lon="3.34795">
        <ele>179</ele>
        <time>2023-10-12T12:03:20Z</time>
      </trkpt>
      <trkpt lat="43.56266" lon="3.34787">
        <ele>179.2</ele>
        <time>2023-10-12T12:03:22Z</time>
      </trkpt>
      <trkpt lat="43.5626" lon="3.34774">
        <ele>179.4</ele>
        <time>2023-10-12T12:03:24Z</time>
      </trkpt>
      <trkpt lat="43.5626" lon="3.34759">
        <ele>179.8</ele>
        <time>2023-10-12T12:03:26Z</time>
      </trkpt>
      <trkpt lat="43.56257" lon="3.34744">
        <ele>180</ele>
        <time>2023-10-12T12:03:28Z</time>
      </trkpt>
      <trkpt lat="43.56252" lon="3.34729">
        <ele>180.2</ele>
        <time>2023-10-12T12:03:30Z</time>
      </trkpt>
      <trkpt lat="43.56247" lon="3.34716">
        <ele>180.4</ele>
        <time>2023-10-12T12:03:32Z</time>
      </trkpt>
      <trkpt lat="43.56246" lon="3.34699">
        <ele>180.8</ele>
        <time>2023-10-12T12:03:35Z</time>
      </trkpt>
      <trkpt lat="43.56248" lon="3.34682">
        <ele>181</ele>
        <time>2023-10-12T12:03:38Z</time>
      </trkpt>
      <trkpt lat="43.56248" lon="3.34663">
        <ele>181.4</ele>
        <time>2023-10-12T12:03:41Z</time>
      </trkpt>
      <trkpt lat="43.56243" lon="3.34647">
        <ele>181.6</ele>
        <time>2023-10-12T12:03:44Z</time>
      </trkpt>
      <trkpt lat="43.56233" lon="3.34635">
        <ele>182</ele>
        <time>2023-10-12T12:03:47Z</time>
      </trkpt>
      <trkpt lat="43.56223" lon="3.34629">
        <ele>182.2</ele>
        <time>2023-10-12T12:03:50Z</time>
      </trkpt>
      <trkpt lat="43.56216" lon="3.3462">
        <ele>182.4</ele>
        <time>2023-10-12T12:03:53Z</time>
      </trkpt>
      <trkpt lat="43.5621" lon="3.34609">
        <ele>182.6</ele>
        <time>2023-10-12T12:03:56Z</time>
      </trkpt>
      <trkpt lat="43.56206" lon="3.34596">
        <ele>182.8</ele>
        <time>2023-10-12T12:03:59Z</time>
      </trkpt>
      <trkpt lat="43.56203" lon="3.34581">
        <ele>183</ele>
        <time>2023-10-12T12:04:02Z</time>
      </trkpt>
      <trkpt lat="43.56201" lon="3.34567">
        <ele>183.2</ele>
        <time>2023-10-12T12:04:05Z</time>
      </trkpt>
      <trkpt lat="43.56199" lon="3.34553">
        <ele>183.4</ele>
        <time>2023-10-12T12:04:08Z</time>
      </trkpt>
      <trkpt lat="43.562" lon="3.34538">
        <ele>183.6</ele>
        <time>2023-10-12T12:04:12Z</time>
      </trkpt>
      <trkpt lat="43.562" lon="3.34521">
        <ele>183.8</ele>
        <time>2023-10-12T12:04:16Z</time>
      </trkpt>
      <trkpt lat="43.562" lon="3.34508">
        <ele>184</ele>
        <time>2023-10-12T12:04:19Z</time>
      </trkpt>
      <trkpt lat="43.56201" lon="3.34491">
        <ele>184.2</ele>
        <time>2023-10-12T12:04:22Z</time>
      </trkpt>
      <trkpt lat="43.56203" lon="3.34474">
        <ele>184.4</ele>
        <time>2023-10-12T12:04:25Z</time>
      </trkpt>
      <trkpt lat="43.56205" lon="3.34456">
        <ele>184.6</ele>
        <time>2023-10-12T12:04:28Z</time>
      </trkpt>
      <trkpt lat="43.56206" lon="3.34443">
        <ele>184.8</ele>
        <time>2023-10-12T12:04:30Z</time>
      </trkpt>
      <trkpt lat="43.56207" lon="3.3443">
        <ele>185</ele>
        <time>2023-10-12T12:04:32Z</time>
      </trkpt>
      <trkpt lat="43.56207" lon="3.34417">
        <ele>185.2</ele>
        <time>2023-10-12T12:04:34Z</time>
      </trkpt>
      <trkpt lat="43.56207" lon="3.34404">
        <ele>185.4</ele>
        <time>2023-10-12T12:04:36Z</time>
      </trkpt>
      <trkpt lat="43.56206" lon="3.34391">
        <ele>185.6</ele>
        <time>2023-10-12T12:04:38Z</time>
      </trkpt>
      <trkpt lat="43.56207" lon="3.34377">
        <ele>185.8</ele>
        <time>2023-10-12T12:04:40Z</time>
      </trkpt>
      <trkpt lat="43.56207" lon="3.34363">
        <ele>186</ele>
        <time>2023-10-12T12:04:42Z</time>
      </trkpt>
      <trkpt lat="43.56207" lon="3.34348">
        <ele>186.4</ele>
        <time>2023-10-12T12:04:44Z</time>
      </trkpt>
      <trkpt lat="43.56207" lon="3.34334">
        <ele>186.6</ele>
        <time>2023-10-12T12:04:46Z</time>
      </trkpt>
      <trkpt lat="43.56206" lon="3.34319">
        <ele>187</ele>
        <time>2023-10-12T12:04:48Z</time>
      </trkpt>
      <trkpt lat="43.56205" lon="3.34306">
        <ele>187.2</ele>
        <time>2023-10-12T12:04:50Z</time>
      </trkpt>
      <trkpt lat="43.56203" lon="3.34293">
        <ele>187.6</ele>
        <time>2023-10-12T12:04:52Z</time>
      </trkpt>
      <trkpt lat="43.56202" lon="3.34281">
        <ele>187.8</ele>
        <time>2023-10-12T12:04:54Z</time>
      </trkpt>
      <trkpt lat="43.562" lon="3.34268">
        <ele>188</ele>
        <time>2023-10-12T12:04:56Z</time>
      </trkpt>
      <trkpt lat="43.56197" lon="3.34251">
        <ele>188.4</ele>
        <time>2023-10-12T12:04:59Z</time>
      </trkpt>
      <trkpt lat="43.56194" lon="3.34234">
        <ele>188.8</ele>
        <time>2023-10-12T12:05:02Z</time>
      </trkpt>
      <trkpt lat="43.56195" lon="3.3422">
        <ele>189.2</ele>
        <time>2023-10-12T12:05:05Z</time>
      </trkpt>
      <trkpt lat="43.56197" lon="3.34204">
        <ele>189.4</ele>
        <time>2023-10-12T12:05:08Z</time>
      </trkpt>
      <trkpt lat="43.56201" lon="3.34189">
        <ele>189.8</ele>
        <time>2023-10-12T12:05:11Z</time>
      </trkpt>
      <trkpt lat="43.56206" lon="3.34174">
        <ele>190.2</ele>
        <time>2023-10-12T12:05:14Z</time>
      </trkpt>
      <trkpt lat="43.5621" lon="3.34162">
        <ele>190.4</ele>
        <time>2023-10-12T12:05:16Z</time>
      </trkpt>
      <trkpt lat="43.56216" lon="3.34149">
        <ele>190.8</ele>
        <time>2023-10-12T12:05:18Z</time>
      </trkpt>
      <trkpt lat="43.56223" lon="3.34139">
        <ele>191</ele>
        <time>2023-10-12T12:05:20Z</time>
      </trkpt>
      <trkpt lat="43.56229" lon="3.34129">
        <ele>191.2</ele>
        <time>2023-10-12T12:05:22Z</time>
      </trkpt>
      <trkpt lat="43.56236" lon="3.34117">
        <ele>191.2</ele>
        <time>2023-10-12T12:05:24Z</time>
      </trkpt>
      <trkpt lat="43.56242" lon="3.34105">
        <ele>191.4</ele>
        <time>2023-10-12T12:05:26Z</time>
      </trkpt>
      <trkpt lat="43.56249" lon="3.34097">
        <ele>191.4</ele>
        <time>2023-10-12T12:05:28Z</time>
      </trkpt>
      <trkpt lat="43.56259" lon="3.34086">
        <ele>191.6</ele>
        <time>2023-10-12T12:05:31Z</time>
      </trkpt>
      <trkpt lat="43.56268" lon="3.34075">
        <ele>191.8</ele>
        <time>2023-10-12T12:05:34Z</time>
      </trkpt>
      <trkpt lat="43.56278" lon="3.34065">
        <ele>191.8</ele>
        <time>2023-10-12T12:05:37Z</time>
      </trkpt>
      <trkpt lat="43.56288" lon="3.34053">
        <ele>192</ele>
        <time>2023-10-12T12:05:40Z</time>
      </trkpt>
      <trkpt lat="43.56295" lon="3.34045">
        <ele>192.2</ele>
        <time>2023-10-12T12:05:42Z</time>
      </trkpt>
      <trkpt lat="43.56304" lon="3.34032">
        <ele>192.2</ele>
        <time>2023-10-12T12:05:45Z</time>
      </trkpt>
      <trkpt lat="43.56311" lon="3.34023">
        <ele>192.4</ele>
        <time>2023-10-12T12:05:47Z</time>
      </trkpt>
      <trkpt lat="43.56322" lon="3.34017">
        <ele>192.4</ele>
        <time>2023-10-12T12:05:49Z</time>
      </trkpt>
      <trkpt lat="43.56334" lon="3.3402">
        <ele>192.6</ele>
        <time>2023-10-12T12:05:51Z</time>
      </trkpt>
      <trkpt lat="43.56344" lon="3.34024">
        <ele>192.8</ele>
        <time>2023-10-12T12:05:53Z</time>
      </trkpt>
      <trkpt lat="43.56355" lon="3.34026">
        <ele>192.8</ele>
        <time>2023-10-12T12:05:55Z</time>
      </trkpt>
      <trkpt lat="43.56367" lon="3.34024">
        <ele>193</ele>
        <time>2023-10-12T12:05:57Z</time>
      </trkpt>
      <trkpt lat="43.56379" lon="3.34018">
        <ele>193.2</ele>
        <time>2023-10-12T12:05:59Z</time>
      </trkpt>
      <trkpt lat="43.56387" lon="3.34006">
        <ele>193.4</ele>
        <time>2023-10-12T12:06:01Z</time>
      </trkpt>
      <trkpt lat="43.56391" lon="3.33994">
        <ele>193.6</ele>
        <time>2023-10-12T12:06:03Z</time>
      </trkpt>
      <trkpt lat="43.56393" lon="3.33981">
        <ele>193.8</ele>
        <time>2023-10-12T12:06:05Z</time>
      </trkpt>
      <trkpt lat="43.56394" lon="3.33968">
        <ele>193.8</ele>
        <time>2023-10-12T12:06:07Z</time>
      </trkpt>
      <trkpt lat="43.56393" lon="3.3395">
        <ele>194.2</ele>
        <time>2023-10-12T12:06:10Z</time>
      </trkpt>
      <trkpt lat="43.56392" lon="3.33932">
        <ele>194.4</ele>
        <time>2023-10-12T12:06:13Z</time>
      </trkpt>
      <trkpt lat="43.5639" lon="3.33914">
        <ele>194.6</ele>
        <time>2023-10-12T12:06:16Z</time>
      </trkpt>
      <trkpt lat="43.56388" lon="3.33902">
        <ele>194.8</ele>
        <time>2023-10-12T12:06:18Z</time>
      </trkpt>
      <trkpt lat="43.56385" lon="3.33884">
        <ele>195</ele>
        <time>2023-10-12T12:06:21Z</time>
      </trkpt>
      <trkpt lat="43.56383" lon="3.33867">
        <ele>195.2</ele>
        <time>2023-10-12T12:06:24Z</time>
      </trkpt>
      <trkpt lat="43.56383" lon="3.3385">
        <ele>195.4</ele>
        <time>2023-10-12T12:06:27Z</time>
      </trkpt>
      <trkpt lat="43.56389" lon="3.33836">
        <ele>195.6</ele>
        <time>2023-10-12T12:06:30Z</time>
      </trkpt>
      <trkpt lat="43.56397" lon="3.33825">
        <ele>195.8</ele>
        <time>2023-10-12T12:06:33Z</time>
      </trkpt>
      <trkpt lat="43.56406" lon="3.33817">
        <ele>196</ele>
        <time>2023-10-12T12:06:36Z</time>
      </trkpt>
      <trkpt lat="43.56415" lon="3.33809">
        <ele>196.4</ele>
        <time>2023-10-12T12:06:39Z</time>
      </trkpt>
      <trkpt lat="43.56425" lon="3.33805">
        <ele>196.8</ele>
        <time>2023-10-12T12:06:42Z</time>
      </trkpt>
      <trkpt lat="43.56436" lon="3.33803">
        <ele>197.2</ele>
        <time>2023-10-12T12:06:45Z</time>
      </trkpt>
      <trkpt lat="43.56447" lon="3.33804">
        <ele>197.6</ele>
        <time>2023-10-12T12:06:48Z</time>
      </trkpt>
      <trkpt lat="43.56456" lon="3.33805">
        <ele>198</ele>
        <time>2023-10-12T12:06:51Z</time>
      </trkpt>
      <trkpt lat="43.56467" lon="3.338">
        <ele>198.4</ele>
        <time>2023-10-12T12:06:55Z</time>
      </trkpt>
      <trkpt lat="43.56475" lon="3.33794">
        <ele>198.8</ele>
        <time>2023-10-12T12:06:58Z</time>
      </trkpt>
      <trkpt lat="43.56485" lon="3.33787">
        <ele>199.4</ele>
        <time>2023-10-12T12:07:01Z</time>
      </trkpt>
      <trkpt lat="43.56494" lon="3.3378">
        <ele>199.8</ele>
        <time>2023-10-12T12:07:04Z</time>
      </trkpt>
      <trkpt lat="43.56503" lon="3.3377">
        <ele>200.2</ele>
        <time>2023-10-12T12:07:07Z</time>
      </trkpt>
      <trkpt lat="43.56511" lon="3.3376">
        <ele>200.6</ele>
        <time>2023-10-12T12:07:10Z</time>
      </trkpt>
      <trkpt lat="43.56519" lon="3.3375">
        <ele>201.2</ele>
        <time>2023-10-12T12:07:13Z</time>
      </trkpt>
      <trkpt lat="43.56527" lon="3.33739">
        <ele>201.6</ele>
        <time>2023-10-12T12:07:16Z</time>
      </trkpt>
      <trkpt lat="43.56531" lon="3.33724">
        <ele>202</ele>
        <time>2023-10-12T12:07:19Z</time>
      </trkpt>
      <trkpt lat="43.5653" lon="3.33707">
        <ele>202.6</ele>
        <time>2023-10-12T12:07:22Z</time>
      </trkpt>
      <trkpt lat="43.56527" lon="3.33693">
        <ele>203</ele>
        <time>2023-10-12T12:07:25Z</time>
      </trkpt>
      <trkpt lat="43.56523" lon="3.33679">
        <ele>203.4</ele>
        <time>2023-10-12T12:07:28Z</time>
      </trkpt>
      <trkpt lat="43.56519" lon="3.33666">
        <ele>203.8</ele>
        <time>2023-10-12T12:07:31Z</time>
      </trkpt>
      <trkpt lat="43.56515" lon="3.33652">
        <ele>204.2</ele>
        <time>2023-10-12T12:07:34Z</time>
      </trkpt>
      <trkpt lat="43.56511" lon="3.33639">
        <ele>204.6</ele>
        <time>2023-10-12T12:07:37Z</time>
      </trkpt>
      <trkpt lat="43.56506" lon="3.33627">
        <ele>205.2</ele>
        <time>2023-10-12T12:07:40Z</time>
      </trkpt>
      <trkpt lat="43.565" lon="3.33613">
        <ele>205.6</ele>
        <time>2023-10-12T12:07:43Z</time>
      </trkpt>
      <trkpt lat="43.56495" lon="3.33601">
        <ele>206</ele>
        <time>2023-10-12T12:07:46Z</time>
      </trkpt>
      <trkpt lat="43.56488" lon="3.3359">
        <ele>206.4</ele>
        <time>2023-10-12T12:07:49Z</time>
      </trkpt>
      <trkpt lat="43.56481" lon="3.3358">
        <ele>206.8</ele>
        <time>2023-10-12T12:07:52Z</time>
      </trkpt>
      <trkpt lat="43.56476" lon="3.33568">
        <ele>207.2</ele>
        <time>2023-10-12T12:07:55Z</time>
      </trkpt>
      <trkpt lat="43.56471" lon="3.33555">
        <ele>207.6</ele>
        <time>2023-10-12T12:07:58Z</time>
      </trkpt>
      <trkpt lat="43.56466" lon="3.33542">
        <ele>208</ele>
        <time>2023-10-12T12:08:01Z</time>
      </trkpt>
      <trkpt lat="43.56462" lon="3.33529">
        <ele>208.4</ele>
        <time>2023-10-12T12:08:04Z</time>
      </trkpt>
      <trkpt lat="43.56456" lon="3.33518">
        <ele>208.8</ele>
        <time>2023-10-12T12:08:07Z</time>
      </trkpt>
      <trkpt lat="43.56449" lon="3.33507">
        <ele>209.2</ele>
        <time>2023-10-12T12:08:10Z</time>
      </trkpt>
      <trkpt lat="43.56443" lon="3.33498">
        <ele>209.6</ele>
        <time>2023-10-12T12:08:13Z</time>
      </trkpt>
      <trkpt lat="43.56436" lon="3.33488">
        <ele>210</ele>
        <time>2023-10-12T12:08:17Z</time>
      </trkpt>
      <trkpt lat="43.56427" lon="3.33474">
        <ele>210.4</ele>
        <time>2023-10-12T12:08:21Z</time>
      </trkpt>
      <trkpt lat="43.5642" lon="3.33459">
        <ele>210.8</ele>
        <time>2023-10-12T12:08:24Z</time>
      </trkpt>
      <trkpt lat="43.56413" lon="3.33447">
        <ele>210.8</ele>
        <time>2023-10-12T12:08:26Z</time>
      </trkpt>
      <trkpt lat="43.56405" lon="3.33434">
        <ele>210.8</ele>
        <time>2023-10-12T12:08:28Z</time>
      </trkpt>
      <trkpt lat="43.56397" lon="3.33421">
        <ele>210.6</ele>
        <time>2023-10-12T12:08:30Z</time>
      </trkpt>
      <trkpt lat="43.56389" lon="3.33407">
        <ele>210.6</ele>
        <time>2023-10-12T12:08:32Z</time>
      </trkpt>
      <trkpt lat="43.56381" lon="3.33392">
        <ele>210.6</ele>
        <time>2023-10-12T12:08:34Z</time>
      </trkpt>
      <trkpt lat="43.56374" lon="3.33377">
        <ele>210.6</ele>
        <time>2023-10-12T12:08:36Z</time>
      </trkpt>
      <trkpt lat="43.56368" lon="3.33361">
        <ele>210.6</ele>
        <time>2023-10-12T12:08:38Z</time>
      </trkpt>
      <trkpt lat="43.56364" lon="3.33346">
        <ele>210.6</ele>
        <time>2023-10-12T12:08:40Z</time>
      </trkpt>
      <trkpt lat="43.5636" lon="3.33333">
        <ele>210.6</ele>
        <time>2023-10-12T12:08:42Z</time>
      </trkpt>
      <trkpt lat="43.56355" lon="3.33321">
        <ele>210.4</ele>
        <time>2023-10-12T12:08:44Z</time>
      </trkpt>
      <trkpt lat="43.56351" lon="3.33309">
        <ele>210.4</ele>
        <time>2023-10-12T12:08:46Z</time>
      </trkpt>
      <trkpt lat="43.56344" lon="3.33294">
        <ele>210.4</ele>
        <time>2023-10-12T12:08:49Z</time>
      </trkpt>
      <trkpt lat="43.56339" lon="3.33282">
        <ele>210.4</ele>
        <time>2023-10-12T12:08:51Z</time>
      </trkpt>
      <trkpt lat="43.56334" lon="3.33272">
        <ele>210.4</ele>
        <time>2023-10-12T12:08:53Z</time>
      </trkpt>
      <trkpt lat="43.5633" lon="3.3326">
        <ele>210.4</ele>
        <time>2023-10-12T12:08:55Z</time>
      </trkpt>
      <trkpt lat="43.56327" lon="3.33249">
        <ele>210.4</ele>
        <time>2023-10-12T12:08:57Z</time>
      </trkpt>
      <trkpt lat="43.56323" lon="3.33231">
        <ele>210.6</ele>
        <time>2023-10-12T12:09:00Z</time>
      </trkpt>
      <trkpt lat="43.5632" lon="3.33214">
        <ele>210.8</ele>
        <time>2023-10-12T12:09:03Z</time>
      </trkpt>
      <trkpt lat="43.56316" lon="3.33197">
        <ele>211</ele>
        <time>2023-10-12T12:09:06Z</time>
      </trkpt>
      <trkpt lat="43.56313" lon="3.3318">
        <ele>211.2</ele>
        <time>2023-10-12T12:09:09Z</time>
      </trkpt>
      <trkpt lat="43.56309" lon="3.33163">
        <ele>211.4</ele>
        <time>2023-10-12T12:09:12Z</time>
      </trkpt>
      <trkpt lat="43.56307" lon="3.33146">
        <ele>211.6</ele>
        <time>2023-10-12T12:09:15Z</time>
      </trkpt>
      <trkpt lat="43.56304" lon="3.33131">
        <ele>211.8</ele>
        <time>2023-10-12T12:09:18Z</time>
      </trkpt>
      <trkpt lat="43.563" lon="3.33114">
        <ele>212</ele>
        <time>2023-10-12T12:09:21Z</time>
      </trkpt>
      <trkpt lat="43.56297" lon="3.33097">
        <ele>212</ele>
        <time>2023-10-12T12:09:24Z</time>
      </trkpt>
      <trkpt lat="43.56296" lon="3.3308">
        <ele>212.2</ele>
        <time>2023-10-12T12:09:27Z</time>
      </trkpt>
      <trkpt lat="43.56298" lon="3.33063">
        <ele>212.4</ele>
        <time>2023-10-12T12:09:30Z</time>
      </trkpt>
      <trkpt lat="43.563" lon="3.33049">
        <ele>212.6</ele>
        <time>2023-10-12T12:09:33Z</time>
      </trkpt>
      <trkpt lat="43.56303" lon="3.33034">
        <ele>212.8</ele>
        <time>2023-10-12T12:09:36Z</time>
      </trkpt>
      <trkpt lat="43.56304" lon="3.33021">
        <ele>213</ele>
        <time>2023-10-12T12:09:39Z</time>
      </trkpt>
      <trkpt lat="43.56304" lon="3.33008">
        <ele>213.2</ele>
        <time>2023-10-12T12:09:42Z</time>
      </trkpt>
      <trkpt lat="43.56301" lon="3.32994">
        <ele>213.4</ele>
        <time>2023-10-12T12:09:45Z</time>
      </trkpt>
      <trkpt lat="43.56292" lon="3.32981">
        <ele>214</ele>
        <time>2023-10-12T12:09:48Z</time>
      </trkpt>
      <trkpt lat="43.56282" lon="3.32972">
        <ele>214.4</ele>
        <time>2023-10-12T12:09:51Z</time>
      </trkpt>
      <trkpt lat="43.56269" lon="3.32968">
        <ele>214.8</ele>
        <time>2023-10-12T12:09:54Z</time>
      </trkpt>
      <trkpt lat="43.56261" lon="3.32957">
        <ele>215.2</ele>
        <time>2023-10-12T12:09:57Z</time>
      </trkpt>
      <trkpt lat="43.56261" lon="3.32942">
        <ele>215.4</ele>
        <time>2023-10-12T12:10:00Z</time>
      </trkpt>
      <trkpt lat="43.56262" lon="3.32927">
        <ele>215.8</ele>
        <time>2023-10-12T12:10:03Z</time>
      </trkpt>
      <trkpt lat="43.56262" lon="3.3291">
        <ele>216.2</ele>
        <time>2023-10-12T12:10:06Z</time>
      </trkpt>
      <trkpt lat="43.56261" lon="3.32895">
        <ele>216.6</ele>
        <time>2023-10-12T12:10:09Z</time>
      </trkpt>
      <trkpt lat="43.5626" lon="3.32879">
        <ele>217</ele>
        <time>2023-10-12T12:10:12Z</time>
      </trkpt>
      <trkpt lat="43.56258" lon="3.32865">
        <ele>217.4</ele>
        <time>2023-10-12T12:10:15Z</time>
      </trkpt>
      <trkpt lat="43.56259" lon="3.32848">
        <ele>217.8</ele>
        <time>2023-10-12T12:10:18Z</time>
      </trkpt>
      <trkpt lat="43.5626" lon="3.32833">
        <ele>218.2</ele>
        <time>2023-10-12T12:10:21Z</time>
      </trkpt>
      <trkpt lat="43.5626" lon="3.32816">
        <ele>218.6</ele>
        <time>2023-10-12T12:10:24Z</time>
      </trkpt>
      <trkpt lat="43.5626" lon="3.32801">
        <ele>219</ele>
        <time>2023-10-12T12:10:27Z</time>
      </trkpt>
      <trkpt lat="43.56266" lon="3.32789">
        <ele>219.4</ele>
        <time>2023-10-12T12:10:30Z</time>
      </trkpt>
      <trkpt lat="43.56273" lon="3.32778">
        <ele>220</ele>
        <time>2023-10-12T12:10:33Z</time>
      </trkpt>
      <trkpt lat="43.56276" lon="3.32762">
        <ele>220.6</ele>
        <time>2023-10-12T12:10:36Z</time>
      </trkpt>
      <trkpt lat="43.56276" lon="3.32746">
        <ele>221.2</ele>
        <time>2023-10-12T12:10:39Z</time>
      </trkpt>
      <trkpt lat="43.56275" lon="3.32729">
        <ele>221.8</ele>
        <time>2023-10-12T12:10:42Z</time>
      </trkpt>
      <trkpt lat="43.56274" lon="3.32713">
        <ele>222.4</ele>
        <time>2023-10-12T12:10:45Z</time>
      </trkpt>
      <trkpt lat="43.56274" lon="3.32698">
        <ele>223</ele>
        <time>2023-10-12T12:10:48Z</time>
      </trkpt>
      <trkpt lat="43.56273" lon="3.32684">
        <ele>223.6</ele>
        <time>2023-10-12T12:10:51Z</time>
      </trkpt>
      <trkpt lat="43.56271" lon="3.32669">
        <ele>224</ele>
        <time>2023-10-12T12:10:54Z</time>
      </trkpt>
      <trkpt lat="43.5627" lon="3.32656">
        <ele>224.6</ele>
        <time>2023-10-12T12:10:57Z</time>
      </trkpt>
      <trkpt lat="43.56269" lon="3.32641">
        <ele>225</ele>
        <time>2023-10-12T12:11:00Z</time>
      </trkpt>
      <trkpt lat="43.56268" lon="3.32626">
        <ele>225.6</ele>
        <time>2023-10-12T12:11:03Z</time>
      </trkpt>
      <trkpt lat="43.56267" lon="3.32611">
        <ele>226.2</ele>
        <time>2023-10-12T12:11:06Z</time>
      </trkpt>
      <trkpt lat="43.56266" lon="3.32597">
        <ele>226.8</ele>
        <time>2023-10-12T12:11:09Z</time>
      </trkpt>
      <trkpt lat="43.56264" lon="3.32583">
        <ele>227.2</ele>
        <time>2023-10-12T12:11:12Z</time>
      </trkpt>
      <trkpt lat="43.56263" lon="3.32569">
        <ele>227.8</ele>
        <time>2023-10-12T12:11:15Z</time>
      </trkpt>
      <trkpt lat="43.56261" lon="3.32556">
        <ele>228.2</ele>
        <time>2023-10-12T12:11:18Z</time>
      </trkpt>
      <trkpt lat="43.56261" lon="3.32542">
        <ele>228.8</ele>
        <time>2023-10-12T12:11:21Z</time>
      </trkpt>
      <trkpt lat="43.56263" lon="3.32528">
        <ele>229.4</ele>
        <time>2023-10-12T12:11:24Z</time>
      </trkpt>
      <trkpt lat="43.56264" lon="3.32512">
        <ele>230</ele>
        <time>2023-10-12T12:11:28Z</time>
      </trkpt>
      <trkpt lat="43.56265" lon="3.32499">
        <ele>230.4</ele>
        <time>2023-10-12T12:11:31Z</time>
      </trkpt>
      <trkpt lat="43.56265" lon="3.32482">
        <ele>231</ele>
        <time>2023-10-12T12:11:35Z</time>
      </trkpt>
      <trkpt lat="43.56266" lon="3.32465">
        <ele>231.8</ele>
        <time>2023-10-12T12:11:39Z</time>
      </trkpt>
      <trkpt lat="43.56267" lon="3.32453">
        <ele>232.2</ele>
        <time>2023-10-12T12:11:42Z</time>
      </trkpt>
      <trkpt lat="43.56268" lon="3.32436">
        <ele>232.8</ele>
        <time>2023-10-12T12:11:46Z</time>
      </trkpt>
      <trkpt lat="43.5627" lon="3.32424">
        <ele>233.2</ele>
        <time>2023-10-12T12:11:49Z</time>
      </trkpt>
      <trkpt lat="43.56272" lon="3.32411">
        <ele>233.8</ele>
        <time>2023-10-12T12:11:52Z</time>
      </trkpt>
      <trkpt lat="43.56275" lon="3.32398">
        <ele>234.2</ele>
        <time>2023-10-12T12:11:55Z</time>
      </trkpt>
      <trkpt lat="43.56278" lon="3.32386">
        <ele>234.8</ele>
        <time>2023-10-12T12:11:58Z</time>
      </trkpt>
      <trkpt lat="43.56279" lon="3.32373">
        <ele>235.2</ele>
        <time>2023-10-12T12:12:01Z</time>
      </trkpt>
      <trkpt lat="43.56269" lon="3.32371">
        <ele>235.8</ele>
        <time>2023-10-12T12:12:07Z</time>
      </trkpt>
      <trkpt lat="43.56264" lon="3.32384">
        <ele>236.4</ele>
        <time>2023-10-12T12:12:12Z</time>
      </trkpt>
      <trkpt lat="43.5626" lon="3.32396">
        <ele>236.8</ele>
        <time>2023-10-12T12:12:16Z</time>
      </trkpt>
      <trkpt lat="43.56255" lon="3.32409">
        <ele>237.4</ele>
        <time>2023-10-12T12:12:20Z</time>
      </trkpt>
      <trkpt lat="43.5625" lon="3.32425">
        <ele>238.2</ele>
        <time>2023-10-12T12:12:24Z</time>
      </trkpt>
      <trkpt lat="43.56248" lon="3.32437">
        <ele>239</ele>
        <time>2023-10-12T12:12:27Z</time>
      </trkpt>
      <trkpt lat="43.56246" lon="3.3245">
        <ele>239.6</ele>
        <time>2023-10-12T12:12:30Z</time>
      </trkpt>
      <trkpt lat="43.56244" lon="3.32466">
        <ele>240.6</ele>
        <time>2023-10-12T12:12:34Z</time>
      </trkpt>
      <trkpt lat="43.5624" lon="3.32478">
        <ele>241.2</ele>
        <time>2023-10-12T12:12:37Z</time>
      </trkpt>
      <trkpt lat="43.56236" lon="3.32491">
        <ele>242</ele>
        <time>2023-10-12T12:12:40Z</time>
      </trkpt>
      <trkpt lat="43.5623" lon="3.32505">
        <ele>243</ele>
        <time>2023-10-12T12:12:44Z</time>
      </trkpt>
      <trkpt lat="43.56223" lon="3.32515">
        <ele>243.8</ele>
        <time>2023-10-12T12:12:48Z</time>
      </trkpt>
      <trkpt lat="43.56216" lon="3.32527">
        <ele>244.6</ele>
        <time>2023-10-12T12:12:53Z</time>
      </trkpt>
      <trkpt lat="43.56207" lon="3.32525">
        <ele>245.2</ele>
        <time>2023-10-12T12:12:58Z</time>
      </trkpt>
      <trkpt lat="43.56211" lon="3.32512">
        <ele>246</ele>
        <time>2023-10-12T12:13:02Z</time>
      </trkpt>
      <trkpt lat="43.56216" lon="3.32498">
        <ele>247</ele>
        <time>2023-10-12T12:13:06Z</time>
      </trkpt>
      <trkpt lat="43.5622" lon="3.32483">
        <ele>247.8</ele>
        <time>2023-10-12T12:13:10Z</time>
      </trkpt>
      <trkpt lat="43.56222" lon="3.32467">
        <ele>248.6</ele>
        <time>2023-10-12T12:13:14Z</time>
      </trkpt>
      <trkpt lat="43.56223" lon="3.32454">
        <ele>249.4</ele>
        <time>2023-10-12T12:13:17Z</time>
      </trkpt>
      <trkpt lat="43.56222" lon="3.32438">
        <ele>250.4</ele>
        <time>2023-10-12T12:13:21Z</time>
      </trkpt>
      <trkpt lat="43.56221" lon="3.32425">
        <ele>251</ele>
        <time>2023-10-12T12:13:24Z</time>
      </trkpt>
      <trkpt lat="43.5622" lon="3.32412">
        <ele>251.8</ele>
        <time>2023-10-12T12:13:27Z</time>
      </trkpt>
      <trkpt lat="43.56221" lon="3.32399">
        <ele>252.6</ele>
        <time>2023-10-12T12:13:30Z</time>
      </trkpt>
      <trkpt lat="43.56221" lon="3.32383">
        <ele>253.4</ele>
        <time>2023-10-12T12:13:34Z</time>
      </trkpt>
      <trkpt lat="43.56219" lon="3.3237">
        <ele>254.2</ele>
        <time>2023-10-12T12:13:38Z</time>
      </trkpt>
      <trkpt lat="43.56211" lon="3.32379">
        <ele>255</ele>
        <time>2023-10-12T12:13:42Z</time>
      </trkpt>
      <trkpt lat="43.56209" lon="3.32395">
        <ele>255.8</ele>
        <time>2023-10-12T12:13:46Z</time>
      </trkpt>
      <trkpt lat="43.56204" lon="3.3241">
        <ele>256.8</ele>
        <time>2023-10-12T12:13:50Z</time>
      </trkpt>
      <trkpt lat="43.562" lon="3.32425">
        <ele>257.8</ele>
        <time>2023-10-12T12:13:54Z</time>
      </trkpt>
      <trkpt lat="43.56196" lon="3.3244">
        <ele>258.6</ele>
        <time>2023-10-12T12:13:58Z</time>
      </trkpt>
      <trkpt lat="43.56193" lon="3.32454">
        <ele>259.4</ele>
        <time>2023-10-12T12:14:02Z</time>
      </trkpt>
      <trkpt lat="43.56188" lon="3.32468">
        <ele>260.2</ele>
        <time>2023-10-12T12:14:06Z</time>
      </trkpt>
      <trkpt lat="43.56182" lon="3.3248">
        <ele>261.2</ele>
        <time>2023-10-12T12:14:10Z</time>
      </trkpt>
      <trkpt lat="43.56176" lon="3.32492">
        <ele>262</ele>
        <time>2023-10-12T12:14:14Z</time>
      </trkpt>
      <trkpt lat="43.56169" lon="3.32504">
        <ele>262.8</ele>
        <time>2023-10-12T12:14:18Z</time>
      </trkpt>
      <trkpt lat="43.56163" lon="3.32514">
        <ele>263.6</ele>
        <time>2023-10-12T12:14:21Z</time>
      </trkpt>
      <trkpt lat="43.56158" lon="3.32524">
        <ele>264.2</ele>
        <time>2023-10-12T12:14:24Z</time>
      </trkpt>
      <trkpt lat="43.56151" lon="3.32537">
        <ele>265.2</ele>
        <time>2023-10-12T12:14:28Z</time>
      </trkpt>
      <trkpt lat="43.56143" lon="3.32549">
        <ele>266</ele>
        <time>2023-10-12T12:14:32Z</time>
      </trkpt>
      <trkpt lat="43.56137" lon="3.32559">
        <ele>266.6</ele>
        <time>2023-10-12T12:14:35Z</time>
      </trkpt>
      <trkpt lat="43.56129" lon="3.32571">
        <ele>267.4</ele>
        <time>2023-10-12T12:14:39Z</time>
      </trkpt>
      <trkpt lat="43.56121" lon="3.32582">
        <ele>268.2</ele>
        <time>2023-10-12T12:14:43Z</time>
      </trkpt>
      <trkpt lat="43.56112" lon="3.32593">
        <ele>268.8</ele>
        <time>2023-10-12T12:14:47Z</time>
      </trkpt>
      <trkpt lat="43.56101" lon="3.326">
        <ele>269.6</ele>
        <time>2023-10-12T12:14:51Z</time>
      </trkpt>
      <trkpt lat="43.56093" lon="3.32604">
        <ele>270.2</ele>
        <time>2023-10-12T12:14:54Z</time>
      </trkpt>
      <trkpt lat="43.56084" lon="3.32608">
        <ele>270.8</ele>
        <time>2023-10-12T12:14:57Z</time>
      </trkpt>
      <trkpt lat="43.56073" lon="3.32613">
        <ele>271.6</ele>
        <time>2023-10-12T12:15:01Z</time>
      </trkpt>
      <trkpt lat="43.56064" lon="3.32618">
        <ele>272.2</ele>
        <time>2023-10-12T12:15:04Z</time>
      </trkpt>
      <trkpt lat="43.56056" lon="3.32622">
        <ele>272.8</ele>
        <time>2023-10-12T12:15:07Z</time>
      </trkpt>
      <trkpt lat="43.56045" lon="3.3263">
        <ele>273.6</ele>
        <time>2023-10-12T12:15:11Z</time>
      </trkpt>
      <trkpt lat="43.56036" lon="3.3264">
        <ele>274.4</ele>
        <time>2023-10-12T12:15:15Z</time>
      </trkpt>
      <trkpt lat="43.56033" lon="3.32651">
        <ele>275</ele>
        <time>2023-10-12T12:15:18Z</time>
      </trkpt>
      <trkpt lat="43.5603" lon="3.32668">
        <ele>275.8</ele>
        <time>2023-10-12T12:15:22Z</time>
      </trkpt>
      <trkpt lat="43.56028" lon="3.3268">
        <ele>276.4</ele>
        <time>2023-10-12T12:15:25Z</time>
      </trkpt>
      <trkpt lat="43.56026" lon="3.32693">
        <ele>277</ele>
        <time>2023-10-12T12:15:28Z</time>
      </trkpt>
      <trkpt lat="43.56024" lon="3.32709">
        <ele>277.8</ele>
        <time>2023-10-12T12:15:32Z</time>
      </trkpt>
      <trkpt lat="43.56024" lon="3.32725">
        <ele>278.6</ele>
        <time>2023-10-12T12:15:36Z</time>
      </trkpt>
      <trkpt lat="43.56028" lon="3.32737">
        <ele>279.2</ele>
        <time>2023-10-12T12:15:39Z</time>
      </trkpt>
      <trkpt lat="43.56035" lon="3.3275">
        <ele>279.8</ele>
        <time>2023-10-12T12:15:43Z</time>
      </trkpt>
      <trkpt lat="43.56038" lon="3.32766">
        <ele>280.6</ele>
        <time>2023-10-12T12:15:47Z</time>
      </trkpt>
      <trkpt lat="43.5604" lon="3.32778">
        <ele>281.2</ele>
        <time>2023-10-12T12:15:50Z</time>
      </trkpt>
      <trkpt lat="43.56041" lon="3.3279">
        <ele>281.8</ele>
        <time>2023-10-12T12:15:53Z</time>
      </trkpt>
      <trkpt lat="43.56041" lon="3.32806">
        <ele>282.4</ele>
        <time>2023-10-12T12:15:57Z</time>
      </trkpt>
      <trkpt lat="43.56038" lon="3.32822">
        <ele>283.2</ele>
        <time>2023-10-12T12:16:01Z</time>
      </trkpt>
      <trkpt lat="43.56036" lon="3.32834">
        <ele>283.8</ele>
        <time>2023-10-12T12:16:04Z</time>
      </trkpt>
      <trkpt lat="43.56031" lon="3.3285">
        <ele>284.6</ele>
        <time>2023-10-12T12:16:08Z</time>
      </trkpt>
      <trkpt lat="43.56026" lon="3.32863">
        <ele>285.2</ele>
        <time>2023-10-12T12:16:12Z</time>
      </trkpt>
      <trkpt lat="43.5602" lon="3.32876">
        <ele>286</ele>
        <time>2023-10-12T12:16:16Z</time>
      </trkpt>
      <trkpt lat="43.56014" lon="3.32887">
        <ele>286.6</ele>
        <time>2023-10-12T12:16:20Z</time>
      </trkpt>
      <trkpt lat="43.56008" lon="3.32898">
        <ele>287.2</ele>
        <time>2023-10-12T12:16:24Z</time>
      </trkpt>
      <trkpt lat="43.56" lon="3.32905">
        <ele>287.8</ele>
        <time>2023-10-12T12:16:28Z</time>
      </trkpt>
      <trkpt lat="43.55989" lon="3.32909">
        <ele>288.4</ele>
        <time>2023-10-12T12:16:32Z</time>
      </trkpt>
      <trkpt lat="43.55978" lon="3.32913">
        <ele>288.6</ele>
        <time>2023-10-12T12:16:36Z</time>
      </trkpt>
      <trkpt lat="43.55967" lon="3.32919">
        <ele>289</ele>
        <time>2023-10-12T12:16:40Z</time>
      </trkpt>
      <trkpt lat="43.55957" lon="3.32926">
        <ele>289.2</ele>
        <time>2023-10-12T12:16:44Z</time>
      </trkpt>
      <trkpt lat="43.5595" lon="3.32933">
        <ele>289.4</ele>
        <time>2023-10-12T12:16:47Z</time>
      </trkpt>
      <trkpt lat="43.55943" lon="3.32942">
        <ele>289.6</ele>
        <time>2023-10-12T12:16:51Z</time>
      </trkpt>
      <trkpt lat="43.55929" lon="3.32973">
        <ele>290.2</ele>
        <time>2023-10-12T12:17:59Z</time>
      </trkpt>
      <trkpt lat="43.5592" lon="3.32985">
        <ele>290.4</ele>
        <time>2023-10-12T12:18:02Z</time>
      </trkpt>
      <trkpt lat="43.55912" lon="3.32994">
        <ele>290.8</ele>
        <time>2023-10-12T12:18:04Z</time>
      </trkpt>
      <trkpt lat="43.55907" lon="3.33005">
        <ele>291</ele>
        <time>2023-10-12T12:18:06Z</time>
      </trkpt>
      <trkpt lat="43.55903" lon="3.33018">
        <ele>291.2</ele>
        <time>2023-10-12T12:18:08Z</time>
      </trkpt>
      <trkpt lat="43.559" lon="3.3303">
        <ele>291.4</ele>
        <time>2023-10-12T12:18:10Z</time>
      </trkpt>
      <trkpt lat="43.55893" lon="3.33046">
        <ele>291.6</ele>
        <time>2023-10-12T12:18:13Z</time>
      </trkpt>
      <trkpt lat="43.55887" lon="3.33057">
        <ele>291.8</ele>
        <time>2023-10-12T12:18:15Z</time>
      </trkpt>
      <trkpt lat="43.55879" lon="3.33066">
        <ele>292.2</ele>
        <time>2023-10-12T12:18:17Z</time>
      </trkpt>
      <trkpt lat="43.55871" lon="3.33075">
        <ele>292.4</ele>
        <time>2023-10-12T12:18:19Z</time>
      </trkpt>
      <trkpt lat="43.55864" lon="3.33084">
        <ele>292.8</ele>
        <time>2023-10-12T12:18:21Z</time>
      </trkpt>
      <trkpt lat="43.55855" lon="3.33097">
        <ele>293.4</ele>
        <time>2023-10-12T12:18:24Z</time>
      </trkpt>
      <trkpt lat="43.55847" lon="3.33112">
        <ele>294</ele>
        <time>2023-10-12T12:18:27Z</time>
      </trkpt>
      <trkpt lat="43.5584" lon="3.33126">
        <ele>294.8</ele>
        <time>2023-10-12T12:18:30Z</time>
      </trkpt>
      <trkpt lat="43.55833" lon="3.3314">
        <ele>295.4</ele>
        <time>2023-10-12T12:18:33Z</time>
      </trkpt>
      <trkpt lat="43.55826" lon="3.33153">
        <ele>296</ele>
        <time>2023-10-12T12:18:36Z</time>
      </trkpt>
      <trkpt lat="43.55819" lon="3.33166">
        <ele>296.6</ele>
        <time>2023-10-12T12:18:39Z</time>
      </trkpt>
      <trkpt lat="43.55813" lon="3.33179">
        <ele>297.2</ele>
        <time>2023-10-12T12:18:42Z</time>
      </trkpt>
      <trkpt lat="43.55807" lon="3.33191">
        <ele>297.8</ele>
        <time>2023-10-12T12:18:45Z</time>
      </trkpt>
      <trkpt lat="43.55803" lon="3.33205">
        <ele>298.2</ele>
        <time>2023-10-12T12:18:48Z</time>
      </trkpt>
      <trkpt lat="43.55798" lon="3.33218">
        <ele>298.8</ele>
        <time>2023-10-12T12:18:51Z</time>
      </trkpt>
      <trkpt lat="43.55795" lon="3.33231">
        <ele>299.4</ele>
        <time>2023-10-12T12:18:54Z</time>
      </trkpt>
      <trkpt lat="43.5579" lon="3.33246">
        <ele>300</ele>
        <time>2023-10-12T12:18:58Z</time>
      </trkpt>
      <trkpt lat="43.55786" lon="3.3326">
        <ele>300.4</ele>
        <time>2023-10-12T12:19:02Z</time>
      </trkpt>
      <trkpt lat="43.55782" lon="3.33274">
        <ele>301</ele>
        <time>2023-10-12T12:19:06Z</time>
      </trkpt>
      <trkpt lat="43.55778" lon="3.33286">
        <ele>301.6</ele>
        <time>2023-10-12T12:19:10Z</time>
      </trkpt>
      <trkpt lat="43.55774" lon="3.33299">
        <ele>302</ele>
        <time>2023-10-12T12:19:14Z</time>
      </trkpt>
      <trkpt lat="43.55771" lon="3.33311">
        <ele>302.4</ele>
        <time>2023-10-12T12:19:18Z</time>
      </trkpt>
      <trkpt lat="43.55766" lon="3.33323">
        <ele>303</ele>
        <time>2023-10-12T12:19:22Z</time>
      </trkpt>
      <trkpt lat="43.55762" lon="3.33336">
        <ele>303.4</ele>
        <time>2023-10-12T12:19:26Z</time>
      </trkpt>
      <trkpt lat="43.55756" lon="3.33348">
        <ele>304</ele>
        <time>2023-10-12T12:19:30Z</time>
      </trkpt>
      <trkpt lat="43.55751" lon="3.3336">
        <ele>304.4</ele>
        <time>2023-10-12T12:19:34Z</time>
      </trkpt>
      <trkpt lat="43.55745" lon="3.33372">
        <ele>305</ele>
        <time>2023-10-12T12:19:38Z</time>
      </trkpt>
      <trkpt lat="43.55739" lon="3.33384">
        <ele>305.4</ele>
        <time>2023-10-12T12:19:42Z</time>
      </trkpt>
      <trkpt lat="43.55732" lon="3.33394">
        <ele>306</ele>
        <time>2023-10-12T12:19:46Z</time>
      </trkpt>
      <trkpt lat="43.55724" lon="3.33403">
        <ele>306.4</ele>
        <time>2023-10-12T12:19:50Z</time>
      </trkpt>
      <trkpt lat="43.55717" lon="3.33413">
        <ele>307</ele>
        <time>2023-10-12T12:19:54Z</time>
      </trkpt>
      <trkpt lat="43.55711" lon="3.33424">
        <ele>307.4</ele>
        <time>2023-10-12T12:19:58Z</time>
      </trkpt>
      <trkpt lat="43.55707" lon="3.33436">
        <ele>308</ele>
        <time>2023-10-12T12:20:02Z</time>
      </trkpt>
      <trkpt lat="43.55702" lon="3.33425">
        <ele>308.4</ele>
        <time>2023-10-12T12:20:12Z</time>
      </trkpt>
      <trkpt lat="43.55707" lon="3.33413">
        <ele>308.8</ele>
        <time>2023-10-12T12:20:15Z</time>
      </trkpt>
      <trkpt lat="43.55711" lon="3.33401">
        <ele>309.4</ele>
        <time>2023-10-12T12:20:18Z</time>
      </trkpt>
      <trkpt lat="43.55713" lon="3.33387">
        <ele>309.8</ele>
        <time>2023-10-12T12:20:21Z</time>
      </trkpt>
      <trkpt lat="43.55708" lon="3.33376">
        <ele>310.2</ele>
        <time>2023-10-12T12:20:24Z</time>
      </trkpt>
      <trkpt lat="43.55701" lon="3.33368">
        <ele>310.4</ele>
        <time>2023-10-12T12:20:27Z</time>
      </trkpt>
      <trkpt lat="43.55693" lon="3.33359">
        <ele>310.2</ele>
        <time>2023-10-12T12:20:30Z</time>
      </trkpt>
      <trkpt lat="43.55686" lon="3.3335">
        <ele>310</ele>
        <time>2023-10-12T12:20:33Z</time>
      </trkpt>
      <trkpt lat="43.55678" lon="3.3334">
        <ele>309.8</ele>
        <time>2023-10-12T12:20:36Z</time>
      </trkpt>
      <trkpt lat="43.5567" lon="3.33331">
        <ele>309.6</ele>
        <time>2023-10-12T12:20:39Z</time>
      </trkpt>
      <trkpt lat="43.55661" lon="3.33322">
        <ele>309.4</ele>
        <time>2023-10-12T12:20:42Z</time>
      </trkpt>
      <trkpt lat="43.5565" lon="3.33316">
        <ele>309</ele>
        <time>2023-10-12T12:20:45Z</time>
      </trkpt>
      <trkpt lat="43.55639" lon="3.33313">
        <ele>308.8</ele>
        <time>2023-10-12T12:20:48Z</time>
      </trkpt>
      <trkpt lat="43.55628" lon="3.3331">
        <ele>308.6</ele>
        <time>2023-10-12T12:20:51Z</time>
      </trkpt>
      <trkpt lat="43.55616" lon="3.33308">
        <ele>308.4</ele>
        <time>2023-10-12T12:20:54Z</time>
      </trkpt>
      <trkpt lat="43.55607" lon="3.33307">
        <ele>308.2</ele>
        <time>2023-10-12T12:20:57Z</time>
      </trkpt>
      <trkpt lat="43.55598" lon="3.33305">
        <ele>308</ele>
        <time>2023-10-12T12:21:00Z</time>
      </trkpt>
      <trkpt lat="43.55587" lon="3.33301">
        <ele>307.8</ele>
        <time>2023-10-12T12:21:03Z</time>
      </trkpt>
      <trkpt lat="43.55576" lon="3.33299">
        <ele>307.6</ele>
        <time>2023-10-12T12:21:06Z</time>
      </trkpt>
      <trkpt lat="43.55566" lon="3.33297">
        <ele>307.4</ele>
        <time>2023-10-12T12:21:09Z</time>
      </trkpt>
      <trkpt lat="43.55556" lon="3.33295">
        <ele>307.2</ele>
        <time>2023-10-12T12:21:12Z</time>
      </trkpt>
      <trkpt lat="43.55545" lon="3.33291">
        <ele>307</ele>
        <time>2023-10-12T12:21:15Z</time>
      </trkpt>
      <trkpt lat="43.5553" lon="3.33272">
        <ele>306.6</ele>
        <time>2023-10-12T12:22:15Z</time>
      </trkpt>
      <trkpt lat="43.55527" lon="3.33258">
        <ele>306.4</ele>
        <time>2023-10-12T12:22:18Z</time>
      </trkpt>
      <trkpt lat="43.55524" lon="3.33244">
        <ele>306</ele>
        <time>2023-10-12T12:22:21Z</time>
      </trkpt>
      <trkpt lat="43.5552" lon="3.33232">
        <ele>305.8</ele>
        <time>2023-10-12T12:22:24Z</time>
      </trkpt>
      <trkpt lat="43.55514" lon="3.33218">
        <ele>305.6</ele>
        <time>2023-10-12T12:22:28Z</time>
      </trkpt>
      <trkpt lat="43.55504" lon="3.33207">
        <ele>305.4</ele>
        <time>2023-10-12T12:22:31Z</time>
      </trkpt>
      <trkpt lat="43.55492" lon="3.33204">
        <ele>305</ele>
        <time>2023-10-12T12:22:34Z</time>
      </trkpt>
      <trkpt lat="43.55481" lon="3.33202">
        <ele>304.8</ele>
        <time>2023-10-12T12:22:37Z</time>
      </trkpt>
      <trkpt lat="43.55471" lon="3.33202">
        <ele>304.6</ele>
        <time>2023-10-12T12:22:39Z</time>
      </trkpt>
      <trkpt lat="43.55459" lon="3.33206">
        <ele>304.4</ele>
        <time>2023-10-12T12:22:41Z</time>
      </trkpt>
      <trkpt lat="43.55443" lon="3.33211">
        <ele>304</ele>
        <time>2023-10-12T12:22:43Z</time>
      </trkpt>
      <trkpt lat="43.55431" lon="3.33215">
        <ele>303.8</ele>
        <time>2023-10-12T12:22:45Z</time>
      </trkpt>
      <trkpt lat="43.55422" lon="3.33214">
        <ele>303.6</ele>
        <time>2023-10-12T12:22:48Z</time>
      </trkpt>
      <trkpt lat="43.55421" lon="3.33199">
        <ele>303.4</ele>
        <time>2023-10-12T12:22:51Z</time>
      </trkpt>
      <trkpt lat="43.55421" lon="3.33186">
        <ele>303.2</ele>
        <time>2023-10-12T12:22:54Z</time>
      </trkpt>
      <trkpt lat="43.55418" lon="3.33174">
        <ele>303.4</ele>
        <time>2023-10-12T12:22:56Z</time>
      </trkpt>
      <trkpt lat="43.55414" lon="3.33158">
        <ele>304</ele>
        <time>2023-10-12T12:22:59Z</time>
      </trkpt>
      <trkpt lat="43.5541" lon="3.33146">
        <ele>304.6</ele>
        <time>2023-10-12T12:23:03Z</time>
      </trkpt>
      <trkpt lat="43.55413" lon="3.33132">
        <ele>305.4</ele>
        <time>2023-10-12T12:23:07Z</time>
      </trkpt>
      <trkpt lat="43.55417" lon="3.33119">
        <ele>306</ele>
        <time>2023-10-12T12:23:12Z</time>
      </trkpt>
      <trkpt lat="43.55417" lon="3.33104">
        <ele>306.6</ele>
        <time>2023-10-12T12:23:17Z</time>
      </trkpt>
      <trkpt lat="43.55418" lon="3.33091">
        <ele>307.2</ele>
        <time>2023-10-12T12:23:20Z</time>
      </trkpt>
      <trkpt lat="43.55419" lon="3.33076">
        <ele>308</ele>
        <time>2023-10-12T12:23:23Z</time>
      </trkpt>
      <trkpt lat="43.55421" lon="3.3306">
        <ele>308.6</ele>
        <time>2023-10-12T12:23:26Z</time>
      </trkpt>
      <trkpt lat="43.55422" lon="3.33046">
        <ele>309.4</ele>
        <time>2023-10-12T12:23:29Z</time>
      </trkpt>
      <trkpt lat="43.55423" lon="3.33031">
        <ele>310</ele>
        <time>2023-10-12T12:23:32Z</time>
      </trkpt>
      <trkpt lat="43.55425" lon="3.33015">
        <ele>310.8</ele>
        <time>2023-10-12T12:23:35Z</time>
      </trkpt>
      <trkpt lat="43.55428" lon="3.33">
        <ele>311.4</ele>
        <time>2023-10-12T12:23:38Z</time>
      </trkpt>
      <trkpt lat="43.55431" lon="3.32985">
        <ele>312.2</ele>
        <time>2023-10-12T12:23:41Z</time>
      </trkpt>
      <trkpt lat="43.55435" lon="3.32971">
        <ele>312.8</ele>
        <time>2023-10-12T12:23:44Z</time>
      </trkpt>
      <trkpt lat="43.55439" lon="3.32958">
        <ele>313.4</ele>
        <time>2023-10-12T12:23:47Z</time>
      </trkpt>
      <trkpt lat="43.55444" lon="3.32944">
        <ele>314.2</ele>
        <time>2023-10-12T12:23:50Z</time>
      </trkpt>
      <trkpt lat="43.55449" lon="3.3293">
        <ele>314.6</ele>
        <time>2023-10-12T12:23:53Z</time>
      </trkpt>
      <trkpt lat="43.55453" lon="3.32919">
        <ele>315</ele>
        <time>2023-10-12T12:23:55Z</time>
      </trkpt>
      <trkpt lat="43.55459" lon="3.32903">
        <ele>315.6</ele>
        <time>2023-10-12T12:23:58Z</time>
      </trkpt>
      <trkpt lat="43.55464" lon="3.32888">
        <ele>316.2</ele>
        <time>2023-10-12T12:24:01Z</time>
      </trkpt>
      <trkpt lat="43.55469" lon="3.32875">
        <ele>316.8</ele>
        <time>2023-10-12T12:24:04Z</time>
      </trkpt>
      <trkpt lat="43.55475" lon="3.3286">
        <ele>317.2</ele>
        <time>2023-10-12T12:24:07Z</time>
      </trkpt>
      <trkpt lat="43.5548" lon="3.32844">
        <ele>317.8</ele>
        <time>2023-10-12T12:24:10Z</time>
      </trkpt>
      <trkpt lat="43.55485" lon="3.32829">
        <ele>318.4</ele>
        <time>2023-10-12T12:24:13Z</time>
      </trkpt>
      <trkpt lat="43.5549" lon="3.32815">
        <ele>319</ele>
        <time>2023-10-12T12:24:16Z</time>
      </trkpt>
      <trkpt lat="43.55494" lon="3.32801">
        <ele>319.4</ele>
        <time>2023-10-12T12:24:19Z</time>
      </trkpt>
      <trkpt lat="43.55497" lon="3.32786">
        <ele>320</ele>
        <time>2023-10-12T12:24:22Z</time>
      </trkpt>
      <trkpt lat="43.55498" lon="3.32772">
        <ele>320.4</ele>
        <time>2023-10-12T12:24:25Z</time>
      </trkpt>
      <trkpt lat="43.55497" lon="3.32756">
        <ele>321</ele>
        <time>2023-10-12T12:24:28Z</time>
      </trkpt>
      <trkpt lat="43.55494" lon="3.32744">
        <ele>321.4</ele>
        <time>2023-10-12T12:24:31Z</time>
      </trkpt>
      <trkpt lat="43.55489" lon="3.32732">
        <ele>321.8</ele>
        <time>2023-10-12T12:24:34Z</time>
      </trkpt>
      <trkpt lat="43.55484" lon="3.3272">
        <ele>322.2</ele>
        <time>2023-10-12T12:24:38Z</time>
      </trkpt>
      <trkpt lat="43.55476" lon="3.32699">
        <ele>323.2</ele>
        <time>2023-10-12T12:25:23Z</time>
      </trkpt>
      <trkpt lat="43.5547" lon="3.32687">
        <ele>323.8</ele>
        <time>2023-10-12T12:25:27Z</time>
      </trkpt>
      <trkpt lat="43.55465" lon="3.32676">
        <ele>324.2</ele>
        <time>2023-10-12T12:25:30Z</time>
      </trkpt>
      <trkpt lat="43.5546" lon="3.32663">
        <ele>324.8</ele>
        <time>2023-10-12T12:25:34Z</time>
      </trkpt>
      <trkpt lat="43.55458" lon="3.32649">
        <ele>325.4</ele>
        <time>2023-10-12T12:25:37Z</time>
      </trkpt>
      <trkpt lat="43.55458" lon="3.32634">
        <ele>326</ele>
        <time>2023-10-12T12:25:40Z</time>
      </trkpt>
      <trkpt lat="43.5546" lon="3.32621">
        <ele>326.6</ele>
        <time>2023-10-12T12:25:43Z</time>
      </trkpt>
      <trkpt lat="43.55462" lon="3.32605">
        <ele>327.2</ele>
        <time>2023-10-12T12:25:47Z</time>
      </trkpt>
      <trkpt lat="43.55463" lon="3.32591">
        <ele>327.8</ele>
        <time>2023-10-12T12:25:50Z</time>
      </trkpt>
      <trkpt lat="43.55464" lon="3.32577">
        <ele>328.4</ele>
        <time>2023-10-12T12:25:53Z</time>
      </trkpt>
      <trkpt lat="43.55464" lon="3.32564">
        <ele>328.8</ele>
        <time>2023-10-12T12:25:56Z</time>
      </trkpt>
      <trkpt lat="43.55463" lon="3.3255">
        <ele>329.4</ele>
        <time>2023-10-12T12:25:59Z</time>
      </trkpt>
      <trkpt lat="43.55461" lon="3.32535">
        <ele>330</ele>
        <time>2023-10-12T12:26:03Z</time>
      </trkpt>
      <trkpt lat="43.5546" lon="3.32522">
        <ele>330.6</ele>
        <time>2023-10-12T12:26:06Z</time>
      </trkpt>
      <trkpt lat="43.55459" lon="3.3251">
        <ele>331</ele>
        <time>2023-10-12T12:26:09Z</time>
      </trkpt>
      <trkpt lat="43.55457" lon="3.32494">
        <ele>331.8</ele>
        <time>2023-10-12T12:26:12Z</time>
      </trkpt>
      <trkpt lat="43.55455" lon="3.32481">
        <ele>332.2</ele>
        <time>2023-10-12T12:26:15Z</time>
      </trkpt>
      <trkpt lat="43.55452" lon="3.32468">
        <ele>332.8</ele>
        <time>2023-10-12T12:26:18Z</time>
      </trkpt>
      <trkpt lat="43.5545" lon="3.32452">
        <ele>333.4</ele>
        <time>2023-10-12T12:26:22Z</time>
      </trkpt>
      <trkpt lat="43.55445" lon="3.3244">
        <ele>333.8</ele>
        <time>2023-10-12T12:26:25Z</time>
      </trkpt>
      <trkpt lat="43.55438" lon="3.32431">
        <ele>334.4</ele>
        <time>2023-10-12T12:26:28Z</time>
      </trkpt>
      <trkpt lat="43.5543" lon="3.32427">
        <ele>334.8</ele>
        <time>2023-10-12T12:26:31Z</time>
      </trkpt>
      <trkpt lat="43.55418" lon="3.32427">
        <ele>335.4</ele>
        <time>2023-10-12T12:26:35Z</time>
      </trkpt>
      <trkpt lat="43.55408" lon="3.32429">
        <ele>336</ele>
        <time>2023-10-12T12:26:39Z</time>
      </trkpt>
      <trkpt lat="43.55399" lon="3.32431">
        <ele>336.4</ele>
        <time>2023-10-12T12:26:42Z</time>
      </trkpt>
      <trkpt lat="43.55387" lon="3.32435">
        <ele>337</ele>
        <time>2023-10-12T12:26:45Z</time>
      </trkpt>
      <trkpt lat="43.55378" lon="3.32438">
        <ele>337.6</ele>
        <time>2023-10-12T12:26:48Z</time>
      </trkpt>
      <trkpt lat="43.55369" lon="3.32444">
        <ele>338</ele>
        <time>2023-10-12T12:26:51Z</time>
      </trkpt>
      <trkpt lat="43.55359" lon="3.32449">
        <ele>338.6</ele>
        <time>2023-10-12T12:26:54Z</time>
      </trkpt>
      <trkpt lat="43.55348" lon="3.32451">
        <ele>339.2</ele>
        <time>2023-10-12T12:26:57Z</time>
      </trkpt>
      <trkpt lat="43.55338" lon="3.32447">
        <ele>339.6</ele>
        <time>2023-10-12T12:27:00Z</time>
      </trkpt>
      <trkpt lat="43.55328" lon="3.32443">
        <ele>340.2</ele>
        <time>2023-10-12T12:27:03Z</time>
      </trkpt>
      <trkpt lat="43.55324" lon="3.32447">
        <ele>300.7</ele>
      </trkpt>
      <trkpt lat="43.55322" lon="3.32455">
        <ele>301.4</ele>
      </trkpt>
      <trkpt lat="43.55323" lon="3.32467">
        <ele>301.7</ele>
        <time>2023-10-12T12:27:09Z</time>
      </trkpt>
      <trkpt lat="43.55323" lon="3.32478">
        <ele>341.6</ele>
        <time>2023-10-12T12:27:12Z</time>
      </trkpt>
      <trkpt lat="43.55325" lon="3.32493">
        <ele>341.8</ele>
        <time>2023-10-12T12:27:16Z</time>
      </trkpt>
      <trkpt lat="43.55325" lon="3.32506">
        <ele>342</ele>
        <time>2023-10-12T12:27:19Z</time>
      </trkpt>
      <trkpt lat="43.55324" lon="3.32521">
        <ele>342.4</ele>
        <time>2023-10-12T12:27:22Z</time>
      </trkpt>
      <trkpt lat="43.55321" lon="3.32534">
        <ele>342.6</ele>
        <time>2023-10-12T12:27:25Z</time>
      </trkpt>
      <trkpt lat="43.55318" lon="3.32547">
        <ele>342.8</ele>
        <time>2023-10-12T12:27:28Z</time>
      </trkpt>
      <trkpt lat="43.55313" lon="3.32562">
        <ele>343</ele>
        <time>2023-10-12T12:27:31Z</time>
      </trkpt>
      <trkpt lat="43.55308" lon="3.32577">
        <ele>343.2</ele>
        <time>2023-10-12T12:27:34Z</time>
      </trkpt>
      <trkpt lat="43.55303" lon="3.32591">
        <ele>343.4</ele>
        <time>2023-10-12T12:27:37Z</time>
      </trkpt>
      <trkpt lat="43.55297" lon="3.32605">
        <ele>343.8</ele>
        <time>2023-10-12T12:27:40Z</time>
      </trkpt>
      <trkpt lat="43.5529" lon="3.3262">
        <ele>344</ele>
        <time>2023-10-12T12:27:43Z</time>
      </trkpt>
      <trkpt lat="43.55283" lon="3.32632">
        <ele>344.2</ele>
        <time>2023-10-12T12:27:46Z</time>
      </trkpt>
      <trkpt lat="43.55276" lon="3.32642">
        <ele>344.4</ele>
        <time>2023-10-12T12:27:49Z</time>
      </trkpt>
      <trkpt lat="43.55267" lon="3.32652">
        <ele>344.6</ele>
        <time>2023-10-12T12:27:52Z</time>
      </trkpt>
      <trkpt lat="43.55259" lon="3.3266">
        <ele>345</ele>
        <time>2023-10-12T12:27:55Z</time>
      </trkpt>
      <trkpt lat="43.5525" lon="3.3267">
        <ele>345.2</ele>
        <time>2023-10-12T12:27:58Z</time>
      </trkpt>
      <trkpt lat="43.55242" lon="3.32681">
        <ele>345.4</ele>
        <time>2023-10-12T12:28:01Z</time>
      </trkpt>
      <trkpt lat="43.55235" lon="3.32691">
        <ele>345.6</ele>
        <time>2023-10-12T12:28:04Z</time>
      </trkpt>
      <trkpt lat="43.55227" lon="3.32702">
        <ele>346</ele>
        <time>2023-10-12T12:28:07Z</time>
      </trkpt>
      <trkpt lat="43.5522" lon="3.32712">
        <ele>346.2</ele>
        <time>2023-10-12T12:28:10Z</time>
      </trkpt>
      <trkpt lat="43.55213" lon="3.32723">
        <ele>346.6</ele>
        <time>2023-10-12T12:28:13Z</time>
      </trkpt>
      <trkpt lat="43.55207" lon="3.32734">
        <ele>346.8</ele>
        <time>2023-10-12T12:28:16Z</time>
      </trkpt>
      <trkpt lat="43.55201" lon="3.32745">
        <ele>347.2</ele>
        <time>2023-10-12T12:28:19Z</time>
      </trkpt>
      <trkpt lat="43.55195" lon="3.32757">
        <ele>347.4</ele>
        <time>2023-10-12T12:28:23Z</time>
      </trkpt>
      <trkpt lat="43.55188" lon="3.32772">
        <ele>347.8</ele>
        <time>2023-10-12T12:28:26Z</time>
      </trkpt>
      <trkpt lat="43.55183" lon="3.32786">
        <ele>348</ele>
        <time>2023-10-12T12:28:29Z</time>
      </trkpt>
      <trkpt lat="43.55179" lon="3.32798">
        <ele>348.4</ele>
        <time>2023-10-12T12:28:32Z</time>
      </trkpt>
      <trkpt lat="43.55176" lon="3.3281">
        <ele>348.6</ele>
        <time>2023-10-12T12:28:35Z</time>
      </trkpt>
      <trkpt lat="43.55173" lon="3.32824">
        <ele>349</ele>
        <time>2023-10-12T12:28:39Z</time>
      </trkpt>
      <trkpt lat="43.55164" lon="3.32834">
        <ele>349.2</ele>
        <time>2023-10-12T12:28:43Z</time>
      </trkpt>
      <trkpt lat="43.55154" lon="3.32838">
        <ele>349.6</ele>
        <time>2023-10-12T12:28:46Z</time>
      </trkpt>
      <trkpt lat="43.55142" lon="3.32843">
        <ele>349.8</ele>
        <time>2023-10-12T12:28:49Z</time>
      </trkpt>
      <trkpt lat="43.55129" lon="3.32844">
        <ele>350.2</ele>
        <time>2023-10-12T12:28:52Z</time>
      </trkpt>
      <trkpt lat="43.5512" lon="3.32845">
        <ele>350.4</ele>
        <time>2023-10-12T12:28:54Z</time>
      </trkpt>
      <trkpt lat="43.5511" lon="3.32845">
        <ele>350.4</ele>
        <time>2023-10-12T12:28:56Z</time>
      </trkpt>
      <trkpt lat="43.55101" lon="3.32843">
        <ele>350.6</ele>
        <time>2023-10-12T12:28:58Z</time>
      </trkpt>
      <trkpt lat="43.55089" lon="3.32836">
        <ele>350.6</ele>
        <time>2023-10-12T12:29:01Z</time>
      </trkpt>
      <trkpt lat="43.5508" lon="3.32823">
        <ele>350.8</ele>
        <time>2023-10-12T12:29:04Z</time>
      </trkpt>
      <trkpt lat="43.55074" lon="3.32807">
        <ele>350.8</ele>
        <time>2023-10-12T12:29:07Z</time>
      </trkpt>
      <trkpt lat="43.5507" lon="3.32795">
        <ele>350.8</ele>
        <time>2023-10-12T12:29:09Z</time>
      </trkpt>
      <trkpt lat="43.55066" lon="3.32783">
        <ele>351</ele>
        <time>2023-10-12T12:29:11Z</time>
      </trkpt>
      <trkpt lat="43.55062" lon="3.3277">
        <ele>351</ele>
        <time>2023-10-12T12:29:13Z</time>
      </trkpt>
      <trkpt lat="43.55059" lon="3.32758">
        <ele>351</ele>
        <time>2023-10-12T12:29:15Z</time>
      </trkpt>
      <trkpt lat="43.55055" lon="3.32746">
        <ele>351.2</ele>
        <time>2023-10-12T12:29:17Z</time>
      </trkpt>
      <trkpt lat="43.55052" lon="3.32732">
        <ele>351.2</ele>
        <time>2023-10-12T12:29:19Z</time>
      </trkpt>
      <trkpt lat="43.5505" lon="3.32719">
        <ele>351.2</ele>
        <time>2023-10-12T12:29:21Z</time>
      </trkpt>
      <trkpt lat="43.55047" lon="3.32706">
        <ele>351.4</ele>
        <time>2023-10-12T12:29:23Z</time>
      </trkpt>
      <trkpt lat="43.55043" lon="3.32694">
        <ele>351.4</ele>
        <time>2023-10-12T12:29:25Z</time>
      </trkpt>
      <trkpt lat="43.5504" lon="3.32682">
        <ele>351.4</ele>
        <time>2023-10-12T12:29:27Z</time>
      </trkpt>
      <trkpt lat="43.55037" lon="3.3267">
        <ele>351.6</ele>
        <time>2023-10-12T12:29:29Z</time>
      </trkpt>
      <trkpt lat="43.55032" lon="3.32658">
        <ele>351.6</ele>
        <time>2023-10-12T12:29:31Z</time>
      </trkpt>
      <trkpt lat="43.55028" lon="3.32646">
        <ele>351.8</ele>
        <time>2023-10-12T12:29:33Z</time>
      </trkpt>
      <trkpt lat="43.55024" lon="3.32629">
        <ele>351.8</ele>
        <time>2023-10-12T12:29:36Z</time>
      </trkpt>
      <trkpt lat="43.55022" lon="3.32611">
        <ele>352</ele>
        <time>2023-10-12T12:29:39Z</time>
      </trkpt>
      <trkpt lat="43.55022" lon="3.32594">
        <ele>352.2</ele>
        <time>2023-10-12T12:29:42Z</time>
      </trkpt>
      <trkpt lat="43.55023" lon="3.32576">
        <ele>352.2</ele>
        <time>2023-10-12T12:29:45Z</time>
      </trkpt>
      <trkpt lat="43.55023" lon="3.3256">
        <ele>352.4</ele>
        <time>2023-10-12T12:29:48Z</time>
      </trkpt>
      <trkpt lat="43.55022" lon="3.32543">
        <ele>352.6</ele>
        <time>2023-10-12T12:29:51Z</time>
      </trkpt>
      <trkpt lat="43.55018" lon="3.32526">
        <ele>352.8</ele>
        <time>2023-10-12T12:29:54Z</time>
      </trkpt>
      <trkpt lat="43.5501" lon="3.32514">
        <ele>352.8</ele>
        <time>2023-10-12T12:29:57Z</time>
      </trkpt>
      <trkpt lat="43.55" lon="3.32502">
        <ele>353</ele>
        <time>2023-10-12T12:30:00Z</time>
      </trkpt>
      <trkpt lat="43.54994" lon="3.32493">
        <ele>353</ele>
        <time>2023-10-12T12:30:02Z</time>
      </trkpt>
      <trkpt lat="43.54988" lon="3.32482">
        <ele>353.2</ele>
        <time>2023-10-12T12:30:04Z</time>
      </trkpt>
      <trkpt lat="43.54984" lon="3.3247">
        <ele>353.4</ele>
        <time>2023-10-12T12:30:06Z</time>
      </trkpt>
      <trkpt lat="43.54982" lon="3.32458">
        <ele>353.4</ele>
        <time>2023-10-12T12:30:08Z</time>
      </trkpt>
      <trkpt lat="43.54979" lon="3.3244">
        <ele>353.6</ele>
        <time>2023-10-12T12:30:11Z</time>
      </trkpt>
      <trkpt lat="43.54978" lon="3.32422">
        <ele>353.6</ele>
        <time>2023-10-12T12:30:14Z</time>
      </trkpt>
      <trkpt lat="43.54977" lon="3.32405">
        <ele>353.8</ele>
        <time>2023-10-12T12:30:17Z</time>
      </trkpt>
      <trkpt lat="43.54977" lon="3.32387">
        <ele>353.8</ele>
        <time>2023-10-12T12:30:20Z</time>
      </trkpt>
      <trkpt lat="43.54977" lon="3.3237">
        <ele>353.8</ele>
        <time>2023-10-12T12:30:23Z</time>
      </trkpt>
      <trkpt lat="43.54978" lon="3.32357">
        <ele>353.8</ele>
        <time>2023-10-12T12:30:25Z</time>
      </trkpt>
      <trkpt lat="43.54978" lon="3.32339">
        <ele>353.8</ele>
        <time>2023-10-12T12:30:28Z</time>
      </trkpt>
      <trkpt lat="43.54979" lon="3.32326">
        <ele>353.8</ele>
        <time>2023-10-12T12:30:30Z</time>
      </trkpt>
      <trkpt lat="43.54979" lon="3.32313">
        <ele>353.8</ele>
        <time>2023-10-12T12:30:32Z</time>
      </trkpt>
      <trkpt lat="43.54978" lon="3.323">
        <ele>354</ele>
        <time>2023-10-12T12:30:34Z</time>
      </trkpt>
      <trkpt lat="43.54974" lon="3.32283">
        <ele>354</ele>
        <time>2023-10-12T12:30:37Z</time>
      </trkpt>
      <trkpt lat="43.54971" lon="3.3227">
        <ele>354</ele>
        <time>2023-10-12T12:30:39Z</time>
      </trkpt>
      <trkpt lat="43.54968" lon="3.32257">
        <ele>354</ele>
        <time>2023-10-12T12:30:41Z</time>
      </trkpt>
      <trkpt lat="43.54964" lon="3.32241">
        <ele>354</ele>
        <time>2023-10-12T12:30:43Z</time>
      </trkpt>
      <trkpt lat="43.54958" lon="3.32226">
        <ele>354</ele>
        <time>2023-10-12T12:30:45Z</time>
      </trkpt>
      <trkpt lat="43.54952" lon="3.32213">
        <ele>354.2</ele>
        <time>2023-10-12T12:30:47Z</time>
      </trkpt>
      <trkpt lat="43.54946" lon="3.322">
        <ele>354.2</ele>
        <time>2023-10-12T12:30:49Z</time>
      </trkpt>
      <trkpt lat="43.5494" lon="3.32189">
        <ele>354.2</ele>
        <time>2023-10-12T12:30:51Z</time>
      </trkpt>
      <trkpt lat="43.54935" lon="3.32179">
        <ele>354.4</ele>
        <time>2023-10-12T12:30:53Z</time>
      </trkpt>
      <trkpt lat="43.54929" lon="3.32169">
        <ele>354.6</ele>
        <time>2023-10-12T12:30:55Z</time>
      </trkpt>
      <trkpt lat="43.54924" lon="3.32157">
        <ele>354.8</ele>
        <time>2023-10-12T12:30:57Z</time>
      </trkpt>
      <trkpt lat="43.54919" lon="3.32141">
        <ele>355</ele>
        <time>2023-10-12T12:31:00Z</time>
      </trkpt>
      <trkpt lat="43.54916" lon="3.32129">
        <ele>355.2</ele>
        <time>2023-10-12T12:31:03Z</time>
      </trkpt>
      <trkpt lat="43.54912" lon="3.32115">
        <ele>355.4</ele>
        <time>2023-10-12T12:31:07Z</time>
      </trkpt>
      <trkpt lat="43.54909" lon="3.32102">
        <ele>355.6</ele>
        <time>2023-10-12T12:31:10Z</time>
      </trkpt>
      <trkpt lat="43.54907" lon="3.32088">
        <ele>355.8</ele>
        <time>2023-10-12T12:31:14Z</time>
      </trkpt>
      <trkpt lat="43.54905" lon="3.32076">
        <ele>356</ele>
        <time>2023-10-12T12:31:18Z</time>
      </trkpt>
      <trkpt lat="43.54905" lon="3.3206">
        <ele>356.2</ele>
        <time>2023-10-12T12:31:22Z</time>
      </trkpt>
      <trkpt lat="43.5491" lon="3.3205">
        <ele>356.4</ele>
        <time>2023-10-12T12:31:25Z</time>
      </trkpt>
      <trkpt lat="43.54919" lon="3.32042">
        <ele>356.6</ele>
        <time>2023-10-12T12:31:29Z</time>
      </trkpt>
      <trkpt lat="43.54927" lon="3.32034">
        <ele>356.8</ele>
        <time>2023-10-12T12:31:33Z</time>
      </trkpt>
      <trkpt lat="43.54935" lon="3.32026">
        <ele>356.8</ele>
        <time>2023-10-12T12:31:38Z</time>
      </trkpt>
      <trkpt lat="43.54948" lon="3.32013">
        <ele>357.2</ele>
        <time>2023-10-12T12:31:55Z</time>
      </trkpt>
      <trkpt lat="43.54955" lon="3.32005">
        <ele>357.4</ele>
        <time>2023-10-12T12:31:59Z</time>
      </trkpt>
      <trkpt lat="43.54964" lon="3.31996">
        <ele>357.6</ele>
        <time>2023-10-12T12:32:04Z</time>
      </trkpt>
      <trkpt lat="43.54973" lon="3.31985">
        <ele>357.8</ele>
        <time>2023-10-12T12:32:09Z</time>
      </trkpt>
      <trkpt lat="43.54981" lon="3.31975">
        <ele>358.2</ele>
        <time>2023-10-12T12:32:13Z</time>
      </trkpt>
      <trkpt lat="43.54987" lon="3.31965">
        <ele>358.4</ele>
        <time>2023-10-12T12:32:17Z</time>
      </trkpt>
      <trkpt lat="43.54994" lon="3.31955">
        <ele>358.6</ele>
        <time>2023-10-12T12:32:22Z</time>
      </trkpt>
      <trkpt lat="43.55002" lon="3.31946">
        <ele>358.8</ele>
        <time>2023-10-12T12:32:26Z</time>
      </trkpt>
      <trkpt lat="43.55011" lon="3.31937">
        <ele>359</ele>
        <time>2023-10-12T12:32:30Z</time>
      </trkpt>
      <trkpt lat="43.5502" lon="3.31928">
        <ele>359.4</ele>
        <time>2023-10-12T12:32:34Z</time>
      </trkpt>
      <trkpt lat="43.55028" lon="3.31921">
        <ele>359.6</ele>
        <time>2023-10-12T12:32:37Z</time>
      </trkpt>
      <trkpt lat="43.55036" lon="3.31915">
        <ele>359.8</ele>
        <time>2023-10-12T12:32:40Z</time>
      </trkpt>
      <trkpt lat="43.55047" lon="3.31909">
        <ele>360</ele>
        <time>2023-10-12T12:32:43Z</time>
      </trkpt>
      <trkpt lat="43.55058" lon="3.31904">
        <ele>360.4</ele>
        <time>2023-10-12T12:32:46Z</time>
      </trkpt>
      <trkpt lat="43.55067" lon="3.31901">
        <ele>360.6</ele>
        <time>2023-10-12T12:32:49Z</time>
      </trkpt>
      <trkpt lat="43.55077" lon="3.31896">
        <ele>360.8</ele>
        <time>2023-10-12T12:32:53Z</time>
      </trkpt>
      <trkpt lat="43.55085" lon="3.31891">
        <ele>361</ele>
        <time>2023-10-12T12:32:58Z</time>
      </trkpt>
      <trkpt lat="43.55089" lon="3.31879">
        <ele>361.2</ele>
        <time>2023-10-12T12:33:02Z</time>
      </trkpt>
      <trkpt lat="43.55087" lon="3.31865">
        <ele>361.4</ele>
        <time>2023-10-12T12:33:07Z</time>
      </trkpt>
      <trkpt lat="43.55092" lon="3.31854">
        <ele>361.6</ele>
        <time>2023-10-12T12:33:12Z</time>
      </trkpt>
      <trkpt lat="43.55101" lon="3.31848">
        <ele>362.4</ele>
        <time>2023-10-12T12:33:16Z</time>
      </trkpt>
      <trkpt lat="43.5511" lon="3.31845">
        <ele>363.4</ele>
        <time>2023-10-12T12:33:20Z</time>
      </trkpt>
      <trkpt lat="43.55119" lon="3.31841">
        <ele>364.4</ele>
        <time>2023-10-12T12:33:24Z</time>
      </trkpt>
      <trkpt lat="43.55129" lon="3.31838">
        <ele>365.6</ele>
        <time>2023-10-12T12:33:28Z</time>
      </trkpt>
      <trkpt lat="43.55138" lon="3.31834">
        <ele>366.6</ele>
        <time>2023-10-12T12:33:33Z</time>
      </trkpt>
      <trkpt lat="43.55148" lon="3.31828">
        <ele>367.8</ele>
        <time>2023-10-12T12:33:37Z</time>
      </trkpt>
      <trkpt lat="43.55159" lon="3.31821">
        <ele>369</ele>
        <time>2023-10-12T12:33:41Z</time>
      </trkpt>
      <trkpt lat="43.55169" lon="3.31817">
        <ele>370.2</ele>
        <time>2023-10-12T12:33:45Z</time>
      </trkpt>
      <trkpt lat="43.55174" lon="3.31829">
        <ele>371.2</ele>
        <time>2023-10-12T12:33:49Z</time>
      </trkpt>
      <trkpt lat="43.55183" lon="3.31833">
        <ele>372.2</ele>
        <time>2023-10-12T12:33:54Z</time>
      </trkpt>
      <trkpt lat="43.55193" lon="3.31833">
        <ele>373.4</ele>
        <time>2023-10-12T12:33:59Z</time>
      </trkpt>
      <trkpt lat="43.55202" lon="3.3183">
        <ele>374.4</ele>
        <time>2023-10-12T12:34:03Z</time>
      </trkpt>
      <trkpt lat="43.55212" lon="3.31826">
        <ele>375.6</ele>
        <time>2023-10-12T12:34:07Z</time>
      </trkpt>
      <trkpt lat="43.55222" lon="3.31821">
        <ele>376.8</ele>
        <time>2023-10-12T12:34:11Z</time>
      </trkpt>
      <trkpt lat="43.55232" lon="3.31813">
        <ele>377.8</ele>
        <time>2023-10-12T12:34:15Z</time>
      </trkpt>
      <trkpt lat="43.55241" lon="3.31804">
        <ele>379.2</ele>
        <time>2023-10-12T12:34:19Z</time>
      </trkpt>
      <trkpt lat="43.5525" lon="3.31797">
        <ele>380.2</ele>
        <time>2023-10-12T12:34:23Z</time>
      </trkpt>
      <trkpt lat="43.55258" lon="3.31788">
        <ele>381.2</ele>
        <time>2023-10-12T12:34:27Z</time>
      </trkpt>
      <trkpt lat="43.55266" lon="3.31785">
        <ele>381.4</ele>
        <time>2023-10-12T12:34:31Z</time>
      </trkpt>
      <trkpt lat="43.55277" lon="3.31781">
        <ele>381.6</ele>
        <time>2023-10-12T12:34:36Z</time>
      </trkpt>
      <trkpt lat="43.55281" lon="3.31769">
        <ele>381.6</ele>
        <time>2023-10-12T12:34:40Z</time>
      </trkpt>
      <trkpt lat="43.55289" lon="3.31759">
        <ele>381.8</ele>
        <time>2023-10-12T12:34:44Z</time>
      </trkpt>
      <trkpt lat="43.55296" lon="3.31747">
        <ele>382</ele>
        <time>2023-10-12T12:34:48Z</time>
      </trkpt>
      <trkpt lat="43.55302" lon="3.31735">
        <ele>382</ele>
        <time>2023-10-12T12:34:52Z</time>
      </trkpt>
      <trkpt lat="43.55308" lon="3.31723">
        <ele>382.2</ele>
        <time>2023-10-12T12:34:57Z</time>
      </trkpt>
      <trkpt lat="43.55312" lon="3.3171">
        <ele>382.4</ele>
        <time>2023-10-12T12:35:02Z</time>
      </trkpt>
      <trkpt lat="43.55316" lon="3.31698">
        <ele>382.6</ele>
        <time>2023-10-12T12:35:07Z</time>
      </trkpt>
      <trkpt lat="43.55325" lon="3.31694">
        <ele>382.6</ele>
        <time>2023-10-12T12:35:12Z</time>
      </trkpt>
      <trkpt lat="43.55334" lon="3.31694">
        <ele>382.8</ele>
        <time>2023-10-12T12:35:17Z</time>
      </trkpt>
      <trkpt lat="43.55352" lon="3.3169">
        <ele>383</ele>
        <time>2023-10-12T12:37:47Z</time>
      </trkpt>
      <trkpt lat="43.55364" lon="3.31683">
        <ele>383.2</ele>
        <time>2023-10-12T12:37:50Z</time>
      </trkpt>
      <trkpt lat="43.55374" lon="3.31676">
        <ele>383.4</ele>
        <time>2023-10-12T12:37:52Z</time>
      </trkpt>
      <trkpt lat="43.55383" lon="3.31668">
        <ele>383.4</ele>
        <time>2023-10-12T12:37:54Z</time>
      </trkpt>
      <trkpt lat="43.55394" lon="3.31667">
        <ele>383.6</ele>
        <time>2023-10-12T12:37:56Z</time>
      </trkpt>
      <trkpt lat="43.55405" lon="3.31667">
        <ele>383.2</ele>
        <time>2023-10-12T12:37:59Z</time>
      </trkpt>
      <trkpt lat="43.55415" lon="3.3166">
        <ele>382.2</ele>
        <time>2023-10-12T12:38:03Z</time>
      </trkpt>
      <trkpt lat="43.55424" lon="3.31653">
        <ele>381.2</ele>
        <time>2023-10-12T12:38:06Z</time>
      </trkpt>
      <trkpt lat="43.55434" lon="3.31646">
        <ele>380.2</ele>
        <time>2023-10-12T12:38:09Z</time>
      </trkpt>
      <trkpt lat="43.55439" lon="3.31635">
        <ele>379.4</ele>
        <time>2023-10-12T12:38:11Z</time>
      </trkpt>
      <trkpt lat="43.55445" lon="3.31621">
        <ele>378.4</ele>
        <time>2023-10-12T12:38:13Z</time>
      </trkpt>
      <trkpt lat="43.5545" lon="3.31605">
        <ele>377.2</ele>
        <time>2023-10-12T12:38:16Z</time>
      </trkpt>
      <trkpt lat="43.55457" lon="3.3159">
        <ele>376</ele>
        <time>2023-10-12T12:38:19Z</time>
      </trkpt>
      <trkpt lat="43.55463" lon="3.31578">
        <ele>375.2</ele>
        <time>2023-10-12T12:38:22Z</time>
      </trkpt>
      <trkpt lat="43.55468" lon="3.31564">
        <ele>374.2</ele>
        <time>2023-10-12T12:38:25Z</time>
      </trkpt>
      <trkpt lat="43.55472" lon="3.31553">
        <ele>373.4</ele>
        <time>2023-10-12T12:38:27Z</time>
      </trkpt>
      <trkpt lat="43.55477" lon="3.3154">
        <ele>372.4</ele>
        <time>2023-10-12T12:38:29Z</time>
      </trkpt>
      <trkpt lat="43.5548" lon="3.31526">
        <ele>371.6</ele>
        <time>2023-10-12T12:38:31Z</time>
      </trkpt>
      <trkpt lat="43.55483" lon="3.31512">
        <ele>370.6</ele>
        <time>2023-10-12T12:38:33Z</time>
      </trkpt>
      <trkpt lat="43.55488" lon="3.31499">
        <ele>369.6</ele>
        <time>2023-10-12T12:38:35Z</time>
      </trkpt>
      <trkpt lat="43.55495" lon="3.31486">
        <ele>368.6</ele>
        <time>2023-10-12T12:38:37Z</time>
      </trkpt>
      <trkpt lat="43.55502" lon="3.31475">
        <ele>367.6</ele>
        <time>2023-10-12T12:38:39Z</time>
      </trkpt>
      <trkpt lat="43.55507" lon="3.31463">
        <ele>366.8</ele>
        <time>2023-10-12T12:38:41Z</time>
      </trkpt>
      <trkpt lat="43.55514" lon="3.3145">
        <ele>366</ele>
        <time>2023-10-12T12:38:43Z</time>
      </trkpt>
      <trkpt lat="43.55522" lon="3.31438">
        <ele>365</ele>
        <time>2023-10-12T12:38:45Z</time>
      </trkpt>
      <trkpt lat="43.55532" lon="3.31427">
        <ele>364</ele>
        <time>2023-10-12T12:38:47Z</time>
      </trkpt>
      <trkpt lat="43.55543" lon="3.31416">
        <ele>363</ele>
        <time>2023-10-12T12:38:49Z</time>
      </trkpt>
      <trkpt lat="43.55553" lon="3.31404">
        <ele>361.8</ele>
        <time>2023-10-12T12:38:51Z</time>
      </trkpt>
      <trkpt lat="43.55562" lon="3.31394">
        <ele>360.8</ele>
        <time>2023-10-12T12:38:53Z</time>
      </trkpt>
      <trkpt lat="43.55568" lon="3.31382">
        <ele>360</ele>
        <time>2023-10-12T12:38:55Z</time>
      </trkpt>
      <trkpt lat="43.55567" lon="3.31365">
        <ele>359.2</ele>
        <time>2023-10-12T12:38:57Z</time>
      </trkpt>
      <trkpt lat="43.55567" lon="3.31346">
        <ele>358</ele>
        <time>2023-10-12T12:38:59Z</time>
      </trkpt>
      <trkpt lat="43.55564" lon="3.31326">
        <ele>356.8</ele>
        <time>2023-10-12T12:39:01Z</time>
      </trkpt>
      <trkpt lat="43.55561" lon="3.31307">
        <ele>355.8</ele>
        <time>2023-10-12T12:39:03Z</time>
      </trkpt>
      <trkpt lat="43.55561" lon="3.3129">
        <ele>354.8</ele>
        <time>2023-10-12T12:39:05Z</time>
      </trkpt>
      <trkpt lat="43.55563" lon="3.31277">
        <ele>354</ele>
        <time>2023-10-12T12:39:07Z</time>
      </trkpt>
      <trkpt lat="43.55581" lon="3.31271">
        <ele>352.8</ele>
        <time>2023-10-12T12:39:34Z</time>
      </trkpt>
      <trkpt lat="43.5559" lon="3.31273">
        <ele>352.2</ele>
        <time>2023-10-12T12:39:37Z</time>
      </trkpt>
      <trkpt lat="43.55601" lon="3.31275">
        <ele>351.4</ele>
        <time>2023-10-12T12:39:41Z</time>
      </trkpt>
      <trkpt lat="43.55612" lon="3.31278">
        <ele>350.8</ele>
        <time>2023-10-12T12:39:44Z</time>
      </trkpt>
      <trkpt lat="43.55625" lon="3.31278">
        <ele>350</ele>
        <time>2023-10-12T12:39:47Z</time>
      </trkpt>
      <trkpt lat="43.55637" lon="3.31281">
        <ele>349.2</ele>
        <time>2023-10-12T12:39:50Z</time>
      </trkpt>
      <trkpt lat="43.55647" lon="3.31284">
        <ele>348.6</ele>
        <time>2023-10-12T12:39:52Z</time>
      </trkpt>
      <trkpt lat="43.55658" lon="3.31284">
        <ele>348</ele>
        <time>2023-10-12T12:39:54Z</time>
      </trkpt>
      <trkpt lat="43.55667" lon="3.31286">
        <ele>347.4</ele>
        <time>2023-10-12T12:39:56Z</time>
      </trkpt>
      <trkpt lat="43.55677" lon="3.31286">
        <ele>346.8</ele>
        <time>2023-10-12T12:39:59Z</time>
      </trkpt>
      <trkpt lat="43.55687" lon="3.3128">
        <ele>346.2</ele>
        <time>2023-10-12T12:40:03Z</time>
      </trkpt>
      <trkpt lat="43.55697" lon="3.31273">
        <ele>345.6</ele>
        <time>2023-10-12T12:40:07Z</time>
      </trkpt>
      <trkpt lat="43.55701" lon="3.31261">
        <ele>345</ele>
        <time>2023-10-12T12:40:10Z</time>
      </trkpt>
      <trkpt lat="43.55706" lon="3.31249">
        <ele>344.4</ele>
        <time>2023-10-12T12:40:13Z</time>
      </trkpt>
      <trkpt lat="43.55716" lon="3.31238">
        <ele>343.6</ele>
        <time>2023-10-12T12:40:16Z</time>
      </trkpt>
      <trkpt lat="43.55723" lon="3.31229">
        <ele>343</ele>
        <time>2023-10-12T12:40:18Z</time>
      </trkpt>
      <trkpt lat="43.55733" lon="3.31222">
        <ele>342.6</ele>
        <time>2023-10-12T12:40:21Z</time>
      </trkpt>
      <trkpt lat="43.55744" lon="3.31222">
        <ele>343</ele>
        <time>2023-10-12T12:40:24Z</time>
      </trkpt>
      <trkpt lat="43.55754" lon="3.31227">
        <ele>343.2</ele>
        <time>2023-10-12T12:40:28Z</time>
      </trkpt>
      <trkpt lat="43.55759" lon="3.31239">
        <ele>343.4</ele>
        <time>2023-10-12T12:40:33Z</time>
      </trkpt>
      <trkpt lat="43.55767" lon="3.31245">
        <ele>343.6</ele>
        <time>2023-10-12T12:40:37Z</time>
      </trkpt>
      <trkpt lat="43.55778" lon="3.31247">
        <ele>344</ele>
        <time>2023-10-12T12:40:41Z</time>
      </trkpt>
      <trkpt lat="43.55786" lon="3.31254">
        <ele>344.2</ele>
        <time>2023-10-12T12:40:45Z</time>
      </trkpt>
      <trkpt lat="43.55793" lon="3.31263">
        <ele>344.4</ele>
        <time>2023-10-12T12:40:49Z</time>
      </trkpt>
      <trkpt lat="43.55803" lon="3.31269">
        <ele>344.6</ele>
        <time>2023-10-12T12:40:54Z</time>
      </trkpt>
      <trkpt lat="43.55812" lon="3.31266">
        <ele>344.8</ele>
        <time>2023-10-12T12:41:00Z</time>
      </trkpt>
      <trkpt lat="43.55821" lon="3.31265">
        <ele>345.2</ele>
        <time>2023-10-12T12:41:07Z</time>
      </trkpt>
      <trkpt lat="43.55829" lon="3.31252">
        <ele>345.4</ele>
        <time>2023-10-12T12:41:23Z</time>
      </trkpt>
      <trkpt lat="43.55833" lon="3.31237">
        <ele>345.6</ele>
        <time>2023-10-12T12:41:27Z</time>
      </trkpt>
      <trkpt lat="43.55837" lon="3.31221">
        <ele>346</ele>
        <time>2023-10-12T12:41:30Z</time>
      </trkpt>
      <trkpt lat="43.5584" lon="3.31209">
        <ele>346.2</ele>
        <time>2023-10-12T12:41:32Z</time>
      </trkpt>
      <trkpt lat="43.55844" lon="3.31197">
        <ele>346.4</ele>
        <time>2023-10-12T12:41:34Z</time>
      </trkpt>
      <trkpt lat="43.55849" lon="3.31183">
        <ele>346.8</ele>
        <time>2023-10-12T12:41:36Z</time>
      </trkpt>
      <trkpt lat="43.55856" lon="3.31168">
        <ele>346.6</ele>
        <time>2023-10-12T12:41:38Z</time>
      </trkpt>
      <trkpt lat="43.55863" lon="3.31152">
        <ele>345.6</ele>
        <time>2023-10-12T12:41:40Z</time>
      </trkpt>
      <trkpt lat="43.55872" lon="3.31137">
        <ele>344.4</ele>
        <time>2023-10-12T12:41:42Z</time>
      </trkpt>
      <trkpt lat="43.5588" lon="3.31125">
        <ele>343.4</ele>
        <time>2023-10-12T12:41:44Z</time>
      </trkpt>
      <trkpt lat="43.5589" lon="3.31119">
        <ele>342.4</ele>
        <time>2023-10-12T12:41:46Z</time>
      </trkpt>
      <trkpt lat="43.55895" lon="3.31104">
        <ele>341.4</ele>
        <time>2023-10-12T12:41:49Z</time>
      </trkpt>
      <trkpt lat="43.55903" lon="3.31095">
        <ele>340.6</ele>
        <time>2023-10-12T12:41:52Z</time>
      </trkpt>
      <trkpt lat="43.55915" lon="3.31095">
        <ele>339.6</ele>
        <time>2023-10-12T12:41:58Z</time>
      </trkpt>
      <trkpt lat="43.55926" lon="3.31094">
        <ele>338.6</ele>
        <time>2023-10-12T12:42:01Z</time>
      </trkpt>
      <trkpt lat="43.55935" lon="3.31095">
        <ele>337.8</ele>
        <time>2023-10-12T12:42:05Z</time>
      </trkpt>
      <trkpt lat="43.55942" lon="3.31105">
        <ele>337</ele>
        <time>2023-10-12T12:42:09Z</time>
      </trkpt>
      <trkpt lat="43.5595" lon="3.31117">
        <ele>336</ele>
        <time>2023-10-12T12:42:13Z</time>
      </trkpt>
      <trkpt lat="43.55953" lon="3.31131">
        <ele>335.2</ele>
        <time>2023-10-12T12:42:17Z</time>
      </trkpt>
      <trkpt lat="43.55962" lon="3.31119">
        <ele>334.2</ele>
        <time>2023-10-12T12:42:24Z</time>
      </trkpt>
      <trkpt lat="43.55967" lon="3.31109">
        <ele>333.4</ele>
        <time>2023-10-12T12:42:27Z</time>
      </trkpt>
      <trkpt lat="43.55974" lon="3.31094">
        <ele>332.4</ele>
        <time>2023-10-12T12:42:31Z</time>
      </trkpt>
      <trkpt lat="43.55981" lon="3.31081">
        <ele>331.6</ele>
        <time>2023-10-12T12:42:34Z</time>
      </trkpt>
      <trkpt lat="43.55987" lon="3.31066">
        <ele>331</ele>
        <time>2023-10-12T12:42:37Z</time>
      </trkpt>
      <trkpt lat="43.55995" lon="3.31043">
        <ele>330</ele>
        <time>2023-10-12T12:43:40Z</time>
      </trkpt>
      <trkpt lat="43.56004" lon="3.31041">
        <ele>329.4</ele>
        <time>2023-10-12T12:43:43Z</time>
      </trkpt>
      <trkpt lat="43.56013" lon="3.31043">
        <ele>329</ele>
        <time>2023-10-12T12:43:46Z</time>
      </trkpt>
      <trkpt lat="43.56022" lon="3.31045">
        <ele>328.4</ele>
        <time>2023-10-12T12:43:49Z</time>
      </trkpt>
      <trkpt lat="43.56035" lon="3.31045">
        <ele>327.8</ele>
        <time>2023-10-12T12:43:53Z</time>
      </trkpt>
      <trkpt lat="43.56047" lon="3.31044">
        <ele>327</ele>
        <time>2023-10-12T12:43:57Z</time>
      </trkpt>
      <trkpt lat="43.56058" lon="3.31041">
        <ele>326.4</ele>
        <time>2023-10-12T12:44:00Z</time>
      </trkpt>
      <trkpt lat="43.56068" lon="3.31036">
        <ele>325.8</ele>
        <time>2023-10-12T12:44:04Z</time>
      </trkpt>
      <trkpt lat="43.56076" lon="3.31031">
        <ele>325.4</ele>
        <time>2023-10-12T12:44:08Z</time>
      </trkpt>
      <trkpt lat="43.56087" lon="3.31026">
        <ele>324.8</ele>
        <time>2023-10-12T12:44:11Z</time>
      </trkpt>
      <trkpt lat="43.56098" lon="3.31024">
        <ele>324.2</ele>
        <time>2023-10-12T12:44:14Z</time>
      </trkpt>
      <trkpt lat="43.56109" lon="3.31026">
        <ele>323.6</ele>
        <time>2023-10-12T12:44:17Z</time>
      </trkpt>
      <trkpt lat="43.56119" lon="3.31025">
        <ele>323</ele>
        <time>2023-10-12T12:44:20Z</time>
      </trkpt>
      <trkpt lat="43.5613" lon="3.31021">
        <ele>322.4</ele>
        <time>2023-10-12T12:44:24Z</time>
      </trkpt>
      <trkpt lat="43.56137" lon="3.31033">
        <ele>322.6</ele>
        <time>2023-10-12T12:44:28Z</time>
      </trkpt>
      <trkpt lat="43.56142" lon="3.31044">
        <ele>323</ele>
        <time>2023-10-12T12:44:31Z</time>
      </trkpt>
      <trkpt lat="43.56148" lon="3.31057">
        <ele>323.4</ele>
        <time>2023-10-12T12:44:35Z</time>
      </trkpt>
      <trkpt lat="43.56156" lon="3.31068">
        <ele>323.8</ele>
        <time>2023-10-12T12:44:39Z</time>
      </trkpt>
      <trkpt lat="43.56163" lon="3.31081">
        <ele>324.2</ele>
        <time>2023-10-12T12:44:43Z</time>
      </trkpt>
      <trkpt lat="43.56171" lon="3.31092">
        <ele>324.6</ele>
        <time>2023-10-12T12:44:46Z</time>
      </trkpt>
      <trkpt lat="43.56179" lon="3.31105">
        <ele>325.2</ele>
        <time>2023-10-12T12:44:49Z</time>
      </trkpt>
      <trkpt lat="43.56185" lon="3.31117">
        <ele>325.6</ele>
        <time>2023-10-12T12:44:52Z</time>
      </trkpt>
      <trkpt lat="43.56191" lon="3.3113">
        <ele>326</ele>
        <time>2023-10-12T12:44:56Z</time>
      </trkpt>
      <trkpt lat="43.56199" lon="3.31142">
        <ele>326.4</ele>
        <time>2023-10-12T12:45:00Z</time>
      </trkpt>
      <trkpt lat="43.56206" lon="3.31155">
        <ele>326.8</ele>
        <time>2023-10-12T12:45:04Z</time>
      </trkpt>
      <trkpt lat="43.56211" lon="3.31166">
        <ele>327.2</ele>
        <time>2023-10-12T12:45:08Z</time>
      </trkpt>
      <trkpt lat="43.56218" lon="3.31176">
        <ele>327.6</ele>
        <time>2023-10-12T12:45:13Z</time>
      </trkpt>
      <trkpt lat="43.56227" lon="3.31185">
        <ele>328</ele>
        <time>2023-10-12T12:45:18Z</time>
      </trkpt>
      <trkpt lat="43.56234" lon="3.31193">
        <ele>328.4</ele>
        <time>2023-10-12T12:45:22Z</time>
      </trkpt>
      <trkpt lat="43.5624" lon="3.31202">
        <ele>328.8</ele>
        <time>2023-10-12T12:45:26Z</time>
      </trkpt>
      <trkpt lat="43.56247" lon="3.31214">
        <ele>329.2</ele>
        <time>2023-10-12T12:45:30Z</time>
      </trkpt>
      <trkpt lat="43.56255" lon="3.31225">
        <ele>329.4</ele>
        <time>2023-10-12T12:45:35Z</time>
      </trkpt>
      <trkpt lat="43.56263" lon="3.31234">
        <ele>329.6</ele>
        <time>2023-10-12T12:45:39Z</time>
      </trkpt>
      <trkpt lat="43.56271" lon="3.31243">
        <ele>329.8</ele>
        <time>2023-10-12T12:45:44Z</time>
      </trkpt>
      <trkpt lat="43.56279" lon="3.31252">
        <ele>330.2</ele>
        <time>2023-10-12T12:45:48Z</time>
      </trkpt>
      <trkpt lat="43.56286" lon="3.31261">
        <ele>330.4</ele>
        <time>2023-10-12T12:45:52Z</time>
      </trkpt>
      <trkpt lat="43.56294" lon="3.31268">
        <ele>330.6</ele>
        <time>2023-10-12T12:45:57Z</time>
      </trkpt>
      <trkpt lat="43.56303" lon="3.31272">
        <ele>330.8</ele>
        <time>2023-10-12T12:46:01Z</time>
      </trkpt>
      <trkpt lat="43.56313" lon="3.31277">
        <ele>331</ele>
        <time>2023-10-12T12:46:06Z</time>
      </trkpt>
      <trkpt lat="43.56322" lon="3.31279">
        <ele>331.2</ele>
        <time>2023-10-12T12:46:11Z</time>
      </trkpt>
      <trkpt lat="43.56332" lon="3.31286">
        <ele>331.6</ele>
        <time>2023-10-12T12:46:15Z</time>
      </trkpt>
      <trkpt lat="43.56342" lon="3.31298">
        <ele>331.8</ele>
        <time>2023-10-12T12:46:18Z</time>
      </trkpt>
      <trkpt lat="43.56351" lon="3.3131">
        <ele>332.2</ele>
        <time>2023-10-12T12:46:21Z</time>
      </trkpt>
      <trkpt lat="43.56361" lon="3.31322">
        <ele>332.4</ele>
        <time>2023-10-12T12:46:24Z</time>
      </trkpt>
      <trkpt lat="43.56369" lon="3.31329">
        <ele>332.6</ele>
        <time>2023-10-12T12:46:28Z</time>
      </trkpt>
      <trkpt lat="43.56377" lon="3.31335">
        <ele>332.8</ele>
        <time>2023-10-12T12:46:33Z</time>
      </trkpt>
      <trkpt lat="43.56384" lon="3.31344">
        <ele>333.2</ele>
        <time>2023-10-12T12:46:37Z</time>
      </trkpt>
      <trkpt lat="43.56393" lon="3.31354">
        <ele>333.4</ele>
        <time>2023-10-12T12:46:41Z</time>
      </trkpt>
      <trkpt lat="43.56404" lon="3.31361">
        <ele>333.2</ele>
        <time>2023-10-12T12:46:45Z</time>
      </trkpt>
      <trkpt lat="43.56416" lon="3.31365">
        <ele>333</ele>
        <time>2023-10-12T12:46:48Z</time>
      </trkpt>
      <trkpt lat="43.56425" lon="3.31366">
        <ele>332.8</ele>
        <time>2023-10-12T12:46:50Z</time>
      </trkpt>
      <trkpt lat="43.56434" lon="3.31368">
        <ele>332.6</ele>
        <time>2023-10-12T12:46:52Z</time>
      </trkpt>
      <trkpt lat="43.56447" lon="3.31373">
        <ele>332.4</ele>
        <time>2023-10-12T12:46:55Z</time>
      </trkpt>
      <trkpt lat="43.56459" lon="3.31376">
        <ele>332.2</ele>
        <time>2023-10-12T12:46:58Z</time>
      </trkpt>
      <trkpt lat="43.56471" lon="3.31378">
        <ele>332</ele>
        <time>2023-10-12T12:47:01Z</time>
      </trkpt>
      <trkpt lat="43.56484" lon="3.31381">
        <ele>331.6</ele>
        <time>2023-10-12T12:47:04Z</time>
      </trkpt>
      <trkpt lat="43.56494" lon="3.31383">
        <ele>331.6</ele>
        <time>2023-10-12T12:47:07Z</time>
      </trkpt>
      <trkpt lat="43.56504" lon="3.31386">
        <ele>331.4</ele>
        <time>2023-10-12T12:47:10Z</time>
      </trkpt>
      <trkpt lat="43.56514" lon="3.31387">
        <ele>331.2</ele>
        <time>2023-10-12T12:47:12Z</time>
      </trkpt>
      <trkpt lat="43.56527" lon="3.31388">
        <ele>331</ele>
        <time>2023-10-12T12:47:15Z</time>
      </trkpt>
      <trkpt lat="43.56536" lon="3.31391">
        <ele>330.8</ele>
        <time>2023-10-12T12:47:17Z</time>
      </trkpt>
      <trkpt lat="43.56545" lon="3.31393">
        <ele>330.6</ele>
        <time>2023-10-12T12:47:19Z</time>
      </trkpt>
      <trkpt lat="43.56557" lon="3.31395">
        <ele>330.4</ele>
        <time>2023-10-12T12:47:21Z</time>
      </trkpt>
      <trkpt lat="43.56566" lon="3.31397">
        <ele>330.2</ele>
        <time>2023-10-12T12:47:23Z</time>
      </trkpt>
      <trkpt lat="43.56576" lon="3.31401">
        <ele>330.6</ele>
        <time>2023-10-12T12:47:25Z</time>
      </trkpt>
      <trkpt lat="43.56588" lon="3.31403">
        <ele>331.2</ele>
        <time>2023-10-12T12:47:28Z</time>
      </trkpt>
      <trkpt lat="43.56597" lon="3.31406">
        <ele>331.8</ele>
        <time>2023-10-12T12:47:30Z</time>
      </trkpt>
      <trkpt lat="43.56609" lon="3.31407">
        <ele>332.4</ele>
        <time>2023-10-12T12:47:33Z</time>
      </trkpt>
      <trkpt lat="43.56618" lon="3.31409">
        <ele>332.8</ele>
        <time>2023-10-12T12:47:36Z</time>
      </trkpt>
      <trkpt lat="43.56626" lon="3.31416">
        <ele>333.4</ele>
        <time>2023-10-12T12:47:54Z</time>
      </trkpt>
      <trkpt lat="43.56635" lon="3.31417">
        <ele>334</ele>
        <time>2023-10-12T12:47:58Z</time>
      </trkpt>
      <trkpt lat="43.56644" lon="3.3141">
        <ele>334.6</ele>
        <time>2023-10-12T12:48:01Z</time>
      </trkpt>
      <trkpt lat="43.56655" lon="3.31404">
        <ele>335.2</ele>
        <time>2023-10-12T12:48:04Z</time>
      </trkpt>
      <trkpt lat="43.56665" lon="3.314">
        <ele>335.8</ele>
        <time>2023-10-12T12:48:07Z</time>
      </trkpt>
      <trkpt lat="43.56674" lon="3.31401">
        <ele>336.2</ele>
        <time>2023-10-12T12:48:10Z</time>
      </trkpt>
      <trkpt lat="43.56685" lon="3.314">
        <ele>336.8</ele>
        <time>2023-10-12T12:48:15Z</time>
      </trkpt>
      <trkpt lat="43.56695" lon="3.31398">
        <ele>337.4</ele>
        <time>2023-10-12T12:48:20Z</time>
      </trkpt>
      <trkpt lat="43.56708" lon="3.31399">
        <ele>338.2</ele>
        <time>2023-10-12T12:48:23Z</time>
      </trkpt>
      <trkpt lat="43.56718" lon="3.314">
        <ele>338.6</ele>
        <time>2023-10-12T12:48:25Z</time>
      </trkpt>
      <trkpt lat="43.56728" lon="3.31401">
        <ele>339.2</ele>
        <time>2023-10-12T12:48:27Z</time>
      </trkpt>
      <trkpt lat="43.56739" lon="3.31404">
        <ele>339.8</ele>
        <time>2023-10-12T12:48:29Z</time>
      </trkpt>
      <trkpt lat="43.56751" lon="3.31407">
        <ele>340.4</ele>
        <time>2023-10-12T12:48:32Z</time>
      </trkpt>
      <trkpt lat="43.56762" lon="3.31406">
        <ele>340.8</ele>
        <time>2023-10-12T12:48:35Z</time>
      </trkpt>
      <trkpt lat="43.56771" lon="3.314">
        <ele>341.4</ele>
        <time>2023-10-12T12:48:39Z</time>
      </trkpt>
      <trkpt lat="43.5678" lon="3.31395">
        <ele>341.8</ele>
        <time>2023-10-12T12:48:46Z</time>
      </trkpt>
      <trkpt lat="43.56789" lon="3.3139">
        <ele>342.2</ele>
        <time>2023-10-12T12:48:49Z</time>
      </trkpt>
      <trkpt lat="43.56798" lon="3.31384">
        <ele>342.6</ele>
        <time>2023-10-12T12:48:52Z</time>
      </trkpt>
      <trkpt lat="43.56809" lon="3.31378">
        <ele>343</ele>
        <time>2023-10-12T12:48:55Z</time>
      </trkpt>
      <trkpt lat="43.56822" lon="3.31378">
        <ele>343.6</ele>
        <time>2023-10-12T12:48:58Z</time>
      </trkpt>
      <trkpt lat="43.56831" lon="3.31381">
        <ele>344</ele>
        <time>2023-10-12T12:49:00Z</time>
      </trkpt>
      <trkpt lat="43.56844" lon="3.31381">
        <ele>344.6</ele>
        <time>2023-10-12T12:49:03Z</time>
      </trkpt>
      <trkpt lat="43.56854" lon="3.31377">
        <ele>345</ele>
        <time>2023-10-12T12:49:05Z</time>
      </trkpt>
      <trkpt lat="43.56865" lon="3.31376">
        <ele>345.4</ele>
        <time>2023-10-12T12:49:07Z</time>
      </trkpt>
      <trkpt lat="43.56874" lon="3.31377">
        <ele>346</ele>
        <time>2023-10-12T12:49:09Z</time>
      </trkpt>
      <trkpt lat="43.56888" lon="3.31376">
        <ele>346.4</ele>
        <time>2023-10-12T12:49:12Z</time>
      </trkpt>
      <trkpt lat="43.569" lon="3.31372">
        <ele>347</ele>
        <time>2023-10-12T12:49:14Z</time>
      </trkpt>
      <trkpt lat="43.56911" lon="3.31368">
        <ele>347.6</ele>
        <time>2023-10-12T12:49:16Z</time>
      </trkpt>
      <trkpt lat="43.56923" lon="3.31363">
        <ele>348</ele>
        <time>2023-10-12T12:49:18Z</time>
      </trkpt>
      <trkpt lat="43.56931" lon="3.31356">
        <ele>348.6</ele>
        <time>2023-10-12T12:49:20Z</time>
      </trkpt>
      <trkpt lat="43.56939" lon="3.31347">
        <ele>349</ele>
        <time>2023-10-12T12:49:22Z</time>
      </trkpt>
      <trkpt lat="43.56947" lon="3.31341">
        <ele>349.4</ele>
        <time>2023-10-12T12:49:24Z</time>
      </trkpt>
      <trkpt lat="43.56958" lon="3.31331">
        <ele>350</ele>
        <time>2023-10-12T12:49:26Z</time>
      </trkpt>
      <trkpt lat="43.56968" lon="3.31322">
        <ele>350.6</ele>
        <time>2023-10-12T12:49:28Z</time>
      </trkpt>
      <trkpt lat="43.56977" lon="3.31313">
        <ele>351.2</ele>
        <time>2023-10-12T12:49:30Z</time>
      </trkpt>
      <trkpt lat="43.56989" lon="3.31306">
        <ele>351.8</ele>
        <time>2023-10-12T12:49:33Z</time>
      </trkpt>
      <trkpt lat="43.56998" lon="3.31301">
        <ele>352.2</ele>
        <time>2023-10-12T12:49:35Z</time>
      </trkpt>
      <trkpt lat="43.57009" lon="3.31295">
        <ele>352.8</ele>
        <time>2023-10-12T12:49:38Z</time>
      </trkpt>
      <trkpt lat="43.57018" lon="3.31296">
        <ele>353.2</ele>
        <time>2023-10-12T12:49:42Z</time>
      </trkpt>
      <trkpt lat="43.57029" lon="3.31296">
        <ele>353.8</ele>
        <time>2023-10-12T12:49:45Z</time>
      </trkpt>
      <trkpt lat="43.57039" lon="3.31293">
        <ele>354.2</ele>
        <time>2023-10-12T12:49:49Z</time>
      </trkpt>
      <trkpt lat="43.57048" lon="3.31288">
        <ele>354.8</ele>
        <time>2023-10-12T12:49:53Z</time>
      </trkpt>
      <trkpt lat="43.57059" lon="3.31282">
        <ele>355.2</ele>
        <time>2023-10-12T12:49:57Z</time>
      </trkpt>
      <trkpt lat="43.5707" lon="3.31279">
        <ele>355.8</ele>
        <time>2023-10-12T12:50:01Z</time>
      </trkpt>
      <trkpt lat="43.57077" lon="3.31294">
        <ele>356.4</ele>
        <time>2023-10-12T12:50:04Z</time>
      </trkpt>
      <trkpt lat="43.57084" lon="3.31307">
        <ele>357.6</ele>
        <time>2023-10-12T12:50:07Z</time>
      </trkpt>
      <trkpt lat="43.57091" lon="3.31318">
        <ele>358.6</ele>
        <time>2023-10-12T12:50:10Z</time>
      </trkpt>
      <trkpt lat="43.57099" lon="3.31329">
        <ele>359.6</ele>
        <time>2023-10-12T12:50:14Z</time>
      </trkpt>
      <trkpt lat="43.57107" lon="3.31337">
        <ele>360.4</ele>
        <time>2023-10-12T12:50:17Z</time>
      </trkpt>
      <trkpt lat="43.57115" lon="3.31344">
        <ele>361.4</ele>
        <time>2023-10-12T12:50:20Z</time>
      </trkpt>
      <trkpt lat="43.57124" lon="3.31354">
        <ele>362.4</ele>
        <time>2023-10-12T12:50:24Z</time>
      </trkpt>
      <trkpt lat="43.57132" lon="3.31363">
        <ele>363.4</ele>
        <time>2023-10-12T12:50:27Z</time>
      </trkpt>
      <trkpt lat="43.57142" lon="3.31369">
        <ele>364.4</ele>
        <time>2023-10-12T12:50:30Z</time>
      </trkpt>
      <trkpt lat="43.57152" lon="3.31374">
        <ele>365.2</ele>
        <time>2023-10-12T12:50:33Z</time>
      </trkpt>
      <trkpt lat="43.57161" lon="3.3138">
        <ele>366.2</ele>
        <time>2023-10-12T12:50:36Z</time>
      </trkpt>
      <trkpt lat="43.5717" lon="3.31384">
        <ele>367.2</ele>
        <time>2023-10-12T12:50:39Z</time>
      </trkpt>
      <trkpt lat="43.57182" lon="3.31388">
        <ele>368.2</ele>
        <time>2023-10-12T12:50:43Z</time>
      </trkpt>
      <trkpt lat="43.57193" lon="3.31391">
        <ele>369.2</ele>
        <time>2023-10-12T12:50:46Z</time>
      </trkpt>
      <trkpt lat="43.57202" lon="3.31394">
        <ele>370</ele>
        <time>2023-10-12T12:50:49Z</time>
      </trkpt>
      <trkpt lat="43.57212" lon="3.31398">
        <ele>371</ele>
        <time>2023-10-12T12:50:52Z</time>
      </trkpt>
      <trkpt lat="43.57223" lon="3.31397">
        <ele>372</ele>
        <time>2023-10-12T12:50:55Z</time>
      </trkpt>
      <trkpt lat="43.57235" lon="3.31397">
        <ele>373</ele>
        <time>2023-10-12T12:50:58Z</time>
      </trkpt>
      <trkpt lat="43.57247" lon="3.31398">
        <ele>373.8</ele>
        <time>2023-10-12T12:51:01Z</time>
      </trkpt>
      <trkpt lat="43.57258" lon="3.31398">
        <ele>374.6</ele>
        <time>2023-10-12T12:51:04Z</time>
      </trkpt>
      <trkpt lat="43.57269" lon="3.314">
        <ele>375.2</ele>
        <time>2023-10-12T12:51:07Z</time>
      </trkpt>
      <trkpt lat="43.57279" lon="3.314">
        <ele>376</ele>
        <time>2023-10-12T12:51:10Z</time>
      </trkpt>
      <trkpt lat="43.5729" lon="3.31395">
        <ele>376.6</ele>
        <time>2023-10-12T12:51:13Z</time>
      </trkpt>
      <trkpt lat="43.57302" lon="3.31393">
        <ele>377.4</ele>
        <time>2023-10-12T12:51:16Z</time>
      </trkpt>
      <trkpt lat="43.57313" lon="3.31393">
        <ele>378.2</ele>
        <time>2023-10-12T12:51:19Z</time>
      </trkpt>
      <trkpt lat="43.57325" lon="3.31394">
        <ele>379</ele>
        <time>2023-10-12T12:51:22Z</time>
      </trkpt>
      <trkpt lat="43.57337" lon="3.31394">
        <ele>379.8</ele>
        <time>2023-10-12T12:51:25Z</time>
      </trkpt>
      <trkpt lat="43.57347" lon="3.31395">
        <ele>380.4</ele>
        <time>2023-10-12T12:51:28Z</time>
      </trkpt>
      <trkpt lat="43.57357" lon="3.31397">
        <ele>381.2</ele>
        <time>2023-10-12T12:51:31Z</time>
      </trkpt>
      <trkpt lat="43.57366" lon="3.31402">
        <ele>381.8</ele>
        <time>2023-10-12T12:51:34Z</time>
      </trkpt>
      <trkpt lat="43.57372" lon="3.31412">
        <ele>382.4</ele>
        <time>2023-10-12T12:51:47Z</time>
      </trkpt>
      <trkpt lat="43.57388" lon="3.31446">
        <ele>384.4</ele>
        <time>2023-10-12T12:54:25Z</time>
      </trkpt>
      <trkpt lat="43.57392" lon="3.3146">
        <ele>384.8</ele>
        <time>2023-10-12T12:54:28Z</time>
      </trkpt>
      <trkpt lat="43.57396" lon="3.31468">
        <ele>339.3</ele>
      </trkpt>
      <trkpt lat="43.57399" lon="3.31464">
        <ele>339.7</ele>
      </trkpt>
      <trkpt lat="43.5741" lon="3.31449">
        <ele>385.2</ele>
        <time>2023-10-12T12:55:01Z</time>
      </trkpt>
      <trkpt lat="43.57417" lon="3.31439">
        <ele>385.4</ele>
        <time>2023-10-12T12:55:04Z</time>
      </trkpt>
      <trkpt lat="43.57424" lon="3.31432">
        <ele>385.6</ele>
        <time>2023-10-12T12:55:07Z</time>
      </trkpt>
      <trkpt lat="43.57433" lon="3.31424">
        <ele>386</ele>
        <time>2023-10-12T12:55:10Z</time>
      </trkpt>
      <trkpt lat="43.57441" lon="3.31415">
        <ele>386.2</ele>
        <time>2023-10-12T12:55:12Z</time>
      </trkpt>
      <trkpt lat="43.57448" lon="3.31407">
        <ele>386.4</ele>
        <time>2023-10-12T12:55:14Z</time>
      </trkpt>
      <trkpt lat="43.57455" lon="3.31397">
        <ele>386.6</ele>
        <time>2023-10-12T12:55:16Z</time>
      </trkpt>
      <trkpt lat="43.57462" lon="3.31387">
        <ele>386.8</ele>
        <time>2023-10-12T12:55:18Z</time>
      </trkpt>
      <trkpt lat="43.57469" lon="3.31378">
        <ele>387.2</ele>
        <time>2023-10-12T12:55:20Z</time>
      </trkpt>
      <trkpt lat="43.5748" lon="3.3137">
        <ele>387.4</ele>
        <time>2023-10-12T12:55:23Z</time>
      </trkpt>
      <trkpt lat="43.57491" lon="3.31363">
        <ele>387.8</ele>
        <time>2023-10-12T12:55:27Z</time>
      </trkpt>
      <trkpt lat="43.57499" lon="3.31357">
        <ele>388</ele>
        <time>2023-10-12T12:55:29Z</time>
      </trkpt>
      <trkpt lat="43.57509" lon="3.31356">
        <ele>388.2</ele>
        <time>2023-10-12T12:55:31Z</time>
      </trkpt>
      <trkpt lat="43.57521" lon="3.31355">
        <ele>388.4</ele>
        <time>2023-10-12T12:55:34Z</time>
      </trkpt>
      <trkpt lat="43.57532" lon="3.31355">
        <ele>388.8</ele>
        <time>2023-10-12T12:55:38Z</time>
      </trkpt>
      <trkpt lat="43.57543" lon="3.31355">
        <ele>389</ele>
        <time>2023-10-12T12:55:41Z</time>
      </trkpt>
      <trkpt lat="43.57552" lon="3.31356">
        <ele>389.6</ele>
        <time>2023-10-12T12:55:43Z</time>
      </trkpt>
      <trkpt lat="43.57563" lon="3.31355">
        <ele>390</ele>
        <time>2023-10-12T12:55:45Z</time>
      </trkpt>
      <trkpt lat="43.57574" lon="3.31354">
        <ele>390.6</ele>
        <time>2023-10-12T12:55:47Z</time>
      </trkpt>
      <trkpt lat="43.57585" lon="3.3135">
        <ele>391.2</ele>
        <time>2023-10-12T12:55:50Z</time>
      </trkpt>
      <trkpt lat="43.57596" lon="3.31344">
        <ele>391.8</ele>
        <time>2023-10-12T12:55:53Z</time>
      </trkpt>
      <trkpt lat="43.57608" lon="3.31342">
        <ele>392.6</ele>
        <time>2023-10-12T12:55:56Z</time>
      </trkpt>
      <trkpt lat="43.57617" lon="3.31339">
        <ele>393</ele>
        <time>2023-10-12T12:55:58Z</time>
      </trkpt>
      <trkpt lat="43.57626" lon="3.3134">
        <ele>393.4</ele>
        <time>2023-10-12T12:56:01Z</time>
      </trkpt>
      <trkpt lat="43.57637" lon="3.31341">
        <ele>394</ele>
        <time>2023-10-12T12:56:04Z</time>
      </trkpt>
      <trkpt lat="43.57647" lon="3.31338">
        <ele>394.6</ele>
        <time>2023-10-12T12:56:07Z</time>
      </trkpt>
      <trkpt lat="43.5766" lon="3.31337">
        <ele>395.2</ele>
        <time>2023-10-12T12:56:10Z</time>
      </trkpt>
      <trkpt lat="43.5767" lon="3.31336">
        <ele>395.8</ele>
        <time>2023-10-12T12:56:12Z</time>
      </trkpt>
      <trkpt lat="43.57682" lon="3.31337">
        <ele>396.4</ele>
        <time>2023-10-12T12:56:15Z</time>
      </trkpt>
      <trkpt lat="43.57692" lon="3.3134">
        <ele>397</ele>
        <time>2023-10-12T12:56:18Z</time>
      </trkpt>
      <trkpt lat="43.577" lon="3.31347">
        <ele>397.4</ele>
        <time>2023-10-12T12:56:21Z</time>
      </trkpt>
      <trkpt lat="43.57709" lon="3.31355">
        <ele>398</ele>
        <time>2023-10-12T12:56:25Z</time>
      </trkpt>
      <trkpt lat="43.57718" lon="3.31358">
        <ele>398.6</ele>
        <time>2023-10-12T12:56:31Z</time>
      </trkpt>
      <trkpt lat="43.57727" lon="3.31362">
        <ele>399.2</ele>
        <time>2023-10-12T12:56:37Z</time>
      </trkpt>
      <trkpt lat="43.57737" lon="3.31366">
        <ele>400</ele>
        <time>2023-10-12T12:56:44Z</time>
      </trkpt>
      <trkpt lat="43.57745" lon="3.31372">
        <ele>400.6</ele>
        <time>2023-10-12T12:56:50Z</time>
      </trkpt>
      <trkpt lat="43.57754" lon="3.31379">
        <ele>401.4</ele>
        <time>2023-10-12T12:56:56Z</time>
      </trkpt>
      <trkpt lat="43.57761" lon="3.31386">
        <ele>358.7</ele>
      </trkpt>
      <trkpt lat="43.57767" lon="3.3138">
        <ele>402.4</ele>
        <time>2023-10-12T12:57:49Z</time>
      </trkpt>
      <trkpt lat="43.57776" lon="3.31374">
        <ele>403</ele>
        <time>2023-10-12T12:57:53Z</time>
      </trkpt>
      <trkpt lat="43.57784" lon="3.31367">
        <ele>403.8</ele>
        <time>2023-10-12T12:57:57Z</time>
      </trkpt>
      <trkpt lat="43.57792" lon="3.31358">
        <ele>404.6</ele>
        <time>2023-10-12T12:58:01Z</time>
      </trkpt>
      <trkpt lat="43.57798" lon="3.31347">
        <ele>405.2</ele>
        <time>2023-10-12T12:58:05Z</time>
      </trkpt>
      <trkpt lat="43.57804" lon="3.31336">
        <ele>406</ele>
        <time>2023-10-12T12:58:08Z</time>
      </trkpt>
      <trkpt lat="43.57809" lon="3.31322">
        <ele>406.8</ele>
        <time>2023-10-12T12:58:12Z</time>
      </trkpt>
      <trkpt lat="43.57815" lon="3.31311">
        <ele>407.6</ele>
        <time>2023-10-12T12:58:16Z</time>
      </trkpt>
      <trkpt lat="43.57823" lon="3.31303">
        <ele>408.2</ele>
        <time>2023-10-12T12:58:20Z</time>
      </trkpt>
      <trkpt lat="43.5783" lon="3.31293">
        <ele>409</ele>
        <time>2023-10-12T12:58:24Z</time>
      </trkpt>
      <trkpt lat="43.57836" lon="3.31284">
        <ele>409.6</ele>
        <time>2023-10-12T12:58:28Z</time>
      </trkpt>
      <trkpt lat="43.57844" lon="3.31275">
        <ele>410.4</ele>
        <time>2023-10-12T12:58:32Z</time>
      </trkpt>
      <trkpt lat="43.57851" lon="3.31267">
        <ele>411</ele>
        <time>2023-10-12T12:58:36Z</time>
      </trkpt>
      <trkpt lat="43.57859" lon="3.31258">
        <ele>411.6</ele>
        <time>2023-10-12T12:58:39Z</time>
      </trkpt>
      <trkpt lat="43.57867" lon="3.31247">
        <ele>412</ele>
        <time>2023-10-12T12:58:42Z</time>
      </trkpt>
      <trkpt lat="43.57876" lon="3.31236">
        <ele>412.4</ele>
        <time>2023-10-12T12:58:45Z</time>
      </trkpt>
      <trkpt lat="43.57884" lon="3.31226">
        <ele>412.8</ele>
        <time>2023-10-12T12:58:48Z</time>
      </trkpt>
      <trkpt lat="43.57891" lon="3.31214">
        <ele>413</ele>
        <time>2023-10-12T12:58:51Z</time>
      </trkpt>
      <trkpt lat="43.57898" lon="3.31202">
        <ele>413.4</ele>
        <time>2023-10-12T12:58:54Z</time>
      </trkpt>
      <trkpt lat="43.57904" lon="3.31191">
        <ele>413.8</ele>
        <time>2023-10-12T12:58:57Z</time>
      </trkpt>
      <trkpt lat="43.57908" lon="3.31178">
        <ele>414.2</ele>
        <time>2023-10-12T12:59:00Z</time>
      </trkpt>
      <trkpt lat="43.57911" lon="3.31165">
        <ele>414.4</ele>
        <time>2023-10-12T12:59:03Z</time>
      </trkpt>
      <trkpt lat="43.57911" lon="3.3115">
        <ele>414.8</ele>
        <time>2023-10-12T12:59:06Z</time>
      </trkpt>
      <trkpt lat="43.57911" lon="3.31136">
        <ele>415.2</ele>
        <time>2023-10-12T12:59:09Z</time>
      </trkpt>
      <trkpt lat="43.57913" lon="3.31122">
        <ele>415.6</ele>
        <time>2023-10-12T12:59:12Z</time>
      </trkpt>
      <trkpt lat="43.57915" lon="3.31106">
        <ele>416</ele>
        <time>2023-10-12T12:59:15Z</time>
      </trkpt>
      <trkpt lat="43.57917" lon="3.3109">
        <ele>416.4</ele>
        <time>2023-10-12T12:59:18Z</time>
      </trkpt>
      <trkpt lat="43.57918" lon="3.31077">
        <ele>416.6</ele>
        <time>2023-10-12T12:59:21Z</time>
      </trkpt>
      <trkpt lat="43.57919" lon="3.31063">
        <ele>417</ele>
        <time>2023-10-12T12:59:24Z</time>
      </trkpt>
      <trkpt lat="43.57921" lon="3.31048">
        <ele>417.4</ele>
        <time>2023-10-12T12:59:27Z</time>
      </trkpt>
      <trkpt lat="43.57924" lon="3.31032">
        <ele>417.8</ele>
        <time>2023-10-12T12:59:30Z</time>
      </trkpt>
      <trkpt lat="43.57927" lon="3.31015">
        <ele>418.2</ele>
        <time>2023-10-12T12:59:33Z</time>
      </trkpt>
      <trkpt lat="43.5793" lon="3.30998">
        <ele>418.6</ele>
        <time>2023-10-12T12:59:36Z</time>
      </trkpt>
      <trkpt lat="43.57932" lon="3.30984">
        <ele>419</ele>
        <time>2023-10-12T12:59:39Z</time>
      </trkpt>
      <trkpt lat="43.57934" lon="3.30968">
        <ele>419.4</ele>
        <time>2023-10-12T12:59:43Z</time>
      </trkpt>
      <trkpt lat="43.57939" lon="3.30956">
        <ele>419.8</ele>
        <time>2023-10-12T12:59:46Z</time>
      </trkpt>
      <trkpt lat="43.57945" lon="3.30943">
        <ele>420.2</ele>
        <time>2023-10-12T12:59:50Z</time>
      </trkpt>
      <trkpt lat="43.57952" lon="3.3093">
        <ele>420.6</ele>
        <time>2023-10-12T12:59:53Z</time>
      </trkpt>
      <trkpt lat="43.57961" lon="3.30918">
        <ele>421</ele>
        <time>2023-10-12T12:59:56Z</time>
      </trkpt>
      <trkpt lat="43.57968" lon="3.30906">
        <ele>421.4</ele>
        <time>2023-10-12T12:59:59Z</time>
      </trkpt>
      <trkpt lat="43.57974" lon="3.30896">
        <ele>421.8</ele>
        <time>2023-10-12T13:00:02Z</time>
      </trkpt>
      <trkpt lat="43.57979" lon="3.30884">
        <ele>422.2</ele>
        <time>2023-10-12T13:00:05Z</time>
      </trkpt>
      <trkpt lat="43.57981" lon="3.30869">
        <ele>422.6</ele>
        <time>2023-10-12T13:00:09Z</time>
      </trkpt>
      <trkpt lat="43.57987" lon="3.30859">
        <ele>423</ele>
        <time>2023-10-12T13:00:12Z</time>
      </trkpt>
      <trkpt lat="43.57994" lon="3.30847">
        <ele>423.4</ele>
        <time>2023-10-12T13:00:15Z</time>
      </trkpt>
      <trkpt lat="43.58001" lon="3.30838">
        <ele>423.6</ele>
        <time>2023-10-12T13:00:18Z</time>
      </trkpt>
      <trkpt lat="43.5801" lon="3.3083">
        <ele>424.4</ele>
        <time>2023-10-12T13:00:22Z</time>
      </trkpt>
      <trkpt lat="43.58019" lon="3.30822">
        <ele>425.8</ele>
        <time>2023-10-12T13:00:27Z</time>
      </trkpt>
      <trkpt lat="43.58029" lon="3.30815">
        <ele>427.4</ele>
        <time>2023-10-12T13:00:31Z</time>
      </trkpt>
      <trkpt lat="43.58036" lon="3.30807">
        <ele>428.6</ele>
        <time>2023-10-12T13:00:35Z</time>
      </trkpt>
      <trkpt lat="43.58041" lon="3.30795">
        <ele>429.8</ele>
        <time>2023-10-12T13:00:39Z</time>
      </trkpt>
      <trkpt lat="43.58049" lon="3.30785">
        <ele>431.2</ele>
        <time>2023-10-12T13:00:44Z</time>
      </trkpt>
      <trkpt lat="43.5806" lon="3.30777">
        <ele>432.8</ele>
        <time>2023-10-12T13:00:49Z</time>
      </trkpt>
      <trkpt lat="43.5807" lon="3.30769">
        <ele>434.4</ele>
        <time>2023-10-12T13:00:54Z</time>
      </trkpt>
      <trkpt lat="43.58079" lon="3.30764">
        <ele>435.4</ele>
        <time>2023-10-12T13:00:58Z</time>
      </trkpt>
      <trkpt lat="43.5809" lon="3.30759">
        <ele>437</ele>
        <time>2023-10-12T13:01:03Z</time>
      </trkpt>
      <trkpt lat="43.581" lon="3.30757">
        <ele>438.4</ele>
        <time>2023-10-12T13:01:07Z</time>
      </trkpt>
      <trkpt lat="43.58109" lon="3.30753">
        <ele>439.6</ele>
        <time>2023-10-12T13:01:11Z</time>
      </trkpt>
      <trkpt lat="43.58118" lon="3.30755">
        <ele>440.8</ele>
        <time>2023-10-12T13:01:16Z</time>
      </trkpt>
      <trkpt lat="43.5812" lon="3.30769">
        <ele>442.2</ele>
        <time>2023-10-12T13:01:20Z</time>
      </trkpt>
      <trkpt lat="43.58122" lon="3.30783">
        <ele>443.4</ele>
        <time>2023-10-12T13:01:25Z</time>
      </trkpt>
      <trkpt lat="43.58139" lon="3.30774">
        <ele>445.6</ele>
        <time>2023-10-12T13:03:05Z</time>
      </trkpt>
      <trkpt lat="43.58149" lon="3.3077">
        <ele>447</ele>
        <time>2023-10-12T13:03:09Z</time>
      </trkpt>
      <trkpt lat="43.58159" lon="3.30765">
        <ele>448.4</ele>
        <time>2023-10-12T13:03:13Z</time>
      </trkpt>
      <trkpt lat="43.58169" lon="3.30761">
        <ele>450.2</ele>
        <time>2023-10-12T13:03:17Z</time>
      </trkpt>
      <trkpt lat="43.5818" lon="3.30755">
        <ele>451.8</ele>
        <time>2023-10-12T13:03:21Z</time>
      </trkpt>
      <trkpt lat="43.58189" lon="3.30752">
        <ele>453</ele>
        <time>2023-10-12T13:03:25Z</time>
      </trkpt>
      <trkpt lat="43.58198" lon="3.30751">
        <ele>454.4</ele>
        <time>2023-10-12T13:03:29Z</time>
      </trkpt>
      <trkpt lat="43.58209" lon="3.30747">
        <ele>456</ele>
        <time>2023-10-12T13:03:34Z</time>
      </trkpt>
      <trkpt lat="43.58218" lon="3.30741">
        <ele>457.4</ele>
        <time>2023-10-12T13:03:38Z</time>
      </trkpt>
      <trkpt lat="43.58226" lon="3.30733">
        <ele>458.8</ele>
        <time>2023-10-12T13:03:43Z</time>
      </trkpt>
      <trkpt lat="43.58234" lon="3.30724">
        <ele>460.4</ele>
        <time>2023-10-12T13:03:48Z</time>
      </trkpt>
      <trkpt lat="43.58242" lon="3.30714">
        <ele>461.8</ele>
        <time>2023-10-12T13:03:53Z</time>
      </trkpt>
      <trkpt lat="43.58249" lon="3.30706">
        <ele>463.2</ele>
        <time>2023-10-12T13:03:57Z</time>
      </trkpt>
      <trkpt lat="43.58255" lon="3.30695">
        <ele>464.6</ele>
        <time>2023-10-12T13:04:02Z</time>
      </trkpt>
      <trkpt lat="43.5826" lon="3.30683">
        <ele>466</ele>
        <time>2023-10-12T13:04:07Z</time>
      </trkpt>
      <trkpt lat="43.58265" lon="3.3067">
        <ele>467.6</ele>
        <time>2023-10-12T13:04:13Z</time>
      </trkpt>
      <trkpt lat="43.5827" lon="3.30657">
        <ele>469</ele>
        <time>2023-10-12T13:04:18Z</time>
      </trkpt>
      <trkpt lat="43.58275" lon="3.30645">
        <ele>470.6</ele>
        <time>2023-10-12T13:04:23Z</time>
      </trkpt>
      <trkpt lat="43.5828" lon="3.30634">
        <ele>471.8</ele>
        <time>2023-10-12T13:04:28Z</time>
      </trkpt>
      <trkpt lat="43.58286" lon="3.30623">
        <ele>473.2</ele>
        <time>2023-10-12T13:04:33Z</time>
      </trkpt>
      <trkpt lat="43.58292" lon="3.30611">
        <ele>473.4</ele>
        <time>2023-10-12T13:04:38Z</time>
      </trkpt>
      <trkpt lat="43.58298" lon="3.30598">
        <ele>473.8</ele>
        <time>2023-10-12T13:04:42Z</time>
      </trkpt>
      <trkpt lat="43.58302" lon="3.30585">
        <ele>474.2</ele>
        <time>2023-10-12T13:04:46Z</time>
      </trkpt>
      <trkpt lat="43.58305" lon="3.30573">
        <ele>474.4</ele>
        <time>2023-10-12T13:04:50Z</time>
      </trkpt>
      <trkpt lat="43.58307" lon="3.30558">
        <ele>474.8</ele>
        <time>2023-10-12T13:04:54Z</time>
      </trkpt>
      <trkpt lat="43.58306" lon="3.30543">
        <ele>475.2</ele>
        <time>2023-10-12T13:04:58Z</time>
      </trkpt>
      <trkpt lat="43.58306" lon="3.30528">
        <ele>475.4</ele>
        <time>2023-10-12T13:05:01Z</time>
      </trkpt>
      <trkpt lat="43.58305" lon="3.30514">
        <ele>475.8</ele>
        <time>2023-10-12T13:05:04Z</time>
      </trkpt>
      <trkpt lat="43.58302" lon="3.30499">
        <ele>476.2</ele>
        <time>2023-10-12T13:05:07Z</time>
      </trkpt>
      <trkpt lat="43.583" lon="3.30482">
        <ele>476.6</ele>
        <time>2023-10-12T13:05:10Z</time>
      </trkpt>
      <trkpt lat="43.58298" lon="3.30466">
        <ele>477</ele>
        <time>2023-10-12T13:05:13Z</time>
      </trkpt>
      <trkpt lat="43.58297" lon="3.30453">
        <ele>477.2</ele>
        <time>2023-10-12T13:05:15Z</time>
      </trkpt>
      <trkpt lat="43.58296" lon="3.30438">
        <ele>477.6</ele>
        <time>2023-10-12T13:05:18Z</time>
      </trkpt>
      <trkpt lat="43.58297" lon="3.30424">
        <ele>478</ele>
        <time>2023-10-12T13:05:21Z</time>
      </trkpt>
      <trkpt lat="43.58297" lon="3.30411">
        <ele>478.2</ele>
        <time>2023-10-12T13:05:24Z</time>
      </trkpt>
      <trkpt lat="43.58299" lon="3.30395">
        <ele>478.6</ele>
        <time>2023-10-12T13:05:27Z</time>
      </trkpt>
      <trkpt lat="43.58301" lon="3.30381">
        <ele>479</ele>
        <time>2023-10-12T13:05:30Z</time>
      </trkpt>
      <trkpt lat="43.58302" lon="3.30367">
        <ele>479.8</ele>
        <time>2023-10-12T13:05:33Z</time>
      </trkpt>
      <trkpt lat="43.58302" lon="3.30352">
        <ele>480.6</ele>
        <time>2023-10-12T13:05:37Z</time>
      </trkpt>
      <trkpt lat="43.583" lon="3.30337">
        <ele>481.2</ele>
        <time>2023-10-12T13:05:42Z</time>
      </trkpt>
      <trkpt lat="43.58297" lon="3.30325">
        <ele>482</ele>
        <time>2023-10-12T13:05:47Z</time>
      </trkpt>
      <trkpt lat="43.58295" lon="3.30312">
        <ele>482.6</ele>
        <time>2023-10-12T13:05:52Z</time>
      </trkpt>
      <trkpt lat="43.58298" lon="3.30297">
        <ele>483.4</ele>
        <time>2023-10-12T13:05:58Z</time>
      </trkpt>
      <trkpt lat="43.58306" lon="3.30286">
        <ele>484.2</ele>
        <time>2023-10-12T13:06:04Z</time>
      </trkpt>
      <trkpt lat="43.58313" lon="3.30277">
        <ele>484.8</ele>
        <time>2023-10-12T13:06:09Z</time>
      </trkpt>
      <trkpt lat="43.58316" lon="3.30263">
        <ele>485.6</ele>
        <time>2023-10-12T13:06:16Z</time>
      </trkpt>
      <trkpt lat="43.58323" lon="3.30253">
        <ele>486.4</ele>
        <time>2023-10-12T13:06:22Z</time>
      </trkpt>
      <trkpt lat="43.58332" lon="3.30248">
        <ele>487</ele>
        <time>2023-10-12T13:06:28Z</time>
      </trkpt>
      <trkpt lat="43.58341" lon="3.30244">
        <ele>487.8</ele>
        <time>2023-10-12T13:06:33Z</time>
      </trkpt>
      <trkpt lat="43.58351" lon="3.3024">
        <ele>488.4</ele>
        <time>2023-10-12T13:06:38Z</time>
      </trkpt>
      <trkpt lat="43.58361" lon="3.30238">
        <ele>489.2</ele>
        <time>2023-10-12T13:06:43Z</time>
      </trkpt>
      <trkpt lat="43.58371" lon="3.30235">
        <ele>489.8</ele>
        <time>2023-10-12T13:06:47Z</time>
      </trkpt>
      <trkpt lat="43.5838" lon="3.30233">
        <ele>490.4</ele>
        <time>2023-10-12T13:06:51Z</time>
      </trkpt>
      <trkpt lat="43.58388" lon="3.30232">
        <ele>491</ele>
        <time>2023-10-12T13:06:55Z</time>
      </trkpt>
      <trkpt lat="43.58399" lon="3.30228">
        <ele>491.6</ele>
        <time>2023-10-12T13:06:59Z</time>
      </trkpt>
      <trkpt lat="43.58409" lon="3.30224">
        <ele>491.6</ele>
        <time>2023-10-12T13:07:02Z</time>
      </trkpt>
      <trkpt lat="43.5842" lon="3.30219">
        <ele>491.8</ele>
        <time>2023-10-12T13:07:06Z</time>
      </trkpt>
      <trkpt lat="43.58428" lon="3.30215">
        <ele>492</ele>
        <time>2023-10-12T13:07:09Z</time>
      </trkpt>
      <trkpt lat="43.58437" lon="3.30212">
        <ele>492.2</ele>
        <time>2023-10-12T13:07:12Z</time>
      </trkpt>
      <trkpt lat="43.58449" lon="3.30206">
        <ele>492.4</ele>
        <time>2023-10-12T13:07:16Z</time>
      </trkpt>
      <trkpt lat="43.58458" lon="3.30199">
        <ele>492.6</ele>
        <time>2023-10-12T13:07:19Z</time>
      </trkpt>
      <trkpt lat="43.58466" lon="3.30191">
        <ele>492.8</ele>
        <time>2023-10-12T13:07:22Z</time>
      </trkpt>
      <trkpt lat="43.58474" lon="3.30182">
        <ele>492.8</ele>
        <time>2023-10-12T13:07:25Z</time>
      </trkpt>
      <trkpt lat="43.58481" lon="3.3017">
        <ele>493</ele>
        <time>2023-10-12T13:07:28Z</time>
      </trkpt>
      <trkpt lat="43.58487" lon="3.30159">
        <ele>493.2</ele>
        <time>2023-10-12T13:07:31Z</time>
      </trkpt>
      <trkpt lat="43.58494" lon="3.30149">
        <ele>493.4</ele>
        <time>2023-10-12T13:07:34Z</time>
      </trkpt>
      <trkpt lat="43.58501" lon="3.3014">
        <ele>493.6</ele>
        <time>2023-10-12T13:07:37Z</time>
      </trkpt>
      <trkpt lat="43.58508" lon="3.30131">
        <ele>493.8</ele>
        <time>2023-10-12T13:07:40Z</time>
      </trkpt>
      <trkpt lat="43.58517" lon="3.30121">
        <ele>494</ele>
        <time>2023-10-12T13:07:43Z</time>
      </trkpt>
      <trkpt lat="43.58523" lon="3.30112">
        <ele>494</ele>
        <time>2023-10-12T13:07:46Z</time>
      </trkpt>
      <trkpt lat="43.58528" lon="3.30102">
        <ele>494.2</ele>
        <time>2023-10-12T13:07:49Z</time>
      </trkpt>
      <trkpt lat="43.58533" lon="3.30091">
        <ele>494.4</ele>
        <time>2023-10-12T13:07:52Z</time>
      </trkpt>
      <trkpt lat="43.58541" lon="3.30078">
        <ele>494.2</ele>
        <time>2023-10-12T13:07:56Z</time>
      </trkpt>
      <trkpt lat="43.58548" lon="3.30065">
        <ele>494.2</ele>
        <time>2023-10-12T13:08:00Z</time>
      </trkpt>
      <trkpt lat="43.58554" lon="3.30054">
        <ele>494</ele>
        <time>2023-10-12T13:08:03Z</time>
      </trkpt>
      <trkpt lat="43.58561" lon="3.30042">
        <ele>494</ele>
        <time>2023-10-12T13:08:06Z</time>
      </trkpt>
      <trkpt lat="43.58566" lon="3.30031">
        <ele>493.8</ele>
        <time>2023-10-12T13:08:09Z</time>
      </trkpt>
      <trkpt lat="43.5857" lon="3.3002">
        <ele>493.8</ele>
        <time>2023-10-12T13:08:12Z</time>
      </trkpt>
      <trkpt lat="43.58574" lon="3.30008">
        <ele>493.6</ele>
        <time>2023-10-12T13:08:15Z</time>
      </trkpt>
      <trkpt lat="43.58578" lon="3.29996">
        <ele>493.6</ele>
        <time>2023-10-12T13:08:18Z</time>
      </trkpt>
      <trkpt lat="43.58583" lon="3.29982">
        <ele>493.4</ele>
        <time>2023-10-12T13:08:21Z</time>
      </trkpt>
      <trkpt lat="43.58587" lon="3.29968">
        <ele>493.2</ele>
        <time>2023-10-12T13:08:24Z</time>
      </trkpt>
      <trkpt lat="43.58591" lon="3.29955">
        <ele>493.2</ele>
        <time>2023-10-12T13:08:27Z</time>
      </trkpt>
      <trkpt lat="43.58594" lon="3.29943">
        <ele>493</ele>
        <time>2023-10-12T13:08:30Z</time>
      </trkpt>
      <trkpt lat="43.58597" lon="3.29931">
        <ele>493</ele>
        <time>2023-10-12T13:08:34Z</time>
      </trkpt>
      <trkpt lat="43.58606" lon="3.29928">
        <ele>492.8</ele>
        <time>2023-10-12T13:08:39Z</time>
      </trkpt>
      <trkpt lat="43.58616" lon="3.2993">
        <ele>492.8</ele>
        <time>2023-10-12T13:08:43Z</time>
      </trkpt>
      <trkpt lat="43.58621" lon="3.29919">
        <ele>492.6</ele>
        <time>2023-10-12T13:08:47Z</time>
      </trkpt>
      <trkpt lat="43.58618" lon="3.29907">
        <ele>492.6</ele>
        <time>2023-10-12T13:08:51Z</time>
      </trkpt>
      <trkpt lat="43.5862" lon="3.29895">
        <ele>446.9</ele>
      </trkpt>
      <trkpt lat="43.5863" lon="3.29891">
        <ele>492.2</ele>
        <time>2023-10-12T13:10:03Z</time>
      </trkpt>
      <trkpt lat="43.5864" lon="3.2989">
        <ele>491.8</ele>
        <time>2023-10-12T13:10:07Z</time>
      </trkpt>
      <trkpt lat="43.5865" lon="3.29888">
        <ele>491.2</ele>
        <time>2023-10-12T13:10:11Z</time>
      </trkpt>
      <trkpt lat="43.58659" lon="3.29886">
        <ele>490.8</ele>
        <time>2023-10-12T13:10:14Z</time>
      </trkpt>
      <trkpt lat="43.5867" lon="3.29885">
        <ele>490.4</ele>
        <time>2023-10-12T13:10:17Z</time>
      </trkpt>
      <trkpt lat="43.58681" lon="3.29884">
        <ele>489.8</ele>
        <time>2023-10-12T13:10:20Z</time>
      </trkpt>
      <trkpt lat="43.58694" lon="3.29885">
        <ele>489.4</ele>
        <time>2023-10-12T13:10:23Z</time>
      </trkpt>
      <trkpt lat="43.58703" lon="3.29885">
        <ele>489</ele>
        <time>2023-10-12T13:10:25Z</time>
      </trkpt>
      <trkpt lat="43.58712" lon="3.29886">
        <ele>488.6</ele>
        <time>2023-10-12T13:10:27Z</time>
      </trkpt>
      <trkpt lat="43.58722" lon="3.29887">
        <ele>488</ele>
        <time>2023-10-12T13:10:29Z</time>
      </trkpt>
      <trkpt lat="43.58734" lon="3.29885">
        <ele>487.6</ele>
        <time>2023-10-12T13:10:31Z</time>
      </trkpt>
      <trkpt lat="43.58745" lon="3.29884">
        <ele>487</ele>
        <time>2023-10-12T13:10:33Z</time>
      </trkpt>
      <trkpt lat="43.58757" lon="3.29883">
        <ele>486.4</ele>
        <time>2023-10-12T13:10:35Z</time>
      </trkpt>
      <trkpt lat="43.58769" lon="3.29884">
        <ele>486</ele>
        <time>2023-10-12T13:10:37Z</time>
      </trkpt>
      <trkpt lat="43.5878" lon="3.29892">
        <ele>485.4</ele>
        <time>2023-10-12T13:10:39Z</time>
      </trkpt>
      <trkpt lat="43.58786" lon="3.29906">
        <ele>484.8</ele>
        <time>2023-10-12T13:10:41Z</time>
      </trkpt>
      <trkpt lat="43.58788" lon="3.29924">
        <ele>484.2</ele>
        <time>2023-10-12T13:10:43Z</time>
      </trkpt>
      <trkpt lat="43.58788" lon="3.29943">
        <ele>483.6</ele>
        <time>2023-10-12T13:10:45Z</time>
      </trkpt>
      <trkpt lat="43.58785" lon="3.29961">
        <ele>483</ele>
        <time>2023-10-12T13:10:47Z</time>
      </trkpt>
      <trkpt lat="43.5878" lon="3.29978">
        <ele>482.4</ele>
        <time>2023-10-12T13:10:49Z</time>
      </trkpt>
      <trkpt lat="43.58772" lon="3.29993">
        <ele>481.8</ele>
        <time>2023-10-12T13:10:51Z</time>
      </trkpt>
      <trkpt lat="43.58764" lon="3.30009">
        <ele>481.2</ele>
        <time>2023-10-12T13:10:53Z</time>
      </trkpt>
      <trkpt lat="43.58754" lon="3.30022">
        <ele>480.6</ele>
        <time>2023-10-12T13:10:55Z</time>
      </trkpt>
      <trkpt lat="43.58742" lon="3.30031">
        <ele>480</ele>
        <time>2023-10-12T13:10:57Z</time>
      </trkpt>
      <trkpt lat="43.58729" lon="3.30035">
        <ele>479.4</ele>
        <time>2023-10-12T13:10:59Z</time>
      </trkpt>
      <trkpt lat="43.58717" lon="3.30036">
        <ele>478.8</ele>
        <time>2023-10-12T13:11:01Z</time>
      </trkpt>
      <trkpt lat="43.58703" lon="3.3004">
        <ele>478.2</ele>
        <time>2023-10-12T13:11:03Z</time>
      </trkpt>
      <trkpt lat="43.5869" lon="3.30044">
        <ele>477.6</ele>
        <time>2023-10-12T13:11:05Z</time>
      </trkpt>
      <trkpt lat="43.58674" lon="3.30051">
        <ele>476.8</ele>
        <time>2023-10-12T13:11:07Z</time>
      </trkpt>
      <trkpt lat="43.58661" lon="3.30059">
        <ele>476.2</ele>
        <time>2023-10-12T13:11:09Z</time>
      </trkpt>
      <trkpt lat="43.58651" lon="3.30076">
        <ele>475.4</ele>
        <time>2023-10-12T13:11:11Z</time>
      </trkpt>
      <trkpt lat="43.58644" lon="3.30094">
        <ele>474.6</ele>
        <time>2023-10-12T13:11:13Z</time>
      </trkpt>
      <trkpt lat="43.5864" lon="3.30115">
        <ele>473.8</ele>
        <time>2023-10-12T13:11:15Z</time>
      </trkpt>
      <trkpt lat="43.58641" lon="3.30133">
        <ele>473</ele>
        <time>2023-10-12T13:11:17Z</time>
      </trkpt>
      <trkpt lat="43.58648" lon="3.30147">
        <ele>472.4</ele>
        <time>2023-10-12T13:11:19Z</time>
      </trkpt>
      <trkpt lat="43.58661" lon="3.30153">
        <ele>471.6</ele>
        <time>2023-10-12T13:11:21Z</time>
      </trkpt>
      <trkpt lat="43.58674" lon="3.30155">
        <ele>470.8</ele>
        <time>2023-10-12T13:11:23Z</time>
      </trkpt>
      <trkpt lat="43.58688" lon="3.30157">
        <ele>470.2</ele>
        <time>2023-10-12T13:11:25Z</time>
      </trkpt>
      <trkpt lat="43.58701" lon="3.30159">
        <ele>469.4</ele>
        <time>2023-10-12T13:11:27Z</time>
      </trkpt>
      <trkpt lat="43.58713" lon="3.30167">
        <ele>468.8</ele>
        <time>2023-10-12T13:11:29Z</time>
      </trkpt>
      <trkpt lat="43.58721" lon="3.30179">
        <ele>468</ele>
        <time>2023-10-12T13:11:31Z</time>
      </trkpt>
      <trkpt lat="43.5873" lon="3.30192">
        <ele>467.4</ele>
        <time>2023-10-12T13:11:33Z</time>
      </trkpt>
      <trkpt lat="43.5874" lon="3.30206">
        <ele>466.6</ele>
        <time>2023-10-12T13:11:35Z</time>
      </trkpt>
      <trkpt lat="43.5875" lon="3.30223">
        <ele>465.8</ele>
        <time>2023-10-12T13:11:37Z</time>
      </trkpt>
      <trkpt lat="43.58759" lon="3.30242">
        <ele>464.8</ele>
        <time>2023-10-12T13:11:39Z</time>
      </trkpt>
      <trkpt lat="43.58768" lon="3.3026">
        <ele>464</ele>
        <time>2023-10-12T13:11:41Z</time>
      </trkpt>
      <trkpt lat="43.58775" lon="3.3028">
        <ele>463.2</ele>
        <time>2023-10-12T13:11:43Z</time>
      </trkpt>
      <trkpt lat="43.58778" lon="3.30302">
        <ele>462.2</ele>
        <time>2023-10-12T13:11:45Z</time>
      </trkpt>
      <trkpt lat="43.58781" lon="3.30322">
        <ele>461.4</ele>
        <time>2023-10-12T13:11:47Z</time>
      </trkpt>
      <trkpt lat="43.58786" lon="3.3034">
        <ele>460.6</ele>
        <time>2023-10-12T13:11:49Z</time>
      </trkpt>
      <trkpt lat="43.58795" lon="3.30355">
        <ele>460</ele>
        <time>2023-10-12T13:11:51Z</time>
      </trkpt>
      <trkpt lat="43.58809" lon="3.30367">
        <ele>459</ele>
        <time>2023-10-12T13:11:53Z</time>
      </trkpt>
      <trkpt lat="43.58823" lon="3.3038">
        <ele>458.2</ele>
        <time>2023-10-12T13:11:55Z</time>
      </trkpt>
      <trkpt lat="43.58835" lon="3.30393">
        <ele>457.4</ele>
        <time>2023-10-12T13:11:57Z</time>
      </trkpt>
      <trkpt lat="43.58849" lon="3.30408">
        <ele>456.4</ele>
        <time>2023-10-12T13:11:59Z</time>
      </trkpt>
      <trkpt lat="43.58858" lon="3.30422">
        <ele>455.6</ele>
        <time>2023-10-12T13:12:01Z</time>
      </trkpt>
      <trkpt lat="43.58863" lon="3.3044">
        <ele>454.8</ele>
        <time>2023-10-12T13:12:03Z</time>
      </trkpt>
      <trkpt lat="43.58866" lon="3.3046">
        <ele>454</ele>
        <time>2023-10-12T13:12:05Z</time>
      </trkpt>
      <trkpt lat="43.58866" lon="3.3048">
        <ele>453.2</ele>
        <time>2023-10-12T13:12:07Z</time>
      </trkpt>
      <trkpt lat="43.58865" lon="3.30502">
        <ele>452.4</ele>
        <time>2023-10-12T13:12:09Z</time>
      </trkpt>
      <trkpt lat="43.58863" lon="3.30523">
        <ele>451.6</ele>
        <time>2023-10-12T13:12:11Z</time>
      </trkpt>
      <trkpt lat="43.58862" lon="3.30544">
        <ele>450.6</ele>
        <time>2023-10-12T13:12:13Z</time>
      </trkpt>
      <trkpt lat="43.58859" lon="3.30565">
        <ele>449.8</ele>
        <time>2023-10-12T13:12:15Z</time>
      </trkpt>
      <trkpt lat="43.58857" lon="3.30587">
        <ele>449</ele>
        <time>2023-10-12T13:12:17Z</time>
      </trkpt>
      <trkpt lat="43.58855" lon="3.30609">
        <ele>448</ele>
        <time>2023-10-12T13:12:19Z</time>
      </trkpt>
      <trkpt lat="43.58853" lon="3.30632">
        <ele>447.2</ele>
        <time>2023-10-12T13:12:21Z</time>
      </trkpt>
      <trkpt lat="43.58851" lon="3.30655">
        <ele>446.2</ele>
        <time>2023-10-12T13:12:23Z</time>
      </trkpt>
      <trkpt lat="43.5885" lon="3.30678">
        <ele>445.2</ele>
        <time>2023-10-12T13:12:25Z</time>
      </trkpt>
      <trkpt lat="43.58847" lon="3.30701">
        <ele>444.2</ele>
        <time>2023-10-12T13:12:27Z</time>
      </trkpt>
      <trkpt lat="43.58842" lon="3.30723">
        <ele>443.2</ele>
        <time>2023-10-12T13:12:29Z</time>
      </trkpt>
      <trkpt lat="43.58835" lon="3.30744">
        <ele>442.4</ele>
        <time>2023-10-12T13:12:31Z</time>
      </trkpt>
      <trkpt lat="43.58828" lon="3.30762">
        <ele>441.4</ele>
        <time>2023-10-12T13:12:33Z</time>
      </trkpt>
      <trkpt lat="43.5882" lon="3.30775">
        <ele>440.8</ele>
        <time>2023-10-12T13:12:35Z</time>
      </trkpt>
      <trkpt lat="43.58814" lon="3.30785">
        <ele>440.2</ele>
        <time>2023-10-12T13:12:39Z</time>
      </trkpt>
      <trkpt lat="43.58805" lon="3.308">
        <ele>439.4</ele>
        <time>2023-10-12T13:13:49Z</time>
      </trkpt>
      <trkpt lat="43.588" lon="3.30813">
        <ele>438.8</ele>
        <time>2023-10-12T13:13:53Z</time>
      </trkpt>
      <trkpt lat="43.58793" lon="3.30825">
        <ele>438.2</ele>
        <time>2023-10-12T13:13:57Z</time>
      </trkpt>
      <trkpt lat="43.58787" lon="3.30839">
        <ele>437.4</ele>
        <time>2023-10-12T13:14:02Z</time>
      </trkpt>
      <trkpt lat="43.58784" lon="3.30853">
        <ele>436.8</ele>
        <time>2023-10-12T13:14:06Z</time>
      </trkpt>
      <trkpt lat="43.58781" lon="3.30865">
        <ele>436.4</ele>
        <time>2023-10-12T13:14:08Z</time>
      </trkpt>
      <trkpt lat="43.58777" lon="3.30879">
        <ele>435.8</ele>
        <time>2023-10-12T13:14:10Z</time>
      </trkpt>
      <trkpt lat="43.5877" lon="3.30892">
        <ele>435.4</ele>
        <time>2023-10-12T13:14:12Z</time>
      </trkpt>
      <trkpt lat="43.58761" lon="3.30904">
        <ele>434.8</ele>
        <time>2023-10-12T13:14:14Z</time>
      </trkpt>
      <trkpt lat="43.5875" lon="3.30916">
        <ele>434.2</ele>
        <time>2023-10-12T13:14:16Z</time>
      </trkpt>
      <trkpt lat="43.58739" lon="3.30926">
        <ele>433.4</ele>
        <time>2023-10-12T13:14:18Z</time>
      </trkpt>
      <trkpt lat="43.58726" lon="3.30937">
        <ele>432.8</ele>
        <time>2023-10-12T13:14:20Z</time>
      </trkpt>
      <trkpt lat="43.58713" lon="3.30946">
        <ele>432</ele>
        <time>2023-10-12T13:14:22Z</time>
      </trkpt>
      <trkpt lat="43.58699" lon="3.30954">
        <ele>431.4</ele>
        <time>2023-10-12T13:14:24Z</time>
      </trkpt>
      <trkpt lat="43.58686" lon="3.30959">
        <ele>430.8</ele>
        <time>2023-10-12T13:14:26Z</time>
      </trkpt>
      <trkpt lat="43.58671" lon="3.30959">
        <ele>430</ele>
        <time>2023-10-12T13:14:28Z</time>
      </trkpt>
      <trkpt lat="43.58655" lon="3.30953">
        <ele>429.2</ele>
        <time>2023-10-12T13:14:30Z</time>
      </trkpt>
      <trkpt lat="43.58642" lon="3.30941">
        <ele>428.4</ele>
        <time>2023-10-12T13:14:32Z</time>
      </trkpt>
      <trkpt lat="43.5863" lon="3.30929">
        <ele>428.4</ele>
        <time>2023-10-12T13:14:34Z</time>
      </trkpt>
      <trkpt lat="43.5862" lon="3.3092">
        <ele>428.4</ele>
        <time>2023-10-12T13:14:36Z</time>
      </trkpt>
      <trkpt lat="43.5861" lon="3.30909">
        <ele>428.4</ele>
        <time>2023-10-12T13:14:38Z</time>
      </trkpt>
      <trkpt lat="43.58601" lon="3.30897">
        <ele>428.4</ele>
        <time>2023-10-12T13:14:40Z</time>
      </trkpt>
      <trkpt lat="43.58594" lon="3.30883">
        <ele>428.4</ele>
        <time>2023-10-12T13:14:42Z</time>
      </trkpt>
      <trkpt lat="43.5859" lon="3.30869">
        <ele>428.4</ele>
        <time>2023-10-12T13:14:44Z</time>
      </trkpt>
      <trkpt lat="43.58587" lon="3.30852">
        <ele>428.4</ele>
        <time>2023-10-12T13:14:46Z</time>
      </trkpt>
      <trkpt lat="43.58584" lon="3.30834">
        <ele>428.4</ele>
        <time>2023-10-12T13:14:48Z</time>
      </trkpt>
      <trkpt lat="43.58582" lon="3.30815">
        <ele>428.4</ele>
        <time>2023-10-12T13:14:50Z</time>
      </trkpt>
      <trkpt lat="43.58581" lon="3.308">
        <ele>428.4</ele>
        <time>2023-10-12T13:14:52Z</time>
      </trkpt>
      <trkpt lat="43.5857" lon="3.30798">
        <ele>428.4</ele>
        <time>2023-10-12T13:14:56Z</time>
      </trkpt>
      <trkpt lat="43.58565" lon="3.30809">
        <ele>428.4</ele>
        <time>2023-10-12T13:14:59Z</time>
      </trkpt>
      <trkpt lat="43.58558" lon="3.30823">
        <ele>428.4</ele>
        <time>2023-10-12T13:15:02Z</time>
      </trkpt>
      <trkpt lat="43.58551" lon="3.30834">
        <ele>428.4</ele>
        <time>2023-10-12T13:15:04Z</time>
      </trkpt>
      <trkpt lat="43.58545" lon="3.30844">
        <ele>428.4</ele>
        <time>2023-10-12T13:15:06Z</time>
      </trkpt>
      <trkpt lat="43.58535" lon="3.30855">
        <ele>428.2</ele>
        <time>2023-10-12T13:15:09Z</time>
      </trkpt>
      <trkpt lat="43.58527" lon="3.30864">
        <ele>427.6</ele>
        <time>2023-10-12T13:15:12Z</time>
      </trkpt>
      <trkpt lat="43.58518" lon="3.30871">
        <ele>427.2</ele>
        <time>2023-10-12T13:15:15Z</time>
      </trkpt>
      <trkpt lat="43.58498" lon="3.30892">
        <ele>426</ele>
        <time>2023-10-12T13:15:37Z</time>
      </trkpt>
      <trkpt lat="43.585" lon="3.30907">
        <ele>425.4</ele>
        <time>2023-10-12T13:15:39Z</time>
      </trkpt>
      <trkpt lat="43.58504" lon="3.30924">
        <ele>424.8</ele>
        <time>2023-10-12T13:15:41Z</time>
      </trkpt>
      <trkpt lat="43.58507" lon="3.30945">
        <ele>424.2</ele>
        <time>2023-10-12T13:15:43Z</time>
      </trkpt>
      <trkpt lat="43.58508" lon="3.30957">
        <ele>423.6</ele>
        <time>2023-10-12T13:15:44Z</time>
      </trkpt>
      <trkpt lat="43.58508" lon="3.30982">
        <ele>422.8</ele>
        <time>2023-10-12T13:15:46Z</time>
      </trkpt>
      <trkpt lat="43.58507" lon="3.30997">
        <ele>422.4</ele>
        <time>2023-10-12T13:15:48Z</time>
      </trkpt>
      <trkpt lat="43.58506" lon="3.31012">
        <ele>421.8</ele>
        <time>2023-10-12T13:15:52Z</time>
      </trkpt>
      <trkpt lat="43.58507" lon="3.31026">
        <ele>421.4</ele>
        <time>2023-10-12T13:15:56Z</time>
      </trkpt>
      <trkpt lat="43.58509" lon="3.3104">
        <ele>420.8</ele>
        <time>2023-10-12T13:16:00Z</time>
      </trkpt>
      <trkpt lat="43.5851" lon="3.31053">
        <ele>420.4</ele>
        <time>2023-10-12T13:16:02Z</time>
      </trkpt>
      <trkpt lat="43.58512" lon="3.31069">
        <ele>419.8</ele>
        <time>2023-10-12T13:16:04Z</time>
      </trkpt>
      <trkpt lat="43.58518" lon="3.31083">
        <ele>419.2</ele>
        <time>2023-10-12T13:16:06Z</time>
      </trkpt>
      <trkpt lat="43.58527" lon="3.31092">
        <ele>418.4</ele>
        <time>2023-10-12T13:16:08Z</time>
      </trkpt>
      <trkpt lat="43.58536" lon="3.31099">
        <ele>417.8</ele>
        <time>2023-10-12T13:16:10Z</time>
      </trkpt>
      <trkpt lat="43.58544" lon="3.31107">
        <ele>417.4</ele>
        <time>2023-10-12T13:16:12Z</time>
      </trkpt>
      <trkpt lat="43.5855" lon="3.31117">
        <ele>416.8</ele>
        <time>2023-10-12T13:16:14Z</time>
      </trkpt>
      <trkpt lat="43.58556" lon="3.31132">
        <ele>416</ele>
        <time>2023-10-12T13:16:17Z</time>
      </trkpt>
      <trkpt lat="43.58557" lon="3.3115">
        <ele>415.2</ele>
        <time>2023-10-12T13:16:20Z</time>
      </trkpt>
      <trkpt lat="43.58556" lon="3.31163">
        <ele>414.6</ele>
        <time>2023-10-12T13:16:22Z</time>
      </trkpt>
      <trkpt lat="43.58555" lon="3.31176">
        <ele>414.2</ele>
        <time>2023-10-12T13:16:24Z</time>
      </trkpt>
      <trkpt lat="43.58554" lon="3.31188">
        <ele>413.6</ele>
        <time>2023-10-12T13:16:26Z</time>
      </trkpt>
      <trkpt lat="43.5855" lon="3.312">
        <ele>413</ele>
        <time>2023-10-12T13:16:28Z</time>
      </trkpt>
      <trkpt lat="43.58545" lon="3.31216">
        <ele>412.4</ele>
        <time>2023-10-12T13:16:30Z</time>
      </trkpt>
      <trkpt lat="43.58541" lon="3.31234">
        <ele>411.6</ele>
        <time>2023-10-12T13:16:32Z</time>
      </trkpt>
      <trkpt lat="43.58538" lon="3.31251">
        <ele>410.8</ele>
        <time>2023-10-12T13:16:34Z</time>
      </trkpt>
      <trkpt lat="43.58533" lon="3.31264">
        <ele>410.2</ele>
        <time>2023-10-12T13:16:36Z</time>
      </trkpt>
      <trkpt lat="43.58528" lon="3.31278">
        <ele>409.4</ele>
        <time>2023-10-12T13:16:38Z</time>
      </trkpt>
      <trkpt lat="43.58522" lon="3.31294">
        <ele>409.4</ele>
        <time>2023-10-12T13:16:40Z</time>
      </trkpt>
      <trkpt lat="43.58517" lon="3.3131">
        <ele>409.4</ele>
        <time>2023-10-12T13:16:42Z</time>
      </trkpt>
      <trkpt lat="43.58511" lon="3.3132">
        <ele>409.4</ele>
        <time>2023-10-12T13:16:44Z</time>
      </trkpt>
      <trkpt lat="43.58504" lon="3.31329">
        <ele>409.4</ele>
        <time>2023-10-12T13:16:46Z</time>
      </trkpt>
      <trkpt lat="43.58502" lon="3.31342">
        <ele>409.4</ele>
        <time>2023-10-12T13:16:48Z</time>
      </trkpt>
      <trkpt lat="43.58499" lon="3.31357">
        <ele>409.2</ele>
        <time>2023-10-12T13:16:50Z</time>
      </trkpt>
      <trkpt lat="43.58493" lon="3.31373">
        <ele>409.2</ele>
        <time>2023-10-12T13:16:52Z</time>
      </trkpt>
      <trkpt lat="43.58488" lon="3.31393">
        <ele>409.2</ele>
        <time>2023-10-12T13:16:54Z</time>
      </trkpt>
      <trkpt lat="43.58487" lon="3.3141">
        <ele>409.2</ele>
        <time>2023-10-12T13:16:56Z</time>
      </trkpt>
      <trkpt lat="43.58486" lon="3.31426">
        <ele>409.2</ele>
        <time>2023-10-12T13:17:00Z</time>
      </trkpt>
      <trkpt lat="43.58483" lon="3.31438">
        <ele>409.2</ele>
        <time>2023-10-12T13:17:03Z</time>
      </trkpt>
      <trkpt lat="43.58479" lon="3.31452">
        <ele>409</ele>
        <time>2023-10-12T13:17:06Z</time>
      </trkpt>
      <trkpt lat="43.58475" lon="3.31464">
        <ele>409</ele>
        <time>2023-10-12T13:17:09Z</time>
      </trkpt>
      <trkpt lat="43.5847" lon="3.31475">
        <ele>409</ele>
        <time>2023-10-12T13:17:12Z</time>
      </trkpt>
      <trkpt lat="43.58467" lon="3.31487">
        <ele>409</ele>
        <time>2023-10-12T13:17:16Z</time>
      </trkpt>
      <trkpt lat="43.58463" lon="3.31499">
        <ele>409</ele>
        <time>2023-10-12T13:17:21Z</time>
      </trkpt>
      <trkpt lat="43.58459" lon="3.3151">
        <ele>409.4</ele>
        <time>2023-10-12T13:17:26Z</time>
      </trkpt>
      <trkpt lat="43.58454" lon="3.31522">
        <ele>410.4</ele>
        <time>2023-10-12T13:17:31Z</time>
      </trkpt>
      <trkpt lat="43.58449" lon="3.31534">
        <ele>411.6</ele>
        <time>2023-10-12T13:17:36Z</time>
      </trkpt>
      <trkpt lat="43.58443" lon="3.31546">
        <ele>412.8</ele>
        <time>2023-10-12T13:17:42Z</time>
      </trkpt>
      <trkpt lat="43.58436" lon="3.31557">
        <ele>414</ele>
        <time>2023-10-12T13:17:47Z</time>
      </trkpt>
      <trkpt lat="43.5843" lon="3.31568">
        <ele>415</ele>
        <time>2023-10-12T13:17:52Z</time>
      </trkpt>
      <trkpt lat="43.58423" lon="3.31578">
        <ele>416.2</ele>
        <time>2023-10-12T13:17:58Z</time>
      </trkpt>
      <trkpt lat="43.5842" lon="3.31592">
        <ele>417.4</ele>
        <time>2023-10-12T13:18:04Z</time>
      </trkpt>
      <trkpt lat="43.58419" lon="3.31606">
        <ele>418.4</ele>
        <time>2023-10-12T13:18:09Z</time>
      </trkpt>
      <trkpt lat="43.58413" lon="3.31617">
        <ele>419.6</ele>
        <time>2023-10-12T13:18:14Z</time>
      </trkpt>
      <trkpt lat="43.58405" lon="3.31628">
        <ele>420.8</ele>
        <time>2023-10-12T13:18:18Z</time>
      </trkpt>
      <trkpt lat="43.58406" lon="3.31642">
        <ele>422</ele>
        <time>2023-10-12T13:18:25Z</time>
      </trkpt>
      <trkpt lat="43.58412" lon="3.31651">
        <ele>423</ele>
        <time>2023-10-12T13:18:31Z</time>
      </trkpt>
      <trkpt lat="43.58426" lon="3.31656">
        <ele>424.4</ele>
        <time>2023-10-12T13:18:48Z</time>
      </trkpt>
      <trkpt lat="43.58432" lon="3.31667">
        <ele>425.6</ele>
        <time>2023-10-12T13:18:52Z</time>
      </trkpt>
      <trkpt lat="43.5843" lon="3.3168">
        <ele>426.6</ele>
        <time>2023-10-12T13:18:55Z</time>
      </trkpt>
      <trkpt lat="43.58439" lon="3.31683">
        <ele>427.6</ele>
        <time>2023-10-12T13:18:59Z</time>
      </trkpt>
      <trkpt lat="43.58447" lon="3.3169">
        <ele>428.8</ele>
        <time>2023-10-12T13:19:06Z</time>
      </trkpt>
      <trkpt lat="43.58456" lon="3.31695">
        <ele>429.4</ele>
        <time>2023-10-12T13:19:14Z</time>
      </trkpt>
      <trkpt lat="43.58466" lon="3.317">
        <ele>430.2</ele>
        <time>2023-10-12T13:19:21Z</time>
      </trkpt>
      <trkpt lat="43.58477" lon="3.31701">
        <ele>431</ele>
        <time>2023-10-12T13:19:27Z</time>
      </trkpt>
      <trkpt lat="43.58486" lon="3.317">
        <ele>431.8</ele>
        <time>2023-10-12T13:19:32Z</time>
      </trkpt>
      <trkpt lat="43.58493" lon="3.31707">
        <ele>432.4</ele>
        <time>2023-10-12T13:19:37Z</time>
      </trkpt>
      <trkpt lat="43.58498" lon="3.3172">
        <ele>433.2</ele>
        <time>2023-10-12T13:19:44Z</time>
      </trkpt>
      <trkpt lat="43.58502" lon="3.31732">
        <ele>433.8</ele>
        <time>2023-10-12T13:19:49Z</time>
      </trkpt>
      <trkpt lat="43.58504" lon="3.31744">
        <ele>434.6</ele>
        <time>2023-10-12T13:19:53Z</time>
      </trkpt>
      <trkpt lat="43.58502" lon="3.31758">
        <ele>435.2</ele>
        <time>2023-10-12T13:19:57Z</time>
      </trkpt>
      <trkpt lat="43.58502" lon="3.31772">
        <ele>436</ele>
        <time>2023-10-12T13:20:02Z</time>
      </trkpt>
      <trkpt lat="43.58501" lon="3.31787">
        <ele>436.8</ele>
        <time>2023-10-12T13:20:07Z</time>
      </trkpt>
      <trkpt lat="43.585" lon="3.31799">
        <ele>437.4</ele>
        <time>2023-10-12T13:20:10Z</time>
      </trkpt>
      <trkpt lat="43.585" lon="3.31813">
        <ele>438.2</ele>
        <time>2023-10-12T13:20:13Z</time>
      </trkpt>
      <trkpt lat="43.58501" lon="3.31828">
        <ele>439</ele>
        <time>2023-10-12T13:20:17Z</time>
      </trkpt>
      <trkpt lat="43.58503" lon="3.3184">
        <ele>439.6</ele>
        <time>2023-10-12T13:20:21Z</time>
      </trkpt>
      <trkpt lat="43.58504" lon="3.31854">
        <ele>440.4</ele>
        <time>2023-10-12T13:20:26Z</time>
      </trkpt>
      <trkpt lat="43.58506" lon="3.31867">
        <ele>441.2</ele>
        <time>2023-10-12T13:20:31Z</time>
      </trkpt>
      <trkpt lat="43.58505" lon="3.3188">
        <ele>441.8</ele>
        <time>2023-10-12T13:20:35Z</time>
      </trkpt>
      <trkpt lat="43.58502" lon="3.31893">
        <ele>442</ele>
        <time>2023-10-12T13:20:39Z</time>
      </trkpt>
      <trkpt lat="43.58498" lon="3.31908">
        <ele>441.6</ele>
        <time>2023-10-12T13:20:42Z</time>
      </trkpt>
      <trkpt lat="43.58494" lon="3.31923">
        <ele>441.4</ele>
        <time>2023-10-12T13:20:45Z</time>
      </trkpt>
      <trkpt lat="43.58493" lon="3.31939">
        <ele>441.2</ele>
        <time>2023-10-12T13:20:49Z</time>
      </trkpt>
      <trkpt lat="43.58494" lon="3.31952">
        <ele>441</ele>
        <time>2023-10-12T13:20:52Z</time>
      </trkpt>
      <trkpt lat="43.58498" lon="3.31968">
        <ele>440.6</ele>
        <time>2023-10-12T13:20:56Z</time>
      </trkpt>
      <trkpt lat="43.58504" lon="3.31981">
        <ele>440.4</ele>
        <time>2023-10-12T13:20:59Z</time>
      </trkpt>
      <trkpt lat="43.58504" lon="3.31995">
        <ele>440.2</ele>
        <time>2023-10-12T13:21:01Z</time>
      </trkpt>
      <trkpt lat="43.58503" lon="3.3201">
        <ele>440</ele>
        <time>2023-10-12T13:21:04Z</time>
      </trkpt>
      <trkpt lat="43.58491" lon="3.32025">
        <ele>439.6</ele>
        <time>2023-10-12T13:28:36Z</time>
      </trkpt>
      <trkpt lat="43.58485" lon="3.32034">
        <ele>439.4</ele>
        <time>2023-10-12T13:28:39Z</time>
      </trkpt>
      <trkpt lat="43.58476" lon="3.32046">
        <ele>439.2</ele>
        <time>2023-10-12T13:28:42Z</time>
      </trkpt>
      <trkpt lat="43.58467" lon="3.32055">
        <ele>438.8</ele>
        <time>2023-10-12T13:28:45Z</time>
      </trkpt>
      <trkpt lat="43.5846" lon="3.32064">
        <ele>438.6</ele>
        <time>2023-10-12T13:28:48Z</time>
      </trkpt>
      <trkpt lat="43.58452" lon="3.32071">
        <ele>438.4</ele>
        <time>2023-10-12T13:28:55Z</time>
      </trkpt>
      <trkpt lat="43.58443" lon="3.32079">
        <ele>438.2</ele>
        <time>2023-10-12T13:29:00Z</time>
      </trkpt>
      <trkpt lat="43.58432" lon="3.32082">
        <ele>437.8</ele>
        <time>2023-10-12T13:29:04Z</time>
      </trkpt>
      <trkpt lat="43.58424" lon="3.32086">
        <ele>437.4</ele>
        <time>2023-10-12T13:29:08Z</time>
      </trkpt>
      <trkpt lat="43.58414" lon="3.32088">
        <ele>436.8</ele>
        <time>2023-10-12T13:29:15Z</time>
      </trkpt>
      <trkpt lat="43.58405" lon="3.32092">
        <ele>436.4</ele>
        <time>2023-10-12T13:29:24Z</time>
      </trkpt>
      <trkpt lat="43.58395" lon="3.32096">
        <ele>435.8</ele>
        <time>2023-10-12T13:29:29Z</time>
      </trkpt>
      <trkpt lat="43.58386" lon="3.32099">
        <ele>435.2</ele>
        <time>2023-10-12T13:29:34Z</time>
      </trkpt>
      <trkpt lat="43.58375" lon="3.32103">
        <ele>434.6</ele>
        <time>2023-10-12T13:29:38Z</time>
      </trkpt>
      <trkpt lat="43.58363" lon="3.32107">
        <ele>434</ele>
        <time>2023-10-12T13:29:42Z</time>
      </trkpt>
      <trkpt lat="43.58353" lon="3.32109">
        <ele>433.4</ele>
        <time>2023-10-12T13:29:45Z</time>
      </trkpt>
      <trkpt lat="43.58343" lon="3.32111">
        <ele>433</ele>
        <time>2023-10-12T13:29:48Z</time>
      </trkpt>
      <trkpt lat="43.58331" lon="3.32113">
        <ele>432.4</ele>
        <time>2023-10-12T13:29:52Z</time>
      </trkpt>
      <trkpt lat="43.58321" lon="3.32115">
        <ele>431.8</ele>
        <time>2023-10-12T13:29:55Z</time>
      </trkpt>
      <trkpt lat="43.58309" lon="3.32117">
        <ele>431.2</ele>
        <time>2023-10-12T13:29:58Z</time>
      </trkpt>
      <trkpt lat="43.58298" lon="3.32119">
        <ele>430.6</ele>
        <time>2023-10-12T13:30:01Z</time>
      </trkpt>
      <trkpt lat="43.58285" lon="3.32121">
        <ele>429.8</ele>
        <time>2023-10-12T13:30:04Z</time>
      </trkpt>
      <trkpt lat="43.58276" lon="3.32121">
        <ele>429.4</ele>
        <time>2023-10-12T13:30:06Z</time>
      </trkpt>
      <trkpt lat="43.58267" lon="3.32124">
        <ele>428.8</ele>
        <time>2023-10-12T13:30:08Z</time>
      </trkpt>
      <trkpt lat="43.58254" lon="3.32129">
        <ele>428.2</ele>
        <time>2023-10-12T13:30:11Z</time>
      </trkpt>
      <trkpt lat="43.58245" lon="3.32136">
        <ele>427.4</ele>
        <time>2023-10-12T13:30:14Z</time>
      </trkpt>
      <trkpt lat="43.58233" lon="3.32144">
        <ele>426.6</ele>
        <time>2023-10-12T13:30:17Z</time>
      </trkpt>
      <trkpt lat="43.58223" lon="3.3215">
        <ele>426</ele>
        <time>2023-10-12T13:30:19Z</time>
      </trkpt>
      <trkpt lat="43.58213" lon="3.32156">
        <ele>425.2</ele>
        <time>2023-10-12T13:30:21Z</time>
      </trkpt>
      <trkpt lat="43.58203" lon="3.32162">
        <ele>424.6</ele>
        <time>2023-10-12T13:30:23Z</time>
      </trkpt>
      <trkpt lat="43.58192" lon="3.3217">
        <ele>423.8</ele>
        <time>2023-10-12T13:30:25Z</time>
      </trkpt>
      <trkpt lat="43.58181" lon="3.32178">
        <ele>423</ele>
        <time>2023-10-12T13:30:27Z</time>
      </trkpt>
      <trkpt lat="43.58171" lon="3.32186">
        <ele>422.2</ele>
        <time>2023-10-12T13:30:29Z</time>
      </trkpt>
      <trkpt lat="43.58162" lon="3.32192">
        <ele>421.6</ele>
        <time>2023-10-12T13:30:31Z</time>
      </trkpt>
      <trkpt lat="43.58152" lon="3.32199">
        <ele>421</ele>
        <time>2023-10-12T13:30:33Z</time>
      </trkpt>
      <trkpt lat="43.58142" lon="3.32205">
        <ele>420.2</ele>
        <time>2023-10-12T13:30:35Z</time>
      </trkpt>
      <trkpt lat="43.58132" lon="3.32213">
        <ele>419.6</ele>
        <time>2023-10-12T13:30:37Z</time>
      </trkpt>
      <trkpt lat="43.58123" lon="3.3222">
        <ele>418.8</ele>
        <time>2023-10-12T13:30:39Z</time>
      </trkpt>
      <trkpt lat="43.58114" lon="3.32229">
        <ele>418.2</ele>
        <time>2023-10-12T13:30:41Z</time>
      </trkpt>
      <trkpt lat="43.58104" lon="3.32239">
        <ele>417.4</ele>
        <time>2023-10-12T13:30:44Z</time>
      </trkpt>
      <trkpt lat="43.58097" lon="3.32248">
        <ele>416.8</ele>
        <time>2023-10-12T13:30:47Z</time>
      </trkpt>
      <trkpt lat="43.5809" lon="3.32258">
        <ele>416.2</ele>
        <time>2023-10-12T13:30:50Z</time>
      </trkpt>
      <trkpt lat="43.58083" lon="3.32267">
        <ele>415.8</ele>
        <time>2023-10-12T13:30:52Z</time>
      </trkpt>
      <trkpt lat="43.58076" lon="3.32278">
        <ele>415.2</ele>
        <time>2023-10-12T13:30:54Z</time>
      </trkpt>
      <trkpt lat="43.5807" lon="3.3229">
        <ele>414.6</ele>
        <time>2023-10-12T13:30:56Z</time>
      </trkpt>
      <trkpt lat="43.58064" lon="3.323">
        <ele>414.2</ele>
        <time>2023-10-12T13:30:58Z</time>
      </trkpt>
      <trkpt lat="43.58057" lon="3.3231">
        <ele>413.6</ele>
        <time>2023-10-12T13:31:00Z</time>
      </trkpt>
      <trkpt lat="43.5805" lon="3.3232">
        <ele>413.2</ele>
        <time>2023-10-12T13:31:02Z</time>
      </trkpt>
      <trkpt lat="43.58042" lon="3.32329">
        <ele>412.6</ele>
        <time>2023-10-12T13:31:04Z</time>
      </trkpt>
      <trkpt lat="43.58034" lon="3.3234">
        <ele>412</ele>
        <time>2023-10-12T13:31:06Z</time>
      </trkpt>
      <trkpt lat="43.58028" lon="3.32351">
        <ele>411.4</ele>
        <time>2023-10-12T13:31:08Z</time>
      </trkpt>
      <trkpt lat="43.58022" lon="3.32361">
        <ele>410.8</ele>
        <time>2023-10-12T13:31:10Z</time>
      </trkpt>
      <trkpt lat="43.58017" lon="3.32373">
        <ele>410.4</ele>
        <time>2023-10-12T13:31:12Z</time>
      </trkpt>
      <trkpt lat="43.58009" lon="3.32386">
        <ele>409.8</ele>
        <time>2023-10-12T13:31:14Z</time>
      </trkpt>
      <trkpt lat="43.58" lon="3.32401">
        <ele>409</ele>
        <time>2023-10-12T13:31:16Z</time>
      </trkpt>
      <trkpt lat="43.57989" lon="3.32417">
        <ele>408</ele>
        <time>2023-10-12T13:31:18Z</time>
      </trkpt>
      <trkpt lat="43.57979" lon="3.32435">
        <ele>407.6</ele>
        <time>2023-10-12T13:31:20Z</time>
      </trkpt>
      <trkpt lat="43.57968" lon="3.3245">
        <ele>407.6</ele>
        <time>2023-10-12T13:31:22Z</time>
      </trkpt>
      <trkpt lat="43.57957" lon="3.32463">
        <ele>407.4</ele>
        <time>2023-10-12T13:31:24Z</time>
      </trkpt>
      <trkpt lat="43.57946" lon="3.32476">
        <ele>407.4</ele>
        <time>2023-10-12T13:31:26Z</time>
      </trkpt>
      <trkpt lat="43.57935" lon="3.32488">
        <ele>407.4</ele>
        <time>2023-10-12T13:31:28Z</time>
      </trkpt>
      <trkpt lat="43.57924" lon="3.32497">
        <ele>407.4</ele>
        <time>2023-10-12T13:31:30Z</time>
      </trkpt>
      <trkpt lat="43.57913" lon="3.32505">
        <ele>407.4</ele>
        <time>2023-10-12T13:31:32Z</time>
      </trkpt>
      <trkpt lat="43.57904" lon="3.3251">
        <ele>407.4</ele>
        <time>2023-10-12T13:31:34Z</time>
      </trkpt>
      <trkpt lat="43.57892" lon="3.32514">
        <ele>407.2</ele>
        <time>2023-10-12T13:31:37Z</time>
      </trkpt>
      <trkpt lat="43.5788" lon="3.32519">
        <ele>407.2</ele>
        <time>2023-10-12T13:31:40Z</time>
      </trkpt>
      <trkpt lat="43.5787" lon="3.32523">
        <ele>407.2</ele>
        <time>2023-10-12T13:31:42Z</time>
      </trkpt>
      <trkpt lat="43.57858" lon="3.32528">
        <ele>407.2</ele>
        <time>2023-10-12T13:31:45Z</time>
      </trkpt>
      <trkpt lat="43.57846" lon="3.32534">
        <ele>407.2</ele>
        <time>2023-10-12T13:31:48Z</time>
      </trkpt>
      <trkpt lat="43.57837" lon="3.32538">
        <ele>407.2</ele>
        <time>2023-10-12T13:31:51Z</time>
      </trkpt>
      <trkpt lat="43.57828" lon="3.32543">
        <ele>407.2</ele>
        <time>2023-10-12T13:31:54Z</time>
      </trkpt>
      <trkpt lat="43.5782" lon="3.32549">
        <ele>406.8</ele>
        <time>2023-10-12T13:31:58Z</time>
      </trkpt>
      <trkpt lat="43.57811" lon="3.32556">
        <ele>406.6</ele>
        <time>2023-10-12T13:32:01Z</time>
      </trkpt>
      <trkpt lat="43.57801" lon="3.32566">
        <ele>406.4</ele>
        <time>2023-10-12T13:32:04Z</time>
      </trkpt>
      <trkpt lat="43.57793" lon="3.32576">
        <ele>406</ele>
        <time>2023-10-12T13:32:07Z</time>
      </trkpt>
      <trkpt lat="43.57785" lon="3.32587">
        <ele>405.8</ele>
        <time>2023-10-12T13:32:11Z</time>
      </trkpt>
      <trkpt lat="43.57778" lon="3.32599">
        <ele>405.4</ele>
        <time>2023-10-12T13:32:14Z</time>
      </trkpt>
      <trkpt lat="43.57773" lon="3.3261">
        <ele>405.2</ele>
        <time>2023-10-12T13:32:17Z</time>
      </trkpt>
      <trkpt lat="43.57767" lon="3.32621">
        <ele>405</ele>
        <time>2023-10-12T13:32:19Z</time>
      </trkpt>
      <trkpt lat="43.57761" lon="3.32633">
        <ele>404.8</ele>
        <time>2023-10-12T13:32:21Z</time>
      </trkpt>
      <trkpt lat="43.57755" lon="3.32644">
        <ele>404.6</ele>
        <time>2023-10-12T13:32:23Z</time>
      </trkpt>
      <trkpt lat="43.57748" lon="3.32655">
        <ele>404.2</ele>
        <time>2023-10-12T13:32:25Z</time>
      </trkpt>
      <trkpt lat="43.5774" lon="3.32666">
        <ele>404</ele>
        <time>2023-10-12T13:32:27Z</time>
      </trkpt>
      <trkpt lat="43.5773" lon="3.32674">
        <ele>403.6</ele>
        <time>2023-10-12T13:32:29Z</time>
      </trkpt>
      <trkpt lat="43.57721" lon="3.32681">
        <ele>403.4</ele>
        <time>2023-10-12T13:32:31Z</time>
      </trkpt>
      <trkpt lat="43.57711" lon="3.32687">
        <ele>403.2</ele>
        <time>2023-10-12T13:32:33Z</time>
      </trkpt>
      <trkpt lat="43.57699" lon="3.32693">
        <ele>402.8</ele>
        <time>2023-10-12T13:32:35Z</time>
      </trkpt>
      <trkpt lat="43.57688" lon="3.32698">
        <ele>402.2</ele>
        <time>2023-10-12T13:32:37Z</time>
      </trkpt>
      <trkpt lat="43.57678" lon="3.32703">
        <ele>401</ele>
        <time>2023-10-12T13:32:39Z</time>
      </trkpt>
      <trkpt lat="43.57666" lon="3.3271">
        <ele>399.6</ele>
        <time>2023-10-12T13:32:42Z</time>
      </trkpt>
      <trkpt lat="43.57654" lon="3.32717">
        <ele>398.4</ele>
        <time>2023-10-12T13:32:44Z</time>
      </trkpt>
      <trkpt lat="43.57641" lon="3.32725">
        <ele>396.8</ele>
        <time>2023-10-12T13:32:46Z</time>
      </trkpt>
      <trkpt lat="43.57631" lon="3.32731">
        <ele>395.6</ele>
        <time>2023-10-12T13:32:48Z</time>
      </trkpt>
      <trkpt lat="43.57621" lon="3.32735">
        <ele>394.4</ele>
        <time>2023-10-12T13:32:52Z</time>
      </trkpt>
      <trkpt lat="43.57612" lon="3.32741">
        <ele>393.4</ele>
        <time>2023-10-12T13:32:56Z</time>
      </trkpt>
      <trkpt lat="43.57602" lon="3.32744">
        <ele>392.2</ele>
        <time>2023-10-12T13:32:59Z</time>
      </trkpt>
      <trkpt lat="43.57593" lon="3.32749">
        <ele>391.2</ele>
        <time>2023-10-12T13:33:03Z</time>
      </trkpt>
      <trkpt lat="43.57585" lon="3.32755">
        <ele>390.2</ele>
        <time>2023-10-12T13:33:10Z</time>
      </trkpt>
      <trkpt lat="43.57578" lon="3.32764">
        <ele>389.2</ele>
        <time>2023-10-12T13:33:13Z</time>
      </trkpt>
      <trkpt lat="43.57568" lon="3.32778">
        <ele>387.6</ele>
        <time>2023-10-12T13:33:16Z</time>
      </trkpt>
      <trkpt lat="43.57561" lon="3.32788">
        <ele>386.6</ele>
        <time>2023-10-12T13:33:18Z</time>
      </trkpt>
      <trkpt lat="43.57553" lon="3.32797">
        <ele>385.4</ele>
        <time>2023-10-12T13:33:20Z</time>
      </trkpt>
      <trkpt lat="43.57541" lon="3.32809">
        <ele>384</ele>
        <time>2023-10-12T13:33:22Z</time>
      </trkpt>
      <trkpt lat="43.57532" lon="3.32817">
        <ele>382.6</ele>
        <time>2023-10-12T13:33:24Z</time>
      </trkpt>
      <trkpt lat="43.57523" lon="3.32827">
        <ele>380.8</ele>
        <time>2023-10-12T13:33:26Z</time>
      </trkpt>
      <trkpt lat="43.57513" lon="3.32838">
        <ele>379.2</ele>
        <time>2023-10-12T13:33:28Z</time>
      </trkpt>
      <trkpt lat="43.57506" lon="3.32847">
        <ele>377.8</ele>
        <time>2023-10-12T13:33:30Z</time>
      </trkpt>
      <trkpt lat="43.57498" lon="3.32854">
        <ele>376.4</ele>
        <time>2023-10-12T13:33:32Z</time>
      </trkpt>
      <trkpt lat="43.57489" lon="3.32865">
        <ele>374.8</ele>
        <time>2023-10-12T13:33:35Z</time>
      </trkpt>
      <trkpt lat="43.57481" lon="3.32874">
        <ele>373.2</ele>
        <time>2023-10-12T13:33:37Z</time>
      </trkpt>
      <trkpt lat="43.57474" lon="3.32883">
        <ele>371.8</ele>
        <time>2023-10-12T13:33:39Z</time>
      </trkpt>
      <trkpt lat="43.57467" lon="3.32892">
        <ele>370.4</ele>
        <time>2023-10-12T13:33:42Z</time>
      </trkpt>
      <trkpt lat="43.57457" lon="3.329">
        <ele>368.8</ele>
        <time>2023-10-12T13:33:44Z</time>
      </trkpt>
      <trkpt lat="43.57448" lon="3.32906">
        <ele>367.4</ele>
        <time>2023-10-12T13:33:46Z</time>
      </trkpt>
      <trkpt lat="43.57439" lon="3.32918">
        <ele>365.6</ele>
        <time>2023-10-12T13:33:49Z</time>
      </trkpt>
      <trkpt lat="43.57433" lon="3.3293">
        <ele>364.2</ele>
        <time>2023-10-12T13:33:52Z</time>
      </trkpt>
      <trkpt lat="43.57429" lon="3.32944">
        <ele>362.6</ele>
        <time>2023-10-12T13:33:55Z</time>
      </trkpt>
      <trkpt lat="43.57424" lon="3.32955">
        <ele>361.2</ele>
        <time>2023-10-12T13:33:58Z</time>
      </trkpt>
      <trkpt lat="43.5742" lon="3.32967">
        <ele>360</ele>
        <time>2023-10-12T13:34:01Z</time>
      </trkpt>
      <trkpt lat="43.57416" lon="3.32979">
        <ele>358.4</ele>
        <time>2023-10-12T13:34:05Z</time>
      </trkpt>
      <trkpt lat="43.57413" lon="3.32993">
        <ele>356.8</ele>
        <time>2023-10-12T13:34:11Z</time>
      </trkpt>
      <trkpt lat="43.5741" lon="3.33006">
        <ele>355</ele>
        <time>2023-10-12T13:34:17Z</time>
      </trkpt>
      <trkpt lat="43.57406" lon="3.3302">
        <ele>353</ele>
        <time>2023-10-12T13:34:22Z</time>
      </trkpt>
      <trkpt lat="43.574" lon="3.3303">
        <ele>351.2</ele>
        <time>2023-10-12T13:34:27Z</time>
      </trkpt>
      <trkpt lat="43.57395" lon="3.33042">
        <ele>349.4</ele>
        <time>2023-10-12T13:34:32Z</time>
      </trkpt>
      <trkpt lat="43.57392" lon="3.33056">
        <ele>347.4</ele>
        <time>2023-10-12T13:34:38Z</time>
      </trkpt>
      <trkpt lat="43.57387" lon="3.33068">
        <ele>345.6</ele>
        <time>2023-10-12T13:34:42Z</time>
      </trkpt>
      <trkpt lat="43.57381" lon="3.33084">
        <ele>343.2</ele>
        <time>2023-10-12T13:34:45Z</time>
      </trkpt>
      <trkpt lat="43.57378" lon="3.33096">
        <ele>341.4</ele>
        <time>2023-10-12T13:34:48Z</time>
      </trkpt>
      <trkpt lat="43.57371" lon="3.33115">
        <ele>338.6</ele>
        <time>2023-10-12T13:35:10Z</time>
      </trkpt>
      <trkpt lat="43.57363" lon="3.33121">
        <ele>336.8</ele>
        <time>2023-10-12T13:35:15Z</time>
      </trkpt>
      <trkpt lat="43.57339" lon="3.33165">
        <ele>329.6</ele>
        <time>2023-10-12T13:35:40Z</time>
      </trkpt>
      <trkpt lat="43.57333" lon="3.33175">
        <ele>327.8</ele>
        <time>2023-10-12T13:35:42Z</time>
      </trkpt>
      <trkpt lat="43.57327" lon="3.33185">
        <ele>326</ele>
        <time>2023-10-12T13:35:44Z</time>
      </trkpt>
      <trkpt lat="43.5732" lon="3.33195">
        <ele>324.2</ele>
        <time>2023-10-12T13:35:46Z</time>
      </trkpt>
      <trkpt lat="43.57312" lon="3.3321">
        <ele>322.2</ele>
        <time>2023-10-12T13:35:49Z</time>
      </trkpt>
      <trkpt lat="43.57305" lon="3.33225">
        <ele>320.2</ele>
        <time>2023-10-12T13:35:51Z</time>
      </trkpt>
      <trkpt lat="43.573" lon="3.33238">
        <ele>318.6</ele>
        <time>2023-10-12T13:35:53Z</time>
      </trkpt>
      <trkpt lat="43.57295" lon="3.33256">
        <ele>316.6</ele>
        <time>2023-10-12T13:35:56Z</time>
      </trkpt>
      <trkpt lat="43.57294" lon="3.33274">
        <ele>314.4</ele>
        <time>2023-10-12T13:35:59Z</time>
      </trkpt>
      <trkpt lat="43.5729" lon="3.3329">
        <ele>312.6</ele>
        <time>2023-10-12T13:36:01Z</time>
      </trkpt>
      <trkpt lat="43.57284" lon="3.33305">
        <ele>310.6</ele>
        <time>2023-10-12T13:36:03Z</time>
      </trkpt>
      <trkpt lat="43.57274" lon="3.33318">
        <ele>308.6</ele>
        <time>2023-10-12T13:36:05Z</time>
      </trkpt>
      <trkpt lat="43.57266" lon="3.33331">
        <ele>306.6</ele>
        <time>2023-10-12T13:36:07Z</time>
      </trkpt>
      <trkpt lat="43.57257" lon="3.33345">
        <ele>304.6</ele>
        <time>2023-10-12T13:36:10Z</time>
      </trkpt>
      <trkpt lat="43.57249" lon="3.33357">
        <ele>302.8</ele>
        <time>2023-10-12T13:36:13Z</time>
      </trkpt>
      <trkpt lat="43.57241" lon="3.33364">
        <ele>301.4</ele>
        <time>2023-10-12T13:36:16Z</time>
      </trkpt>
      <trkpt lat="43.57233" lon="3.33396">
        <ele>297.6</ele>
        <time>2023-10-12T13:37:25Z</time>
      </trkpt>
      <trkpt lat="43.57232" lon="3.33409">
        <ele>297</ele>
        <time>2023-10-12T13:37:29Z</time>
      </trkpt>
      <trkpt lat="43.57231" lon="3.33423">
        <ele>297.4</ele>
        <time>2023-10-12T13:37:32Z</time>
      </trkpt>
      <trkpt lat="43.5723" lon="3.33436">
        <ele>297.6</ele>
        <time>2023-10-12T13:37:34Z</time>
      </trkpt>
      <trkpt lat="43.5723" lon="3.33451">
        <ele>298</ele>
        <time>2023-10-12T13:37:36Z</time>
      </trkpt>
      <trkpt lat="43.57229" lon="3.3347">
        <ele>298.4</ele>
        <time>2023-10-12T13:37:38Z</time>
      </trkpt>
      <trkpt lat="43.57228" lon="3.33493">
        <ele>298.8</ele>
        <time>2023-10-12T13:37:40Z</time>
      </trkpt>
      <trkpt lat="43.57227" lon="3.33515">
        <ele>299.2</ele>
        <time>2023-10-12T13:37:42Z</time>
      </trkpt>
      <trkpt lat="43.57225" lon="3.33531">
        <ele>299.6</ele>
        <time>2023-10-12T13:37:44Z</time>
      </trkpt>
      <trkpt lat="43.57224" lon="3.33545">
        <ele>299.8</ele>
        <time>2023-10-12T13:37:46Z</time>
      </trkpt>
      <trkpt lat="43.57223" lon="3.33558">
        <ele>300.2</ele>
        <time>2023-10-12T13:37:48Z</time>
      </trkpt>
      <trkpt lat="43.5722" lon="3.33576">
        <ele>300.4</ele>
        <time>2023-10-12T13:37:51Z</time>
      </trkpt>
      <trkpt lat="43.57219" lon="3.33594">
        <ele>300.8</ele>
        <time>2023-10-12T13:37:54Z</time>
      </trkpt>
      <trkpt lat="43.57224" lon="3.3361">
        <ele>301.2</ele>
        <time>2023-10-12T13:37:57Z</time>
      </trkpt>
      <trkpt lat="43.57231" lon="3.33622">
        <ele>301.4</ele>
        <time>2023-10-12T13:38:00Z</time>
      </trkpt>
      <trkpt lat="43.57238" lon="3.33633">
        <ele>301.8</ele>
        <time>2023-10-12T13:38:03Z</time>
      </trkpt>
      <trkpt lat="43.57246" lon="3.33644">
        <ele>302</ele>
        <time>2023-10-12T13:38:06Z</time>
      </trkpt>
      <trkpt lat="43.57255" lon="3.33651">
        <ele>302.4</ele>
        <time>2023-10-12T13:38:09Z</time>
      </trkpt>
      <trkpt lat="43.57267" lon="3.33654">
        <ele>302.6</ele>
        <time>2023-10-12T13:38:12Z</time>
      </trkpt>
      <trkpt lat="43.57279" lon="3.33654">
        <ele>303</ele>
        <time>2023-10-12T13:38:15Z</time>
      </trkpt>
      <trkpt lat="43.57289" lon="3.33653">
        <ele>303.2</ele>
        <time>2023-10-12T13:38:17Z</time>
      </trkpt>
      <trkpt lat="43.57299" lon="3.33647">
        <ele>303.4</ele>
        <time>2023-10-12T13:38:20Z</time>
      </trkpt>
      <trkpt lat="43.5731" lon="3.33642">
        <ele>303.8</ele>
        <time>2023-10-12T13:38:24Z</time>
      </trkpt>
      <trkpt lat="43.57322" lon="3.33639">
        <ele>304</ele>
        <time>2023-10-12T13:38:28Z</time>
      </trkpt>
      <trkpt lat="43.57333" lon="3.33634">
        <ele>304.4</ele>
        <time>2023-10-12T13:38:32Z</time>
      </trkpt>
      <trkpt lat="43.57344" lon="3.33634">
        <ele>304.6</ele>
        <time>2023-10-12T13:38:36Z</time>
      </trkpt>
      <trkpt lat="43.57355" lon="3.33633">
        <ele>304.8</ele>
        <time>2023-10-12T13:38:40Z</time>
      </trkpt>
      <trkpt lat="43.57365" lon="3.3363">
        <ele>305.2</ele>
        <time>2023-10-12T13:38:44Z</time>
      </trkpt>
      <trkpt lat="43.57375" lon="3.33626">
        <ele>305.4</ele>
        <time>2023-10-12T13:38:49Z</time>
      </trkpt>
      <trkpt lat="43.57385" lon="3.33623">
        <ele>305.6</ele>
        <time>2023-10-12T13:38:54Z</time>
      </trkpt>
      <trkpt lat="43.57394" lon="3.33616">
        <ele>305.8</ele>
        <time>2023-10-12T13:38:58Z</time>
      </trkpt>
      <trkpt lat="43.57402" lon="3.33609">
        <ele>306</ele>
        <time>2023-10-12T13:39:01Z</time>
      </trkpt>
      <trkpt lat="43.57408" lon="3.33598">
        <ele>306.4</ele>
        <time>2023-10-12T13:39:04Z</time>
      </trkpt>
      <trkpt lat="43.57414" lon="3.33587">
        <ele>306.2</ele>
        <time>2023-10-12T13:39:06Z</time>
      </trkpt>
      <trkpt lat="43.5742" lon="3.33575">
        <ele>306</ele>
        <time>2023-10-12T13:39:08Z</time>
      </trkpt>
      <trkpt lat="43.57427" lon="3.33563">
        <ele>305.8</ele>
        <time>2023-10-12T13:39:10Z</time>
      </trkpt>
      <trkpt lat="43.57434" lon="3.33551">
        <ele>305.6</ele>
        <time>2023-10-12T13:39:12Z</time>
      </trkpt>
      <trkpt lat="43.57443" lon="3.33542">
        <ele>305.4</ele>
        <time>2023-10-12T13:39:14Z</time>
      </trkpt>
      <trkpt lat="43.57451" lon="3.33535">
        <ele>305.2</ele>
        <time>2023-10-12T13:39:16Z</time>
      </trkpt>
      <trkpt lat="43.57459" lon="3.33528">
        <ele>305</ele>
        <time>2023-10-12T13:39:18Z</time>
      </trkpt>
      <trkpt lat="43.57467" lon="3.33523">
        <ele>304.8</ele>
        <time>2023-10-12T13:39:20Z</time>
      </trkpt>
      <trkpt lat="43.57477" lon="3.33517">
        <ele>304.6</ele>
        <time>2023-10-12T13:39:22Z</time>
      </trkpt>
      <trkpt lat="43.57487" lon="3.33512">
        <ele>304.4</ele>
        <time>2023-10-12T13:39:24Z</time>
      </trkpt>
      <trkpt lat="43.57497" lon="3.33508">
        <ele>304.2</ele>
        <time>2023-10-12T13:39:26Z</time>
      </trkpt>
      <trkpt lat="43.57509" lon="3.33505">
        <ele>304</ele>
        <time>2023-10-12T13:39:28Z</time>
      </trkpt>
      <trkpt lat="43.57521" lon="3.33502">
        <ele>303.8</ele>
        <time>2023-10-12T13:39:30Z</time>
      </trkpt>
      <trkpt lat="43.57534" lon="3.33497">
        <ele>303.6</ele>
        <time>2023-10-12T13:39:32Z</time>
      </trkpt>
      <trkpt lat="43.57547" lon="3.33491">
        <ele>303.2</ele>
        <time>2023-10-12T13:39:34Z</time>
      </trkpt>
      <trkpt lat="43.57559" lon="3.33482">
        <ele>303</ele>
        <time>2023-10-12T13:39:36Z</time>
      </trkpt>
      <trkpt lat="43.57571" lon="3.33472">
        <ele>303.4</ele>
        <time>2023-10-12T13:39:38Z</time>
      </trkpt>
      <trkpt lat="43.57581" lon="3.33462">
        <ele>303.8</ele>
        <time>2023-10-12T13:39:40Z</time>
      </trkpt>
      <trkpt lat="43.57589" lon="3.33452">
        <ele>304.2</ele>
        <time>2023-10-12T13:39:42Z</time>
      </trkpt>
      <trkpt lat="43.57599" lon="3.33443">
        <ele>304.4</ele>
        <time>2023-10-12T13:39:44Z</time>
      </trkpt>
      <trkpt lat="43.5761" lon="3.33438">
        <ele>304.8</ele>
        <time>2023-10-12T13:39:46Z</time>
      </trkpt>
      <trkpt lat="43.57621" lon="3.3344">
        <ele>305.2</ele>
        <time>2023-10-12T13:39:48Z</time>
      </trkpt>
      <trkpt lat="43.57631" lon="3.33448">
        <ele>305.6</ele>
        <time>2023-10-12T13:39:50Z</time>
      </trkpt>
      <trkpt lat="43.5764" lon="3.33459">
        <ele>306</ele>
        <time>2023-10-12T13:39:52Z</time>
      </trkpt>
      <trkpt lat="43.57647" lon="3.33473">
        <ele>306.4</ele>
        <time>2023-10-12T13:39:54Z</time>
      </trkpt>
      <trkpt lat="43.57651" lon="3.33486">
        <ele>306.8</ele>
        <time>2023-10-12T13:39:56Z</time>
      </trkpt>
      <trkpt lat="43.57655" lon="3.335">
        <ele>307</ele>
        <time>2023-10-12T13:39:58Z</time>
      </trkpt>
      <trkpt lat="43.5766" lon="3.3351">
        <ele>307.4</ele>
        <time>2023-10-12T13:40:00Z</time>
      </trkpt>
      <trkpt lat="43.57667" lon="3.33522">
        <ele>307.8</ele>
        <time>2023-10-12T13:40:03Z</time>
      </trkpt>
      <trkpt lat="43.57678" lon="3.33525">
        <ele>308.2</ele>
        <time>2023-10-12T13:40:07Z</time>
      </trkpt>
      <trkpt lat="43.57686" lon="3.3352">
        <ele>308.4</ele>
        <time>2023-10-12T13:40:10Z</time>
      </trkpt>
      <trkpt lat="43.57696" lon="3.33511">
        <ele>308.8</ele>
        <time>2023-10-12T13:40:14Z</time>
      </trkpt>
      <trkpt lat="43.57704" lon="3.33502">
        <ele>308.6</ele>
        <time>2023-10-12T13:40:18Z</time>
      </trkpt>
      <trkpt lat="43.57712" lon="3.3349">
        <ele>308.4</ele>
        <time>2023-10-12T13:40:22Z</time>
      </trkpt>
      <trkpt lat="43.57721" lon="3.33479">
        <ele>308.2</ele>
        <time>2023-10-12T13:40:26Z</time>
      </trkpt>
      <trkpt lat="43.57729" lon="3.33469">
        <ele>308.2</ele>
        <time>2023-10-12T13:40:29Z</time>
      </trkpt>
      <trkpt lat="43.57738" lon="3.33458">
        <ele>308</ele>
        <time>2023-10-12T13:40:32Z</time>
      </trkpt>
      <trkpt lat="43.57749" lon="3.33447">
        <ele>307.6</ele>
        <time>2023-10-12T13:40:35Z</time>
      </trkpt>
      <trkpt lat="43.57757" lon="3.33441">
        <ele>307.6</ele>
        <time>2023-10-12T13:40:37Z</time>
      </trkpt>
      <trkpt lat="43.57766" lon="3.33435">
        <ele>307.4</ele>
        <time>2023-10-12T13:40:39Z</time>
      </trkpt>
      <trkpt lat="43.57775" lon="3.3343">
        <ele>307.2</ele>
        <time>2023-10-12T13:40:41Z</time>
      </trkpt>
      <trkpt lat="43.57785" lon="3.33424">
        <ele>307</ele>
        <time>2023-10-12T13:40:43Z</time>
      </trkpt>
      <trkpt lat="43.57795" lon="3.3342">
        <ele>306.8</ele>
        <time>2023-10-12T13:40:45Z</time>
      </trkpt>
      <trkpt lat="43.57804" lon="3.33415">
        <ele>306.8</ele>
        <time>2023-10-12T13:40:47Z</time>
      </trkpt>
      <trkpt lat="43.57813" lon="3.33411">
        <ele>306.6</ele>
        <time>2023-10-12T13:40:49Z</time>
      </trkpt>
      <trkpt lat="43.57822" lon="3.33406">
        <ele>306.4</ele>
        <time>2023-10-12T13:40:51Z</time>
      </trkpt>
      <trkpt lat="43.57831" lon="3.33399">
        <ele>306.2</ele>
        <time>2023-10-12T13:40:53Z</time>
      </trkpt>
      <trkpt lat="43.57839" lon="3.33391">
        <ele>306</ele>
        <time>2023-10-12T13:40:55Z</time>
      </trkpt>
      <trkpt lat="43.57848" lon="3.33383">
        <ele>305.8</ele>
        <time>2023-10-12T13:40:57Z</time>
      </trkpt>
      <trkpt lat="43.57857" lon="3.33375">
        <ele>306.4</ele>
        <time>2023-10-12T13:40:59Z</time>
      </trkpt>
      <trkpt lat="43.57864" lon="3.33365">
        <ele>306.8</ele>
        <time>2023-10-12T13:41:01Z</time>
      </trkpt>
      <trkpt lat="43.57869" lon="3.33354">
        <ele>307.2</ele>
        <time>2023-10-12T13:41:03Z</time>
      </trkpt>
      <trkpt lat="43.57873" lon="3.33342">
        <ele>307.6</ele>
        <time>2023-10-12T13:41:05Z</time>
      </trkpt>
      <trkpt lat="43.57877" lon="3.33328">
        <ele>308.2</ele>
        <time>2023-10-12T13:41:07Z</time>
      </trkpt>
      <trkpt lat="43.57881" lon="3.33315">
        <ele>308.6</ele>
        <time>2023-10-12T13:41:09Z</time>
      </trkpt>
      <trkpt lat="43.57884" lon="3.33302">
        <ele>309</ele>
        <time>2023-10-12T13:41:11Z</time>
      </trkpt>
      <trkpt lat="43.5789" lon="3.33289">
        <ele>309.6</ele>
        <time>2023-10-12T13:41:13Z</time>
      </trkpt>
      <trkpt lat="43.57895" lon="3.33276">
        <ele>310</ele>
        <time>2023-10-12T13:41:15Z</time>
      </trkpt>
      <trkpt lat="43.57901" lon="3.33263">
        <ele>310.6</ele>
        <time>2023-10-12T13:41:17Z</time>
      </trkpt>
      <trkpt lat="43.57908" lon="3.33251">
        <ele>311</ele>
        <time>2023-10-12T13:41:19Z</time>
      </trkpt>
      <trkpt lat="43.57916" lon="3.33242">
        <ele>311.6</ele>
        <time>2023-10-12T13:41:21Z</time>
      </trkpt>
      <trkpt lat="43.57926" lon="3.33243">
        <ele>312</ele>
        <time>2023-10-12T13:41:24Z</time>
      </trkpt>
      <trkpt lat="43.57929" lon="3.33256">
        <ele>312.4</ele>
        <time>2023-10-12T13:41:26Z</time>
      </trkpt>
      <trkpt lat="43.57929" lon="3.33269">
        <ele>312.8</ele>
        <time>2023-10-12T13:41:28Z</time>
      </trkpt>
      <trkpt lat="43.57928" lon="3.33287">
        <ele>313.4</ele>
        <time>2023-10-12T13:41:31Z</time>
      </trkpt>
      <trkpt lat="43.57928" lon="3.33304">
        <ele>314</ele>
        <time>2023-10-12T13:41:34Z</time>
      </trkpt>
      <trkpt lat="43.57927" lon="3.33321">
        <ele>314.4</ele>
        <time>2023-10-12T13:41:37Z</time>
      </trkpt>
      <trkpt lat="43.57927" lon="3.33339">
        <ele>314.6</ele>
        <time>2023-10-12T13:41:40Z</time>
      </trkpt>
      <trkpt lat="43.57929" lon="3.33354">
        <ele>314.8</ele>
        <time>2023-10-12T13:41:43Z</time>
      </trkpt>
      <trkpt lat="43.57933" lon="3.33365">
        <ele>315.2</ele>
        <time>2023-10-12T13:41:46Z</time>
      </trkpt>
      <trkpt lat="43.57939" lon="3.33377">
        <ele>315.4</ele>
        <time>2023-10-12T13:41:51Z</time>
      </trkpt>
      <trkpt lat="43.57945" lon="3.33391">
        <ele>315.6</ele>
        <time>2023-10-12T13:41:56Z</time>
      </trkpt>
      <trkpt lat="43.57942" lon="3.33402">
        <ele>315.8</ele>
        <time>2023-10-12T13:42:00Z</time>
      </trkpt>
      <trkpt lat="43.57934" lon="3.33413">
        <ele>316</ele>
        <time>2023-10-12T13:42:04Z</time>
      </trkpt>
      <trkpt lat="43.57927" lon="3.33421">
        <ele>316.4</ele>
        <time>2023-10-12T13:42:08Z</time>
      </trkpt>
      <trkpt lat="43.57918" lon="3.3343">
        <ele>316.6</ele>
        <time>2023-10-12T13:42:12Z</time>
      </trkpt>
      <trkpt lat="43.5791" lon="3.33439">
        <ele>316.8</ele>
        <time>2023-10-12T13:42:16Z</time>
      </trkpt>
      <trkpt lat="43.57903" lon="3.33449">
        <ele>317</ele>
        <time>2023-10-12T13:42:20Z</time>
      </trkpt>
      <trkpt lat="43.57895" lon="3.33461">
        <ele>317.4</ele>
        <time>2023-10-12T13:42:24Z</time>
      </trkpt>
      <trkpt lat="43.5789" lon="3.33471">
        <ele>317.6</ele>
        <time>2023-10-12T13:42:27Z</time>
      </trkpt>
      <trkpt lat="43.57885" lon="3.33482">
        <ele>317.8</ele>
        <time>2023-10-12T13:42:30Z</time>
      </trkpt>
      <trkpt lat="43.5788" lon="3.33497">
        <ele>318</ele>
        <time>2023-10-12T13:42:34Z</time>
      </trkpt>
      <trkpt lat="43.57877" lon="3.33511">
        <ele>318.4</ele>
        <time>2023-10-12T13:42:38Z</time>
      </trkpt>
      <trkpt lat="43.57876" lon="3.33525">
        <ele>318.4</ele>
        <time>2023-10-12T13:42:42Z</time>
      </trkpt>
      <trkpt lat="43.57874" lon="3.33541">
        <ele>318.6</ele>
        <time>2023-10-12T13:42:46Z</time>
      </trkpt>
      <trkpt lat="43.5787" lon="3.33555">
        <ele>318.8</ele>
        <time>2023-10-12T13:42:50Z</time>
      </trkpt>
      <trkpt lat="43.57861" lon="3.33567">
        <ele>318.8</ele>
        <time>2023-10-12T13:42:54Z</time>
      </trkpt>
      <trkpt lat="43.57854" lon="3.33575">
        <ele>319</ele>
        <time>2023-10-12T13:42:57Z</time>
      </trkpt>
      <trkpt lat="43.57847" lon="3.33585">
        <ele>319</ele>
        <time>2023-10-12T13:43:00Z</time>
      </trkpt>
      <trkpt lat="43.57841" lon="3.33596">
        <ele>319.2</ele>
        <time>2023-10-12T13:43:03Z</time>
      </trkpt>
      <trkpt lat="43.57837" lon="3.33608">
        <ele>319.2</ele>
        <time>2023-10-12T13:43:06Z</time>
      </trkpt>
      <trkpt lat="43.57833" lon="3.3362">
        <ele>319.4</ele>
        <time>2023-10-12T13:43:09Z</time>
      </trkpt>
      <trkpt lat="43.5783" lon="3.33634">
        <ele>319.4</ele>
        <time>2023-10-12T13:43:12Z</time>
      </trkpt>
      <trkpt lat="43.57827" lon="3.33647">
        <ele>319.6</ele>
        <time>2023-10-12T13:43:15Z</time>
      </trkpt>
      <trkpt lat="43.57823" lon="3.3366">
        <ele>319.8</ele>
        <time>2023-10-12T13:43:18Z</time>
      </trkpt>
      <trkpt lat="43.5782" lon="3.33672">
        <ele>319.8</ele>
        <time>2023-10-12T13:43:21Z</time>
      </trkpt>
      <trkpt lat="43.57815" lon="3.33685">
        <ele>320</ele>
        <time>2023-10-12T13:43:24Z</time>
      </trkpt>
      <trkpt lat="43.5781" lon="3.33698">
        <ele>320</ele>
        <time>2023-10-12T13:43:27Z</time>
      </trkpt>
      <trkpt lat="43.57805" lon="3.33712">
        <ele>320.2</ele>
        <time>2023-10-12T13:43:30Z</time>
      </trkpt>
      <trkpt lat="43.57799" lon="3.33726">
        <ele>320.2</ele>
        <time>2023-10-12T13:43:33Z</time>
      </trkpt>
      <trkpt lat="43.57792" lon="3.3374">
        <ele>320.4</ele>
        <time>2023-10-12T13:43:36Z</time>
      </trkpt>
      <trkpt lat="43.57786" lon="3.33756">
        <ele>320.6</ele>
        <time>2023-10-12T13:43:39Z</time>
      </trkpt>
      <trkpt lat="43.57781" lon="3.33771">
        <ele>320.8</ele>
        <time>2023-10-12T13:43:42Z</time>
      </trkpt>
      <trkpt lat="43.57777" lon="3.33787">
        <ele>320.8</ele>
        <time>2023-10-12T13:43:45Z</time>
      </trkpt>
      <trkpt lat="43.57774" lon="3.33803">
        <ele>321</ele>
        <time>2023-10-12T13:43:48Z</time>
      </trkpt>
      <trkpt lat="43.57772" lon="3.33819">
        <ele>321.2</ele>
        <time>2023-10-12T13:43:51Z</time>
      </trkpt>
      <trkpt lat="43.5777" lon="3.33835">
        <ele>321.2</ele>
        <time>2023-10-12T13:43:54Z</time>
      </trkpt>
      <trkpt lat="43.57767" lon="3.33852">
        <ele>321.4</ele>
        <time>2023-10-12T13:43:57Z</time>
      </trkpt>
      <trkpt lat="43.57764" lon="3.33867">
        <ele>321.6</ele>
        <time>2023-10-12T13:44:00Z</time>
      </trkpt>
      <trkpt lat="43.57761" lon="3.33884">
        <ele>321.6</ele>
        <time>2023-10-12T13:44:03Z</time>
      </trkpt>
      <trkpt lat="43.57761" lon="3.33901">
        <ele>321.8</ele>
        <time>2023-10-12T13:44:06Z</time>
      </trkpt>
      <trkpt lat="43.57765" lon="3.33914">
        <ele>322</ele>
        <time>2023-10-12T13:44:09Z</time>
      </trkpt>
      <trkpt lat="43.57772" lon="3.33924">
        <ele>322</ele>
        <time>2023-10-12T13:44:13Z</time>
      </trkpt>
      <trkpt lat="43.57797" lon="3.33929">
        <ele>322.4</ele>
        <time>2023-10-12T13:44:34Z</time>
      </trkpt>
      <trkpt lat="43.57809" lon="3.33927">
        <ele>322.6</ele>
        <time>2023-10-12T13:44:38Z</time>
      </trkpt>
      <trkpt lat="43.5782" lon="3.33921">
        <ele>323</ele>
        <time>2023-10-12T13:44:42Z</time>
      </trkpt>
      <trkpt lat="43.57828" lon="3.33916">
        <ele>323.2</ele>
        <time>2023-10-12T13:44:45Z</time>
      </trkpt>
      <trkpt lat="43.57837" lon="3.3391">
        <ele>323.6</ele>
        <time>2023-10-12T13:44:48Z</time>
      </trkpt>
      <trkpt lat="43.57846" lon="3.33904">
        <ele>323.8</ele>
        <time>2023-10-12T13:44:51Z</time>
      </trkpt>
      <trkpt lat="43.57856" lon="3.33898">
        <ele>324.2</ele>
        <time>2023-10-12T13:44:54Z</time>
      </trkpt>
      <trkpt lat="43.57867" lon="3.33893">
        <ele>324.4</ele>
        <time>2023-10-12T13:44:57Z</time>
      </trkpt>
      <trkpt lat="43.57878" lon="3.33892">
        <ele>324.8</ele>
        <time>2023-10-12T13:45:00Z</time>
      </trkpt>
      <trkpt lat="43.57888" lon="3.33892">
        <ele>325</ele>
        <time>2023-10-12T13:45:03Z</time>
      </trkpt>
      <trkpt lat="43.57899" lon="3.33894">
        <ele>325.4</ele>
        <time>2023-10-12T13:45:06Z</time>
      </trkpt>
      <trkpt lat="43.5791" lon="3.33895">
        <ele>325.8</ele>
        <time>2023-10-12T13:45:09Z</time>
      </trkpt>
      <trkpt lat="43.5792" lon="3.33898">
        <ele>326</ele>
        <time>2023-10-12T13:45:12Z</time>
      </trkpt>
      <trkpt lat="43.57931" lon="3.33902">
        <ele>326.4</ele>
        <time>2023-10-12T13:45:15Z</time>
      </trkpt>
      <trkpt lat="43.57941" lon="3.33906">
        <ele>326.6</ele>
        <time>2023-10-12T13:45:18Z</time>
      </trkpt>
      <trkpt lat="43.57951" lon="3.3391">
        <ele>327</ele>
        <time>2023-10-12T13:45:21Z</time>
      </trkpt>
      <trkpt lat="43.57961" lon="3.33914">
        <ele>327.2</ele>
        <time>2023-10-12T13:45:24Z</time>
      </trkpt>
      <trkpt lat="43.5797" lon="3.33919">
        <ele>327.6</ele>
        <time>2023-10-12T13:45:27Z</time>
      </trkpt>
      <trkpt lat="43.57979" lon="3.33929">
        <ele>327.8</ele>
        <time>2023-10-12T13:45:30Z</time>
      </trkpt>
      <trkpt lat="43.57982" lon="3.33943">
        <ele>327.8</ele>
        <time>2023-10-12T13:45:33Z</time>
      </trkpt>
      <trkpt lat="43.5798" lon="3.33957">
        <ele>328</ele>
        <time>2023-10-12T13:45:36Z</time>
      </trkpt>
      <trkpt lat="43.57972" lon="3.3397">
        <ele>328.2</ele>
        <time>2023-10-12T13:45:39Z</time>
      </trkpt>
      <trkpt lat="43.57965" lon="3.3398">
        <ele>328.2</ele>
        <time>2023-10-12T13:45:42Z</time>
      </trkpt>
      <trkpt lat="43.57957" lon="3.33992">
        <ele>328.4</ele>
        <time>2023-10-12T13:45:45Z</time>
      </trkpt>
      <trkpt lat="43.5795" lon="3.34005">
        <ele>328.6</ele>
        <time>2023-10-12T13:45:48Z</time>
      </trkpt>
      <trkpt lat="43.57945" lon="3.34019">
        <ele>328.8</ele>
        <time>2023-10-12T13:45:51Z</time>
      </trkpt>
      <trkpt lat="43.57942" lon="3.34035">
        <ele>328.8</ele>
        <time>2023-10-12T13:45:54Z</time>
      </trkpt>
      <trkpt lat="43.57942" lon="3.34051">
        <ele>329</ele>
        <time>2023-10-12T13:45:57Z</time>
      </trkpt>
      <trkpt lat="43.57943" lon="3.34065">
        <ele>329.2</ele>
        <time>2023-10-12T13:46:00Z</time>
      </trkpt>
      <trkpt lat="43.57945" lon="3.34079">
        <ele>329.2</ele>
        <time>2023-10-12T13:46:03Z</time>
      </trkpt>
      <trkpt lat="43.57947" lon="3.34096">
        <ele>329.4</ele>
        <time>2023-10-12T13:46:06Z</time>
      </trkpt>
      <trkpt lat="43.57951" lon="3.34111">
        <ele>329.6</ele>
        <time>2023-10-12T13:46:09Z</time>
      </trkpt>
      <trkpt lat="43.57955" lon="3.34125">
        <ele>329.8</ele>
        <time>2023-10-12T13:46:12Z</time>
      </trkpt>
      <trkpt lat="43.5796" lon="3.34139">
        <ele>329.8</ele>
        <time>2023-10-12T13:46:15Z</time>
      </trkpt>
      <trkpt lat="43.57965" lon="3.34152">
        <ele>330.2</ele>
        <time>2023-10-12T13:46:18Z</time>
      </trkpt>
      <trkpt lat="43.57969" lon="3.34165">
        <ele>330.6</ele>
        <time>2023-10-12T13:46:21Z</time>
      </trkpt>
      <trkpt lat="43.57974" lon="3.34178">
        <ele>331</ele>
        <time>2023-10-12T13:46:24Z</time>
      </trkpt>
      <trkpt lat="43.57978" lon="3.34192">
        <ele>331.4</ele>
        <time>2023-10-12T13:46:27Z</time>
      </trkpt>
      <trkpt lat="43.57981" lon="3.34206">
        <ele>332</ele>
        <time>2023-10-12T13:46:30Z</time>
      </trkpt>
      <trkpt lat="43.57983" lon="3.3422">
        <ele>332.4</ele>
        <time>2023-10-12T13:46:33Z</time>
      </trkpt>
      <trkpt lat="43.57985" lon="3.34234">
        <ele>332.8</ele>
        <time>2023-10-12T13:46:36Z</time>
      </trkpt>
      <trkpt lat="43.57987" lon="3.34246">
        <ele>333.2</ele>
        <time>2023-10-12T13:46:39Z</time>
      </trkpt>
      <trkpt lat="43.57988" lon="3.3426">
        <ele>333.6</ele>
        <time>2023-10-12T13:46:43Z</time>
      </trkpt>
      <trkpt lat="43.5799" lon="3.34274">
        <ele>334</ele>
        <time>2023-10-12T13:46:47Z</time>
      </trkpt>
      <trkpt lat="43.57999" lon="3.3428">
        <ele>334.4</ele>
        <time>2023-10-12T13:46:52Z</time>
      </trkpt>
      <trkpt lat="43.58009" lon="3.34271">
        <ele>334.8</ele>
        <time>2023-10-12T13:46:56Z</time>
      </trkpt>
      <trkpt lat="43.58019" lon="3.34262">
        <ele>335.2</ele>
        <time>2023-10-12T13:46:59Z</time>
      </trkpt>
      <trkpt lat="43.58028" lon="3.34253">
        <ele>335.8</ele>
        <time>2023-10-12T13:47:02Z</time>
      </trkpt>
      <trkpt lat="43.58039" lon="3.34246">
        <ele>336.2</ele>
        <time>2023-10-12T13:47:05Z</time>
      </trkpt>
      <trkpt lat="43.5805" lon="3.3424">
        <ele>336.8</ele>
        <time>2023-10-12T13:47:08Z</time>
      </trkpt>
      <trkpt lat="43.58061" lon="3.34236">
        <ele>337.2</ele>
        <time>2023-10-12T13:47:11Z</time>
      </trkpt>
      <trkpt lat="43.5807" lon="3.34233">
        <ele>338</ele>
        <time>2023-10-12T13:47:14Z</time>
      </trkpt>
      <trkpt lat="43.58079" lon="3.34231">
        <ele>338.8</ele>
        <time>2023-10-12T13:47:17Z</time>
      </trkpt>
      <trkpt lat="43.58089" lon="3.34229">
        <ele>339.8</ele>
        <time>2023-10-12T13:47:20Z</time>
      </trkpt>
      <trkpt lat="43.58099" lon="3.3423">
        <ele>340.6</ele>
        <time>2023-10-12T13:47:23Z</time>
      </trkpt>
      <trkpt lat="43.58108" lon="3.34234">
        <ele>341.4</ele>
        <time>2023-10-12T13:47:26Z</time>
      </trkpt>
      <trkpt lat="43.58115" lon="3.34243">
        <ele>342.2</ele>
        <time>2023-10-12T13:47:29Z</time>
      </trkpt>
      <trkpt lat="43.58118" lon="3.34255">
        <ele>343</ele>
        <time>2023-10-12T13:47:32Z</time>
      </trkpt>
      <trkpt lat="43.58119" lon="3.34269">
        <ele>343.8</ele>
        <time>2023-10-12T13:47:35Z</time>
      </trkpt>
      <trkpt lat="43.58121" lon="3.34286">
        <ele>345</ele>
        <time>2023-10-12T13:47:38Z</time>
      </trkpt>
      <trkpt lat="43.58124" lon="3.34302">
        <ele>346</ele>
        <time>2023-10-12T13:47:41Z</time>
      </trkpt>
      <trkpt lat="43.58127" lon="3.34316">
        <ele>347</ele>
        <time>2023-10-12T13:47:44Z</time>
      </trkpt>
      <trkpt lat="43.58131" lon="3.3433">
        <ele>347.8</ele>
        <time>2023-10-12T13:47:47Z</time>
      </trkpt>
      <trkpt lat="43.58135" lon="3.34343">
        <ele>348.8</ele>
        <time>2023-10-12T13:47:50Z</time>
      </trkpt>
      <trkpt lat="43.58139" lon="3.34355">
        <ele>349.6</ele>
        <time>2023-10-12T13:47:53Z</time>
      </trkpt>
      <trkpt lat="43.58144" lon="3.34367">
        <ele>350.4</ele>
        <time>2023-10-12T13:47:56Z</time>
      </trkpt>
      <trkpt lat="43.5815" lon="3.34378">
        <ele>351.4</ele>
        <time>2023-10-12T13:47:59Z</time>
      </trkpt>
      <trkpt lat="43.58156" lon="3.34389">
        <ele>352.2</ele>
        <time>2023-10-12T13:48:02Z</time>
      </trkpt>
      <trkpt lat="43.58163" lon="3.34398">
        <ele>352.8</ele>
        <time>2023-10-12T13:48:05Z</time>
      </trkpt>
      <trkpt lat="43.5817" lon="3.34408">
        <ele>353.2</ele>
        <time>2023-10-12T13:48:08Z</time>
      </trkpt>
      <trkpt lat="43.58178" lon="3.34417">
        <ele>353.6</ele>
        <time>2023-10-12T13:48:11Z</time>
      </trkpt>
      <trkpt lat="43.58186" lon="3.34427">
        <ele>353.8</ele>
        <time>2023-10-12T13:48:14Z</time>
      </trkpt>
      <trkpt lat="43.58194" lon="3.34438">
        <ele>354.2</ele>
        <time>2023-10-12T13:48:17Z</time>
      </trkpt>
      <trkpt lat="43.58202" lon="3.34447">
        <ele>354.6</ele>
        <time>2023-10-12T13:48:20Z</time>
      </trkpt>
      <trkpt lat="43.58211" lon="3.34456">
        <ele>355</ele>
        <time>2023-10-12T13:48:23Z</time>
      </trkpt>
      <trkpt lat="43.58221" lon="3.3446">
        <ele>355.4</ele>
        <time>2023-10-12T13:48:26Z</time>
      </trkpt>
      <trkpt lat="43.58232" lon="3.34462">
        <ele>355.6</ele>
        <time>2023-10-12T13:48:29Z</time>
      </trkpt>
      <trkpt lat="43.58244" lon="3.34463">
        <ele>356</ele>
        <time>2023-10-12T13:48:32Z</time>
      </trkpt>
      <trkpt lat="43.58255" lon="3.34466">
        <ele>313.9</ele>
      </trkpt>
      <trkpt lat="43.58257" lon="3.3447">
        <ele>313.4</ele>
      </trkpt>
      <trkpt lat="43.58259" lon="3.34476">
        <ele>358</ele>
        <time>2023-10-12T13:50:25Z</time>
      </trkpt>
      <trkpt lat="43.58264" lon="3.34488">
        <ele>358.2</ele>
        <time>2023-10-12T13:50:31Z</time>
      </trkpt>
      <trkpt lat="43.58269" lon="3.34502">
        <ele>358.6</ele>
        <time>2023-10-12T13:50:36Z</time>
      </trkpt>
      <trkpt lat="43.58274" lon="3.34514">
        <ele>358.2</ele>
        <time>2023-10-12T13:50:41Z</time>
      </trkpt>
      <trkpt lat="43.58281" lon="3.34523">
        <ele>357.4</ele>
        <time>2023-10-12T13:50:49Z</time>
      </trkpt>
      <trkpt lat="43.58292" lon="3.34525">
        <ele>356.2</ele>
        <time>2023-10-12T13:50:55Z</time>
      </trkpt>
      <trkpt lat="43.58303" lon="3.34519">
        <ele>355.2</ele>
        <time>2023-10-12T13:50:58Z</time>
      </trkpt>
      <trkpt lat="43.58311" lon="3.34515">
        <ele>354.4</ele>
        <time>2023-10-12T13:51:02Z</time>
      </trkpt>
      <trkpt lat="43.5832" lon="3.34525">
        <ele>353.4</ele>
        <time>2023-10-12T13:51:06Z</time>
      </trkpt>
      <trkpt lat="43.5833" lon="3.3452">
        <ele>352.4</ele>
        <time>2023-10-12T13:51:09Z</time>
      </trkpt>
      <trkpt lat="43.58338" lon="3.34511">
        <ele>351.6</ele>
        <time>2023-10-12T13:51:12Z</time>
      </trkpt>
      <trkpt lat="43.58347" lon="3.34504">
        <ele>350.6</ele>
        <time>2023-10-12T13:51:16Z</time>
      </trkpt>
      <trkpt lat="43.58354" lon="3.34516">
        <ele>349.6</ele>
        <time>2023-10-12T13:51:21Z</time>
      </trkpt>
      <trkpt lat="43.58356" lon="3.34533">
        <ele>348.6</ele>
        <time>2023-10-12T13:51:24Z</time>
      </trkpt>
      <trkpt lat="43.58359" lon="3.3455">
        <ele>347.4</ele>
        <time>2023-10-12T13:51:27Z</time>
      </trkpt>
      <trkpt lat="43.58358" lon="3.34562">
        <ele>346.6</ele>
        <time>2023-10-12T13:51:29Z</time>
      </trkpt>
      <trkpt lat="43.58359" lon="3.34579">
        <ele>345.4</ele>
        <time>2023-10-12T13:51:32Z</time>
      </trkpt>
      <trkpt lat="43.5836" lon="3.34596">
        <ele>344.4</ele>
        <time>2023-10-12T13:51:36Z</time>
      </trkpt>
      <trkpt lat="43.58359" lon="3.34612">
        <ele>343.4</ele>
        <time>2023-10-12T13:51:39Z</time>
      </trkpt>
      <trkpt lat="43.58359" lon="3.34625">
        <ele>342.4</ele>
        <time>2023-10-12T13:51:41Z</time>
      </trkpt>
      <trkpt lat="43.58357" lon="3.34641">
        <ele>341.6</ele>
        <time>2023-10-12T13:51:44Z</time>
      </trkpt>
      <trkpt lat="43.58355" lon="3.34658">
        <ele>340.6</ele>
        <time>2023-10-12T13:51:47Z</time>
      </trkpt>
      <trkpt lat="43.58355" lon="3.34672">
        <ele>339.8</ele>
        <time>2023-10-12T13:51:49Z</time>
      </trkpt>
      <trkpt lat="43.58355" lon="3.34692">
        <ele>338.8</ele>
        <time>2023-10-12T13:51:52Z</time>
      </trkpt>
      <trkpt lat="43.58354" lon="3.34708">
        <ele>338</ele>
        <time>2023-10-12T13:51:55Z</time>
      </trkpt>
      <trkpt lat="43.58357" lon="3.34723">
        <ele>337</ele>
        <time>2023-10-12T13:51:58Z</time>
      </trkpt>
      <trkpt lat="43.58361" lon="3.3474">
        <ele>336</ele>
        <time>2023-10-12T13:52:02Z</time>
      </trkpt>
      <trkpt lat="43.58369" lon="3.34755">
        <ele>335</ele>
        <time>2023-10-12T13:52:05Z</time>
      </trkpt>
      <trkpt lat="43.58375" lon="3.34765">
        <ele>334.4</ele>
        <time>2023-10-12T13:52:08Z</time>
      </trkpt>
      <trkpt lat="43.58384" lon="3.34783">
        <ele>333.2</ele>
        <time>2023-10-12T13:52:11Z</time>
      </trkpt>
      <trkpt lat="43.58389" lon="3.34797">
        <ele>332.2</ele>
        <time>2023-10-12T13:52:13Z</time>
      </trkpt>
      <trkpt lat="43.58393" lon="3.34812">
        <ele>331.4</ele>
        <time>2023-10-12T13:52:15Z</time>
      </trkpt>
      <trkpt lat="43.58394" lon="3.34828">
        <ele>330.4</ele>
        <time>2023-10-12T13:52:17Z</time>
      </trkpt>
      <trkpt lat="43.58395" lon="3.34844">
        <ele>329.6</ele>
        <time>2023-10-12T13:52:19Z</time>
      </trkpt>
      <trkpt lat="43.58393" lon="3.3486">
        <ele>328.6</ele>
        <time>2023-10-12T13:52:21Z</time>
      </trkpt>
      <trkpt lat="43.58391" lon="3.34873">
        <ele>327.2</ele>
        <time>2023-10-12T13:52:23Z</time>
      </trkpt>
      <trkpt lat="43.58389" lon="3.34885">
        <ele>326</ele>
        <time>2023-10-12T13:52:25Z</time>
      </trkpt>
      <trkpt lat="43.58384" lon="3.34903">
        <ele>324.2</ele>
        <time>2023-10-12T13:52:28Z</time>
      </trkpt>
      <trkpt lat="43.5838" lon="3.34918">
        <ele>322.6</ele>
        <time>2023-10-12T13:52:30Z</time>
      </trkpt>
      <trkpt lat="43.58373" lon="3.34935">
        <ele>320.6</ele>
        <time>2023-10-12T13:52:32Z</time>
      </trkpt>
      <trkpt lat="43.58366" lon="3.34948">
        <ele>319</ele>
        <time>2023-10-12T13:52:34Z</time>
      </trkpt>
      <trkpt lat="43.58359" lon="3.34961">
        <ele>317.4</ele>
        <time>2023-10-12T13:52:36Z</time>
      </trkpt>
      <trkpt lat="43.58352" lon="3.34973">
        <ele>315.8</ele>
        <time>2023-10-12T13:52:38Z</time>
      </trkpt>
      <trkpt lat="43.58345" lon="3.34987">
        <ele>314.2</ele>
        <time>2023-10-12T13:52:41Z</time>
      </trkpt>
      <trkpt lat="43.58335" lon="3.34999">
        <ele>312.4</ele>
        <time>2023-10-12T13:52:44Z</time>
      </trkpt>
      <trkpt lat="43.58327" lon="3.35008">
        <ele>311</ele>
        <time>2023-10-12T13:52:46Z</time>
      </trkpt>
      <trkpt lat="43.58321" lon="3.35017">
        <ele>309.6</ele>
        <time>2023-10-12T13:52:48Z</time>
      </trkpt>
      <trkpt lat="43.58312" lon="3.35023">
        <ele>308.4</ele>
        <time>2023-10-12T13:52:50Z</time>
      </trkpt>
      <trkpt lat="43.58308" lon="3.35041">
        <ele>306.6</ele>
        <time>2023-10-12T13:52:54Z</time>
      </trkpt>
      <trkpt lat="43.58307" lon="3.35055">
        <ele>305.2</ele>
        <time>2023-10-12T13:52:56Z</time>
      </trkpt>
      <trkpt lat="43.58305" lon="3.35073">
        <ele>303</ele>
        <time>2023-10-12T13:52:59Z</time>
      </trkpt>
      <trkpt lat="43.58299" lon="3.35088">
        <ele>301</ele>
        <time>2023-10-12T13:53:02Z</time>
      </trkpt>
      <trkpt lat="43.58306" lon="3.35101">
        <ele>299</ele>
        <time>2023-10-12T13:53:05Z</time>
      </trkpt>
      <trkpt lat="43.5831" lon="3.35115">
        <ele>297.2</ele>
        <time>2023-10-12T13:53:07Z</time>
      </trkpt>
      <trkpt lat="43.58314" lon="3.35131">
        <ele>295.2</ele>
        <time>2023-10-12T13:53:10Z</time>
      </trkpt>
      <trkpt lat="43.58315" lon="3.35148">
        <ele>293.2</ele>
        <time>2023-10-12T13:53:13Z</time>
      </trkpt>
      <trkpt lat="43.5832" lon="3.35163">
        <ele>291.2</ele>
        <time>2023-10-12T13:53:16Z</time>
      </trkpt>
      <trkpt lat="43.58321" lon="3.35179">
        <ele>289.2</ele>
        <time>2023-10-12T13:53:19Z</time>
      </trkpt>
      <trkpt lat="43.5832" lon="3.35192">
        <ele>287.6</ele>
        <time>2023-10-12T13:53:22Z</time>
      </trkpt>
      <trkpt lat="43.58329" lon="3.35201">
        <ele>285.8</ele>
        <time>2023-10-12T13:53:27Z</time>
      </trkpt>
      <trkpt lat="43.58335" lon="3.35215">
        <ele>283.6</ele>
        <time>2023-10-12T13:53:30Z</time>
      </trkpt>
      <trkpt lat="43.58335" lon="3.35231">
        <ele>281.8</ele>
        <time>2023-10-12T13:53:33Z</time>
      </trkpt>
      <trkpt lat="43.58336" lon="3.35245">
        <ele>280.2</ele>
        <time>2023-10-12T13:53:36Z</time>
      </trkpt>
      <trkpt lat="43.58337" lon="3.35257">
        <ele>278.6</ele>
        <time>2023-10-12T13:53:39Z</time>
      </trkpt>
      <trkpt lat="43.58331" lon="3.35271">
        <ele>276.6</ele>
        <time>2023-10-12T13:53:42Z</time>
      </trkpt>
      <trkpt lat="43.58333" lon="3.35286">
        <ele>274.8</ele>
        <time>2023-10-12T13:53:45Z</time>
      </trkpt>
      <trkpt lat="43.58337" lon="3.35303">
        <ele>273.2</ele>
        <time>2023-10-12T13:53:47Z</time>
      </trkpt>
      <trkpt lat="43.58334" lon="3.35334">
        <ele>271.2</ele>
        <time>2023-10-12T13:54:25Z</time>
      </trkpt>
      <trkpt lat="43.58331" lon="3.35347">
        <ele>270.4</ele>
        <time>2023-10-12T13:54:28Z</time>
      </trkpt>
      <trkpt lat="43.58331" lon="3.35363">
        <ele>269.2</ele>
        <time>2023-10-12T13:54:31Z</time>
      </trkpt>
      <trkpt lat="43.5833" lon="3.35377">
        <ele>268.4</ele>
        <time>2023-10-12T13:54:33Z</time>
      </trkpt>
      <trkpt lat="43.58329" lon="3.35389">
        <ele>267.6</ele>
        <time>2023-10-12T13:54:35Z</time>
      </trkpt>
      <trkpt lat="43.58328" lon="3.35404">
        <ele>266.6</ele>
        <time>2023-10-12T13:54:37Z</time>
      </trkpt>
      <trkpt lat="43.58329" lon="3.35421">
        <ele>265.4</ele>
        <time>2023-10-12T13:54:39Z</time>
      </trkpt>
      <trkpt lat="43.58329" lon="3.35435">
        <ele>264.4</ele>
        <time>2023-10-12T13:54:41Z</time>
      </trkpt>
      <trkpt lat="43.58329" lon="3.35452">
        <ele>263.4</ele>
        <time>2023-10-12T13:54:43Z</time>
      </trkpt>
      <trkpt lat="43.58328" lon="3.35471">
        <ele>262.2</ele>
        <time>2023-10-12T13:54:45Z</time>
      </trkpt>
      <trkpt lat="43.58327" lon="3.35491">
        <ele>260.8</ele>
        <time>2023-10-12T13:54:47Z</time>
      </trkpt>
      <trkpt lat="43.58325" lon="3.35507">
        <ele>259.6</ele>
        <time>2023-10-12T13:54:49Z</time>
      </trkpt>
      <trkpt lat="43.58323" lon="3.35525">
        <ele>258.6</ele>
        <time>2023-10-12T13:54:51Z</time>
      </trkpt>
      <trkpt lat="43.58319" lon="3.35544">
        <ele>257.2</ele>
        <time>2023-10-12T13:54:53Z</time>
      </trkpt>
      <trkpt lat="43.58315" lon="3.35563">
        <ele>255.8</ele>
        <time>2023-10-12T13:54:55Z</time>
      </trkpt>
      <trkpt lat="43.58311" lon="3.35584">
        <ele>254.4</ele>
        <time>2023-10-12T13:54:57Z</time>
      </trkpt>
      <trkpt lat="43.58304" lon="3.35603">
        <ele>253</ele>
        <time>2023-10-12T13:54:59Z</time>
      </trkpt>
      <trkpt lat="43.58295" lon="3.35617">
        <ele>251.6</ele>
        <time>2023-10-12T13:55:01Z</time>
      </trkpt>
      <trkpt lat="43.58287" lon="3.35633">
        <ele>250.4</ele>
        <time>2023-10-12T13:55:03Z</time>
      </trkpt>
      <trkpt lat="43.58284" lon="3.35652">
        <ele>249</ele>
        <time>2023-10-12T13:55:05Z</time>
      </trkpt>
      <trkpt lat="43.58281" lon="3.35671">
        <ele>247.8</ele>
        <time>2023-10-12T13:55:07Z</time>
      </trkpt>
      <trkpt lat="43.58278" lon="3.35685">
        <ele>246.6</ele>
        <time>2023-10-12T13:55:09Z</time>
      </trkpt>
      <trkpt lat="43.58272" lon="3.35702">
        <ele>245.4</ele>
        <time>2023-10-12T13:55:11Z</time>
      </trkpt>
      <trkpt lat="43.58267" lon="3.35718">
        <ele>244.2</ele>
        <time>2023-10-12T13:55:13Z</time>
      </trkpt>
      <trkpt lat="43.58262" lon="3.35733">
        <ele>243.2</ele>
        <time>2023-10-12T13:55:15Z</time>
      </trkpt>
      <trkpt lat="43.58256" lon="3.35749">
        <ele>242</ele>
        <time>2023-10-12T13:55:17Z</time>
      </trkpt>
      <trkpt lat="43.5825" lon="3.35768">
        <ele>240.6</ele>
        <time>2023-10-12T13:55:19Z</time>
      </trkpt>
      <trkpt lat="43.58244" lon="3.35787">
        <ele>239.4</ele>
        <time>2023-10-12T13:55:21Z</time>
      </trkpt>
      <trkpt lat="43.58236" lon="3.35808">
        <ele>238</ele>
        <time>2023-10-12T13:55:23Z</time>
      </trkpt>
      <trkpt lat="43.58231" lon="3.35819">
        <ele>237.2</ele>
        <time>2023-10-12T13:55:24Z</time>
      </trkpt>
      <trkpt lat="43.58223" lon="3.3584">
        <ele>235.8</ele>
        <time>2023-10-12T13:55:26Z</time>
      </trkpt>
      <trkpt lat="43.58216" lon="3.35859">
        <ele>234.6</ele>
        <time>2023-10-12T13:55:28Z</time>
      </trkpt>
      <trkpt lat="43.58212" lon="3.35871">
        <ele>233.8</ele>
        <time>2023-10-12T13:55:30Z</time>
      </trkpt>
      <trkpt lat="43.5822" lon="3.35881">
        <ele>232.8</ele>
        <time>2023-10-12T13:55:35Z</time>
      </trkpt>
      <trkpt lat="43.58229" lon="3.35874">
        <ele>232</ele>
        <time>2023-10-12T13:55:38Z</time>
      </trkpt>
      <trkpt lat="43.5824" lon="3.35866">
        <ele>231</ele>
        <time>2023-10-12T13:55:41Z</time>
      </trkpt>
      <trkpt lat="43.58252" lon="3.3586">
        <ele>230</ele>
        <time>2023-10-12T13:55:44Z</time>
      </trkpt>
      <trkpt lat="43.58263" lon="3.35854">
        <ele>229</ele>
        <time>2023-10-12T13:55:47Z</time>
      </trkpt>
      <trkpt lat="43.58274" lon="3.35846">
        <ele>228</ele>
        <time>2023-10-12T13:55:50Z</time>
      </trkpt>
      <trkpt lat="43.58285" lon="3.35839">
        <ele>227</ele>
        <time>2023-10-12T13:55:53Z</time>
      </trkpt>
      <trkpt lat="43.58294" lon="3.35835">
        <ele>226.2</ele>
        <time>2023-10-12T13:55:56Z</time>
      </trkpt>
      <trkpt lat="43.58304" lon="3.3583">
        <ele>226.2</ele>
        <time>2023-10-12T13:55:59Z</time>
      </trkpt>
      <trkpt lat="43.58314" lon="3.35823">
        <ele>226.2</ele>
        <time>2023-10-12T13:56:02Z</time>
      </trkpt>
      <trkpt lat="43.58322" lon="3.35817">
        <ele>226.2</ele>
        <time>2023-10-12T13:56:05Z</time>
      </trkpt>
      <trkpt lat="43.58331" lon="3.35808">
        <ele>226</ele>
        <time>2023-10-12T13:56:08Z</time>
      </trkpt>
      <trkpt lat="43.58342" lon="3.35797">
        <ele>226</ele>
        <time>2023-10-12T13:56:11Z</time>
      </trkpt>
      <trkpt lat="43.58352" lon="3.35786">
        <ele>226</ele>
        <time>2023-10-12T13:56:14Z</time>
      </trkpt>
      <trkpt lat="43.58362" lon="3.35775">
        <ele>226</ele>
        <time>2023-10-12T13:56:17Z</time>
      </trkpt>
      <trkpt lat="43.58369" lon="3.35767">
        <ele>225.8</ele>
        <time>2023-10-12T13:56:19Z</time>
      </trkpt>
      <trkpt lat="43.58376" lon="3.35759">
        <ele>225.8</ele>
        <time>2023-10-12T13:56:21Z</time>
      </trkpt>
      <trkpt lat="43.58386" lon="3.35751">
        <ele>225.8</ele>
        <time>2023-10-12T13:56:23Z</time>
      </trkpt>
      <trkpt lat="43.58394" lon="3.35744">
        <ele>225.8</ele>
        <time>2023-10-12T13:56:25Z</time>
      </trkpt>
      <trkpt lat="43.58406" lon="3.35734">
        <ele>225.6</ele>
        <time>2023-10-12T13:56:28Z</time>
      </trkpt>
      <trkpt lat="43.58414" lon="3.35728">
        <ele>225.6</ele>
        <time>2023-10-12T13:56:30Z</time>
      </trkpt>
      <trkpt lat="43.58422" lon="3.35721">
        <ele>225.6</ele>
        <time>2023-10-12T13:56:32Z</time>
      </trkpt>
      <trkpt lat="43.5843" lon="3.35715">
        <ele>225.6</ele>
        <time>2023-10-12T13:56:34Z</time>
      </trkpt>
      <trkpt lat="43.58439" lon="3.35709">
        <ele>225.6</ele>
        <time>2023-10-12T13:56:36Z</time>
      </trkpt>
      <trkpt lat="43.58448" lon="3.35702">
        <ele>225.4</ele>
        <time>2023-10-12T13:56:38Z</time>
      </trkpt>
      <trkpt lat="43.58457" lon="3.35696">
        <ele>225.2</ele>
        <time>2023-10-12T13:56:40Z</time>
      </trkpt>
      <trkpt lat="43.58466" lon="3.3569">
        <ele>225.2</ele>
        <time>2023-10-12T13:56:42Z</time>
      </trkpt>
      <trkpt lat="43.58475" lon="3.35684">
        <ele>225</ele>
        <time>2023-10-12T13:56:44Z</time>
      </trkpt>
      <trkpt lat="43.58483" lon="3.35679">
        <ele>224.8</ele>
        <time>2023-10-12T13:56:46Z</time>
      </trkpt>
      <trkpt lat="43.58495" lon="3.3567">
        <ele>224.6</ele>
        <time>2023-10-12T13:56:49Z</time>
      </trkpt>
      <trkpt lat="43.58506" lon="3.35662">
        <ele>224.4</ele>
        <time>2023-10-12T13:56:52Z</time>
      </trkpt>
      <trkpt lat="43.58518" lon="3.35657">
        <ele>224.2</ele>
        <time>2023-10-12T13:56:55Z</time>
      </trkpt>
      <trkpt lat="43.58529" lon="3.35654">
        <ele>224</ele>
        <time>2023-10-12T13:56:58Z</time>
      </trkpt>
      <trkpt lat="43.58538" lon="3.35651">
        <ele>224</ele>
        <time>2023-10-12T13:57:01Z</time>
      </trkpt>
      <trkpt lat="43.58548" lon="3.3565">
        <ele>223.8</ele>
        <time>2023-10-12T13:57:06Z</time>
      </trkpt>
      <trkpt lat="43.58558" lon="3.3565">
        <ele>223.6</ele>
        <time>2023-10-12T13:57:12Z</time>
      </trkpt>
      <trkpt lat="43.58568" lon="3.35645">
        <ele>223.4</ele>
        <time>2023-10-12T13:57:17Z</time>
      </trkpt>
      <trkpt lat="43.58577" lon="3.3564">
        <ele>223.2</ele>
        <time>2023-10-12T13:57:20Z</time>
      </trkpt>
      <trkpt lat="43.58587" lon="3.35634">
        <ele>223.2</ele>
        <time>2023-10-12T13:57:23Z</time>
      </trkpt>
      <trkpt lat="43.58596" lon="3.35628">
        <ele>223</ele>
        <time>2023-10-12T13:57:26Z</time>
      </trkpt>
      <trkpt lat="43.58605" lon="3.35622">
        <ele>222.8</ele>
        <time>2023-10-12T13:57:29Z</time>
      </trkpt>
      <trkpt lat="43.58616" lon="3.35616">
        <ele>222.6</ele>
        <time>2023-10-12T13:57:32Z</time>
      </trkpt>
      <trkpt lat="43.58628" lon="3.3561">
        <ele>222.8</ele>
        <time>2023-10-12T13:57:35Z</time>
      </trkpt>
      <trkpt lat="43.58637" lon="3.35606">
        <ele>222.8</ele>
        <time>2023-10-12T13:57:38Z</time>
      </trkpt>
      <trkpt lat="43.58649" lon="3.356">
        <ele>222.8</ele>
        <time>2023-10-12T13:57:42Z</time>
      </trkpt>
      <trkpt lat="43.58658" lon="3.35592">
        <ele>223</ele>
        <time>2023-10-12T13:57:45Z</time>
      </trkpt>
      <trkpt lat="43.58665" lon="3.35582">
        <ele>223</ele>
        <time>2023-10-12T13:57:48Z</time>
      </trkpt>
      <trkpt lat="43.58673" lon="3.35571">
        <ele>223</ele>
        <time>2023-10-12T13:57:51Z</time>
      </trkpt>
      <trkpt lat="43.5868" lon="3.3556">
        <ele>223</ele>
        <time>2023-10-12T13:57:54Z</time>
      </trkpt>
      <trkpt lat="43.58687" lon="3.35548">
        <ele>223.2</ele>
        <time>2023-10-12T13:57:57Z</time>
      </trkpt>
      <trkpt lat="43.58693" lon="3.35535">
        <ele>223.2</ele>
        <time>2023-10-12T13:58:00Z</time>
      </trkpt>
      <trkpt lat="43.58698" lon="3.35522">
        <ele>223.2</ele>
        <time>2023-10-12T13:58:03Z</time>
      </trkpt>
      <trkpt lat="43.58701" lon="3.3551">
        <ele>223.4</ele>
        <time>2023-10-12T13:58:06Z</time>
      </trkpt>
      <trkpt lat="43.58706" lon="3.35498">
        <ele>223.4</ele>
        <time>2023-10-12T13:58:09Z</time>
      </trkpt>
      <trkpt lat="43.58712" lon="3.35488">
        <ele>223.4</ele>
        <time>2023-10-12T13:58:12Z</time>
      </trkpt>
      <trkpt lat="43.5872" lon="3.35479">
        <ele>223.4</ele>
        <time>2023-10-12T13:58:15Z</time>
      </trkpt>
      <trkpt lat="43.58728" lon="3.35473">
        <ele>223.4</ele>
        <time>2023-10-12T13:58:18Z</time>
      </trkpt>
      <trkpt lat="43.58739" lon="3.35466">
        <ele>223.6</ele>
        <time>2023-10-12T13:58:22Z</time>
      </trkpt>
      <trkpt lat="43.58747" lon="3.35459">
        <ele>223.6</ele>
        <time>2023-10-12T13:58:25Z</time>
      </trkpt>
      <trkpt lat="43.58755" lon="3.3545">
        <ele>223.6</ele>
        <time>2023-10-12T13:58:28Z</time>
      </trkpt>
      <trkpt lat="43.5876" lon="3.3544">
        <ele>223.4</ele>
        <time>2023-10-12T13:58:31Z</time>
      </trkpt>
      <trkpt lat="43.58762" lon="3.35427">
        <ele>223.4</ele>
        <time>2023-10-12T13:58:34Z</time>
      </trkpt>
      <trkpt lat="43.58765" lon="3.35413">
        <ele>223.4</ele>
        <time>2023-10-12T13:58:37Z</time>
      </trkpt>
      <trkpt lat="43.58771" lon="3.35401">
        <ele>223.4</ele>
        <time>2023-10-12T13:58:40Z</time>
      </trkpt>
      <trkpt lat="43.58775" lon="3.3539">
        <ele>223.2</ele>
        <time>2023-10-12T13:58:43Z</time>
      </trkpt>
      <trkpt lat="43.58786" lon="3.35365">
        <ele>223.2</ele>
        <time>2023-10-12T13:59:01Z</time>
      </trkpt>
      <trkpt lat="43.58792" lon="3.35351">
        <ele>223.2</ele>
        <time>2023-10-12T13:59:05Z</time>
      </trkpt>
      <trkpt lat="43.58798" lon="3.35341">
        <ele>223</ele>
        <time>2023-10-12T13:59:08Z</time>
      </trkpt>
      <trkpt lat="43.58805" lon="3.35331">
        <ele>223</ele>
        <time>2023-10-12T13:59:11Z</time>
      </trkpt>
      <trkpt lat="43.58815" lon="3.35322">
        <ele>223</ele>
        <time>2023-10-12T13:59:14Z</time>
      </trkpt>
      <trkpt lat="43.58823" lon="3.35316">
        <ele>223</ele>
        <time>2023-10-12T13:59:17Z</time>
      </trkpt>
      <trkpt lat="43.58834" lon="3.35308">
        <ele>222.8</ele>
        <time>2023-10-12T13:59:21Z</time>
      </trkpt>
      <trkpt lat="43.58845" lon="3.35305">
        <ele>222.8</ele>
        <time>2023-10-12T13:59:24Z</time>
      </trkpt>
      <trkpt lat="43.58855" lon="3.35304">
        <ele>222.8</ele>
        <time>2023-10-12T13:59:27Z</time>
      </trkpt>
      <trkpt lat="43.58865" lon="3.35301">
        <ele>222.8</ele>
        <time>2023-10-12T13:59:30Z</time>
      </trkpt>
      <trkpt lat="43.58874" lon="3.35298">
        <ele>222.2</ele>
        <time>2023-10-12T13:59:33Z</time>
      </trkpt>
      <trkpt lat="43.58885" lon="3.35293">
        <ele>221.8</ele>
        <time>2023-10-12T13:59:37Z</time>
      </trkpt>
      <trkpt lat="43.58892" lon="3.35285">
        <ele>221.2</ele>
        <time>2023-10-12T13:59:41Z</time>
      </trkpt>
      <trkpt lat="43.58901" lon="3.35278">
        <ele>220.8</ele>
        <time>2023-10-12T13:59:45Z</time>
      </trkpt>
      <trkpt lat="43.5891" lon="3.35272">
        <ele>220.2</ele>
        <time>2023-10-12T13:59:48Z</time>
      </trkpt>
      <trkpt lat="43.5892" lon="3.35263">
        <ele>219.6</ele>
        <time>2023-10-12T13:59:51Z</time>
      </trkpt>
      <trkpt lat="43.58928" lon="3.3525">
        <ele>219</ele>
        <time>2023-10-12T13:59:54Z</time>
      </trkpt>
      <trkpt lat="43.58934" lon="3.35238">
        <ele>218.6</ele>
        <time>2023-10-12T13:59:57Z</time>
      </trkpt>
      <trkpt lat="43.58939" lon="3.35224">
        <ele>218</ele>
        <time>2023-10-12T14:00:00Z</time>
      </trkpt>
      <trkpt lat="43.58945" lon="3.3521">
        <ele>217.4</ele>
        <time>2023-10-12T14:00:03Z</time>
      </trkpt>
      <trkpt lat="43.5895" lon="3.35196">
        <ele>216.8</ele>
        <time>2023-10-12T14:00:06Z</time>
      </trkpt>
      <trkpt lat="43.58955" lon="3.35182">
        <ele>216.2</ele>
        <time>2023-10-12T14:00:09Z</time>
      </trkpt>
      <trkpt lat="43.58962" lon="3.35169">
        <ele>215.8</ele>
        <time>2023-10-12T14:00:12Z</time>
      </trkpt>
      <trkpt lat="43.58972" lon="3.35159">
        <ele>215.2</ele>
        <time>2023-10-12T14:00:15Z</time>
      </trkpt>
      <trkpt lat="43.58984" lon="3.35157">
        <ele>214.6</ele>
        <time>2023-10-12T14:00:18Z</time>
      </trkpt>
      <trkpt lat="43.58994" lon="3.35152">
        <ele>214</ele>
        <time>2023-10-12T14:00:21Z</time>
      </trkpt>
      <trkpt lat="43.58994" lon="3.35133">
        <ele>212.8</ele>
        <time>2023-10-12T14:00:24Z</time>
      </trkpt>
      <trkpt lat="43.58992" lon="3.35116">
        <ele>211.6</ele>
        <time>2023-10-12T14:00:26Z</time>
      </trkpt>
      <trkpt lat="43.58991" lon="3.351">
        <ele>210.4</ele>
        <time>2023-10-12T14:00:28Z</time>
      </trkpt>
      <trkpt lat="43.58989" lon="3.35082">
        <ele>209.2</ele>
        <time>2023-10-12T14:00:30Z</time>
      </trkpt>
      <trkpt lat="43.58987" lon="3.35062">
        <ele>207.8</ele>
        <time>2023-10-12T14:00:32Z</time>
      </trkpt>
      <trkpt lat="43.58985" lon="3.35043">
        <ele>206.4</ele>
        <time>2023-10-12T14:00:34Z</time>
      </trkpt>
      <trkpt lat="43.58984" lon="3.35024">
        <ele>205.2</ele>
        <time>2023-10-12T14:00:36Z</time>
      </trkpt>
      <trkpt lat="43.58985" lon="3.35006">
        <ele>203.8</ele>
        <time>2023-10-12T14:00:38Z</time>
      </trkpt>
      <trkpt lat="43.5899" lon="3.34989">
        <ele>202.6</ele>
        <time>2023-10-12T14:00:40Z</time>
      </trkpt>
      <trkpt lat="43.58994" lon="3.34972">
        <ele>201.2</ele>
        <time>2023-10-12T14:00:42Z</time>
      </trkpt>
      <trkpt lat="43.58999" lon="3.34959">
        <ele>200.2</ele>
        <time>2023-10-12T14:00:45Z</time>
      </trkpt>
      <trkpt lat="43.59009" lon="3.34965">
        <ele>199.2</ele>
        <time>2023-10-12T14:00:48Z</time>
      </trkpt>
      <trkpt lat="43.59016" lon="3.34975">
        <ele>198.2</ele>
        <time>2023-10-12T14:00:50Z</time>
      </trkpt>
      <trkpt lat="43.5902" lon="3.34988">
        <ele>197.2</ele>
        <time>2023-10-12T14:00:52Z</time>
      </trkpt>
      <trkpt lat="43.59025" lon="3.35001">
        <ele>196.4</ele>
        <time>2023-10-12T14:00:54Z</time>
      </trkpt>
      <trkpt lat="43.59028" lon="3.35013">
        <ele>196</ele>
        <time>2023-10-12T14:00:56Z</time>
      </trkpt>
      <trkpt lat="43.59032" lon="3.35027">
        <ele>195.6</ele>
        <time>2023-10-12T14:00:59Z</time>
      </trkpt>
      <trkpt lat="43.5904" lon="3.35033">
        <ele>195.4</ele>
        <time>2023-10-12T14:01:02Z</time>
      </trkpt>
      <trkpt lat="43.59049" lon="3.35031">
        <ele>195</ele>
        <time>2023-10-12T14:01:05Z</time>
      </trkpt>
      <trkpt lat="43.5906" lon="3.35028">
        <ele>194.6</ele>
        <time>2023-10-12T14:01:08Z</time>
      </trkpt>
      <trkpt lat="43.59069" lon="3.35025">
        <ele>194.4</ele>
        <time>2023-10-12T14:01:11Z</time>
      </trkpt>
      <trkpt lat="43.59078" lon="3.35024">
        <ele>194</ele>
        <time>2023-10-12T14:01:14Z</time>
      </trkpt>
      <trkpt lat="43.59088" lon="3.35034">
        <ele>193.6</ele>
        <time>2023-10-12T14:01:18Z</time>
      </trkpt>
      <trkpt lat="43.59092" lon="3.35051">
        <ele>193.2</ele>
        <time>2023-10-12T14:01:21Z</time>
      </trkpt>
      <trkpt lat="43.59097" lon="3.35068">
        <ele>192.8</ele>
        <time>2023-10-12T14:01:24Z</time>
      </trkpt>
      <trkpt lat="43.591" lon="3.35086">
        <ele>192.4</ele>
        <time>2023-10-12T14:01:27Z</time>
      </trkpt>
      <trkpt lat="43.59103" lon="3.35098">
        <ele>192</ele>
        <time>2023-10-12T14:01:29Z</time>
      </trkpt>
      <trkpt lat="43.59108" lon="3.35108">
        <ele>191.8</ele>
        <time>2023-10-12T14:01:31Z</time>
      </trkpt>
      <trkpt lat="43.59116" lon="3.35119">
        <ele>191.4</ele>
        <time>2023-10-12T14:01:34Z</time>
      </trkpt>
      <trkpt lat="43.59122" lon="3.35133">
        <ele>191</ele>
        <time>2023-10-12T14:01:39Z</time>
      </trkpt>
      <trkpt lat="43.59124" lon="3.3515">
        <ele>190.6</ele>
        <time>2023-10-12T14:01:42Z</time>
      </trkpt>
      <trkpt lat="43.59126" lon="3.35162">
        <ele>190.2</ele>
        <time>2023-10-12T14:01:44Z</time>
      </trkpt>
      <trkpt lat="43.59125" lon="3.3518">
        <ele>190</ele>
        <time>2023-10-12T14:01:47Z</time>
      </trkpt>
      <trkpt lat="43.59124" lon="3.35198">
        <ele>189.6</ele>
        <time>2023-10-12T14:01:50Z</time>
      </trkpt>
      <trkpt lat="43.59121" lon="3.35212">
        <ele>189.4</ele>
        <time>2023-10-12T14:01:53Z</time>
      </trkpt>
      <trkpt lat="43.59118" lon="3.35224">
        <ele>189.2</ele>
        <time>2023-10-12T14:01:56Z</time>
      </trkpt>
      <trkpt lat="43.59114" lon="3.35239">
        <ele>188.8</ele>
        <time>2023-10-12T14:02:00Z</time>
      </trkpt>
      <trkpt lat="43.59108" lon="3.35254">
        <ele>188.6</ele>
        <time>2023-10-12T14:02:03Z</time>
      </trkpt>
      <trkpt lat="43.59102" lon="3.35267">
        <ele>188.2</ele>
        <time>2023-10-12T14:02:06Z</time>
      </trkpt>
      <trkpt lat="43.59095" lon="3.3528">
        <ele>188</ele>
        <time>2023-10-12T14:02:09Z</time>
      </trkpt>
      <trkpt lat="43.59086" lon="3.3529">
        <ele>187.8</ele>
        <time>2023-10-12T14:02:12Z</time>
      </trkpt>
      <trkpt lat="43.59077" lon="3.35298">
        <ele>187.4</ele>
        <time>2023-10-12T14:02:15Z</time>
      </trkpt>
      <trkpt lat="43.59067" lon="3.35309">
        <ele>187.2</ele>
        <time>2023-10-12T14:02:18Z</time>
      </trkpt>
      <trkpt lat="43.59058" lon="3.3532">
        <ele>186.8</ele>
        <time>2023-10-12T14:02:21Z</time>
      </trkpt>
      <trkpt lat="43.59051" lon="3.35332">
        <ele>186.6</ele>
        <time>2023-10-12T14:02:24Z</time>
      </trkpt>
      <trkpt lat="43.59043" lon="3.35346">
        <ele>186.2</ele>
        <time>2023-10-12T14:02:27Z</time>
      </trkpt>
      <trkpt lat="43.59036" lon="3.3536">
        <ele>186</ele>
        <time>2023-10-12T14:02:30Z</time>
      </trkpt>
      <trkpt lat="43.59028" lon="3.35373">
        <ele>185.8</ele>
        <time>2023-10-12T14:02:33Z</time>
      </trkpt>
      <trkpt lat="43.59019" lon="3.35386">
        <ele>185.6</ele>
        <time>2023-10-12T14:02:36Z</time>
      </trkpt>
      <trkpt lat="43.5901" lon="3.354">
        <ele>185.4</ele>
        <time>2023-10-12T14:02:39Z</time>
      </trkpt>
      <trkpt lat="43.59002" lon="3.35413">
        <ele>185.2</ele>
        <time>2023-10-12T14:02:42Z</time>
      </trkpt>
      <trkpt lat="43.58995" lon="3.35425">
        <ele>185</ele>
        <time>2023-10-12T14:02:45Z</time>
      </trkpt>
      <trkpt lat="43.58987" lon="3.35437">
        <ele>184.8</ele>
        <time>2023-10-12T14:02:48Z</time>
      </trkpt>
      <trkpt lat="43.58981" lon="3.35448">
        <ele>184.6</ele>
        <time>2023-10-12T14:02:51Z</time>
      </trkpt>
      <trkpt lat="43.58975" lon="3.35458">
        <ele>184.6</ele>
        <time>2023-10-12T14:02:54Z</time>
      </trkpt>
      <trkpt lat="43.58968" lon="3.3547">
        <ele>184.4</ele>
        <time>2023-10-12T14:02:57Z</time>
      </trkpt>
      <trkpt lat="43.58961" lon="3.35482">
        <ele>184.2</ele>
        <time>2023-10-12T14:03:00Z</time>
      </trkpt>
      <trkpt lat="43.58953" lon="3.35494">
        <ele>184</ele>
        <time>2023-10-12T14:03:04Z</time>
      </trkpt>
      <trkpt lat="43.58947" lon="3.35507">
        <ele>183.8</ele>
        <time>2023-10-12T14:03:07Z</time>
      </trkpt>
      <trkpt lat="43.58942" lon="3.35521">
        <ele>183.6</ele>
        <time>2023-10-12T14:03:10Z</time>
      </trkpt>
      <trkpt lat="43.58936" lon="3.35533">
        <ele>183.6</ele>
        <time>2023-10-12T14:03:13Z</time>
      </trkpt>
      <trkpt lat="43.58929" lon="3.35547">
        <ele>183.4</ele>
        <time>2023-10-12T14:03:16Z</time>
      </trkpt>
      <trkpt lat="43.58922" lon="3.35562">
        <ele>183.4</ele>
        <time>2023-10-12T14:03:19Z</time>
      </trkpt>
      <trkpt lat="43.58917" lon="3.35574">
        <ele>183.6</ele>
        <time>2023-10-12T14:03:22Z</time>
      </trkpt>
      <trkpt lat="43.58914" lon="3.35587">
        <ele>183.8</ele>
        <time>2023-10-12T14:03:28Z</time>
      </trkpt>
      <trkpt lat="43.58908" lon="3.35599">
        <ele>184</ele>
        <time>2023-10-12T14:03:31Z</time>
      </trkpt>
      <trkpt lat="43.58903" lon="3.35614">
        <ele>184.4</ele>
        <time>2023-10-12T14:03:34Z</time>
      </trkpt>
      <trkpt lat="43.58897" lon="3.3563">
        <ele>184.6</ele>
        <time>2023-10-12T14:03:37Z</time>
      </trkpt>
      <trkpt lat="43.58893" lon="3.35641">
        <ele>184.8</ele>
        <time>2023-10-12T14:03:39Z</time>
      </trkpt>
      <trkpt lat="43.58887" lon="3.35654">
        <ele>185.2</ele>
        <time>2023-10-12T14:03:43Z</time>
      </trkpt>
      <trkpt lat="43.58883" lon="3.35667">
        <ele>185.4</ele>
        <time>2023-10-12T14:03:49Z</time>
      </trkpt>
      <trkpt lat="43.58885" lon="3.3568">
        <ele>185.6</ele>
        <time>2023-10-12T14:03:54Z</time>
      </trkpt>
      <trkpt lat="43.58895" lon="3.35679">
        <ele>185.8</ele>
        <time>2023-10-12T14:03:58Z</time>
      </trkpt>
      <trkpt lat="43.58902" lon="3.35668">
        <ele>186</ele>
        <time>2023-10-12T14:04:06Z</time>
      </trkpt>
      <trkpt lat="43.58911" lon="3.35663">
        <ele>186.2</ele>
        <time>2023-10-12T14:04:10Z</time>
      </trkpt>
      <trkpt lat="43.58921" lon="3.3566">
        <ele>186.6</ele>
        <time>2023-10-12T14:04:14Z</time>
      </trkpt>
      <trkpt lat="43.58929" lon="3.35664">
        <ele>186.8</ele>
        <time>2023-10-12T14:04:18Z</time>
      </trkpt>
      <trkpt lat="43.58939" lon="3.35664">
        <ele>187</ele>
        <time>2023-10-12T14:04:23Z</time>
      </trkpt>
      <trkpt lat="43.58949" lon="3.35663">
        <ele>187.2</ele>
        <time>2023-10-12T14:04:29Z</time>
      </trkpt>
      <trkpt lat="43.58959" lon="3.35662">
        <ele>187.4</ele>
        <time>2023-10-12T14:04:36Z</time>
      </trkpt>
      <trkpt lat="43.58971" lon="3.35658">
        <ele>188.4</ele>
        <time>2023-10-12T14:05:02Z</time>
      </trkpt>
      <trkpt lat="43.58965" lon="3.35668">
        <ele>189.2</ele>
        <time>2023-10-12T14:05:05Z</time>
      </trkpt>
      <trkpt lat="43.58963" lon="3.3568">
        <ele>190</ele>
        <time>2023-10-12T14:05:08Z</time>
      </trkpt>
      <trkpt lat="43.58964" lon="3.35696">
        <ele>190.8</ele>
        <time>2023-10-12T14:05:12Z</time>
      </trkpt>
      <trkpt lat="43.58964" lon="3.3571">
        <ele>191.6</ele>
        <time>2023-10-12T14:05:16Z</time>
      </trkpt>
      <trkpt lat="43.58966" lon="3.35724">
        <ele>192.4</ele>
        <time>2023-10-12T14:05:20Z</time>
      </trkpt>
      <trkpt lat="43.58967" lon="3.35737">
        <ele>193.2</ele>
        <time>2023-10-12T14:05:23Z</time>
      </trkpt>
      <trkpt lat="43.58972" lon="3.35748">
        <ele>194</ele>
        <time>2023-10-12T14:05:27Z</time>
      </trkpt>
      <trkpt lat="43.58981" lon="3.35752">
        <ele>194.6</ele>
        <time>2023-10-12T14:05:31Z</time>
      </trkpt>
      <trkpt lat="43.58991" lon="3.35755">
        <ele>195.4</ele>
        <time>2023-10-12T14:05:35Z</time>
      </trkpt>
      <trkpt lat="43.59" lon="3.35754">
        <ele>196.2</ele>
        <time>2023-10-12T14:05:39Z</time>
      </trkpt>
      <trkpt lat="43.5901" lon="3.35749">
        <ele>197</ele>
        <time>2023-10-12T14:05:43Z</time>
      </trkpt>
      <trkpt lat="43.59018" lon="3.35746">
        <ele>197.6</ele>
        <time>2023-10-12T14:05:47Z</time>
      </trkpt>
      <trkpt lat="43.59028" lon="3.3574">
        <ele>198.4</ele>
        <time>2023-10-12T14:05:52Z</time>
      </trkpt>
      <trkpt lat="43.59036" lon="3.35735">
        <ele>199.2</ele>
        <time>2023-10-12T14:05:56Z</time>
      </trkpt>
      <trkpt lat="43.59047" lon="3.35732">
        <ele>200</ele>
        <time>2023-10-12T14:06:01Z</time>
      </trkpt>
      <trkpt lat="43.59058" lon="3.3573">
        <ele>200.8</ele>
        <time>2023-10-12T14:06:06Z</time>
      </trkpt>
      <trkpt lat="43.59068" lon="3.35733">
        <ele>201.4</ele>
        <time>2023-10-12T14:06:11Z</time>
      </trkpt>
      <trkpt lat="43.59078" lon="3.35738">
        <ele>201.6</ele>
        <time>2023-10-12T14:06:16Z</time>
      </trkpt>
      <trkpt lat="43.59088" lon="3.35743">
        <ele>201.6</ele>
        <time>2023-10-12T14:06:21Z</time>
      </trkpt>
      <trkpt lat="43.59098" lon="3.35748">
        <ele>201.6</ele>
        <time>2023-10-12T14:06:26Z</time>
      </trkpt>
      <trkpt lat="43.59106" lon="3.35752">
        <ele>201.6</ele>
        <time>2023-10-12T14:06:31Z</time>
      </trkpt>
      <trkpt lat="43.59115" lon="3.35756">
        <ele>201.8</ele>
        <time>2023-10-12T14:06:36Z</time>
      </trkpt>
      <trkpt lat="43.59114" lon="3.35768">
        <ele>201.8</ele>
        <time>2023-10-12T14:06:40Z</time>
      </trkpt>
      <trkpt lat="43.59106" lon="3.35778">
        <ele>201.8</ele>
        <time>2023-10-12T14:06:44Z</time>
      </trkpt>
      <trkpt lat="43.59096" lon="3.35781">
        <ele>201.8</ele>
        <time>2023-10-12T14:06:49Z</time>
      </trkpt>
      <trkpt lat="43.59085" lon="3.35783">
        <ele>202</ele>
        <time>2023-10-12T14:06:53Z</time>
      </trkpt>
      <trkpt lat="43.59072" lon="3.35787">
        <ele>202</ele>
        <time>2023-10-12T14:06:56Z</time>
      </trkpt>
      <trkpt lat="43.59062" lon="3.35791">
        <ele>202</ele>
        <time>2023-10-12T14:06:58Z</time>
      </trkpt>
      <trkpt lat="43.59052" lon="3.35797">
        <ele>202.2</ele>
        <time>2023-10-12T14:07:00Z</time>
      </trkpt>
      <trkpt lat="43.59041" lon="3.35802">
        <ele>202.2</ele>
        <time>2023-10-12T14:07:02Z</time>
      </trkpt>
      <trkpt lat="43.59029" lon="3.35804">
        <ele>202.2</ele>
        <time>2023-10-12T14:07:04Z</time>
      </trkpt>
      <trkpt lat="43.59016" lon="3.35808">
        <ele>202.4</ele>
        <time>2023-10-12T14:07:06Z</time>
      </trkpt>
      <trkpt lat="43.59003" lon="3.35814">
        <ele>202.4</ele>
        <time>2023-10-12T14:07:08Z</time>
      </trkpt>
      <trkpt lat="43.5899" lon="3.35816">
        <ele>202.6</ele>
        <time>2023-10-12T14:07:10Z</time>
      </trkpt>
      <trkpt lat="43.58979" lon="3.35819">
        <ele>202.8</ele>
        <time>2023-10-12T14:07:12Z</time>
      </trkpt>
      <trkpt lat="43.5897" lon="3.35828">
        <ele>203</ele>
        <time>2023-10-12T14:07:14Z</time>
      </trkpt>
      <trkpt lat="43.5896" lon="3.35835">
        <ele>203.2</ele>
        <time>2023-10-12T14:07:17Z</time>
      </trkpt>
      <trkpt lat="43.58951" lon="3.35841">
        <ele>203.4</ele>
        <time>2023-10-12T14:07:20Z</time>
      </trkpt>
      <trkpt lat="43.58947" lon="3.35856">
        <ele>203.6</ele>
        <time>2023-10-12T14:07:24Z</time>
      </trkpt>
      <trkpt lat="43.5895" lon="3.3587">
        <ele>203.6</ele>
        <time>2023-10-12T14:07:28Z</time>
      </trkpt>
      <trkpt lat="43.58952" lon="3.35884">
        <ele>203.8</ele>
        <time>2023-10-12T14:07:33Z</time>
      </trkpt>
      <trkpt lat="43.58949" lon="3.35896">
        <ele>204</ele>
        <time>2023-10-12T14:07:38Z</time>
      </trkpt>
      <trkpt lat="43.5894" lon="3.35905">
        <ele>204.2</ele>
        <time>2023-10-12T14:07:42Z</time>
      </trkpt>
      <trkpt lat="43.58931" lon="3.35911">
        <ele>204.4</ele>
        <time>2023-10-12T14:07:46Z</time>
      </trkpt>
      <trkpt lat="43.58923" lon="3.35917">
        <ele>204.6</ele>
        <time>2023-10-12T14:07:49Z</time>
      </trkpt>
      <trkpt lat="43.58915" lon="3.35924">
        <ele>204.6</ele>
        <time>2023-10-12T14:07:52Z</time>
      </trkpt>
      <trkpt lat="43.58908" lon="3.35932">
        <ele>204.8</ele>
        <time>2023-10-12T14:07:55Z</time>
      </trkpt>
      <trkpt lat="43.58902" lon="3.35942">
        <ele>205</ele>
        <time>2023-10-12T14:07:58Z</time>
      </trkpt>
      <trkpt lat="43.58893" lon="3.35952">
        <ele>205.2</ele>
        <time>2023-10-12T14:08:01Z</time>
      </trkpt>
      <trkpt lat="43.58884" lon="3.35962">
        <ele>205.4</ele>
        <time>2023-10-12T14:08:04Z</time>
      </trkpt>
      <trkpt lat="43.58875" lon="3.35969">
        <ele>204.8</ele>
        <time>2023-10-12T14:08:07Z</time>
      </trkpt>
      <trkpt lat="43.58866" lon="3.35976">
        <ele>204.4</ele>
        <time>2023-10-12T14:08:10Z</time>
      </trkpt>
      <trkpt lat="43.58857" lon="3.35983">
        <ele>203.8</ele>
        <time>2023-10-12T14:08:14Z</time>
      </trkpt>
      <trkpt lat="43.58848" lon="3.35986">
        <ele>203.4</ele>
        <time>2023-10-12T14:08:17Z</time>
      </trkpt>
      <trkpt lat="43.58838" lon="3.35988">
        <ele>202.8</ele>
        <time>2023-10-12T14:08:20Z</time>
      </trkpt>
      <trkpt lat="43.58826" lon="3.35989">
        <ele>202.2</ele>
        <time>2023-10-12T14:08:23Z</time>
      </trkpt>
      <trkpt lat="43.58815" lon="3.35992">
        <ele>201.6</ele>
        <time>2023-10-12T14:08:25Z</time>
      </trkpt>
      <trkpt lat="43.58802" lon="3.35998">
        <ele>201</ele>
        <time>2023-10-12T14:08:27Z</time>
      </trkpt>
      <trkpt lat="43.5879" lon="3.36006">
        <ele>200.2</ele>
        <time>2023-10-12T14:08:29Z</time>
      </trkpt>
      <trkpt lat="43.58777" lon="3.36016">
        <ele>199.4</ele>
        <time>2023-10-12T14:08:31Z</time>
      </trkpt>
      <trkpt lat="43.58763" lon="3.36024">
        <ele>198.6</ele>
        <time>2023-10-12T14:08:33Z</time>
      </trkpt>
      <trkpt lat="43.58748" lon="3.36029">
        <ele>197.8</ele>
        <time>2023-10-12T14:08:35Z</time>
      </trkpt>
      <trkpt lat="43.58732" lon="3.36037">
        <ele>197</ele>
        <time>2023-10-12T14:08:37Z</time>
      </trkpt>
      <trkpt lat="43.58723" lon="3.36042">
        <ele>196.4</ele>
        <time>2023-10-12T14:08:38Z</time>
      </trkpt>
      <trkpt lat="43.58715" lon="3.36047">
        <ele>196</ele>
        <time>2023-10-12T14:08:39Z</time>
      </trkpt>
      <trkpt lat="43.58706" lon="3.36053">
        <ele>195.2</ele>
        <time>2023-10-12T14:08:40Z</time>
      </trkpt>
      <trkpt lat="43.58698" lon="3.36057">
        <ele>194.4</ele>
        <time>2023-10-12T14:08:41Z</time>
      </trkpt>
      <trkpt lat="43.58688" lon="3.36062">
        <ele>193.4</ele>
        <time>2023-10-12T14:08:42Z</time>
      </trkpt>
      <trkpt lat="43.58679" lon="3.36067">
        <ele>192.6</ele>
        <time>2023-10-12T14:08:43Z</time>
      </trkpt>
      <trkpt lat="43.5867" lon="3.36073">
        <ele>191.8</ele>
        <time>2023-10-12T14:08:44Z</time>
      </trkpt>
      <trkpt lat="43.58661" lon="3.36077">
        <ele>191</ele>
        <time>2023-10-12T14:08:45Z</time>
      </trkpt>
      <trkpt lat="43.58645" lon="3.36088">
        <ele>189.4</ele>
        <time>2023-10-12T14:08:47Z</time>
      </trkpt>
      <trkpt lat="43.58637" lon="3.36095">
        <ele>188.6</ele>
        <time>2023-10-12T14:08:48Z</time>
      </trkpt>
      <trkpt lat="43.5863" lon="3.36103">
        <ele>187.8</ele>
        <time>2023-10-12T14:08:49Z</time>
      </trkpt>
      <trkpt lat="43.58622" lon="3.36111">
        <ele>186.8</ele>
        <time>2023-10-12T14:08:50Z</time>
      </trkpt>
      <trkpt lat="43.58614" lon="3.36119">
        <ele>186</ele>
        <time>2023-10-12T14:08:51Z</time>
      </trkpt>
      <trkpt lat="43.58605" lon="3.36126">
        <ele>185.2</ele>
        <time>2023-10-12T14:08:52Z</time>
      </trkpt>
      <trkpt lat="43.58596" lon="3.36133">
        <ele>184.2</ele>
        <time>2023-10-12T14:08:53Z</time>
      </trkpt>
      <trkpt lat="43.58587" lon="3.3614">
        <ele>183.2</ele>
        <time>2023-10-12T14:08:54Z</time>
      </trkpt>
      <trkpt lat="43.58578" lon="3.36146">
        <ele>182.4</ele>
        <time>2023-10-12T14:08:55Z</time>
      </trkpt>
      <trkpt lat="43.5857" lon="3.36153">
        <ele>181.6</ele>
        <time>2023-10-12T14:08:56Z</time>
      </trkpt>
      <trkpt lat="43.58561" lon="3.36158">
        <ele>180.8</ele>
        <time>2023-10-12T14:08:57Z</time>
      </trkpt>
      <trkpt lat="43.58552" lon="3.36164">
        <ele>180.2</ele>
        <time>2023-10-12T14:08:58Z</time>
      </trkpt>
      <trkpt lat="43.58543" lon="3.36169">
        <ele>179.8</ele>
        <time>2023-10-12T14:08:59Z</time>
      </trkpt>
      <trkpt lat="43.58535" lon="3.36173">
        <ele>179.6</ele>
        <time>2023-10-12T14:09:00Z</time>
      </trkpt>
      <trkpt lat="43.58518" lon="3.36179">
        <ele>179</ele>
        <time>2023-10-12T14:09:02Z</time>
      </trkpt>
      <trkpt lat="43.58503" lon="3.36183">
        <ele>178.4</ele>
        <time>2023-10-12T14:09:04Z</time>
      </trkpt>
      <trkpt lat="43.58489" lon="3.36191">
        <ele>178</ele>
        <time>2023-10-12T14:09:06Z</time>
      </trkpt>
      <trkpt lat="43.58476" lon="3.36197">
        <ele>177.4</ele>
        <time>2023-10-12T14:09:08Z</time>
      </trkpt>
      <trkpt lat="43.58462" lon="3.362">
        <ele>177</ele>
        <time>2023-10-12T14:09:10Z</time>
      </trkpt>
      <trkpt lat="43.58449" lon="3.36205">
        <ele>176.4</ele>
        <time>2023-10-12T14:09:12Z</time>
      </trkpt>
      <trkpt lat="43.58438" lon="3.36213">
        <ele>176</ele>
        <time>2023-10-12T14:09:14Z</time>
      </trkpt>
      <trkpt lat="43.5843" lon="3.36219">
        <ele>175.8</ele>
        <time>2023-10-12T14:09:16Z</time>
      </trkpt>
      <trkpt lat="43.58419" lon="3.36226">
        <ele>175.4</ele>
        <time>2023-10-12T14:09:19Z</time>
      </trkpt>
      <trkpt lat="43.58407" lon="3.36227">
        <ele>175</ele>
        <time>2023-10-12T14:09:22Z</time>
      </trkpt>
      <trkpt lat="43.58397" lon="3.36218">
        <ele>174.6</ele>
        <time>2023-10-12T14:09:25Z</time>
      </trkpt>
      <trkpt lat="43.58389" lon="3.3621">
        <ele>174.2</ele>
        <time>2023-10-12T14:09:30Z</time>
      </trkpt>
      <trkpt lat="43.5838" lon="3.36206">
        <ele>174.4</ele>
        <time>2023-10-12T14:09:40Z</time>
      </trkpt>
      <trkpt lat="43.5837" lon="3.36202">
        <ele>174.4</ele>
        <time>2023-10-12T14:09:44Z</time>
      </trkpt>
      <trkpt lat="43.5836" lon="3.36196">
        <ele>174.6</ele>
        <time>2023-10-12T14:09:47Z</time>
      </trkpt>
      <trkpt lat="43.58348" lon="3.36199">
        <ele>174.8</ele>
        <time>2023-10-12T14:09:51Z</time>
      </trkpt>
      <trkpt lat="43.58339" lon="3.36202">
        <ele>175</ele>
        <time>2023-10-12T14:09:54Z</time>
      </trkpt>
      <trkpt lat="43.58331" lon="3.36206">
        <ele>175.2</ele>
        <time>2023-10-12T14:09:57Z</time>
      </trkpt>
      <trkpt lat="43.58322" lon="3.36209">
        <ele>175.2</ele>
        <time>2023-10-12T14:10:00Z</time>
      </trkpt>
      <trkpt lat="43.58311" lon="3.36212">
        <ele>175.4</ele>
        <time>2023-10-12T14:10:04Z</time>
      </trkpt>
      <trkpt lat="43.583" lon="3.36211">
        <ele>175.6</ele>
        <time>2023-10-12T14:10:08Z</time>
      </trkpt>
      <trkpt lat="43.5829" lon="3.36211">
        <ele>175.8</ele>
        <time>2023-10-12T14:10:12Z</time>
      </trkpt>
      <trkpt lat="43.5828" lon="3.36209">
        <ele>175.8</ele>
        <time>2023-10-12T14:10:16Z</time>
      </trkpt>
      <trkpt lat="43.58269" lon="3.36212">
        <ele>176</ele>
        <time>2023-10-12T14:10:20Z</time>
      </trkpt>
      <trkpt lat="43.5826" lon="3.36216">
        <ele>176.2</ele>
        <time>2023-10-12T14:10:23Z</time>
      </trkpt>
      <trkpt lat="43.58251" lon="3.36221">
        <ele>176.2</ele>
        <time>2023-10-12T14:10:26Z</time>
      </trkpt>
      <trkpt lat="43.58242" lon="3.36225">
        <ele>176.4</ele>
        <time>2023-10-12T14:10:29Z</time>
      </trkpt>
      <trkpt lat="43.58236" lon="3.36216">
        <ele>176.6</ele>
        <time>2023-10-12T14:10:33Z</time>
      </trkpt>
      <trkpt lat="43.58233" lon="3.36203">
        <ele>176.8</ele>
        <time>2023-10-12T14:10:37Z</time>
      </trkpt>
      <trkpt lat="43.58229" lon="3.36192">
        <ele>176.8</ele>
        <time>2023-10-12T14:10:41Z</time>
      </trkpt>
      <trkpt lat="43.58223" lon="3.36174">
        <ele>177.8</ele>
        <time>2023-10-12T14:11:05Z</time>
      </trkpt>
      <trkpt lat="43.5822" lon="3.36161">
        <ele>178.4</ele>
        <time>2023-10-12T14:11:09Z</time>
      </trkpt>
      <trkpt lat="43.58216" lon="3.3615">
        <ele>179</ele>
        <time>2023-10-12T14:11:14Z</time>
      </trkpt>
      <trkpt lat="43.5821" lon="3.36139">
        <ele>179.6</ele>
        <time>2023-10-12T14:11:21Z</time>
      </trkpt>
      <trkpt lat="43.58201" lon="3.3614">
        <ele>180.2</ele>
        <time>2023-10-12T14:11:36Z</time>
      </trkpt>
      <trkpt lat="43.58192" lon="3.36143">
        <ele>180.6</ele>
        <time>2023-10-12T14:11:42Z</time>
      </trkpt>
      <trkpt lat="43.58176" lon="3.36149">
        <ele>181.8</ele>
        <time>2023-10-12T14:12:24Z</time>
      </trkpt>
      <trkpt lat="43.58166" lon="3.36149">
        <ele>182.2</ele>
        <time>2023-10-12T14:12:36Z</time>
      </trkpt>
      <trkpt lat="43.58155" lon="3.36153">
        <ele>183</ele>
        <time>2023-10-12T14:12:45Z</time>
      </trkpt>
      <trkpt lat="43.58145" lon="3.36154">
        <ele>183.6</ele>
        <time>2023-10-12T14:12:51Z</time>
      </trkpt>
      <trkpt lat="43.58128" lon="3.36154">
        <ele>184.6</ele>
        <time>2023-10-12T14:13:32Z</time>
      </trkpt>
      <trkpt lat="43.5811" lon="3.36158">
        <ele>185.8</ele>
        <time>2023-10-12T14:14:32Z</time>
      </trkpt>
      <trkpt lat="43.581" lon="3.36167">
        <ele>186.6</ele>
        <time>2023-10-12T14:14:36Z</time>
      </trkpt>
      <trkpt lat="43.5809" lon="3.36175">
        <ele>187.2</ele>
        <time>2023-10-12T14:14:39Z</time>
      </trkpt>
      <trkpt lat="43.58082" lon="3.36181">
        <ele>187.8</ele>
        <time>2023-10-12T14:14:41Z</time>
      </trkpt>
      <trkpt lat="43.58071" lon="3.36187">
        <ele>187.8</ele>
        <time>2023-10-12T14:14:43Z</time>
      </trkpt>
      <trkpt lat="43.58059" lon="3.3619">
        <ele>187.6</ele>
        <time>2023-10-12T14:14:45Z</time>
      </trkpt>
      <trkpt lat="43.58047" lon="3.36192">
        <ele>187.4</ele>
        <time>2023-10-12T14:14:47Z</time>
      </trkpt>
      <trkpt lat="43.58034" lon="3.36192">
        <ele>187.2</ele>
        <time>2023-10-12T14:14:50Z</time>
      </trkpt>
      <trkpt lat="43.58022" lon="3.3619">
        <ele>187</ele>
        <time>2023-10-12T14:14:53Z</time>
      </trkpt>
      <trkpt lat="43.5801" lon="3.36188">
        <ele>186.6</ele>
        <time>2023-10-12T14:14:56Z</time>
      </trkpt>
      <trkpt lat="43.57999" lon="3.36186">
        <ele>186.4</ele>
        <time>2023-10-12T14:14:59Z</time>
      </trkpt>
      <trkpt lat="43.57986" lon="3.36185">
        <ele>186.2</ele>
        <time>2023-10-12T14:15:02Z</time>
      </trkpt>
      <trkpt lat="43.57976" lon="3.3619">
        <ele>186</ele>
        <time>2023-10-12T14:15:04Z</time>
      </trkpt>
      <trkpt lat="43.57968" lon="3.36199">
        <ele>185.8</ele>
        <time>2023-10-12T14:15:06Z</time>
      </trkpt>
      <trkpt lat="43.57961" lon="3.3621">
        <ele>185.6</ele>
        <time>2023-10-12T14:15:08Z</time>
      </trkpt>
      <trkpt lat="43.57955" lon="3.36221">
        <ele>185.4</ele>
        <time>2023-10-12T14:15:10Z</time>
      </trkpt>
      <trkpt lat="43.57945" lon="3.36231">
        <ele>185.2</ele>
        <time>2023-10-12T14:15:12Z</time>
      </trkpt>
      <trkpt lat="43.57935" lon="3.36236">
        <ele>185</ele>
        <time>2023-10-12T14:15:14Z</time>
      </trkpt>
      <trkpt lat="43.57924" lon="3.3624">
        <ele>184.8</ele>
        <time>2023-10-12T14:15:17Z</time>
      </trkpt>
      <trkpt lat="43.57912" lon="3.36241">
        <ele>184.6</ele>
        <time>2023-10-12T14:15:21Z</time>
      </trkpt>
      <trkpt lat="43.57902" lon="3.36241">
        <ele>184.6</ele>
        <time>2023-10-12T14:15:24Z</time>
      </trkpt>
      <trkpt lat="43.57893" lon="3.36236">
        <ele>184.8</ele>
        <time>2023-10-12T14:15:27Z</time>
      </trkpt>
      <trkpt lat="43.57885" lon="3.3623">
        <ele>184.8</ele>
        <time>2023-10-12T14:15:30Z</time>
      </trkpt>
      <trkpt lat="43.57876" lon="3.3622">
        <ele>185</ele>
        <time>2023-10-12T14:15:34Z</time>
      </trkpt>
      <trkpt lat="43.57867" lon="3.36212">
        <ele>185.2</ele>
        <time>2023-10-12T14:15:38Z</time>
      </trkpt>
      <trkpt lat="43.5786" lon="3.36202">
        <ele>185.2</ele>
        <time>2023-10-12T14:15:42Z</time>
      </trkpt>
      <trkpt lat="43.57853" lon="3.3619">
        <ele>185.4</ele>
        <time>2023-10-12T14:15:46Z</time>
      </trkpt>
      <trkpt lat="43.57846" lon="3.36179">
        <ele>185.4</ele>
        <time>2023-10-12T14:15:50Z</time>
      </trkpt>
      <trkpt lat="43.57839" lon="3.3617">
        <ele>185.6</ele>
        <time>2023-10-12T14:15:54Z</time>
      </trkpt>
      <trkpt lat="43.57833" lon="3.36161">
        <ele>185.6</ele>
        <time>2023-10-12T14:15:58Z</time>
      </trkpt>
      <trkpt lat="43.57826" lon="3.36151">
        <ele>185.8</ele>
        <time>2023-10-12T14:16:02Z</time>
      </trkpt>
      <trkpt lat="43.57819" lon="3.36142">
        <ele>185.8</ele>
        <time>2023-10-12T14:16:05Z</time>
      </trkpt>
      <trkpt lat="43.57811" lon="3.36129">
        <ele>186</ele>
        <time>2023-10-12T14:16:08Z</time>
      </trkpt>
      <trkpt lat="43.57806" lon="3.36119">
        <ele>186</ele>
        <time>2023-10-12T14:16:10Z</time>
      </trkpt>
      <trkpt lat="43.57801" lon="3.36109">
        <ele>186.2</ele>
        <time>2023-10-12T14:16:12Z</time>
      </trkpt>
      <trkpt lat="43.5779" lon="3.36098">
        <ele>186.4</ele>
        <time>2023-10-12T14:16:15Z</time>
      </trkpt>
      <trkpt lat="43.57779" lon="3.36094">
        <ele>186.4</ele>
        <time>2023-10-12T14:16:18Z</time>
      </trkpt>
      <trkpt lat="43.57768" lon="3.3609">
        <ele>186</ele>
        <time>2023-10-12T14:16:22Z</time>
      </trkpt>
      <trkpt lat="43.57758" lon="3.36088">
        <ele>185.4</ele>
        <time>2023-10-12T14:16:26Z</time>
      </trkpt>
      <trkpt lat="43.57748" lon="3.3609">
        <ele>185</ele>
        <time>2023-10-12T14:16:32Z</time>
      </trkpt>
      <trkpt lat="43.57741" lon="3.36101">
        <ele>184.4</ele>
        <time>2023-10-12T14:16:35Z</time>
      </trkpt>
      <trkpt lat="43.57733" lon="3.36115">
        <ele>183.6</ele>
        <time>2023-10-12T14:16:38Z</time>
      </trkpt>
      <trkpt lat="43.57725" lon="3.36129">
        <ele>183</ele>
        <time>2023-10-12T14:16:41Z</time>
      </trkpt>
      <trkpt lat="43.57719" lon="3.36137">
        <ele>182.6</ele>
        <time>2023-10-12T14:16:43Z</time>
      </trkpt>
      <trkpt lat="43.57711" lon="3.36145">
        <ele>182</ele>
        <time>2023-10-12T14:16:45Z</time>
      </trkpt>
      <trkpt lat="43.57703" lon="3.36153">
        <ele>181.6</ele>
        <time>2023-10-12T14:16:47Z</time>
      </trkpt>
      <trkpt lat="43.57694" lon="3.36161">
        <ele>181</ele>
        <time>2023-10-12T14:16:49Z</time>
      </trkpt>
      <trkpt lat="43.57685" lon="3.36169">
        <ele>180.4</ele>
        <time>2023-10-12T14:16:51Z</time>
      </trkpt>
      <trkpt lat="43.57677" lon="3.36177">
        <ele>180</ele>
        <time>2023-10-12T14:16:55Z</time>
      </trkpt>
      <trkpt lat="43.57669" lon="3.36185">
        <ele>179.4</ele>
        <time>2023-10-12T14:16:59Z</time>
      </trkpt>
      <trkpt lat="43.5766" lon="3.36193">
        <ele>178.8</ele>
        <time>2023-10-12T14:17:02Z</time>
      </trkpt>
      <trkpt lat="43.57649" lon="3.36203">
        <ele>178.2</ele>
        <time>2023-10-12T14:17:05Z</time>
      </trkpt>
      <trkpt lat="43.5764" lon="3.36213">
        <ele>177.6</ele>
        <time>2023-10-12T14:17:08Z</time>
      </trkpt>
      <trkpt lat="43.57632" lon="3.36223">
        <ele>177.2</ele>
        <time>2023-10-12T14:17:11Z</time>
      </trkpt>
      <trkpt lat="43.57623" lon="3.36233">
        <ele>176.8</ele>
        <time>2023-10-12T14:17:14Z</time>
      </trkpt>
      <trkpt lat="43.57616" lon="3.36242">
        <ele>176.4</ele>
        <time>2023-10-12T14:17:16Z</time>
      </trkpt>
      <trkpt lat="43.57608" lon="3.36252">
        <ele>176.2</ele>
        <time>2023-10-12T14:17:18Z</time>
      </trkpt>
      <trkpt lat="43.57599" lon="3.36263">
        <ele>175.8</ele>
        <time>2023-10-12T14:17:21Z</time>
      </trkpt>
      <trkpt lat="43.57592" lon="3.36273">
        <ele>175.4</ele>
        <time>2023-10-12T14:17:24Z</time>
      </trkpt>
      <trkpt lat="43.57586" lon="3.36284">
        <ele>175.2</ele>
        <time>2023-10-12T14:17:27Z</time>
      </trkpt>
      <trkpt lat="43.57579" lon="3.36295">
        <ele>174.8</ele>
        <time>2023-10-12T14:17:31Z</time>
      </trkpt>
      <trkpt lat="43.5757" lon="3.36286">
        <ele>174.6</ele>
        <time>2023-10-12T14:17:34Z</time>
      </trkpt>
      <trkpt lat="43.57563" lon="3.36272">
        <ele>174.2</ele>
        <time>2023-10-12T14:17:37Z</time>
      </trkpt>
      <trkpt lat="43.5756" lon="3.36257">
        <ele>173.8</ele>
        <time>2023-10-12T14:17:40Z</time>
      </trkpt>
      <trkpt lat="43.57561" lon="3.36245">
        <ele>173.6</ele>
        <time>2023-10-12T14:17:43Z</time>
      </trkpt>
      <trkpt lat="43.57562" lon="3.36231">
        <ele>173.2</ele>
        <time>2023-10-12T14:17:46Z</time>
      </trkpt>
      <trkpt lat="43.5756" lon="3.36218">
        <ele>173</ele>
        <time>2023-10-12T14:17:49Z</time>
      </trkpt>
      <trkpt lat="43.5755" lon="3.36206">
        <ele>172.6</ele>
        <time>2023-10-12T14:17:52Z</time>
      </trkpt>
      <trkpt lat="43.57543" lon="3.36198">
        <ele>172.2</ele>
        <time>2023-10-12T14:17:54Z</time>
      </trkpt>
      <trkpt lat="43.57532" lon="3.3619">
        <ele>171.8</ele>
        <time>2023-10-12T14:17:57Z</time>
      </trkpt>
      <trkpt lat="43.57522" lon="3.36186">
        <ele>171.6</ele>
        <time>2023-10-12T14:18:00Z</time>
      </trkpt>
      <trkpt lat="43.57511" lon="3.36176">
        <ele>171.4</ele>
        <time>2023-10-12T14:18:03Z</time>
      </trkpt>
      <trkpt lat="43.57501" lon="3.36165">
        <ele>171</ele>
        <time>2023-10-12T14:18:06Z</time>
      </trkpt>
      <trkpt lat="43.57491" lon="3.36166">
        <ele>170.8</ele>
        <time>2023-10-12T14:18:09Z</time>
      </trkpt>
      <trkpt lat="43.57487" lon="3.36182">
        <ele>170.4</ele>
        <time>2023-10-12T14:18:12Z</time>
      </trkpt>
      <trkpt lat="43.57487" lon="3.36195">
        <ele>170.2</ele>
        <time>2023-10-12T14:18:14Z</time>
      </trkpt>
      <trkpt lat="43.57487" lon="3.36208">
        <ele>170</ele>
        <time>2023-10-12T14:18:16Z</time>
      </trkpt>
      <trkpt lat="43.57486" lon="3.36221">
        <ele>169.8</ele>
        <time>2023-10-12T14:18:18Z</time>
      </trkpt>
      <trkpt lat="43.57484" lon="3.36235">
        <ele>169.6</ele>
        <time>2023-10-12T14:18:20Z</time>
      </trkpt>
      <trkpt lat="43.57482" lon="3.3625">
        <ele>169.4</ele>
        <time>2023-10-12T14:18:22Z</time>
      </trkpt>
      <trkpt lat="43.57483" lon="3.36265">
        <ele>169.2</ele>
        <time>2023-10-12T14:18:24Z</time>
      </trkpt>
      <trkpt lat="43.57487" lon="3.36276">
        <ele>168.8</ele>
        <time>2023-10-12T14:18:26Z</time>
      </trkpt>
      <trkpt lat="43.57493" lon="3.36288">
        <ele>168.6</ele>
        <time>2023-10-12T14:18:29Z</time>
      </trkpt>
      <trkpt lat="43.575" lon="3.36299">
        <ele>168.4</ele>
        <time>2023-10-12T14:18:32Z</time>
      </trkpt>
      <trkpt lat="43.57506" lon="3.36311">
        <ele>168.2</ele>
        <time>2023-10-12T14:18:35Z</time>
      </trkpt>
      <trkpt lat="43.57513" lon="3.36325">
        <ele>167.8</ele>
        <time>2023-10-12T14:18:38Z</time>
      </trkpt>
      <trkpt lat="43.57513" lon="3.36338">
        <ele>167.6</ele>
        <time>2023-10-12T14:18:40Z</time>
      </trkpt>
      <trkpt lat="43.57512" lon="3.36352">
        <ele>167.6</ele>
        <time>2023-10-12T14:18:43Z</time>
      </trkpt>
      <trkpt lat="43.5752" lon="3.36364">
        <ele>167</ele>
        <time>2023-10-12T14:20:46Z</time>
      </trkpt>
      <trkpt lat="43.57531" lon="3.36366">
        <ele>167.2</ele>
        <time>2023-10-12T14:20:48Z</time>
      </trkpt>
      <trkpt lat="43.57541" lon="3.36368">
        <ele>167.4</ele>
        <time>2023-10-12T14:20:50Z</time>
      </trkpt>
      <trkpt lat="43.57551" lon="3.36369">
        <ele>167.4</ele>
        <time>2023-10-12T14:20:52Z</time>
      </trkpt>
      <trkpt lat="43.57564" lon="3.36371">
        <ele>167.6</ele>
        <time>2023-10-12T14:20:55Z</time>
      </trkpt>
      <trkpt lat="43.57575" lon="3.36372">
        <ele>168</ele>
        <time>2023-10-12T14:20:58Z</time>
      </trkpt>
      <trkpt lat="43.57587" lon="3.36373">
        <ele>168.2</ele>
        <time>2023-10-12T14:21:01Z</time>
      </trkpt>
      <trkpt lat="43.576" lon="3.36375">
        <ele>168.6</ele>
        <time>2023-10-12T14:21:04Z</time>
      </trkpt>
      <trkpt lat="43.57611" lon="3.36377">
        <ele>168.8</ele>
        <time>2023-10-12T14:21:07Z</time>
      </trkpt>
      <trkpt lat="43.57622" lon="3.36378">
        <ele>169</ele>
        <time>2023-10-12T14:21:10Z</time>
      </trkpt>
      <trkpt lat="43.57632" lon="3.36381">
        <ele>169.4</ele>
        <time>2023-10-12T14:21:13Z</time>
      </trkpt>
      <trkpt lat="43.57644" lon="3.36383">
        <ele>169.6</ele>
        <time>2023-10-12T14:21:16Z</time>
      </trkpt>
      <trkpt lat="43.57655" lon="3.36385">
        <ele>170</ele>
        <time>2023-10-12T14:21:19Z</time>
      </trkpt>
      <trkpt lat="43.57665" lon="3.36387">
        <ele>170.2</ele>
        <time>2023-10-12T14:21:22Z</time>
      </trkpt>
      <trkpt lat="43.57676" lon="3.36388">
        <ele>170.4</ele>
        <time>2023-10-12T14:21:25Z</time>
      </trkpt>
      <trkpt lat="43.57689" lon="3.3639">
        <ele>170.8</ele>
        <time>2023-10-12T14:21:28Z</time>
      </trkpt>
      <trkpt lat="43.57701" lon="3.36391">
        <ele>171</ele>
        <time>2023-10-12T14:21:31Z</time>
      </trkpt>
      <trkpt lat="43.57711" lon="3.36394">
        <ele>171.4</ele>
        <time>2023-10-12T14:21:33Z</time>
      </trkpt>
      <trkpt lat="43.57723" lon="3.36397">
        <ele>171.6</ele>
        <time>2023-10-12T14:21:36Z</time>
      </trkpt>
      <trkpt lat="43.57734" lon="3.36399">
        <ele>172</ele>
        <time>2023-10-12T14:21:39Z</time>
      </trkpt>
      <trkpt lat="43.57745" lon="3.364">
        <ele>172</ele>
        <time>2023-10-12T14:21:42Z</time>
      </trkpt>
      <trkpt lat="43.57757" lon="3.364">
        <ele>172</ele>
        <time>2023-10-12T14:21:45Z</time>
      </trkpt>
      <trkpt lat="43.57768" lon="3.36399">
        <ele>171.8</ele>
        <time>2023-10-12T14:21:48Z</time>
      </trkpt>
      <trkpt lat="43.5778" lon="3.36397">
        <ele>171.8</ele>
        <time>2023-10-12T14:21:51Z</time>
      </trkpt>
      <trkpt lat="43.57789" lon="3.36395">
        <ele>171.6</ele>
        <time>2023-10-12T14:21:53Z</time>
      </trkpt>
      <trkpt lat="43.57802" lon="3.36393">
        <ele>171.4</ele>
        <time>2023-10-12T14:21:56Z</time>
      </trkpt>
      <trkpt lat="43.57811" lon="3.3639">
        <ele>171.4</ele>
        <time>2023-10-12T14:21:58Z</time>
      </trkpt>
      <trkpt lat="43.57822" lon="3.36388">
        <ele>171.2</ele>
        <time>2023-10-12T14:22:00Z</time>
      </trkpt>
      <trkpt lat="43.57833" lon="3.36386">
        <ele>171.2</ele>
        <time>2023-10-12T14:22:02Z</time>
      </trkpt>
      <trkpt lat="43.57843" lon="3.36384">
        <ele>171</ele>
        <time>2023-10-12T14:22:04Z</time>
      </trkpt>
      <trkpt lat="43.57853" lon="3.36382">
        <ele>171</ele>
        <time>2023-10-12T14:22:06Z</time>
      </trkpt>
      <trkpt lat="43.57862" lon="3.3638">
        <ele>170.8</ele>
        <time>2023-10-12T14:22:08Z</time>
      </trkpt>
      <trkpt lat="43.57874" lon="3.36378">
        <ele>170.8</ele>
        <time>2023-10-12T14:22:11Z</time>
      </trkpt>
      <trkpt lat="43.57884" lon="3.36382">
        <ele>170.6</ele>
        <time>2023-10-12T14:22:14Z</time>
      </trkpt>
      <trkpt lat="43.57888" lon="3.36394">
        <ele>170.6</ele>
        <time>2023-10-12T14:22:16Z</time>
      </trkpt>
      <trkpt lat="43.57891" lon="3.36408">
        <ele>170.4</ele>
        <time>2023-10-12T14:22:18Z</time>
      </trkpt>
      <trkpt lat="43.57893" lon="3.36423">
        <ele>170.4</ele>
        <time>2023-10-12T14:22:20Z</time>
      </trkpt>
      <trkpt lat="43.57895" lon="3.36439">
        <ele>170.4</ele>
        <time>2023-10-12T14:22:22Z</time>
      </trkpt>
      <trkpt lat="43.579" lon="3.36455">
        <ele>170.8</ele>
        <time>2023-10-12T14:22:24Z</time>
      </trkpt>
      <trkpt lat="43.57908" lon="3.3647">
        <ele>171.2</ele>
        <time>2023-10-12T14:22:26Z</time>
      </trkpt>
      <trkpt lat="43.57915" lon="3.36485">
        <ele>171.6</ele>
        <time>2023-10-12T14:22:28Z</time>
      </trkpt>
      <trkpt lat="43.57919" lon="3.365">
        <ele>172</ele>
        <time>2023-10-12T14:22:30Z</time>
      </trkpt>
      <trkpt lat="43.57919" lon="3.36513">
        <ele>172.2</ele>
        <time>2023-10-12T14:22:32Z</time>
      </trkpt>
      <trkpt lat="43.5791" lon="3.36525">
        <ele>172.6</ele>
        <time>2023-10-12T14:22:35Z</time>
      </trkpt>
      <trkpt lat="43.57897" lon="3.3653">
        <ele>173</ele>
        <time>2023-10-12T14:22:38Z</time>
      </trkpt>
      <trkpt lat="43.57888" lon="3.36529">
        <ele>173.4</ele>
        <time>2023-10-12T14:22:40Z</time>
      </trkpt>
      <trkpt lat="43.57879" lon="3.36529">
        <ele>173.6</ele>
        <time>2023-10-12T14:22:42Z</time>
      </trkpt>
      <trkpt lat="43.5787" lon="3.3653">
        <ele>173.8</ele>
        <time>2023-10-12T14:22:44Z</time>
      </trkpt>
      <trkpt lat="43.57861" lon="3.36533">
        <ele>174.2</ele>
        <time>2023-10-12T14:22:46Z</time>
      </trkpt>
      <trkpt lat="43.5785" lon="3.36538">
        <ele>174.4</ele>
        <time>2023-10-12T14:22:49Z</time>
      </trkpt>
      <trkpt lat="43.57841" lon="3.3655">
        <ele>174.8</ele>
        <time>2023-10-12T14:22:52Z</time>
      </trkpt>
      <trkpt lat="43.57837" lon="3.36565">
        <ele>175.2</ele>
        <time>2023-10-12T14:22:55Z</time>
      </trkpt>
      <trkpt lat="43.57835" lon="3.3658">
        <ele>175.6</ele>
        <time>2023-10-12T14:22:58Z</time>
      </trkpt>
      <trkpt lat="43.57832" lon="3.36594">
        <ele>175.8</ele>
        <time>2023-10-12T14:23:01Z</time>
      </trkpt>
      <trkpt lat="43.57828" lon="3.36609">
        <ele>176</ele>
        <time>2023-10-12T14:23:04Z</time>
      </trkpt>
      <trkpt lat="43.57822" lon="3.36622">
        <ele>176.2</ele>
        <time>2023-10-12T14:23:07Z</time>
      </trkpt>
      <trkpt lat="43.57815" lon="3.36634">
        <ele>176.4</ele>
        <time>2023-10-12T14:23:10Z</time>
      </trkpt>
      <trkpt lat="43.57808" lon="3.36646">
        <ele>176.6</ele>
        <time>2023-10-12T14:23:13Z</time>
      </trkpt>
      <trkpt lat="43.57801" lon="3.36656">
        <ele>176.8</ele>
        <time>2023-10-12T14:23:16Z</time>
      </trkpt>
      <trkpt lat="43.57795" lon="3.36666">
        <ele>177</ele>
        <time>2023-10-12T14:23:19Z</time>
      </trkpt>
      <trkpt lat="43.57788" lon="3.36677">
        <ele>177.4</ele>
        <time>2023-10-12T14:23:22Z</time>
      </trkpt>
      <trkpt lat="43.57781" lon="3.36688">
        <ele>177.6</ele>
        <time>2023-10-12T14:23:25Z</time>
      </trkpt>
      <trkpt lat="43.57777" lon="3.36702">
        <ele>177.8</ele>
        <time>2023-10-12T14:23:29Z</time>
      </trkpt>
      <trkpt lat="43.57775" lon="3.36715">
        <ele>178</ele>
        <time>2023-10-12T14:23:33Z</time>
      </trkpt>
      <trkpt lat="43.57778" lon="3.3673">
        <ele>178.2</ele>
        <time>2023-10-12T14:23:39Z</time>
      </trkpt>
      <trkpt lat="43.57782" lon="3.36743">
        <ele>178.4</ele>
        <time>2023-10-12T14:23:42Z</time>
      </trkpt>
      <trkpt lat="43.57786" lon="3.3676">
        <ele>178.6</ele>
        <time>2023-10-12T14:23:45Z</time>
      </trkpt>
      <trkpt lat="43.5779" lon="3.36775">
        <ele>179</ele>
        <time>2023-10-12T14:23:48Z</time>
      </trkpt>
      <trkpt lat="43.57792" lon="3.3679">
        <ele>179.2</ele>
        <time>2023-10-12T14:23:51Z</time>
      </trkpt>
      <trkpt lat="43.57795" lon="3.36802">
        <ele>179.4</ele>
        <time>2023-10-12T14:23:54Z</time>
      </trkpt>
      <trkpt lat="43.57798" lon="3.36814">
        <ele>179.4</ele>
        <time>2023-10-12T14:23:57Z</time>
      </trkpt>
      <trkpt lat="43.57803" lon="3.36829">
        <ele>179.4</ele>
        <time>2023-10-12T14:24:01Z</time>
      </trkpt>
      <trkpt lat="43.57807" lon="3.36844">
        <ele>179.4</ele>
        <time>2023-10-12T14:24:05Z</time>
      </trkpt>
      <trkpt lat="43.57809" lon="3.36859">
        <ele>179.4</ele>
        <time>2023-10-12T14:24:09Z</time>
      </trkpt>
      <trkpt lat="43.57811" lon="3.36873">
        <ele>179.4</ele>
        <time>2023-10-12T14:24:12Z</time>
      </trkpt>
      <trkpt lat="43.57812" lon="3.3689">
        <ele>179.4</ele>
        <time>2023-10-12T14:24:15Z</time>
      </trkpt>
      <trkpt lat="43.57813" lon="3.36904">
        <ele>179.4</ele>
        <time>2023-10-12T14:24:17Z</time>
      </trkpt>
      <trkpt lat="43.57812" lon="3.36918">
        <ele>179.4</ele>
        <time>2023-10-12T14:24:19Z</time>
      </trkpt>
      <trkpt lat="43.57809" lon="3.36933">
        <ele>179.4</ele>
        <time>2023-10-12T14:24:21Z</time>
      </trkpt>
      <trkpt lat="43.57808" lon="3.36949">
        <ele>179.6</ele>
        <time>2023-10-12T14:24:23Z</time>
      </trkpt>
      <trkpt lat="43.57808" lon="3.36966">
        <ele>179.6</ele>
        <time>2023-10-12T14:24:25Z</time>
      </trkpt>
      <trkpt lat="43.57802" lon="3.36983">
        <ele>179.6</ele>
        <time>2023-10-12T14:24:27Z</time>
      </trkpt>
      <trkpt lat="43.57795" lon="3.36999">
        <ele>179.6</ele>
        <time>2023-10-12T14:24:29Z</time>
      </trkpt>
      <trkpt lat="43.57789" lon="3.37018">
        <ele>179.6</ele>
        <time>2023-10-12T14:24:31Z</time>
      </trkpt>
      <trkpt lat="43.57784" lon="3.37038">
        <ele>179.6</ele>
        <time>2023-10-12T14:24:33Z</time>
      </trkpt>
      <trkpt lat="43.57782" lon="3.37055">
        <ele>180.4</ele>
        <time>2023-10-12T14:24:35Z</time>
      </trkpt>
      <trkpt lat="43.57781" lon="3.37069">
        <ele>181.2</ele>
        <time>2023-10-12T14:24:37Z</time>
      </trkpt>
      <trkpt lat="43.5778" lon="3.37082">
        <ele>182</ele>
        <time>2023-10-12T14:24:39Z</time>
      </trkpt>
      <trkpt lat="43.57779" lon="3.37095">
        <ele>182.6</ele>
        <time>2023-10-12T14:24:41Z</time>
      </trkpt>
      <trkpt lat="43.57777" lon="3.37108">
        <ele>183.4</ele>
        <time>2023-10-12T14:24:43Z</time>
      </trkpt>
      <trkpt lat="43.57776" lon="3.37122">
        <ele>184.2</ele>
        <time>2023-10-12T14:24:46Z</time>
      </trkpt>
      <trkpt lat="43.57773" lon="3.37137">
        <ele>185</ele>
        <time>2023-10-12T14:24:51Z</time>
      </trkpt>
      <trkpt lat="43.57772" lon="3.37151">
        <ele>185.8</ele>
        <time>2023-10-12T14:24:55Z</time>
      </trkpt>
      <trkpt lat="43.57774" lon="3.37165">
        <ele>186.6</ele>
        <time>2023-10-12T14:25:00Z</time>
      </trkpt>
      <trkpt lat="43.57782" lon="3.37175">
        <ele>187.4</ele>
        <time>2023-10-12T14:25:04Z</time>
      </trkpt>
      <trkpt lat="43.57792" lon="3.37182">
        <ele>188.2</ele>
        <time>2023-10-12T14:25:08Z</time>
      </trkpt>
      <trkpt lat="43.57801" lon="3.3719">
        <ele>189.2</ele>
        <time>2023-10-12T14:25:12Z</time>
      </trkpt>
      <trkpt lat="43.57809" lon="3.37198">
        <ele>189.8</ele>
        <time>2023-10-12T14:25:15Z</time>
      </trkpt>
      <trkpt lat="43.57818" lon="3.37207">
        <ele>190.8</ele>
        <time>2023-10-12T14:25:19Z</time>
      </trkpt>
      <trkpt lat="43.57827" lon="3.37214">
        <ele>191.6</ele>
        <time>2023-10-12T14:25:23Z</time>
      </trkpt>
      <trkpt lat="43.57837" lon="3.37223">
        <ele>192.4</ele>
        <time>2023-10-12T14:25:27Z</time>
      </trkpt>
      <trkpt lat="43.57846" lon="3.3723">
        <ele>193.2</ele>
        <time>2023-10-12T14:25:31Z</time>
      </trkpt>
      <trkpt lat="43.57855" lon="3.37238">
        <ele>193.6</ele>
        <time>2023-10-12T14:25:35Z</time>
      </trkpt>
      <trkpt lat="43.57865" lon="3.37245">
        <ele>193.8</ele>
        <time>2023-10-12T14:25:39Z</time>
      </trkpt>
      <trkpt lat="43.57875" lon="3.37253">
        <ele>194</ele>
        <time>2023-10-12T14:25:43Z</time>
      </trkpt>
      <trkpt lat="43.57885" lon="3.3726">
        <ele>194.4</ele>
        <time>2023-10-12T14:25:47Z</time>
      </trkpt>
      <trkpt lat="43.57893" lon="3.37266">
        <ele>194.6</ele>
        <time>2023-10-12T14:25:50Z</time>
      </trkpt>
      <trkpt lat="43.57902" lon="3.37272">
        <ele>194.8</ele>
        <time>2023-10-12T14:25:53Z</time>
      </trkpt>
      <trkpt lat="43.57913" lon="3.37279">
        <ele>195</ele>
        <time>2023-10-12T14:25:56Z</time>
      </trkpt>
      <trkpt lat="43.57924" lon="3.37286">
        <ele>195.4</ele>
        <time>2023-10-12T14:25:59Z</time>
      </trkpt>
      <trkpt lat="43.57935" lon="3.37295">
        <ele>195.6</ele>
        <time>2023-10-12T14:26:02Z</time>
      </trkpt>
      <trkpt lat="43.57945" lon="3.37302">
        <ele>195.8</ele>
        <time>2023-10-12T14:26:05Z</time>
      </trkpt>
      <trkpt lat="43.57955" lon="3.37308">
        <ele>196.2</ele>
        <time>2023-10-12T14:26:08Z</time>
      </trkpt>
      <trkpt lat="43.57965" lon="3.37315">
        <ele>196.4</ele>
        <time>2023-10-12T14:26:11Z</time>
      </trkpt>
      <trkpt lat="43.57977" lon="3.37323">
        <ele>196.8</ele>
        <time>2023-10-12T14:26:14Z</time>
      </trkpt>
      <trkpt lat="43.57988" lon="3.37331">
        <ele>197</ele>
        <time>2023-10-12T14:26:17Z</time>
      </trkpt>
      <trkpt lat="43.57998" lon="3.3734">
        <ele>197.2</ele>
        <time>2023-10-12T14:26:20Z</time>
      </trkpt>
      <trkpt lat="43.58004" lon="3.37352">
        <ele>197.6</ele>
        <time>2023-10-12T14:26:23Z</time>
      </trkpt>
      <trkpt lat="43.58008" lon="3.37365">
        <ele>198.6</ele>
        <time>2023-10-12T14:26:26Z</time>
      </trkpt>
      <trkpt lat="43.58011" lon="3.37378">
        <ele>199.6</ele>
        <time>2023-10-12T14:26:29Z</time>
      </trkpt>
      <trkpt lat="43.58015" lon="3.37389">
        <ele>200.4</ele>
        <time>2023-10-12T14:26:32Z</time>
      </trkpt>
      <trkpt lat="43.58019" lon="3.37402">
        <ele>201.4</ele>
        <time>2023-10-12T14:26:35Z</time>
      </trkpt>
      <trkpt lat="43.58023" lon="3.37414">
        <ele>202.4</ele>
        <time>2023-10-12T14:26:38Z</time>
      </trkpt>
      <trkpt lat="43.58028" lon="3.37428">
        <ele>203.6</ele>
        <time>2023-10-12T14:26:42Z</time>
      </trkpt>
      <trkpt lat="43.58031" lon="3.37442">
        <ele>204.6</ele>
        <time>2023-10-12T14:26:46Z</time>
      </trkpt>
      <trkpt lat="43.58035" lon="3.37457">
        <ele>205.8</ele>
        <time>2023-10-12T14:26:50Z</time>
      </trkpt>
      <trkpt lat="43.58041" lon="3.37468">
        <ele>206.8</ele>
        <time>2023-10-12T14:26:55Z</time>
      </trkpt>
      <trkpt lat="43.58047" lon="3.37479">
        <ele>207.8</ele>
        <time>2023-10-12T14:27:00Z</time>
      </trkpt>
      <trkpt lat="43.58053" lon="3.37489">
        <ele>208.6</ele>
        <time>2023-10-12T14:27:05Z</time>
      </trkpt>
      <trkpt lat="43.58059" lon="3.37501">
        <ele>209.8</ele>
        <time>2023-10-12T14:27:11Z</time>
      </trkpt>
      <trkpt lat="43.58065" lon="3.37511">
        <ele>210.8</ele>
        <time>2023-10-12T14:27:15Z</time>
      </trkpt>
      <trkpt lat="43.58072" lon="3.37522">
        <ele>211.8</ele>
        <time>2023-10-12T14:27:18Z</time>
      </trkpt>
      <trkpt lat="43.58079" lon="3.37531">
        <ele>212.8</ele>
        <time>2023-10-12T14:27:21Z</time>
      </trkpt>
      <trkpt lat="43.58088" lon="3.3754">
        <ele>213.8</ele>
        <time>2023-10-12T14:27:25Z</time>
      </trkpt>
      <trkpt lat="43.58095" lon="3.37549">
        <ele>214.8</ele>
        <time>2023-10-12T14:27:28Z</time>
      </trkpt>
      <trkpt lat="43.58103" lon="3.37561">
        <ele>215.8</ele>
        <time>2023-10-12T14:27:31Z</time>
      </trkpt>
      <trkpt lat="43.58108" lon="3.37572">
        <ele>216.4</ele>
        <time>2023-10-12T14:27:34Z</time>
      </trkpt>
      <trkpt lat="43.58113" lon="3.37584">
        <ele>217</ele>
        <time>2023-10-12T14:27:37Z</time>
      </trkpt>
      <trkpt lat="43.58119" lon="3.37595">
        <ele>217.6</ele>
        <time>2023-10-12T14:27:40Z</time>
      </trkpt>
      <trkpt lat="43.58125" lon="3.37605">
        <ele>218.2</ele>
        <time>2023-10-12T14:27:43Z</time>
      </trkpt>
      <trkpt lat="43.5813" lon="3.37618">
        <ele>218.8</ele>
        <time>2023-10-12T14:27:46Z</time>
      </trkpt>
      <trkpt lat="43.58129" lon="3.37634">
        <ele>219.6</ele>
        <time>2023-10-12T14:27:49Z</time>
      </trkpt>
      <trkpt lat="43.58128" lon="3.3765">
        <ele>220.4</ele>
        <time>2023-10-12T14:27:52Z</time>
      </trkpt>
      <trkpt lat="43.58125" lon="3.37665">
        <ele>221</ele>
        <time>2023-10-12T14:27:55Z</time>
      </trkpt>
      <trkpt lat="43.58123" lon="3.3768">
        <ele>221.6</ele>
        <time>2023-10-12T14:27:58Z</time>
      </trkpt>
      <trkpt lat="43.58121" lon="3.37695">
        <ele>222.4</ele>
        <time>2023-10-12T14:28:01Z</time>
      </trkpt>
      <trkpt lat="43.5812" lon="3.3771">
        <ele>223</ele>
        <time>2023-10-12T14:28:04Z</time>
      </trkpt>
      <trkpt lat="43.58126" lon="3.37723">
        <ele>223.8</ele>
        <time>2023-10-12T14:28:07Z</time>
      </trkpt>
      <trkpt lat="43.58134" lon="3.37731">
        <ele>224.4</ele>
        <time>2023-10-12T14:28:10Z</time>
      </trkpt>
      <trkpt lat="43.58141" lon="3.37742">
        <ele>225</ele>
        <time>2023-10-12T14:28:13Z</time>
      </trkpt>
      <trkpt lat="43.58148" lon="3.37754">
        <ele>225.8</ele>
        <time>2023-10-12T14:28:16Z</time>
      </trkpt>
      <trkpt lat="43.58154" lon="3.37764">
        <ele>226.4</ele>
        <time>2023-10-12T14:28:19Z</time>
      </trkpt>
      <trkpt lat="43.58161" lon="3.37777">
        <ele>226.6</ele>
        <time>2023-10-12T14:28:23Z</time>
      </trkpt>
      <trkpt lat="43.58166" lon="3.37791">
        <ele>226.6</ele>
        <time>2023-10-12T14:28:27Z</time>
      </trkpt>
      <trkpt lat="43.58172" lon="3.37802">
        <ele>226.4</ele>
        <time>2023-10-12T14:28:31Z</time>
      </trkpt>
      <trkpt lat="43.58181" lon="3.37811">
        <ele>226.4</ele>
        <time>2023-10-12T14:28:35Z</time>
      </trkpt>
      <trkpt lat="43.58191" lon="3.37817">
        <ele>226.2</ele>
        <time>2023-10-12T14:28:38Z</time>
      </trkpt>
      <trkpt lat="43.582" lon="3.37825">
        <ele>226.2</ele>
        <time>2023-10-12T14:28:41Z</time>
      </trkpt>
      <trkpt lat="43.58208" lon="3.37835">
        <ele>226.2</ele>
        <time>2023-10-12T14:28:44Z</time>
      </trkpt>
      <trkpt lat="43.58214" lon="3.37845">
        <ele>226</ele>
        <time>2023-10-12T14:28:47Z</time>
      </trkpt>
      <trkpt lat="43.58222" lon="3.37859">
        <ele>226</ele>
        <time>2023-10-12T14:28:50Z</time>
      </trkpt>
      <trkpt lat="43.5823" lon="3.37866">
        <ele>225.8</ele>
        <time>2023-10-12T14:28:52Z</time>
      </trkpt>
      <trkpt lat="43.5824" lon="3.37872">
        <ele>225.8</ele>
        <time>2023-10-12T14:28:54Z</time>
      </trkpt>
      <trkpt lat="43.58251" lon="3.37878">
        <ele>225.8</ele>
        <time>2023-10-12T14:28:56Z</time>
      </trkpt>
      <trkpt lat="43.58262" lon="3.37887">
        <ele>225.6</ele>
        <time>2023-10-12T14:28:58Z</time>
      </trkpt>
      <trkpt lat="43.58274" lon="3.37898">
        <ele>225.6</ele>
        <time>2023-10-12T14:29:00Z</time>
      </trkpt>
      <trkpt lat="43.58285" lon="3.37909">
        <ele>225.4</ele>
        <time>2023-10-12T14:29:02Z</time>
      </trkpt>
      <trkpt lat="43.58296" lon="3.3792">
        <ele>225.4</ele>
        <time>2023-10-12T14:29:04Z</time>
      </trkpt>
      <trkpt lat="43.58306" lon="3.3793">
        <ele>225.6</ele>
        <time>2023-10-12T14:29:06Z</time>
      </trkpt>
      <trkpt lat="43.58315" lon="3.37938">
        <ele>226</ele>
        <time>2023-10-12T14:29:08Z</time>
      </trkpt>
      <trkpt lat="43.58322" lon="3.37947">
        <ele>226.2</ele>
        <time>2023-10-12T14:29:10Z</time>
      </trkpt>
      <trkpt lat="43.58326" lon="3.37963">
        <ele>226.6</ele>
        <time>2023-10-12T14:29:13Z</time>
      </trkpt>
      <trkpt lat="43.58325" lon="3.37981">
        <ele>227</ele>
        <time>2023-10-12T14:29:16Z</time>
      </trkpt>
      <trkpt lat="43.58325" lon="3.37994">
        <ele>227.2</ele>
        <time>2023-10-12T14:29:18Z</time>
      </trkpt>
      <trkpt lat="43.58329" lon="3.38012">
        <ele>227.6</ele>
        <time>2023-10-12T14:29:21Z</time>
      </trkpt>
      <trkpt lat="43.5833" lon="3.38029">
        <ele>228</ele>
        <time>2023-10-12T14:29:24Z</time>
      </trkpt>
      <trkpt lat="43.58333" lon="3.38044">
        <ele>228.4</ele>
        <time>2023-10-12T14:29:27Z</time>
      </trkpt>
      <trkpt lat="43.58339" lon="3.38054">
        <ele>228.6</ele>
        <time>2023-10-12T14:29:29Z</time>
      </trkpt>
      <trkpt lat="43.58345" lon="3.38065">
        <ele>229</ele>
        <time>2023-10-12T14:29:31Z</time>
      </trkpt>
      <trkpt lat="43.5835" lon="3.38078">
        <ele>229.2</ele>
        <time>2023-10-12T14:29:33Z</time>
      </trkpt>
      <trkpt lat="43.58352" lon="3.38094">
        <ele>229.6</ele>
        <time>2023-10-12T14:29:35Z</time>
      </trkpt>
      <trkpt lat="43.58356" lon="3.3811">
        <ele>230</ele>
        <time>2023-10-12T14:29:37Z</time>
      </trkpt>
      <trkpt lat="43.58361" lon="3.38123">
        <ele>230.2</ele>
        <time>2023-10-12T14:29:39Z</time>
      </trkpt>
      <trkpt lat="43.58367" lon="3.38134">
        <ele>230.6</ele>
        <time>2023-10-12T14:29:41Z</time>
      </trkpt>
      <trkpt lat="43.58373" lon="3.38144">
        <ele>231.2</ele>
        <time>2023-10-12T14:29:43Z</time>
      </trkpt>
      <trkpt lat="43.5838" lon="3.38154">
        <ele>232</ele>
        <time>2023-10-12T14:29:45Z</time>
      </trkpt>
      <trkpt lat="43.58386" lon="3.38163">
        <ele>232.8</ele>
        <time>2023-10-12T14:29:47Z</time>
      </trkpt>
      <trkpt lat="43.58395" lon="3.38175">
        <ele>233.8</ele>
        <time>2023-10-12T14:29:50Z</time>
      </trkpt>
      <trkpt lat="43.58404" lon="3.38184">
        <ele>234.6</ele>
        <time>2023-10-12T14:29:53Z</time>
      </trkpt>
      <trkpt lat="43.58411" lon="3.38196">
        <ele>235.6</ele>
        <time>2023-10-12T14:29:56Z</time>
      </trkpt>
      <trkpt lat="43.58412" lon="3.38211">
        <ele>236.4</ele>
        <time>2023-10-12T14:29:59Z</time>
      </trkpt>
      <trkpt lat="43.58413" lon="3.38226">
        <ele>237.4</ele>
        <time>2023-10-12T14:30:02Z</time>
      </trkpt>
      <trkpt lat="43.58415" lon="3.38241">
        <ele>238.2</ele>
        <time>2023-10-12T14:30:06Z</time>
      </trkpt>
      <trkpt lat="43.5842" lon="3.38254">
        <ele>239.2</ele>
        <time>2023-10-12T14:30:10Z</time>
      </trkpt>
      <trkpt lat="43.58426" lon="3.38266">
        <ele>240</ele>
        <time>2023-10-12T14:30:13Z</time>
      </trkpt>
      <trkpt lat="43.5843" lon="3.38279">
        <ele>240.8</ele>
        <time>2023-10-12T14:30:16Z</time>
      </trkpt>
      <trkpt lat="43.58433" lon="3.38293">
        <ele>241.6</ele>
        <time>2023-10-12T14:30:19Z</time>
      </trkpt>
      <trkpt lat="43.58435" lon="3.38309">
        <ele>242.6</ele>
        <time>2023-10-12T14:30:22Z</time>
      </trkpt>
      <trkpt lat="43.58436" lon="3.38325">
        <ele>243.6</ele>
        <time>2023-10-12T14:30:25Z</time>
      </trkpt>
      <trkpt lat="43.58437" lon="3.38342">
        <ele>244.6</ele>
        <time>2023-10-12T14:30:28Z</time>
      </trkpt>
      <trkpt lat="43.58439" lon="3.38355">
        <ele>245.2</ele>
        <time>2023-10-12T14:30:30Z</time>
      </trkpt>
      <trkpt lat="43.58441" lon="3.38368">
        <ele>245.4</ele>
        <time>2023-10-12T14:30:32Z</time>
      </trkpt>
      <trkpt lat="43.58443" lon="3.38382">
        <ele>245.6</ele>
        <time>2023-10-12T14:30:34Z</time>
      </trkpt>
      <trkpt lat="43.58444" lon="3.38399">
        <ele>246</ele>
        <time>2023-10-12T14:30:37Z</time>
      </trkpt>
      <trkpt lat="43.58444" lon="3.38414">
        <ele>246.2</ele>
        <time>2023-10-12T14:30:40Z</time>
      </trkpt>
      <trkpt lat="43.58441" lon="3.38427">
        <ele>246.4</ele>
        <time>2023-10-12T14:30:43Z</time>
      </trkpt>
      <trkpt lat="43.58436" lon="3.38439">
        <ele>246.6</ele>
        <time>2023-10-12T14:30:46Z</time>
      </trkpt>
      <trkpt lat="43.58437" lon="3.38454">
        <ele>247</ele>
        <time>2023-10-12T14:30:50Z</time>
      </trkpt>
      <trkpt lat="43.58444" lon="3.38463">
        <ele>247.2</ele>
        <time>2023-10-12T14:30:55Z</time>
      </trkpt>
      <trkpt lat="43.58453" lon="3.38466">
        <ele>247.4</ele>
        <time>2023-10-12T14:30:59Z</time>
      </trkpt>
      <trkpt lat="43.58464" lon="3.3847">
        <ele>247.6</ele>
        <time>2023-10-12T14:31:02Z</time>
      </trkpt>
      <trkpt lat="43.58475" lon="3.38478">
        <ele>248</ele>
        <time>2023-10-12T14:31:05Z</time>
      </trkpt>
      <trkpt lat="43.58484" lon="3.38487">
        <ele>248.2</ele>
        <time>2023-10-12T14:31:08Z</time>
      </trkpt>
      <trkpt lat="43.58492" lon="3.385">
        <ele>248.6</ele>
        <time>2023-10-12T14:31:11Z</time>
      </trkpt>
      <trkpt lat="43.58496" lon="3.38515">
        <ele>248.8</ele>
        <time>2023-10-12T14:31:14Z</time>
      </trkpt>
      <trkpt lat="43.58497" lon="3.3854">
        <ele>249.2</ele>
        <time>2023-10-12T14:33:03Z</time>
      </trkpt>
      <trkpt lat="43.58497" lon="3.38556">
        <ele>249.6</ele>
        <time>2023-10-12T14:33:06Z</time>
      </trkpt>
      <trkpt lat="43.585" lon="3.38569">
        <ele>250</ele>
        <time>2023-10-12T14:33:09Z</time>
      </trkpt>
      <trkpt lat="43.58503" lon="3.38587">
        <ele>250.6</ele>
        <time>2023-10-12T14:33:12Z</time>
      </trkpt>
      <trkpt lat="43.58506" lon="3.38605">
        <ele>251.2</ele>
        <time>2023-10-12T14:33:15Z</time>
      </trkpt>
      <trkpt lat="43.58506" lon="3.38618">
        <ele>251.6</ele>
        <time>2023-10-12T14:33:17Z</time>
      </trkpt>
      <trkpt lat="43.58508" lon="3.38636">
        <ele>252.2</ele>
        <time>2023-10-12T14:33:20Z</time>
      </trkpt>
      <trkpt lat="43.5851" lon="3.38653">
        <ele>252.8</ele>
        <time>2023-10-12T14:33:23Z</time>
      </trkpt>
      <trkpt lat="43.58512" lon="3.38667">
        <ele>253.4</ele>
        <time>2023-10-12T14:33:26Z</time>
      </trkpt>
      <trkpt lat="43.58515" lon="3.38682">
        <ele>253.8</ele>
        <time>2023-10-12T14:33:29Z</time>
      </trkpt>
      <trkpt lat="43.58517" lon="3.38694">
        <ele>254.2</ele>
        <time>2023-10-12T14:33:32Z</time>
      </trkpt>
      <trkpt lat="43.5852" lon="3.38708">
        <ele>254.8</ele>
        <time>2023-10-12T14:33:35Z</time>
      </trkpt>
      <trkpt lat="43.58521" lon="3.38721">
        <ele>255.2</ele>
        <time>2023-10-12T14:33:38Z</time>
      </trkpt>
      <trkpt lat="43.58521" lon="3.38736">
        <ele>255.6</ele>
        <time>2023-10-12T14:33:42Z</time>
      </trkpt>
      <trkpt lat="43.5852" lon="3.38751">
        <ele>256.2</ele>
        <time>2023-10-12T14:33:46Z</time>
      </trkpt>
      <trkpt lat="43.58522" lon="3.38766">
        <ele>256.6</ele>
        <time>2023-10-12T14:33:50Z</time>
      </trkpt>
      <trkpt lat="43.58522" lon="3.38779">
        <ele>257</ele>
        <time>2023-10-12T14:33:53Z</time>
      </trkpt>
      <trkpt lat="43.58521" lon="3.38793">
        <ele>257.6</ele>
        <time>2023-10-12T14:33:57Z</time>
      </trkpt>
      <trkpt lat="43.58516" lon="3.38807">
        <ele>258.4</ele>
        <time>2023-10-12T14:34:01Z</time>
      </trkpt>
      <trkpt lat="43.58513" lon="3.38823">
        <ele>259.2</ele>
        <time>2023-10-12T14:34:05Z</time>
      </trkpt>
      <trkpt lat="43.58512" lon="3.38838">
        <ele>260</ele>
        <time>2023-10-12T14:34:08Z</time>
      </trkpt>
      <trkpt lat="43.58512" lon="3.38851">
        <ele>260.8</ele>
        <time>2023-10-12T14:34:11Z</time>
      </trkpt>
      <trkpt lat="43.58512" lon="3.38865">
        <ele>261.6</ele>
        <time>2023-10-12T14:34:15Z</time>
      </trkpt>
      <trkpt lat="43.58511" lon="3.38879">
        <ele>262.4</ele>
        <time>2023-10-12T14:34:19Z</time>
      </trkpt>
      <trkpt lat="43.58505" lon="3.38889">
        <ele>263</ele>
        <time>2023-10-12T14:34:22Z</time>
      </trkpt>
      <trkpt lat="43.58498" lon="3.38898">
        <ele>263.8</ele>
        <time>2023-10-12T14:34:25Z</time>
      </trkpt>
      <trkpt lat="43.58489" lon="3.38904">
        <ele>264.6</ele>
        <time>2023-10-12T14:34:28Z</time>
      </trkpt>
      <trkpt lat="43.58481" lon="3.38911">
        <ele>265.4</ele>
        <time>2023-10-12T14:34:32Z</time>
      </trkpt>
      <trkpt lat="43.58472" lon="3.38921">
        <ele>266.2</ele>
        <time>2023-10-12T14:34:36Z</time>
      </trkpt>
      <trkpt lat="43.58466" lon="3.38934">
        <ele>267</ele>
        <time>2023-10-12T14:34:40Z</time>
      </trkpt>
      <trkpt lat="43.58462" lon="3.38947">
        <ele>267.8</ele>
        <time>2023-10-12T14:34:45Z</time>
      </trkpt>
      <trkpt lat="43.58459" lon="3.38959">
        <ele>268.6</ele>
        <time>2023-10-12T14:34:50Z</time>
      </trkpt>
      <trkpt lat="43.58457" lon="3.38973">
        <ele>269.2</ele>
        <time>2023-10-12T14:34:55Z</time>
      </trkpt>
      <trkpt lat="43.58454" lon="3.38985">
        <ele>270</ele>
        <time>2023-10-12T14:35:00Z</time>
      </trkpt>
      <trkpt lat="43.58453" lon="3.38997">
        <ele>270.6</ele>
        <time>2023-10-12T14:35:05Z</time>
      </trkpt>
      <trkpt lat="43.58451" lon="3.39012">
        <ele>271.4</ele>
        <time>2023-10-12T14:35:10Z</time>
      </trkpt>
      <trkpt lat="43.58447" lon="3.39027">
        <ele>272.4</ele>
        <time>2023-10-12T14:35:15Z</time>
      </trkpt>
      <trkpt lat="43.58443" lon="3.3904">
        <ele>273</ele>
        <time>2023-10-12T14:35:19Z</time>
      </trkpt>
      <trkpt lat="43.58438" lon="3.39051">
        <ele>273.8</ele>
        <time>2023-10-12T14:35:23Z</time>
      </trkpt>
      <trkpt lat="43.58434" lon="3.39062">
        <ele>274.4</ele>
        <time>2023-10-12T14:35:28Z</time>
      </trkpt>
      <trkpt lat="43.58428" lon="3.39073">
        <ele>275.2</ele>
        <time>2023-10-12T14:35:33Z</time>
      </trkpt>
      <trkpt lat="43.58422" lon="3.39085">
        <ele>276</ele>
        <time>2023-10-12T14:35:38Z</time>
      </trkpt>
      <trkpt lat="43.58421" lon="3.39099">
        <ele>276.8</ele>
        <time>2023-10-12T14:35:43Z</time>
      </trkpt>
      <trkpt lat="43.58421" lon="3.39115">
        <ele>277.6</ele>
        <time>2023-10-12T14:35:48Z</time>
      </trkpt>
      <trkpt lat="43.58416" lon="3.39128">
        <ele>278.4</ele>
        <time>2023-10-12T14:35:53Z</time>
      </trkpt>
      <trkpt lat="43.58411" lon="3.3914">
        <ele>279.2</ele>
        <time>2023-10-12T14:35:58Z</time>
      </trkpt>
      <trkpt lat="43.58405" lon="3.39152">
        <ele>279.8</ele>
        <time>2023-10-12T14:36:03Z</time>
      </trkpt>
      <trkpt lat="43.58401" lon="3.39167">
        <ele>280.8</ele>
        <time>2023-10-12T14:36:07Z</time>
      </trkpt>
      <trkpt lat="43.58396" lon="3.39181">
        <ele>281.6</ele>
        <time>2023-10-12T14:36:10Z</time>
      </trkpt>
      <trkpt lat="43.58389" lon="3.39195">
        <ele>282.6</ele>
        <time>2023-10-12T14:36:13Z</time>
      </trkpt>
      <trkpt lat="43.58381" lon="3.39207">
        <ele>283.4</ele>
        <time>2023-10-12T14:36:16Z</time>
      </trkpt>
      <trkpt lat="43.58373" lon="3.39219">
        <ele>284.2</ele>
        <time>2023-10-12T14:36:19Z</time>
      </trkpt>
      <trkpt lat="43.58363" lon="3.39227">
        <ele>285</ele>
        <time>2023-10-12T14:36:22Z</time>
      </trkpt>
      <trkpt lat="43.58356" lon="3.39236">
        <ele>285.6</ele>
        <time>2023-10-12T14:36:26Z</time>
      </trkpt>
      <trkpt lat="43.58348" lon="3.39245">
        <ele>286.4</ele>
        <time>2023-10-12T14:36:30Z</time>
      </trkpt>
      <trkpt lat="43.58339" lon="3.39252">
        <ele>287</ele>
        <time>2023-10-12T14:36:34Z</time>
      </trkpt>
      <trkpt lat="43.58331" lon="3.39261">
        <ele>287.8</ele>
        <time>2023-10-12T14:36:38Z</time>
      </trkpt>
      <trkpt lat="43.58324" lon="3.3927">
        <ele>288.4</ele>
        <time>2023-10-12T14:36:42Z</time>
      </trkpt>
      <trkpt lat="43.58317" lon="3.3928">
        <ele>289</ele>
        <time>2023-10-12T14:36:46Z</time>
      </trkpt>
      <trkpt lat="43.58311" lon="3.39292">
        <ele>289.6</ele>
        <time>2023-10-12T14:36:50Z</time>
      </trkpt>
      <trkpt lat="43.58306" lon="3.39304">
        <ele>290.4</ele>
        <time>2023-10-12T14:36:54Z</time>
      </trkpt>
      <trkpt lat="43.58302" lon="3.39317">
        <ele>291</ele>
        <time>2023-10-12T14:36:58Z</time>
      </trkpt>
      <trkpt lat="43.58299" lon="3.39332">
        <ele>291.8</ele>
        <time>2023-10-12T14:37:02Z</time>
      </trkpt>
      <trkpt lat="43.58294" lon="3.39345">
        <ele>292.4</ele>
        <time>2023-10-12T14:37:06Z</time>
      </trkpt>
      <trkpt lat="43.58289" lon="3.39358">
        <ele>293.2</ele>
        <time>2023-10-12T14:37:10Z</time>
      </trkpt>
      <trkpt lat="43.58283" lon="3.39368">
        <ele>293.8</ele>
        <time>2023-10-12T14:37:15Z</time>
      </trkpt>
      <trkpt lat="43.58271" lon="3.39377">
        <ele>294.6</ele>
        <time>2023-10-12T14:39:21Z</time>
      </trkpt>
      <trkpt lat="43.58264" lon="3.39384">
        <ele>295.2</ele>
        <time>2023-10-12T14:39:28Z</time>
      </trkpt>
      <trkpt lat="43.58254" lon="3.39391">
        <ele>296</ele>
        <time>2023-10-12T14:39:33Z</time>
      </trkpt>
      <trkpt lat="43.58244" lon="3.39394">
        <ele>296.6</ele>
        <time>2023-10-12T14:39:36Z</time>
      </trkpt>
      <trkpt lat="43.58237" lon="3.39385">
        <ele>296.6</ele>
        <time>2023-10-12T14:39:40Z</time>
      </trkpt>
      <trkpt lat="43.5824" lon="3.39371">
        <ele>296.6</ele>
        <time>2023-10-12T14:39:43Z</time>
      </trkpt>
      <trkpt lat="43.58243" lon="3.39355">
        <ele>296.8</ele>
        <time>2023-10-12T14:39:46Z</time>
      </trkpt>
      <trkpt lat="43.58237" lon="3.39339">
        <ele>296.8</ele>
        <time>2023-10-12T14:39:49Z</time>
      </trkpt>
      <trkpt lat="43.58227" lon="3.39327">
        <ele>296.8</ele>
        <time>2023-10-12T14:39:52Z</time>
      </trkpt>
      <trkpt lat="43.58219" lon="3.3932">
        <ele>297</ele>
        <time>2023-10-12T14:39:54Z</time>
      </trkpt>
      <trkpt lat="43.58207" lon="3.39313">
        <ele>297</ele>
        <time>2023-10-12T14:39:57Z</time>
      </trkpt>
      <trkpt lat="43.58196" lon="3.39309">
        <ele>297</ele>
        <time>2023-10-12T14:40:00Z</time>
      </trkpt>
      <trkpt lat="43.58187" lon="3.39304">
        <ele>297.2</ele>
        <time>2023-10-12T14:40:03Z</time>
      </trkpt>
      <trkpt lat="43.58175" lon="3.39299">
        <ele>297.2</ele>
        <time>2023-10-12T14:40:06Z</time>
      </trkpt>
      <trkpt lat="43.58164" lon="3.39293">
        <ele>297.2</ele>
        <time>2023-10-12T14:40:09Z</time>
      </trkpt>
      <trkpt lat="43.58153" lon="3.39286">
        <ele>297.4</ele>
        <time>2023-10-12T14:40:12Z</time>
      </trkpt>
      <trkpt lat="43.58144" lon="3.3928">
        <ele>297.4</ele>
        <time>2023-10-12T14:40:15Z</time>
      </trkpt>
      <trkpt lat="43.58135" lon="3.39278">
        <ele>297.4</ele>
        <time>2023-10-12T14:40:18Z</time>
      </trkpt>
      <trkpt lat="43.58125" lon="3.3928">
        <ele>297.6</ele>
        <time>2023-10-12T14:40:22Z</time>
      </trkpt>
      <trkpt lat="43.58114" lon="3.39281">
        <ele>297.6</ele>
        <time>2023-10-12T14:40:26Z</time>
      </trkpt>
      <trkpt lat="43.58104" lon="3.3928">
        <ele>296.6</ele>
        <time>2023-10-12T14:40:29Z</time>
      </trkpt>
      <trkpt lat="43.58093" lon="3.39281">
        <ele>295.8</ele>
        <time>2023-10-12T14:40:33Z</time>
      </trkpt>
      <trkpt lat="43.58083" lon="3.39287">
        <ele>295</ele>
        <time>2023-10-12T14:40:36Z</time>
      </trkpt>
      <trkpt lat="43.58078" lon="3.39297">
        <ele>294.2</ele>
        <time>2023-10-12T14:40:38Z</time>
      </trkpt>
      <trkpt lat="43.5807" lon="3.3931">
        <ele>293.2</ele>
        <time>2023-10-12T14:40:41Z</time>
      </trkpt>
      <trkpt lat="43.58064" lon="3.39322">
        <ele>292.2</ele>
        <time>2023-10-12T14:40:44Z</time>
      </trkpt>
      <trkpt lat="43.58058" lon="3.39336">
        <ele>291.4</ele>
        <time>2023-10-12T14:40:47Z</time>
      </trkpt>
      <trkpt lat="43.58057" lon="3.39353">
        <ele>290.4</ele>
        <time>2023-10-12T14:40:50Z</time>
      </trkpt>
      <trkpt lat="43.58053" lon="3.39369">
        <ele>289.4</ele>
        <time>2023-10-12T14:40:53Z</time>
      </trkpt>
      <trkpt lat="43.58046" lon="3.39379">
        <ele>288.6</ele>
        <time>2023-10-12T14:40:55Z</time>
      </trkpt>
      <trkpt lat="43.58035" lon="3.39383">
        <ele>287.6</ele>
        <time>2023-10-12T14:40:57Z</time>
      </trkpt>
      <trkpt lat="43.58021" lon="3.39386">
        <ele>286.4</ele>
        <time>2023-10-12T14:40:59Z</time>
      </trkpt>
      <trkpt lat="43.58008" lon="3.39383">
        <ele>285.4</ele>
        <time>2023-10-12T14:41:01Z</time>
      </trkpt>
      <trkpt lat="43.57998" lon="3.3937">
        <ele>284.2</ele>
        <time>2023-10-12T14:41:03Z</time>
      </trkpt>
      <trkpt lat="43.57994" lon="3.3935">
        <ele>283</ele>
        <time>2023-10-12T14:41:05Z</time>
      </trkpt>
      <trkpt lat="43.57996" lon="3.39325">
        <ele>283.6</ele>
        <time>2023-10-12T14:41:07Z</time>
      </trkpt>
      <trkpt lat="43.57995" lon="3.39303">
        <ele>284.4</ele>
        <time>2023-10-12T14:41:09Z</time>
      </trkpt>
      <trkpt lat="43.57987" lon="3.39285">
        <ele>285</ele>
        <time>2023-10-12T14:41:11Z</time>
      </trkpt>
      <trkpt lat="43.57979" lon="3.39277">
        <ele>285.4</ele>
        <time>2023-10-12T14:41:12Z</time>
      </trkpt>
      <trkpt lat="43.57967" lon="3.39262">
        <ele>286.2</ele>
        <time>2023-10-12T14:41:14Z</time>
      </trkpt>
      <trkpt lat="43.57958" lon="3.39261">
        <ele>286.6</ele>
        <time>2023-10-12T14:41:16Z</time>
      </trkpt>
      <trkpt lat="43.57945" lon="3.39264">
        <ele>287</ele>
        <time>2023-10-12T14:41:19Z</time>
      </trkpt>
      <trkpt lat="43.57935" lon="3.39261">
        <ele>287.6</ele>
        <time>2023-10-12T14:41:21Z</time>
      </trkpt>
      <trkpt lat="43.5793" lon="3.39247">
        <ele>288</ele>
        <time>2023-10-12T14:41:24Z</time>
      </trkpt>
      <trkpt lat="43.57936" lon="3.39236">
        <ele>288.4</ele>
        <time>2023-10-12T14:41:27Z</time>
      </trkpt>
      <trkpt lat="43.57946" lon="3.3923">
        <ele>289</ele>
        <time>2023-10-12T14:41:30Z</time>
      </trkpt>
      <trkpt lat="43.57955" lon="3.39221">
        <ele>289.4</ele>
        <time>2023-10-12T14:41:34Z</time>
      </trkpt>
      <trkpt lat="43.57953" lon="3.39206">
        <ele>289.8</ele>
        <time>2023-10-12T14:41:37Z</time>
      </trkpt>
      <trkpt lat="43.57943" lon="3.392">
        <ele>290.4</ele>
        <time>2023-10-12T14:41:40Z</time>
      </trkpt>
      <trkpt lat="43.57931" lon="3.39193">
        <ele>291.4</ele>
        <time>2023-10-12T14:41:43Z</time>
      </trkpt>
      <trkpt lat="43.57922" lon="3.39182">
        <ele>293</ele>
        <time>2023-10-12T14:41:46Z</time>
      </trkpt>
      <trkpt lat="43.57917" lon="3.3917">
        <ele>294.4</ele>
        <time>2023-10-12T14:41:49Z</time>
      </trkpt>
      <trkpt lat="43.57921" lon="3.39156">
        <ele>295.8</ele>
        <time>2023-10-12T14:41:52Z</time>
      </trkpt>
      <trkpt lat="43.57925" lon="3.39144">
        <ele>297</ele>
        <time>2023-10-12T14:41:55Z</time>
      </trkpt>
      <trkpt lat="43.57932" lon="3.39132">
        <ele>298.6</ele>
        <time>2023-10-12T14:41:58Z</time>
      </trkpt>
      <trkpt lat="43.57938" lon="3.39118">
        <ele>300</ele>
        <time>2023-10-12T14:42:02Z</time>
      </trkpt>
      <trkpt lat="43.5794" lon="3.39104">
        <ele>301.4</ele>
        <time>2023-10-12T14:42:06Z</time>
      </trkpt>
      <trkpt lat="43.57944" lon="3.39087">
        <ele>303.2</ele>
        <time>2023-10-12T14:42:10Z</time>
      </trkpt>
      <trkpt lat="43.57951" lon="3.39076">
        <ele>304.6</ele>
        <time>2023-10-12T14:42:13Z</time>
      </trkpt>
      <trkpt lat="43.57956" lon="3.39061">
        <ele>306.2</ele>
        <time>2023-10-12T14:42:17Z</time>
      </trkpt>
      <trkpt lat="43.57955" lon="3.39046">
        <ele>307.6</ele>
        <time>2023-10-12T14:42:21Z</time>
      </trkpt>
      <trkpt lat="43.57958" lon="3.39034">
        <ele>308.8</ele>
        <time>2023-10-12T14:42:24Z</time>
      </trkpt>
      <trkpt lat="43.57963" lon="3.39022">
        <ele>310.2</ele>
        <time>2023-10-12T14:42:27Z</time>
      </trkpt>
      <trkpt lat="43.57969" lon="3.39008">
        <ele>311.8</ele>
        <time>2023-10-12T14:42:30Z</time>
      </trkpt>
      <trkpt lat="43.57974" lon="3.38994">
        <ele>313.4</ele>
        <time>2023-10-12T14:42:33Z</time>
      </trkpt>
      <trkpt lat="43.57978" lon="3.38982">
        <ele>314.6</ele>
        <time>2023-10-12T14:42:36Z</time>
      </trkpt>
      <trkpt lat="43.57981" lon="3.38968">
        <ele>315.8</ele>
        <time>2023-10-12T14:42:41Z</time>
      </trkpt>
      <trkpt lat="43.57986" lon="3.38955">
        <ele>316.8</ele>
        <time>2023-10-12T14:42:46Z</time>
      </trkpt>
      <trkpt lat="43.58001" lon="3.38969">
        <ele>319</ele>
        <time>2023-10-12T14:43:20Z</time>
      </trkpt>
      <trkpt lat="43.58012" lon="3.38967">
        <ele>320</ele>
        <time>2023-10-12T14:43:23Z</time>
      </trkpt>
      <trkpt lat="43.5802" lon="3.3896">
        <ele>321.2</ele>
        <time>2023-10-12T14:43:26Z</time>
      </trkpt>
      <trkpt lat="43.58028" lon="3.38952">
        <ele>322.2</ele>
        <time>2023-10-12T14:43:29Z</time>
      </trkpt>
      <trkpt lat="43.58036" lon="3.38945">
        <ele>323.2</ele>
        <time>2023-10-12T14:43:32Z</time>
      </trkpt>
      <trkpt lat="43.58044" lon="3.38939">
        <ele>324.2</ele>
        <time>2023-10-12T14:43:35Z</time>
      </trkpt>
      <trkpt lat="43.58055" lon="3.38934">
        <ele>325.6</ele>
        <time>2023-10-12T14:43:39Z</time>
      </trkpt>
      <trkpt lat="43.58066" lon="3.38933">
        <ele>326.8</ele>
        <time>2023-10-12T14:43:43Z</time>
      </trkpt>
      <trkpt lat="43.58076" lon="3.38934">
        <ele>327.8</ele>
        <time>2023-10-12T14:43:46Z</time>
      </trkpt>
      <trkpt lat="43.58085" lon="3.38933">
        <ele>328.8</ele>
        <time>2023-10-12T14:43:49Z</time>
      </trkpt>
      <trkpt lat="43.58096" lon="3.38929">
        <ele>330</ele>
        <time>2023-10-12T14:43:53Z</time>
      </trkpt>
      <trkpt lat="43.58105" lon="3.3892">
        <ele>331.2</ele>
        <time>2023-10-12T14:43:57Z</time>
      </trkpt>
      <trkpt lat="43.58115" lon="3.38913">
        <ele>332.4</ele>
        <time>2023-10-12T14:44:01Z</time>
      </trkpt>
      <trkpt lat="43.58126" lon="3.3891">
        <ele>333.6</ele>
        <time>2023-10-12T14:44:04Z</time>
      </trkpt>
      <trkpt lat="43.58135" lon="3.38913">
        <ele>334.6</ele>
        <time>2023-10-12T14:44:06Z</time>
      </trkpt>
      <trkpt lat="43.58143" lon="3.3892">
        <ele>335.4</ele>
        <time>2023-10-12T14:44:08Z</time>
      </trkpt>
      <trkpt lat="43.58154" lon="3.38928">
        <ele>336.4</ele>
        <time>2023-10-12T14:44:11Z</time>
      </trkpt>
      <trkpt lat="43.58163" lon="3.38931">
        <ele>337</ele>
        <time>2023-10-12T14:44:13Z</time>
      </trkpt>
      <trkpt lat="43.58173" lon="3.3893">
        <ele>337.8</ele>
        <time>2023-10-12T14:44:15Z</time>
      </trkpt>
      <trkpt lat="43.58182" lon="3.38926">
        <ele>338.6</ele>
        <time>2023-10-12T14:44:17Z</time>
      </trkpt>
      <trkpt lat="43.5819" lon="3.38916">
        <ele>339.4</ele>
        <time>2023-10-12T14:44:19Z</time>
      </trkpt>
      <trkpt lat="43.58196" lon="3.38904">
        <ele>340.2</ele>
        <time>2023-10-12T14:44:21Z</time>
      </trkpt>
      <trkpt lat="43.58202" lon="3.38892">
        <ele>341</ele>
        <time>2023-10-12T14:44:23Z</time>
      </trkpt>
      <trkpt lat="43.58208" lon="3.38879">
        <ele>341.8</ele>
        <time>2023-10-12T14:44:25Z</time>
      </trkpt>
      <trkpt lat="43.58213" lon="3.38865">
        <ele>342.6</ele>
        <time>2023-10-12T14:44:27Z</time>
      </trkpt>
      <trkpt lat="43.58216" lon="3.38851">
        <ele>343.4</ele>
        <time>2023-10-12T14:44:29Z</time>
      </trkpt>
      <trkpt lat="43.58221" lon="3.38835">
        <ele>344.4</ele>
        <time>2023-10-12T14:44:32Z</time>
      </trkpt>
      <trkpt lat="43.58226" lon="3.38821">
        <ele>345.4</ele>
        <time>2023-10-12T14:44:35Z</time>
      </trkpt>
      <trkpt lat="43.5823" lon="3.38808">
        <ele>346.2</ele>
        <time>2023-10-12T14:44:38Z</time>
      </trkpt>
      <trkpt lat="43.58234" lon="3.38795">
        <ele>346.8</ele>
        <time>2023-10-12T14:44:41Z</time>
      </trkpt>
      <trkpt lat="43.58238" lon="3.38783">
        <ele>347.6</ele>
        <time>2023-10-12T14:44:44Z</time>
      </trkpt>
      <trkpt lat="43.58242" lon="3.3877">
        <ele>348.2</ele>
        <time>2023-10-12T14:44:47Z</time>
      </trkpt>
      <trkpt lat="43.58246" lon="3.38755">
        <ele>348.6</ele>
        <time>2023-10-12T14:44:50Z</time>
      </trkpt>
      <trkpt lat="43.58248" lon="3.3874">
        <ele>348.8</ele>
        <time>2023-10-12T14:44:53Z</time>
      </trkpt>
      <trkpt lat="43.58248" lon="3.38724">
        <ele>349</ele>
        <time>2023-10-12T14:44:56Z</time>
      </trkpt>
      <trkpt lat="43.58244" lon="3.3871">
        <ele>349.4</ele>
        <time>2023-10-12T14:44:59Z</time>
      </trkpt>
      <trkpt lat="43.58239" lon="3.38698">
        <ele>349.6</ele>
        <time>2023-10-12T14:45:02Z</time>
      </trkpt>
      <trkpt lat="43.58232" lon="3.38686">
        <ele>349.8</ele>
        <time>2023-10-12T14:45:06Z</time>
      </trkpt>
      <trkpt lat="43.58224" lon="3.38674">
        <ele>350</ele>
        <time>2023-10-12T14:45:09Z</time>
      </trkpt>
      <trkpt lat="43.58216" lon="3.38667">
        <ele>350.2</ele>
        <time>2023-10-12T14:45:11Z</time>
      </trkpt>
      <trkpt lat="43.58207" lon="3.38661">
        <ele>350.4</ele>
        <time>2023-10-12T14:45:13Z</time>
      </trkpt>
      <trkpt lat="43.58199" lon="3.38656">
        <ele>350.6</ele>
        <time>2023-10-12T14:45:15Z</time>
      </trkpt>
      <trkpt lat="43.58188" lon="3.3865">
        <ele>351</ele>
        <time>2023-10-12T14:45:18Z</time>
      </trkpt>
      <trkpt lat="43.58177" lon="3.38645">
        <ele>351.2</ele>
        <time>2023-10-12T14:45:21Z</time>
      </trkpt>
      <trkpt lat="43.58165" lon="3.38639">
        <ele>351.4</ele>
        <time>2023-10-12T14:45:24Z</time>
      </trkpt>
      <trkpt lat="43.58156" lon="3.38632">
        <ele>351.8</ele>
        <time>2023-10-12T14:45:26Z</time>
      </trkpt>
      <trkpt lat="43.58148" lon="3.38621">
        <ele>352</ele>
        <time>2023-10-12T14:45:28Z</time>
      </trkpt>
      <trkpt lat="43.58143" lon="3.38607">
        <ele>352.2</ele>
        <time>2023-10-12T14:45:30Z</time>
      </trkpt>
      <trkpt lat="43.58138" lon="3.38591">
        <ele>352.6</ele>
        <time>2023-10-12T14:45:32Z</time>
      </trkpt>
      <trkpt lat="43.58135" lon="3.38574">
        <ele>353</ele>
        <time>2023-10-12T14:45:34Z</time>
      </trkpt>
      <trkpt lat="43.58131" lon="3.38558">
        <ele>353.4</ele>
        <time>2023-10-12T14:45:36Z</time>
      </trkpt>
      <trkpt lat="43.58128" lon="3.38541">
        <ele>353.6</ele>
        <time>2023-10-12T14:45:38Z</time>
      </trkpt>
      <trkpt lat="43.58125" lon="3.38525">
        <ele>354</ele>
        <time>2023-10-12T14:45:40Z</time>
      </trkpt>
      <trkpt lat="43.58121" lon="3.3851">
        <ele>354.4</ele>
        <time>2023-10-12T14:45:42Z</time>
      </trkpt>
      <trkpt lat="43.58116" lon="3.38497">
        <ele>354.8</ele>
        <time>2023-10-12T14:45:44Z</time>
      </trkpt>
      <trkpt lat="43.58112" lon="3.38484">
        <ele>355</ele>
        <time>2023-10-12T14:45:46Z</time>
      </trkpt>
      <trkpt lat="43.58108" lon="3.38473">
        <ele>355.2</ele>
        <time>2023-10-12T14:45:48Z</time>
      </trkpt>
      <trkpt lat="43.58104" lon="3.38461">
        <ele>355.6</ele>
        <time>2023-10-12T14:45:50Z</time>
      </trkpt>
      <trkpt lat="43.581" lon="3.38449">
        <ele>355.8</ele>
        <time>2023-10-12T14:45:52Z</time>
      </trkpt>
      <trkpt lat="43.58094" lon="3.38436">
        <ele>356.2</ele>
        <time>2023-10-12T14:45:54Z</time>
      </trkpt>
      <trkpt lat="43.58088" lon="3.38423">
        <ele>356.6</ele>
        <time>2023-10-12T14:45:56Z</time>
      </trkpt>
      <trkpt lat="43.5808" lon="3.38411">
        <ele>356.8</ele>
        <time>2023-10-12T14:45:58Z</time>
      </trkpt>
      <trkpt lat="43.58072" lon="3.38401">
        <ele>357.2</ele>
        <time>2023-10-12T14:46:00Z</time>
      </trkpt>
      <trkpt lat="43.58065" lon="3.38388">
        <ele>357.6</ele>
        <time>2023-10-12T14:46:03Z</time>
      </trkpt>
      <trkpt lat="43.5806" lon="3.38377">
        <ele>357</ele>
        <time>2023-10-12T14:46:06Z</time>
      </trkpt>
      <trkpt lat="43.58054" lon="3.38367">
        <ele>355.8</ele>
        <time>2023-10-12T14:46:10Z</time>
      </trkpt>
      <trkpt lat="43.58048" lon="3.38355">
        <ele>354.6</ele>
        <time>2023-10-12T14:46:13Z</time>
      </trkpt>
      <trkpt lat="43.58041" lon="3.38343">
        <ele>353.2</ele>
        <time>2023-10-12T14:46:16Z</time>
      </trkpt>
      <trkpt lat="43.58033" lon="3.38332">
        <ele>351.8</ele>
        <time>2023-10-12T14:46:19Z</time>
      </trkpt>
      <trkpt lat="43.58026" lon="3.38319">
        <ele>350.4</ele>
        <time>2023-10-12T14:46:22Z</time>
      </trkpt>
      <trkpt lat="43.58017" lon="3.38305">
        <ele>348.8</ele>
        <time>2023-10-12T14:46:25Z</time>
      </trkpt>
      <trkpt lat="43.58008" lon="3.38292">
        <ele>347.4</ele>
        <time>2023-10-12T14:46:28Z</time>
      </trkpt>
      <trkpt lat="43.58001" lon="3.38281">
        <ele>346</ele>
        <time>2023-10-12T14:46:31Z</time>
      </trkpt>
      <trkpt lat="43.57996" lon="3.3827">
        <ele>345</ele>
        <time>2023-10-12T14:46:34Z</time>
      </trkpt>
      <trkpt lat="43.57994" lon="3.38253">
        <ele>343.6</ele>
        <time>2023-10-12T14:46:37Z</time>
      </trkpt>
      <trkpt lat="43.57992" lon="3.3824">
        <ele>342.4</ele>
        <time>2023-10-12T14:46:40Z</time>
      </trkpt>
      <trkpt lat="43.57987" lon="3.38229">
        <ele>341.2</ele>
        <time>2023-10-12T14:46:42Z</time>
      </trkpt>
      <trkpt lat="43.57984" lon="3.38217">
        <ele>340.2</ele>
        <time>2023-10-12T14:46:44Z</time>
      </trkpt>
      <trkpt lat="43.57979" lon="3.38207">
        <ele>339.2</ele>
        <time>2023-10-12T14:46:47Z</time>
      </trkpt>
      <trkpt lat="43.57969" lon="3.38205">
        <ele>338</ele>
        <time>2023-10-12T14:46:51Z</time>
      </trkpt>
      <trkpt lat="43.57959" lon="3.38205">
        <ele>336.8</ele>
        <time>2023-10-12T14:46:56Z</time>
      </trkpt>
      <trkpt lat="43.57948" lon="3.38198">
        <ele>335.8</ele>
        <time>2023-10-12T14:46:59Z</time>
      </trkpt>
      <trkpt lat="43.57936" lon="3.38199">
        <ele>334.8</ele>
        <time>2023-10-12T14:47:02Z</time>
      </trkpt>
      <trkpt lat="43.57928" lon="3.38193">
        <ele>334.2</ele>
        <time>2023-10-12T14:47:04Z</time>
      </trkpt>
      <trkpt lat="43.5792" lon="3.38188">
        <ele>333.6</ele>
        <time>2023-10-12T14:47:06Z</time>
      </trkpt>
      <trkpt lat="43.57911" lon="3.38183">
        <ele>332.8</ele>
        <time>2023-10-12T14:47:08Z</time>
      </trkpt>
      <trkpt lat="43.57902" lon="3.38176">
        <ele>332.2</ele>
        <time>2023-10-12T14:47:10Z</time>
      </trkpt>
      <trkpt lat="43.57896" lon="3.38165">
        <ele>331.4</ele>
        <time>2023-10-12T14:47:12Z</time>
      </trkpt>
      <trkpt lat="43.57891" lon="3.38151">
        <ele>330.6</ele>
        <time>2023-10-12T14:47:14Z</time>
      </trkpt>
      <trkpt lat="43.57886" lon="3.38136">
        <ele>329.8</ele>
        <time>2023-10-12T14:47:16Z</time>
      </trkpt>
      <trkpt lat="43.57882" lon="3.38121">
        <ele>328.8</ele>
        <time>2023-10-12T14:47:18Z</time>
      </trkpt>
      <trkpt lat="43.57877" lon="3.38105">
        <ele>328</ele>
        <time>2023-10-12T14:47:20Z</time>
      </trkpt>
      <trkpt lat="43.57873" lon="3.38087">
        <ele>327</ele>
        <time>2023-10-12T14:47:22Z</time>
      </trkpt>
      <trkpt lat="43.57869" lon="3.38066">
        <ele>325.8</ele>
        <time>2023-10-12T14:47:24Z</time>
      </trkpt>
      <trkpt lat="43.57865" lon="3.38046">
        <ele>324.8</ele>
        <time>2023-10-12T14:47:26Z</time>
      </trkpt>
      <trkpt lat="43.5786" lon="3.38029">
        <ele>323.8</ele>
        <time>2023-10-12T14:47:28Z</time>
      </trkpt>
      <trkpt lat="43.5785" lon="3.38016">
        <ele>323</ele>
        <time>2023-10-12T14:47:30Z</time>
      </trkpt>
      <trkpt lat="43.57835" lon="3.38016">
        <ele>322.4</ele>
        <time>2023-10-12T14:47:32Z</time>
      </trkpt>
      <trkpt lat="43.5782" lon="3.3802">
        <ele>321.6</ele>
        <time>2023-10-12T14:47:34Z</time>
      </trkpt>
      <trkpt lat="43.57803" lon="3.38027">
        <ele>320.8</ele>
        <time>2023-10-12T14:47:36Z</time>
      </trkpt>
      <trkpt lat="43.57794" lon="3.38031">
        <ele>320.2</ele>
        <time>2023-10-12T14:47:37Z</time>
      </trkpt>
      <trkpt lat="43.57784" lon="3.38035">
        <ele>319.8</ele>
        <time>2023-10-12T14:47:38Z</time>
      </trkpt>
      <trkpt lat="43.57775" lon="3.38039">
        <ele>319.4</ele>
        <time>2023-10-12T14:47:39Z</time>
      </trkpt>
      <trkpt lat="43.57765" lon="3.38042">
        <ele>318.8</ele>
        <time>2023-10-12T14:47:40Z</time>
      </trkpt>
      <trkpt lat="43.57755" lon="3.38044">
        <ele>318.4</ele>
        <time>2023-10-12T14:47:41Z</time>
      </trkpt>
      <trkpt lat="43.57745" lon="3.38044">
        <ele>318</ele>
        <time>2023-10-12T14:47:42Z</time>
      </trkpt>
      <trkpt lat="43.57736" lon="3.38042">
        <ele>317.4</ele>
        <time>2023-10-12T14:47:43Z</time>
      </trkpt>
      <trkpt lat="43.57727" lon="3.38037">
        <ele>317</ele>
        <time>2023-10-12T14:47:44Z</time>
      </trkpt>
      <trkpt lat="43.57719" lon="3.38032">
        <ele>316.6</ele>
        <time>2023-10-12T14:47:45Z</time>
      </trkpt>
      <trkpt lat="43.57705" lon="3.38017">
        <ele>315.8</ele>
        <time>2023-10-12T14:47:47Z</time>
      </trkpt>
      <trkpt lat="43.57693" lon="3.38004">
        <ele>315</ele>
        <time>2023-10-12T14:47:49Z</time>
      </trkpt>
      <trkpt lat="43.57682" lon="3.37995">
        <ele>315</ele>
        <time>2023-10-12T14:47:51Z</time>
      </trkpt>
      <trkpt lat="43.57671" lon="3.37988">
        <ele>315.2</ele>
        <time>2023-10-12T14:47:53Z</time>
      </trkpt>
      <trkpt lat="43.5766" lon="3.37983">
        <ele>315.6</ele>
        <time>2023-10-12T14:47:55Z</time>
      </trkpt>
      <trkpt lat="43.57649" lon="3.37978">
        <ele>315.8</ele>
        <time>2023-10-12T14:47:57Z</time>
      </trkpt>
      <trkpt lat="43.57639" lon="3.37971">
        <ele>316</ele>
        <time>2023-10-12T14:47:59Z</time>
      </trkpt>
      <trkpt lat="43.57631" lon="3.37965">
        <ele>316.2</ele>
        <time>2023-10-12T14:48:01Z</time>
      </trkpt>
      <trkpt lat="43.57619" lon="3.37959">
        <ele>316.4</ele>
        <time>2023-10-12T14:48:04Z</time>
      </trkpt>
      <trkpt lat="43.57609" lon="3.37956">
        <ele>316.8</ele>
        <time>2023-10-12T14:48:06Z</time>
      </trkpt>
      <trkpt lat="43.576" lon="3.37952">
        <ele>317</ele>
        <time>2023-10-12T14:48:08Z</time>
      </trkpt>
      <trkpt lat="43.57589" lon="3.37946">
        <ele>317.2</ele>
        <time>2023-10-12T14:48:11Z</time>
      </trkpt>
      <trkpt lat="43.57578" lon="3.37939">
        <ele>317.4</ele>
        <time>2023-10-12T14:48:14Z</time>
      </trkpt>
      <trkpt lat="43.57566" lon="3.37933">
        <ele>317.8</ele>
        <time>2023-10-12T14:48:17Z</time>
      </trkpt>
      <trkpt lat="43.57554" lon="3.37927">
        <ele>318</ele>
        <time>2023-10-12T14:48:20Z</time>
      </trkpt>
      <trkpt lat="43.57542" lon="3.37922">
        <ele>318.2</ele>
        <time>2023-10-12T14:48:23Z</time>
      </trkpt>
      <trkpt lat="43.5753" lon="3.37919">
        <ele>318.6</ele>
        <time>2023-10-12T14:48:26Z</time>
      </trkpt>
      <trkpt lat="43.5752" lon="3.37915">
        <ele>318.6</ele>
        <time>2023-10-12T14:48:28Z</time>
      </trkpt>
      <trkpt lat="43.57509" lon="3.37907">
        <ele>318</ele>
        <time>2023-10-12T14:48:30Z</time>
      </trkpt>
      <trkpt lat="43.575" lon="3.37896">
        <ele>317.2</ele>
        <time>2023-10-12T14:48:32Z</time>
      </trkpt>
      <trkpt lat="43.57491" lon="3.37883">
        <ele>316.2</ele>
        <time>2023-10-12T14:48:34Z</time>
      </trkpt>
      <trkpt lat="43.57483" lon="3.37871">
        <ele>315.6</ele>
        <time>2023-10-12T14:48:36Z</time>
      </trkpt>
      <trkpt lat="43.57475" lon="3.3786">
        <ele>314.8</ele>
        <time>2023-10-12T14:48:38Z</time>
      </trkpt>
      <trkpt lat="43.57465" lon="3.37854">
        <ele>314</ele>
        <time>2023-10-12T14:48:41Z</time>
      </trkpt>
      <trkpt lat="43.57455" lon="3.37854">
        <ele>313.4</ele>
        <time>2023-10-12T14:48:44Z</time>
      </trkpt>
      <trkpt lat="43.57441" lon="3.37857">
        <ele>312.6</ele>
        <time>2023-10-12T14:48:47Z</time>
      </trkpt>
      <trkpt lat="43.57429" lon="3.37858">
        <ele>311.8</ele>
        <time>2023-10-12T14:48:49Z</time>
      </trkpt>
      <trkpt lat="43.57416" lon="3.37855">
        <ele>311</ele>
        <time>2023-10-12T14:48:51Z</time>
      </trkpt>
      <trkpt lat="43.57405" lon="3.3785">
        <ele>310.2</ele>
        <time>2023-10-12T14:48:53Z</time>
      </trkpt>
      <trkpt lat="43.57396" lon="3.37844">
        <ele>309.6</ele>
        <time>2023-10-12T14:48:55Z</time>
      </trkpt>
      <trkpt lat="43.57393" lon="3.3783">
        <ele>308.8</ele>
        <time>2023-10-12T14:48:59Z</time>
      </trkpt>
      <trkpt lat="43.57402" lon="3.37821">
        <ele>308.2</ele>
        <time>2023-10-12T14:49:02Z</time>
      </trkpt>
      <trkpt lat="43.57412" lon="3.37814">
        <ele>307.4</ele>
        <time>2023-10-12T14:49:05Z</time>
      </trkpt>
      <trkpt lat="43.57422" lon="3.37806">
        <ele>306.4</ele>
        <time>2023-10-12T14:49:08Z</time>
      </trkpt>
      <trkpt lat="43.57431" lon="3.37794">
        <ele>304.6</ele>
        <time>2023-10-12T14:49:11Z</time>
      </trkpt>
      <trkpt lat="43.57434" lon="3.37782">
        <ele>303.6</ele>
        <time>2023-10-12T14:49:13Z</time>
      </trkpt>
      <trkpt lat="43.57433" lon="3.37769">
        <ele>302.4</ele>
        <time>2023-10-12T14:49:15Z</time>
      </trkpt>
      <trkpt lat="43.57433" lon="3.37756">
        <ele>301.2</ele>
        <time>2023-10-12T14:49:17Z</time>
      </trkpt>
      <trkpt lat="43.57431" lon="3.37738">
        <ele>299.6</ele>
        <time>2023-10-12T14:49:20Z</time>
      </trkpt>
      <trkpt lat="43.57428" lon="3.37721">
        <ele>298</ele>
        <time>2023-10-12T14:49:23Z</time>
      </trkpt>
      <trkpt lat="43.57424" lon="3.37708">
        <ele>296.8</ele>
        <time>2023-10-12T14:49:25Z</time>
      </trkpt>
      <trkpt lat="43.57422" lon="3.37693">
        <ele>295.4</ele>
        <time>2023-10-12T14:49:27Z</time>
      </trkpt>
      <trkpt lat="43.57422" lon="3.37676">
        <ele>293.8</ele>
        <time>2023-10-12T14:49:29Z</time>
      </trkpt>
      <trkpt lat="43.57426" lon="3.37657">
        <ele>292</ele>
        <time>2023-10-12T14:49:31Z</time>
      </trkpt>
      <trkpt lat="43.5743" lon="3.37641">
        <ele>290.6</ele>
        <time>2023-10-12T14:49:33Z</time>
      </trkpt>
      <trkpt lat="43.57425" lon="3.37628">
        <ele>289.2</ele>
        <time>2023-10-12T14:49:35Z</time>
      </trkpt>
      <trkpt lat="43.57415" lon="3.37619">
        <ele>287.8</ele>
        <time>2023-10-12T14:49:37Z</time>
      </trkpt>
      <trkpt lat="43.57401" lon="3.37615">
        <ele>286</ele>
        <time>2023-10-12T14:49:39Z</time>
      </trkpt>
      <trkpt lat="43.57387" lon="3.37613">
        <ele>284</ele>
        <time>2023-10-12T14:49:41Z</time>
      </trkpt>
      <trkpt lat="43.57378" lon="3.37605">
        <ele>282.4</ele>
        <time>2023-10-12T14:49:43Z</time>
      </trkpt>
      <trkpt lat="43.57371" lon="3.37591">
        <ele>280.6</ele>
        <time>2023-10-12T14:49:45Z</time>
      </trkpt>
      <trkpt lat="43.5737" lon="3.37577">
        <ele>278.8</ele>
        <time>2023-10-12T14:49:47Z</time>
      </trkpt>
      <trkpt lat="43.57375" lon="3.3756">
        <ele>276.8</ele>
        <time>2023-10-12T14:49:49Z</time>
      </trkpt>
      <trkpt lat="43.57383" lon="3.37542">
        <ele>274.6</ele>
        <time>2023-10-12T14:49:51Z</time>
      </trkpt>
      <trkpt lat="43.5739" lon="3.3752">
        <ele>271.8</ele>
        <time>2023-10-12T14:49:53Z</time>
      </trkpt>
      <trkpt lat="43.57394" lon="3.37508">
        <ele>270.2</ele>
        <time>2023-10-12T14:49:54Z</time>
      </trkpt>
      <trkpt lat="43.57398" lon="3.37495">
        <ele>268.8</ele>
        <time>2023-10-12T14:49:55Z</time>
      </trkpt>
      <trkpt lat="43.57401" lon="3.37483">
        <ele>267.2</ele>
        <time>2023-10-12T14:49:56Z</time>
      </trkpt>
      <trkpt lat="43.57405" lon="3.37469">
        <ele>265.6</ele>
        <time>2023-10-12T14:49:57Z</time>
      </trkpt>
      <trkpt lat="43.57409" lon="3.37455">
        <ele>264</ele>
        <time>2023-10-12T14:49:58Z</time>
      </trkpt>
      <trkpt lat="43.57413" lon="3.37442">
        <ele>262.4</ele>
        <time>2023-10-12T14:49:59Z</time>
      </trkpt>
      <trkpt lat="43.57419" lon="3.37429">
        <ele>260.6</ele>
        <time>2023-10-12T14:50:00Z</time>
      </trkpt>
      <trkpt lat="43.57424" lon="3.37418">
        <ele>259.2</ele>
        <time>2023-10-12T14:50:01Z</time>
      </trkpt>
      <trkpt lat="43.57428" lon="3.37406">
        <ele>257.8</ele>
        <time>2023-10-12T14:50:02Z</time>
      </trkpt>
      <trkpt lat="43.57431" lon="3.37381">
        <ele>255.2</ele>
        <time>2023-10-12T14:50:04Z</time>
      </trkpt>
      <trkpt lat="43.5743" lon="3.37369">
        <ele>254</ele>
        <time>2023-10-12T14:50:05Z</time>
      </trkpt>
      <trkpt lat="43.57428" lon="3.37356">
        <ele>252.6</ele>
        <time>2023-10-12T14:50:06Z</time>
      </trkpt>
      <trkpt lat="43.57427" lon="3.37342">
        <ele>251.4</ele>
        <time>2023-10-12T14:50:07Z</time>
      </trkpt>
      <trkpt lat="43.57427" lon="3.37329">
        <ele>250</ele>
        <time>2023-10-12T14:50:08Z</time>
      </trkpt>
      <trkpt lat="43.57427" lon="3.37316">
        <ele>248.6</ele>
        <time>2023-10-12T14:50:09Z</time>
      </trkpt>
      <trkpt lat="43.57425" lon="3.3729">
        <ele>246.2</ele>
        <time>2023-10-12T14:50:11Z</time>
      </trkpt>
      <trkpt lat="43.57423" lon="3.37276">
        <ele>244.8</ele>
        <time>2023-10-12T14:50:12Z</time>
      </trkpt>
      <trkpt lat="43.57422" lon="3.37263">
        <ele>243.4</ele>
        <time>2023-10-12T14:50:13Z</time>
      </trkpt>
      <trkpt lat="43.5742" lon="3.3725">
        <ele>242</ele>
        <time>2023-10-12T14:50:14Z</time>
      </trkpt>
      <trkpt lat="43.57419" lon="3.37227">
        <ele>239.8</ele>
        <time>2023-10-12T14:50:16Z</time>
      </trkpt>
      <trkpt lat="43.57417" lon="3.37207">
        <ele>237.8</ele>
        <time>2023-10-12T14:50:18Z</time>
      </trkpt>
      <trkpt lat="43.57412" lon="3.37187">
        <ele>235.6</ele>
        <time>2023-10-12T14:50:20Z</time>
      </trkpt>
      <trkpt lat="43.57403" lon="3.3717">
        <ele>233.6</ele>
        <time>2023-10-12T14:50:22Z</time>
      </trkpt>
      <trkpt lat="43.57394" lon="3.37155">
        <ele>231.8</ele>
        <time>2023-10-12T14:50:24Z</time>
      </trkpt>
      <trkpt lat="43.57387" lon="3.37136">
        <ele>230.2</ele>
        <time>2023-10-12T14:50:26Z</time>
      </trkpt>
      <trkpt lat="43.57383" lon="3.37114">
        <ele>228.4</ele>
        <time>2023-10-12T14:50:28Z</time>
      </trkpt>
      <trkpt lat="43.57383" lon="3.3709">
        <ele>226.6</ele>
        <time>2023-10-12T14:50:30Z</time>
      </trkpt>
      <trkpt lat="43.57381" lon="3.37066">
        <ele>224.6</ele>
        <time>2023-10-12T14:50:32Z</time>
      </trkpt>
      <trkpt lat="43.57379" lon="3.37042">
        <ele>222.8</ele>
        <time>2023-10-12T14:50:34Z</time>
      </trkpt>
      <trkpt lat="43.57373" lon="3.37022">
        <ele>221</ele>
        <time>2023-10-12T14:50:36Z</time>
      </trkpt>
      <trkpt lat="43.57362" lon="3.37001">
        <ele>219</ele>
        <time>2023-10-12T14:50:38Z</time>
      </trkpt>
      <trkpt lat="43.57357" lon="3.36991">
        <ele>218.2</ele>
        <time>2023-10-12T14:50:39Z</time>
      </trkpt>
      <trkpt lat="43.57353" lon="3.3698">
        <ele>217.2</ele>
        <time>2023-10-12T14:50:40Z</time>
      </trkpt>
      <trkpt lat="43.57343" lon="3.3696">
        <ele>215.2</ele>
        <time>2023-10-12T14:50:42Z</time>
      </trkpt>
      <trkpt lat="43.5733" lon="3.36944">
        <ele>213.4</ele>
        <time>2023-10-12T14:50:44Z</time>
      </trkpt>
      <trkpt lat="43.57316" lon="3.3693">
        <ele>212.2</ele>
        <time>2023-10-12T14:50:46Z</time>
      </trkpt>
      <trkpt lat="43.57305" lon="3.36914">
        <ele>211</ele>
        <time>2023-10-12T14:50:48Z</time>
      </trkpt>
      <trkpt lat="43.57297" lon="3.36894">
        <ele>209.8</ele>
        <time>2023-10-12T14:50:50Z</time>
      </trkpt>
      <trkpt lat="43.57292" lon="3.36883">
        <ele>209.2</ele>
        <time>2023-10-12T14:50:51Z</time>
      </trkpt>
      <trkpt lat="43.57287" lon="3.36872">
        <ele>208.6</ele>
        <time>2023-10-12T14:50:52Z</time>
      </trkpt>
      <trkpt lat="43.57281" lon="3.36862">
        <ele>208</ele>
        <time>2023-10-12T14:50:53Z</time>
      </trkpt>
      <trkpt lat="43.57275" lon="3.36852">
        <ele>207.4</ele>
        <time>2023-10-12T14:50:54Z</time>
      </trkpt>
      <trkpt lat="43.57269" lon="3.36843">
        <ele>206.6</ele>
        <time>2023-10-12T14:50:55Z</time>
      </trkpt>
      <trkpt lat="43.57263" lon="3.36833">
        <ele>206</ele>
        <time>2023-10-12T14:50:56Z</time>
      </trkpt>
      <trkpt lat="43.57252" lon="3.36815">
        <ele>205</ele>
        <time>2023-10-12T14:50:58Z</time>
      </trkpt>
      <trkpt lat="43.57241" lon="3.36798">
        <ele>203.8</ele>
        <time>2023-10-12T14:51:00Z</time>
      </trkpt>
      <trkpt lat="43.57227" lon="3.36783">
        <ele>202.6</ele>
        <time>2023-10-12T14:51:02Z</time>
      </trkpt>
      <trkpt lat="43.57219" lon="3.36776">
        <ele>202</ele>
        <time>2023-10-12T14:51:03Z</time>
      </trkpt>
      <trkpt lat="43.57211" lon="3.3677">
        <ele>201.2</ele>
        <time>2023-10-12T14:51:04Z</time>
      </trkpt>
      <trkpt lat="43.5718" lon="3.36738">
        <ele>197.6</ele>
        <time>2023-10-12T14:51:08Z</time>
      </trkpt>
      <trkpt lat="43.57164" lon="3.36722">
        <ele>195.4</ele>
        <time>2023-10-12T14:51:10Z</time>
      </trkpt>
      <trkpt lat="43.57155" lon="3.36714">
        <ele>194.4</ele>
        <time>2023-10-12T14:51:11Z</time>
      </trkpt>
      <trkpt lat="43.57147" lon="3.36706">
        <ele>193.4</ele>
        <time>2023-10-12T14:51:12Z</time>
      </trkpt>
      <trkpt lat="43.5714" lon="3.36698">
        <ele>192.4</ele>
        <time>2023-10-12T14:51:13Z</time>
      </trkpt>
      <trkpt lat="43.57128" lon="3.36681">
        <ele>190.8</ele>
        <time>2023-10-12T14:51:15Z</time>
      </trkpt>
      <trkpt lat="43.57123" lon="3.36671">
        <ele>189.8</ele>
        <time>2023-10-12T14:51:16Z</time>
      </trkpt>
      <trkpt lat="43.57117" lon="3.36661">
        <ele>188.8</ele>
        <time>2023-10-12T14:51:17Z</time>
      </trkpt>
      <trkpt lat="43.57111" lon="3.3665">
        <ele>187.8</ele>
        <time>2023-10-12T14:51:18Z</time>
      </trkpt>
      <trkpt lat="43.57102" lon="3.3663">
        <ele>186</ele>
        <time>2023-10-12T14:51:20Z</time>
      </trkpt>
      <trkpt lat="43.57097" lon="3.36612">
        <ele>184.6</ele>
        <time>2023-10-12T14:51:22Z</time>
      </trkpt>
      <trkpt lat="43.57097" lon="3.36595">
        <ele>183.4</ele>
        <time>2023-10-12T14:51:24Z</time>
      </trkpt>
      <trkpt lat="43.57101" lon="3.36578">
        <ele>182.2</ele>
        <time>2023-10-12T14:51:26Z</time>
      </trkpt>
      <trkpt lat="43.57113" lon="3.3656">
        <ele>181.2</ele>
        <time>2023-10-12T14:51:28Z</time>
      </trkpt>
      <trkpt lat="43.57121" lon="3.36552">
        <ele>180.6</ele>
        <time>2023-10-12T14:51:29Z</time>
      </trkpt>
      <trkpt lat="43.57135" lon="3.36538">
        <ele>179.6</ele>
        <time>2023-10-12T14:51:31Z</time>
      </trkpt>
      <trkpt lat="43.57148" lon="3.36523">
        <ele>178.6</ele>
        <time>2023-10-12T14:51:33Z</time>
      </trkpt>
      <trkpt lat="43.5716" lon="3.36511">
        <ele>177.6</ele>
        <time>2023-10-12T14:51:35Z</time>
      </trkpt>
      <trkpt lat="43.57173" lon="3.365">
        <ele>176.8</ele>
        <time>2023-10-12T14:51:37Z</time>
      </trkpt>
      <trkpt lat="43.57185" lon="3.3649">
        <ele>176</ele>
        <time>2023-10-12T14:51:39Z</time>
      </trkpt>
      <trkpt lat="43.57198" lon="3.36482">
        <ele>175</ele>
        <time>2023-10-12T14:51:41Z</time>
      </trkpt>
      <trkpt lat="43.5721" lon="3.36474">
        <ele>174.4</ele>
        <time>2023-10-12T14:51:43Z</time>
      </trkpt>
      <trkpt lat="43.57223" lon="3.36468">
        <ele>173.6</ele>
        <time>2023-10-12T14:51:45Z</time>
      </trkpt>
      <trkpt lat="43.57235" lon="3.36464">
        <ele>172.8</ele>
        <time>2023-10-12T14:51:47Z</time>
      </trkpt>
      <trkpt lat="43.57248" lon="3.36461">
        <ele>172</ele>
        <time>2023-10-12T14:51:49Z</time>
      </trkpt>
      <trkpt lat="43.57261" lon="3.36459">
        <ele>171.6</ele>
        <time>2023-10-12T14:51:51Z</time>
      </trkpt>
      <trkpt lat="43.57274" lon="3.36457">
        <ele>171.4</ele>
        <time>2023-10-12T14:51:53Z</time>
      </trkpt>
      <trkpt lat="43.57286" lon="3.36455">
        <ele>171.2</ele>
        <time>2023-10-12T14:51:55Z</time>
      </trkpt>
      <trkpt lat="43.57299" lon="3.36452">
        <ele>171</ele>
        <time>2023-10-12T14:51:57Z</time>
      </trkpt>
      <trkpt lat="43.57311" lon="3.3645">
        <ele>170.8</ele>
        <time>2023-10-12T14:51:59Z</time>
      </trkpt>
      <trkpt lat="43.57324" lon="3.36447">
        <ele>170.6</ele>
        <time>2023-10-12T14:52:01Z</time>
      </trkpt>
      <trkpt lat="43.57336" lon="3.36445">
        <ele>170.4</ele>
        <time>2023-10-12T14:52:03Z</time>
      </trkpt>
      <trkpt lat="43.57348" lon="3.36442">
        <ele>170.2</ele>
        <time>2023-10-12T14:52:05Z</time>
      </trkpt>
      <trkpt lat="43.57359" lon="3.36436">
        <ele>170</ele>
        <time>2023-10-12T14:52:07Z</time>
      </trkpt>
      <trkpt lat="43.57366" lon="3.36422">
        <ele>169.8</ele>
        <time>2023-10-12T14:52:09Z</time>
      </trkpt>
      <trkpt lat="43.57368" lon="3.36406">
        <ele>169.6</ele>
        <time>2023-10-12T14:52:11Z</time>
      </trkpt>
      <trkpt lat="43.57368" lon="3.3639">
        <ele>101.3</ele>
        <time>2023-10-12T14:52:13Z</time>
      </trkpt>
      <trkpt lat="43.57366" lon="3.36377">
        <ele>102.4</ele>
        <time>2023-10-12T14:52:15Z</time>
      </trkpt>
      <trkpt lat="43.57361" lon="3.36367">
        <ele>103.4</ele>
        <time>2023-10-12T14:52:19Z</time>
      </trkpt>
      <trkpt lat="43.57354" lon="3.36365">
        <ele>103.8</ele>
      </trkpt>
      <trkpt lat="43.57343" lon="3.3636">
        <ele>169</ele>
        <time>2023-10-12T14:52:23Z</time>
      </trkpt>
      <trkpt lat="43.57333" lon="3.36357">
        <ele>169</ele>
        <time>2023-10-12T14:52:25Z</time>
      </trkpt>
      <trkpt lat="43.57323" lon="3.36355">
        <ele>169</ele>
        <time>2023-10-12T14:52:27Z</time>
      </trkpt>
      <trkpt lat="43.57313" lon="3.36353">
        <ele>169</ele>
        <time>2023-10-12T14:52:29Z</time>
      </trkpt>
      <trkpt lat="43.57304" lon="3.36351">
        <ele>169</ele>
        <time>2023-10-12T14:52:31Z</time>
      </trkpt>
      <trkpt lat="43.57291" lon="3.36348">
        <ele>169</ele>
        <time>2023-10-12T14:52:34Z</time>
      </trkpt>
      <trkpt lat="43.5728" lon="3.36347">
        <ele>169</ele>
        <time>2023-10-12T14:52:37Z</time>
      </trkpt>
      <trkpt lat="43.5727" lon="3.36348">
        <ele>169</ele>
        <time>2023-10-12T14:52:40Z</time>
      </trkpt>
      <trkpt lat="43.57256" lon="3.3635">
        <ele>104.5</ele>
        <time>2023-10-12T14:52:43Z</time>
      </trkpt>
    </trkseg>
  </trk>
</gpx>